<?xml version="1.0" encoding="UTF-8" standalone="no" ?>
<gpx xmlns="http://www.topografix.com/GPX/1/1" xmlns:xsi="http://www.w3.org/2001/XMLSchema-instance" xsi:schemaLocation="http://www.topografix.com/GPX/1/1 http://www.topografix.com/GPX/1/1/gpx.xsd" version="1.1" creator="VisuGPX - https://www.visugpx.com">
  <metadata>
    <name>Mercredi 16 septembre 26</name>
  </metadata>
  <trk>
    <name><![CDATA[Mercredi 16 septembre 26]]></name>
    <extensions>
      <line xmlns="http://www.topografix.com/GPX/gpx_style/0/2">
        <width>7</width>
      </line>
    </extensions>
    <trkseg>
      <trkpt lat="43.38328" lon="-1.65925">
        <ele>6</ele>
        <time>2026-08-23T13:02:08.000Z</time>
      </trkpt>
      <trkpt lat="43.38324" lon="-1.65923">
        <ele>6</ele>
        <time>2026-08-23T13:02:09.000Z</time>
      </trkpt>
      <trkpt lat="43.38314" lon="-1.6591">
        <ele>5</ele>
        <time>2026-08-23T13:02:11.000Z</time>
      </trkpt>
      <trkpt lat="43.38309" lon="-1.65902">
        <ele>5</ele>
        <time>2026-08-23T13:02:13.000Z</time>
      </trkpt>
      <trkpt lat="43.38306" lon="-1.65894">
        <ele>4</ele>
        <time>2026-08-23T13:02:14.000Z</time>
      </trkpt>
      <trkpt lat="43.38297" lon="-1.65898">
        <ele>4</ele>
        <time>2026-08-23T13:02:15.000Z</time>
      </trkpt>
      <trkpt lat="43.3829" lon="-1.65882">
        <ele>4</ele>
        <time>2026-08-23T13:02:18.000Z</time>
      </trkpt>
      <trkpt lat="43.38279" lon="-1.65858">
        <ele>3</ele>
        <time>2026-08-23T13:02:22.000Z</time>
      </trkpt>
      <trkpt lat="43.38272" lon="-1.65836">
        <ele>3</ele>
        <time>2026-08-23T13:02:25.000Z</time>
      </trkpt>
      <trkpt lat="43.38253" lon="-1.65786">
        <ele>3</ele>
        <time>2026-08-23T13:02:32.000Z</time>
      </trkpt>
      <trkpt lat="43.38227" lon="-1.65713">
        <ele>3</ele>
        <time>2026-08-23T13:02:42.000Z</time>
      </trkpt>
      <trkpt lat="43.38224" lon="-1.65701">
        <ele>3</ele>
        <time>2026-08-23T13:02:44.000Z</time>
      </trkpt>
      <trkpt lat="43.38224" lon="-1.65692">
        <ele>3</ele>
        <time>2026-08-23T13:02:45.000Z</time>
      </trkpt>
      <trkpt lat="43.38225" lon="-1.65681">
        <ele>3</ele>
        <time>2026-08-23T13:02:47.000Z</time>
      </trkpt>
      <trkpt lat="43.38227" lon="-1.65677">
        <ele>3</ele>
        <time>2026-08-23T13:02:47.000Z</time>
      </trkpt>
      <trkpt lat="43.38229" lon="-1.65673">
        <ele>3</ele>
        <time>2026-08-23T13:02:48.000Z</time>
      </trkpt>
      <trkpt lat="43.38262" lon="-1.65626">
        <ele>4</ele>
        <time>2026-08-23T13:02:56.000Z</time>
      </trkpt>
      <trkpt lat="43.38265" lon="-1.65623">
        <ele>3</ele>
        <time>2026-08-23T13:02:57.000Z</time>
      </trkpt>
      <trkpt lat="43.38273" lon="-1.65618">
        <ele>3</ele>
        <time>2026-08-23T13:02:59.000Z</time>
      </trkpt>
      <trkpt lat="43.38277" lon="-1.65613">
        <ele>3</ele>
        <time>2026-08-23T13:03:00.000Z</time>
      </trkpt>
      <trkpt lat="43.3828" lon="-1.65609">
        <ele>3</ele>
        <time>2026-08-23T13:03:00.000Z</time>
      </trkpt>
      <trkpt lat="43.38283" lon="-1.65604">
        <ele>3</ele>
        <time>2026-08-23T13:03:01.000Z</time>
      </trkpt>
      <trkpt lat="43.38286" lon="-1.656">
        <ele>3</ele>
        <time>2026-08-23T13:03:02.000Z</time>
      </trkpt>
      <trkpt lat="43.38297" lon="-1.65585">
        <ele>3</ele>
        <time>2026-08-23T13:03:05.000Z</time>
      </trkpt>
      <trkpt lat="43.38302" lon="-1.65579">
        <ele>3</ele>
        <time>2026-08-23T13:03:06.000Z</time>
      </trkpt>
      <trkpt lat="43.38305" lon="-1.65575">
        <ele>3</ele>
        <time>2026-08-23T13:03:07.000Z</time>
      </trkpt>
      <trkpt lat="43.38308" lon="-1.6557">
        <ele>3</ele>
        <time>2026-08-23T13:03:07.000Z</time>
      </trkpt>
      <trkpt lat="43.38311" lon="-1.65566">
        <ele>3</ele>
        <time>2026-08-23T13:03:08.000Z</time>
      </trkpt>
      <trkpt lat="43.38339" lon="-1.65529">
        <ele>4</ele>
        <time>2026-08-23T13:03:15.000Z</time>
      </trkpt>
      <trkpt lat="43.38342" lon="-1.65523">
        <ele>4</ele>
        <time>2026-08-23T13:03:16.000Z</time>
      </trkpt>
      <trkpt lat="43.38344" lon="-1.65515">
        <ele>4</ele>
        <time>2026-08-23T13:03:17.000Z</time>
      </trkpt>
      <trkpt lat="43.38343" lon="-1.65511">
        <ele>4</ele>
        <time>2026-08-23T13:03:18.000Z</time>
      </trkpt>
      <trkpt lat="43.38342" lon="-1.65508">
        <ele>4</ele>
        <time>2026-08-23T13:03:18.000Z</time>
      </trkpt>
      <trkpt lat="43.38338" lon="-1.65499">
        <ele>4</ele>
        <time>2026-08-23T13:03:19.000Z</time>
      </trkpt>
      <trkpt lat="43.38318" lon="-1.65472">
        <ele>4</ele>
        <time>2026-08-23T13:03:24.000Z</time>
      </trkpt>
      <trkpt lat="43.38318" lon="-1.65466">
        <ele>4</ele>
        <time>2026-08-23T13:03:25.000Z</time>
      </trkpt>
      <trkpt lat="43.3832" lon="-1.65458">
        <ele>4</ele>
        <time>2026-08-23T13:03:26.000Z</time>
      </trkpt>
      <trkpt lat="43.38321" lon="-1.65453">
        <ele>4</ele>
        <time>2026-08-23T13:03:27.000Z</time>
      </trkpt>
      <trkpt lat="43.38322" lon="-1.65449">
        <ele>4</ele>
        <time>2026-08-23T13:03:27.000Z</time>
      </trkpt>
      <trkpt lat="43.38344" lon="-1.65418">
        <ele>5</ele>
        <time>2026-08-23T13:03:33.000Z</time>
      </trkpt>
      <trkpt lat="43.38362" lon="-1.65378">
        <ele>5</ele>
        <time>2026-08-23T13:03:39.000Z</time>
      </trkpt>
      <trkpt lat="43.38365" lon="-1.65371">
        <ele>5</ele>
        <time>2026-08-23T13:03:40.000Z</time>
      </trkpt>
      <trkpt lat="43.38368" lon="-1.65365">
        <ele>5</ele>
        <time>2026-08-23T13:03:41.000Z</time>
      </trkpt>
      <trkpt lat="43.38378" lon="-1.65344">
        <ele>6</ele>
        <time>2026-08-23T13:03:44.000Z</time>
      </trkpt>
      <trkpt lat="43.38386" lon="-1.65327">
        <ele>7</ele>
        <time>2026-08-23T13:03:47.000Z</time>
      </trkpt>
      <trkpt lat="43.38389" lon="-1.6531">
        <ele>9</ele>
        <time>2026-08-23T13:03:49.000Z</time>
      </trkpt>
      <trkpt lat="43.38388" lon="-1.65296">
        <ele>10</ele>
        <time>2026-08-23T13:03:51.000Z</time>
      </trkpt>
      <trkpt lat="43.38386" lon="-1.65287">
        <ele>11</ele>
        <time>2026-08-23T13:03:52.000Z</time>
      </trkpt>
      <trkpt lat="43.38382" lon="-1.65278">
        <ele>11</ele>
        <time>2026-08-23T13:03:54.000Z</time>
      </trkpt>
      <trkpt lat="43.38378" lon="-1.65273">
        <ele>12</ele>
        <time>2026-08-23T13:03:55.000Z</time>
      </trkpt>
      <trkpt lat="43.38358" lon="-1.65248">
        <ele>12</ele>
        <time>2026-08-23T13:03:59.000Z</time>
      </trkpt>
      <trkpt lat="43.38347" lon="-1.65232">
        <ele>11</ele>
        <time>2026-08-23T13:04:02.000Z</time>
      </trkpt>
      <trkpt lat="43.38336" lon="-1.6521">
        <ele>11</ele>
        <time>2026-08-23T13:04:06.000Z</time>
      </trkpt>
      <trkpt lat="43.38324" lon="-1.65184">
        <ele>11</ele>
        <time>2026-08-23T13:04:10.000Z</time>
      </trkpt>
      <trkpt lat="43.38324" lon="-1.65174">
        <ele>11</ele>
        <time>2026-08-23T13:04:11.000Z</time>
      </trkpt>
      <trkpt lat="43.38323" lon="-1.65164">
        <ele>11</ele>
        <time>2026-08-23T13:04:12.000Z</time>
      </trkpt>
      <trkpt lat="43.38279" lon="-1.65044">
        <ele>9</ele>
        <time>2026-08-23T13:04:30.000Z</time>
      </trkpt>
      <trkpt lat="43.38277" lon="-1.65042">
        <ele>9</ele>
        <time>2026-08-23T13:04:30.000Z</time>
      </trkpt>
      <trkpt lat="43.38265" lon="-1.65039">
        <ele>8</ele>
        <time>2026-08-23T13:04:32.000Z</time>
      </trkpt>
      <trkpt lat="43.3826" lon="-1.6503">
        <ele>7</ele>
        <time>2026-08-23T13:04:34.000Z</time>
      </trkpt>
      <trkpt lat="43.38257" lon="-1.65024">
        <ele>7</ele>
        <time>2026-08-23T13:04:35.000Z</time>
      </trkpt>
      <trkpt lat="43.38258" lon="-1.65021">
        <ele>7</ele>
        <time>2026-08-23T13:04:35.000Z</time>
      </trkpt>
      <trkpt lat="43.38263" lon="-1.65006">
        <ele>8</ele>
        <time>2026-08-23T13:04:37.000Z</time>
      </trkpt>
      <trkpt lat="43.38264" lon="-1.65001">
        <ele>8</ele>
        <time>2026-08-23T13:04:38.000Z</time>
      </trkpt>
      <trkpt lat="43.38256" lon="-1.64979">
        <ele>8</ele>
        <time>2026-08-23T13:04:41.000Z</time>
      </trkpt>
      <trkpt lat="43.38253" lon="-1.64968">
        <ele>8</ele>
        <time>2026-08-23T13:04:43.000Z</time>
      </trkpt>
      <trkpt lat="43.3825" lon="-1.64957">
        <ele>8</ele>
        <time>2026-08-23T13:04:44.000Z</time>
      </trkpt>
      <trkpt lat="43.38247" lon="-1.64936">
        <ele>8</ele>
        <time>2026-08-23T13:04:47.000Z</time>
      </trkpt>
      <trkpt lat="43.38247" lon="-1.64916">
        <ele>8</ele>
        <time>2026-08-23T13:04:50.000Z</time>
      </trkpt>
      <trkpt lat="43.38248" lon="-1.6489">
        <ele>8</ele>
        <time>2026-08-23T13:04:53.000Z</time>
      </trkpt>
      <trkpt lat="43.38249" lon="-1.64881">
        <ele>8</ele>
        <time>2026-08-23T13:04:54.000Z</time>
      </trkpt>
      <trkpt lat="43.3825" lon="-1.64867">
        <ele>9</ele>
        <time>2026-08-23T13:04:56.000Z</time>
      </trkpt>
      <trkpt lat="43.38256" lon="-1.64805">
        <ele>8</ele>
        <time>2026-08-23T13:05:04.000Z</time>
      </trkpt>
      <trkpt lat="43.38257" lon="-1.64795">
        <ele>8</ele>
        <time>2026-08-23T13:05:05.000Z</time>
      </trkpt>
      <trkpt lat="43.38258" lon="-1.64788">
        <ele>8</ele>
        <time>2026-08-23T13:05:06.000Z</time>
      </trkpt>
      <trkpt lat="43.38268" lon="-1.64684">
        <ele>6</ele>
        <time>2026-08-23T13:05:20.000Z</time>
      </trkpt>
      <trkpt lat="43.38274" lon="-1.64625">
        <ele>7</ele>
        <time>2026-08-23T13:05:27.000Z</time>
      </trkpt>
      <trkpt lat="43.38275" lon="-1.64576">
        <ele>8</ele>
        <time>2026-08-23T13:05:34.000Z</time>
      </trkpt>
      <trkpt lat="43.38274" lon="-1.64505">
        <ele>10</ele>
        <time>2026-08-23T13:05:43.000Z</time>
      </trkpt>
      <trkpt lat="43.38274" lon="-1.64502">
        <ele>10</ele>
        <time>2026-08-23T13:05:43.000Z</time>
      </trkpt>
      <trkpt lat="43.38274" lon="-1.64494">
        <ele>10</ele>
        <time>2026-08-23T13:05:44.000Z</time>
      </trkpt>
      <trkpt lat="43.38273" lon="-1.64487">
        <ele>10</ele>
        <time>2026-08-23T13:05:45.000Z</time>
      </trkpt>
      <trkpt lat="43.38269" lon="-1.64433">
        <ele>8</ele>
        <time>2026-08-23T13:05:52.000Z</time>
      </trkpt>
      <trkpt lat="43.38266" lon="-1.64415">
        <ele>8</ele>
        <time>2026-08-23T13:05:55.000Z</time>
      </trkpt>
      <trkpt lat="43.38261" lon="-1.64385">
        <ele>7</ele>
        <time>2026-08-23T13:05:59.000Z</time>
      </trkpt>
      <trkpt lat="43.38253" lon="-1.64361">
        <ele>6</ele>
        <time>2026-08-23T13:06:02.000Z</time>
      </trkpt>
      <trkpt lat="43.3824" lon="-1.64332">
        <ele>5</ele>
        <time>2026-08-23T13:06:07.000Z</time>
      </trkpt>
      <trkpt lat="43.38223" lon="-1.64305">
        <ele>5</ele>
        <time>2026-08-23T13:06:11.000Z</time>
      </trkpt>
      <trkpt lat="43.38196" lon="-1.64276">
        <ele>5</ele>
        <time>2026-08-23T13:06:17.000Z</time>
      </trkpt>
      <trkpt lat="43.38156" lon="-1.64239">
        <ele>5</ele>
        <time>2026-08-23T13:06:26.000Z</time>
      </trkpt>
      <trkpt lat="43.38127" lon="-1.64211">
        <ele>6</ele>
        <time>2026-08-23T13:06:32.000Z</time>
      </trkpt>
      <trkpt lat="43.38118" lon="-1.64198">
        <ele>6</ele>
        <time>2026-08-23T13:06:34.000Z</time>
      </trkpt>
      <trkpt lat="43.38103" lon="-1.64165">
        <ele>7</ele>
        <time>2026-08-23T13:06:40.000Z</time>
      </trkpt>
      <trkpt lat="43.38064" lon="-1.6408">
        <ele>8</ele>
        <time>2026-08-23T13:06:53.000Z</time>
      </trkpt>
      <trkpt lat="43.38057" lon="-1.64069">
        <ele>9</ele>
        <time>2026-08-23T13:06:54.000Z</time>
      </trkpt>
      <trkpt lat="43.38051" lon="-1.6406">
        <ele>9</ele>
        <time>2026-08-23T13:06:56.000Z</time>
      </trkpt>
      <trkpt lat="43.37992" lon="-1.64003">
        <ele>8</ele>
        <time>2026-08-23T13:07:09.000Z</time>
      </trkpt>
      <trkpt lat="43.37949" lon="-1.63962">
        <ele>7</ele>
        <time>2026-08-23T13:07:18.000Z</time>
      </trkpt>
      <trkpt lat="43.37907" lon="-1.63923">
        <ele>6</ele>
        <time>2026-08-23T13:07:27.000Z</time>
      </trkpt>
      <trkpt lat="43.37904" lon="-1.6392">
        <ele>6</ele>
        <time>2026-08-23T13:07:28.000Z</time>
      </trkpt>
      <trkpt lat="43.37837" lon="-1.63856">
        <ele>7</ele>
        <time>2026-08-23T13:07:42.000Z</time>
      </trkpt>
      <trkpt lat="43.378" lon="-1.63817">
        <ele>8</ele>
        <time>2026-08-23T13:07:51.000Z</time>
      </trkpt>
      <trkpt lat="43.3778" lon="-1.63797">
        <ele>8</ele>
        <time>2026-08-23T13:07:55.000Z</time>
      </trkpt>
      <trkpt lat="43.37769" lon="-1.63788">
        <ele>8</ele>
        <time>2026-08-23T13:07:57.000Z</time>
      </trkpt>
      <trkpt lat="43.37761" lon="-1.63783">
        <ele>8</ele>
        <time>2026-08-23T13:07:59.000Z</time>
      </trkpt>
      <trkpt lat="43.37745" lon="-1.63779">
        <ele>8</ele>
        <time>2026-08-23T13:08:02.000Z</time>
      </trkpt>
      <trkpt lat="43.37692" lon="-1.63782">
        <ele>7</ele>
        <time>2026-08-23T13:08:11.000Z</time>
      </trkpt>
      <trkpt lat="43.37654" lon="-1.63785">
        <ele>6</ele>
        <time>2026-08-23T13:08:18.000Z</time>
      </trkpt>
      <trkpt lat="43.37639" lon="-1.63785">
        <ele>6</ele>
        <time>2026-08-23T13:08:21.000Z</time>
      </trkpt>
      <trkpt lat="43.37632" lon="-1.63787">
        <ele>6</ele>
        <time>2026-08-23T13:08:22.000Z</time>
      </trkpt>
      <trkpt lat="43.37621" lon="-1.63799">
        <ele>6</ele>
        <time>2026-08-23T13:08:24.000Z</time>
      </trkpt>
      <trkpt lat="43.37616" lon="-1.63801">
        <ele>5</ele>
        <time>2026-08-23T13:08:25.000Z</time>
      </trkpt>
      <trkpt lat="43.37601" lon="-1.63802">
        <ele>5</ele>
        <time>2026-08-23T13:08:28.000Z</time>
      </trkpt>
      <trkpt lat="43.37582" lon="-1.63802">
        <ele>5</ele>
        <time>2026-08-23T13:08:31.000Z</time>
      </trkpt>
      <trkpt lat="43.37552" lon="-1.63805">
        <ele>5</ele>
        <time>2026-08-23T13:08:37.000Z</time>
      </trkpt>
      <trkpt lat="43.3755" lon="-1.63805">
        <ele>5</ele>
        <time>2026-08-23T13:08:37.000Z</time>
      </trkpt>
      <trkpt lat="43.37536" lon="-1.63819">
        <ele>4</ele>
        <time>2026-08-23T13:08:40.000Z</time>
      </trkpt>
      <trkpt lat="43.3753" lon="-1.6382">
        <ele>4</ele>
        <time>2026-08-23T13:08:41.000Z</time>
      </trkpt>
      <trkpt lat="43.37523" lon="-1.6382">
        <ele>4</ele>
        <time>2026-08-23T13:08:42.000Z</time>
      </trkpt>
      <trkpt lat="43.37516" lon="-1.63818">
        <ele>4</ele>
        <time>2026-08-23T13:08:44.000Z</time>
      </trkpt>
      <trkpt lat="43.37513" lon="-1.63814">
        <ele>4</ele>
        <time>2026-08-23T13:08:44.000Z</time>
      </trkpt>
      <trkpt lat="43.37512" lon="-1.63803">
        <ele>4</ele>
        <time>2026-08-23T13:08:46.000Z</time>
      </trkpt>
      <trkpt lat="43.37508" lon="-1.63799">
        <ele>4</ele>
        <time>2026-08-23T13:08:47.000Z</time>
      </trkpt>
      <trkpt lat="43.37489" lon="-1.638">
        <ele>4</ele>
        <time>2026-08-23T13:08:50.000Z</time>
      </trkpt>
      <trkpt lat="43.37452" lon="-1.63801">
        <ele>4</ele>
        <time>2026-08-23T13:08:57.000Z</time>
      </trkpt>
      <trkpt lat="43.37405" lon="-1.63795">
        <ele>4</ele>
        <time>2026-08-23T13:09:05.000Z</time>
      </trkpt>
      <trkpt lat="43.37118" lon="-1.63814">
        <ele>5</ele>
        <time>2026-08-23T13:09:56.000Z</time>
      </trkpt>
      <trkpt lat="43.3707" lon="-1.63814">
        <ele>5</ele>
        <time>2026-08-23T13:10:05.000Z</time>
      </trkpt>
      <trkpt lat="43.37067" lon="-1.63812">
        <ele>5</ele>
        <time>2026-08-23T13:10:05.000Z</time>
      </trkpt>
      <trkpt lat="43.37064" lon="-1.63811">
        <ele>5</ele>
        <time>2026-08-23T13:10:06.000Z</time>
      </trkpt>
      <trkpt lat="43.37058" lon="-1.63808">
        <ele>5</ele>
        <time>2026-08-23T13:10:07.000Z</time>
      </trkpt>
      <trkpt lat="43.37042" lon="-1.63791">
        <ele>5</ele>
        <time>2026-08-23T13:10:11.000Z</time>
      </trkpt>
      <trkpt lat="43.36799" lon="-1.6363">
        <ele>5</ele>
        <time>2026-08-23T13:10:59.000Z</time>
      </trkpt>
      <trkpt lat="43.36763" lon="-1.63608">
        <ele>6</ele>
        <time>2026-08-23T13:11:06.000Z</time>
      </trkpt>
      <trkpt lat="43.36742" lon="-1.63597">
        <ele>7</ele>
        <time>2026-08-23T13:11:10.000Z</time>
      </trkpt>
      <trkpt lat="43.36722" lon="-1.63591">
        <ele>7</ele>
        <time>2026-08-23T13:11:13.000Z</time>
      </trkpt>
      <trkpt lat="43.367" lon="-1.63585">
        <ele>8</ele>
        <time>2026-08-23T13:11:17.000Z</time>
      </trkpt>
      <trkpt lat="43.36677" lon="-1.63581">
        <ele>8</ele>
        <time>2026-08-23T13:11:21.000Z</time>
      </trkpt>
      <trkpt lat="43.36648" lon="-1.63582">
        <ele>7</ele>
        <time>2026-08-23T13:11:27.000Z</time>
      </trkpt>
      <trkpt lat="43.36627" lon="-1.63585">
        <ele>7</ele>
        <time>2026-08-23T13:11:30.000Z</time>
      </trkpt>
      <trkpt lat="43.36601" lon="-1.63592">
        <ele>6</ele>
        <time>2026-08-23T13:11:35.000Z</time>
      </trkpt>
      <trkpt lat="43.36483" lon="-1.63629">
        <ele>4</ele>
        <time>2026-08-23T13:11:57.000Z</time>
      </trkpt>
      <trkpt lat="43.36412" lon="-1.63654">
        <ele>7</ele>
        <time>2026-08-23T13:12:10.000Z</time>
      </trkpt>
      <trkpt lat="43.36409" lon="-1.63659">
        <ele>7</ele>
        <time>2026-08-23T13:12:11.000Z</time>
      </trkpt>
      <trkpt lat="43.36402" lon="-1.63663">
        <ele>7</ele>
        <time>2026-08-23T13:12:12.000Z</time>
      </trkpt>
      <trkpt lat="43.36396" lon="-1.63665">
        <ele>7</ele>
        <time>2026-08-23T13:12:13.000Z</time>
      </trkpt>
      <trkpt lat="43.3639" lon="-1.63663">
        <ele>7</ele>
        <time>2026-08-23T13:12:14.000Z</time>
      </trkpt>
      <trkpt lat="43.36347" lon="-1.63673">
        <ele>7</ele>
        <time>2026-08-23T13:12:22.000Z</time>
      </trkpt>
      <trkpt lat="43.36319" lon="-1.63677">
        <ele>7</ele>
        <time>2026-08-23T13:12:27.000Z</time>
      </trkpt>
      <trkpt lat="43.36295" lon="-1.63678">
        <ele>6</ele>
        <time>2026-08-23T13:12:31.000Z</time>
      </trkpt>
      <trkpt lat="43.36273" lon="-1.63677">
        <ele>6</ele>
        <time>2026-08-23T13:12:35.000Z</time>
      </trkpt>
      <trkpt lat="43.36239" lon="-1.63665">
        <ele>6</ele>
        <time>2026-08-23T13:12:41.000Z</time>
      </trkpt>
      <trkpt lat="43.36236" lon="-1.63667">
        <ele>6</ele>
        <time>2026-08-23T13:12:42.000Z</time>
      </trkpt>
      <trkpt lat="43.36232" lon="-1.63665">
        <ele>6</ele>
        <time>2026-08-23T13:12:43.000Z</time>
      </trkpt>
      <trkpt lat="43.36227" lon="-1.63663">
        <ele>6</ele>
        <time>2026-08-23T13:12:44.000Z</time>
      </trkpt>
      <trkpt lat="43.36224" lon="-1.6366">
        <ele>6</ele>
        <time>2026-08-23T13:12:44.000Z</time>
      </trkpt>
      <trkpt lat="43.36201" lon="-1.63651">
        <ele>6</ele>
        <time>2026-08-23T13:12:48.000Z</time>
      </trkpt>
      <trkpt lat="43.36103" lon="-1.6361">
        <ele>5</ele>
        <time>2026-08-23T13:13:07.000Z</time>
      </trkpt>
      <trkpt lat="43.36084" lon="-1.63601">
        <ele>5</ele>
        <time>2026-08-23T13:13:10.000Z</time>
      </trkpt>
      <trkpt lat="43.36066" lon="-1.63588">
        <ele>5</ele>
        <time>2026-08-23T13:13:14.000Z</time>
      </trkpt>
      <trkpt lat="43.36047" lon="-1.63568">
        <ele>5</ele>
        <time>2026-08-23T13:13:18.000Z</time>
      </trkpt>
      <trkpt lat="43.36029" lon="-1.63541">
        <ele>5</ele>
        <time>2026-08-23T13:13:23.000Z</time>
      </trkpt>
      <trkpt lat="43.36013" lon="-1.63509">
        <ele>6</ele>
        <time>2026-08-23T13:13:28.000Z</time>
      </trkpt>
      <trkpt lat="43.35993" lon="-1.6346">
        <ele>7</ele>
        <time>2026-08-23T13:13:35.000Z</time>
      </trkpt>
      <trkpt lat="43.35979" lon="-1.63435">
        <ele>8</ele>
        <time>2026-08-23T13:13:39.000Z</time>
      </trkpt>
      <trkpt lat="43.35931" lon="-1.63359">
        <ele>8</ele>
        <time>2026-08-23T13:13:52.000Z</time>
      </trkpt>
      <trkpt lat="43.35918" lon="-1.63344">
        <ele>8</ele>
        <time>2026-08-23T13:13:55.000Z</time>
      </trkpt>
      <trkpt lat="43.35887" lon="-1.63312">
        <ele>9</ele>
        <time>2026-08-23T13:14:02.000Z</time>
      </trkpt>
      <trkpt lat="43.35856" lon="-1.63286">
        <ele>8</ele>
        <time>2026-08-23T13:14:09.000Z</time>
      </trkpt>
      <trkpt lat="43.35799" lon="-1.63232">
        <ele>8</ele>
        <time>2026-08-23T13:14:21.000Z</time>
      </trkpt>
      <trkpt lat="43.35776" lon="-1.63213">
        <ele>8</ele>
        <time>2026-08-23T13:14:26.000Z</time>
      </trkpt>
      <trkpt lat="43.3575" lon="-1.63197">
        <ele>7</ele>
        <time>2026-08-23T13:14:31.000Z</time>
      </trkpt>
      <trkpt lat="43.3573" lon="-1.63188">
        <ele>7</ele>
        <time>2026-08-23T13:14:35.000Z</time>
      </trkpt>
      <trkpt lat="43.35677" lon="-1.6317">
        <ele>6</ele>
        <time>2026-08-23T13:14:44.000Z</time>
      </trkpt>
      <trkpt lat="43.3567" lon="-1.63168">
        <ele>6</ele>
        <time>2026-08-23T13:14:46.000Z</time>
      </trkpt>
      <trkpt lat="43.35668" lon="-1.63168">
        <ele>6</ele>
        <time>2026-08-23T13:14:46.000Z</time>
      </trkpt>
      <trkpt lat="43.35664" lon="-1.6317">
        <ele>6</ele>
        <time>2026-08-23T13:14:47.000Z</time>
      </trkpt>
      <trkpt lat="43.35658" lon="-1.6317">
        <ele>6</ele>
        <time>2026-08-23T13:14:48.000Z</time>
      </trkpt>
      <trkpt lat="43.35654" lon="-1.63168">
        <ele>6</ele>
        <time>2026-08-23T13:14:48.000Z</time>
      </trkpt>
      <trkpt lat="43.35647" lon="-1.63161">
        <ele>6</ele>
        <time>2026-08-23T13:14:50.000Z</time>
      </trkpt>
      <trkpt lat="43.35644" lon="-1.6316">
        <ele>6</ele>
        <time>2026-08-23T13:14:51.000Z</time>
      </trkpt>
      <trkpt lat="43.3564" lon="-1.63159">
        <ele>6</ele>
        <time>2026-08-23T13:14:51.000Z</time>
      </trkpt>
      <trkpt lat="43.3561" lon="-1.63153">
        <ele>5</ele>
        <time>2026-08-23T13:14:57.000Z</time>
      </trkpt>
      <trkpt lat="43.35581" lon="-1.63145">
        <ele>5</ele>
        <time>2026-08-23T13:15:02.000Z</time>
      </trkpt>
      <trkpt lat="43.35522" lon="-1.63125">
        <ele>6</ele>
        <time>2026-08-23T13:15:13.000Z</time>
      </trkpt>
      <trkpt lat="43.35465" lon="-1.63109">
        <ele>6</ele>
        <time>2026-08-23T13:15:23.000Z</time>
      </trkpt>
      <trkpt lat="43.35414" lon="-1.63092">
        <ele>7</ele>
        <time>2026-08-23T13:15:32.000Z</time>
      </trkpt>
      <trkpt lat="43.35396" lon="-1.63084">
        <ele>7</ele>
        <time>2026-08-23T13:15:36.000Z</time>
      </trkpt>
      <trkpt lat="43.35373" lon="-1.6307">
        <ele>7</ele>
        <time>2026-08-23T13:15:40.000Z</time>
      </trkpt>
      <trkpt lat="43.35348" lon="-1.6305">
        <ele>7</ele>
        <time>2026-08-23T13:15:45.000Z</time>
      </trkpt>
      <trkpt lat="43.35334" lon="-1.63037">
        <ele>7</ele>
        <time>2026-08-23T13:15:48.000Z</time>
      </trkpt>
      <trkpt lat="43.35304" lon="-1.63004">
        <ele>6</ele>
        <time>2026-08-23T13:15:55.000Z</time>
      </trkpt>
      <trkpt lat="43.35286" lon="-1.62976">
        <ele>6</ele>
        <time>2026-08-23T13:16:00.000Z</time>
      </trkpt>
      <trkpt lat="43.35267" lon="-1.6294">
        <ele>6</ele>
        <time>2026-08-23T13:16:06.000Z</time>
      </trkpt>
      <trkpt lat="43.35249" lon="-1.62892">
        <ele>6</ele>
        <time>2026-08-23T13:16:13.000Z</time>
      </trkpt>
      <trkpt lat="43.35234" lon="-1.62847">
        <ele>6</ele>
        <time>2026-08-23T13:16:19.000Z</time>
      </trkpt>
      <trkpt lat="43.35206" lon="-1.62764">
        <ele>8</ele>
        <time>2026-08-23T13:16:31.000Z</time>
      </trkpt>
      <trkpt lat="43.35208" lon="-1.62758">
        <ele>8</ele>
        <time>2026-08-23T13:16:32.000Z</time>
      </trkpt>
      <trkpt lat="43.3519" lon="-1.62714">
        <ele>8</ele>
        <time>2026-08-23T13:16:38.000Z</time>
      </trkpt>
      <trkpt lat="43.35143" lon="-1.62591">
        <ele>12</ele>
        <time>2026-08-23T13:16:56.000Z</time>
      </trkpt>
      <trkpt lat="43.35123" lon="-1.62544">
        <ele>12</ele>
        <time>2026-08-23T13:17:03.000Z</time>
      </trkpt>
      <trkpt lat="43.35119" lon="-1.62527">
        <ele>12</ele>
        <time>2026-08-23T13:17:06.000Z</time>
      </trkpt>
      <trkpt lat="43.35115" lon="-1.62515">
        <ele>12</ele>
        <time>2026-08-23T13:17:08.000Z</time>
      </trkpt>
      <trkpt lat="43.35111" lon="-1.625">
        <ele>11</ele>
        <time>2026-08-23T13:17:10.000Z</time>
      </trkpt>
      <trkpt lat="43.35107" lon="-1.62481">
        <ele>11</ele>
        <time>2026-08-23T13:17:12.000Z</time>
      </trkpt>
      <trkpt lat="43.35104" lon="-1.62457">
        <ele>11</ele>
        <time>2026-08-23T13:17:15.000Z</time>
      </trkpt>
      <trkpt lat="43.35103" lon="-1.62431">
        <ele>11</ele>
        <time>2026-08-23T13:17:19.000Z</time>
      </trkpt>
      <trkpt lat="43.35104" lon="-1.62401">
        <ele>11</ele>
        <time>2026-08-23T13:17:23.000Z</time>
      </trkpt>
      <trkpt lat="43.35106" lon="-1.62363">
        <ele>10</ele>
        <time>2026-08-23T13:17:27.000Z</time>
      </trkpt>
      <trkpt lat="43.35109" lon="-1.62334">
        <ele>10</ele>
        <time>2026-08-23T13:17:31.000Z</time>
      </trkpt>
      <trkpt lat="43.35114" lon="-1.62319">
        <ele>11</ele>
        <time>2026-08-23T13:17:33.000Z</time>
      </trkpt>
      <trkpt lat="43.35118" lon="-1.62307">
        <ele>11</ele>
        <time>2026-08-23T13:17:35.000Z</time>
      </trkpt>
      <trkpt lat="43.35128" lon="-1.62289">
        <ele>11</ele>
        <time>2026-08-23T13:17:38.000Z</time>
      </trkpt>
      <trkpt lat="43.35182" lon="-1.62184">
        <ele>11</ele>
        <time>2026-08-23T13:17:55.000Z</time>
      </trkpt>
      <trkpt lat="43.35192" lon="-1.62168">
        <ele>11</ele>
        <time>2026-08-23T13:17:57.000Z</time>
      </trkpt>
      <trkpt lat="43.35201" lon="-1.62157">
        <ele>12</ele>
        <time>2026-08-23T13:18:00.000Z</time>
      </trkpt>
      <trkpt lat="43.35215" lon="-1.62143">
        <ele>13</ele>
        <time>2026-08-23T13:18:03.000Z</time>
      </trkpt>
      <trkpt lat="43.3523" lon="-1.62132">
        <ele>13</ele>
        <time>2026-08-23T13:18:06.000Z</time>
      </trkpt>
      <trkpt lat="43.3524" lon="-1.62126">
        <ele>14</ele>
        <time>2026-08-23T13:18:08.000Z</time>
      </trkpt>
      <trkpt lat="43.35384" lon="-1.62069">
        <ele>21</ele>
        <time>2026-08-23T13:18:34.000Z</time>
      </trkpt>
      <trkpt lat="43.35408" lon="-1.62059">
        <ele>21</ele>
        <time>2026-08-23T13:18:39.000Z</time>
      </trkpt>
      <trkpt lat="43.3542" lon="-1.62053">
        <ele>21</ele>
        <time>2026-08-23T13:18:41.000Z</time>
      </trkpt>
      <trkpt lat="43.35432" lon="-1.62045">
        <ele>21</ele>
        <time>2026-08-23T13:18:43.000Z</time>
      </trkpt>
      <trkpt lat="43.35449" lon="-1.62031">
        <ele>20</ele>
        <time>2026-08-23T13:18:47.000Z</time>
      </trkpt>
      <trkpt lat="43.35486" lon="-1.62">
        <ele>18</ele>
        <time>2026-08-23T13:18:55.000Z</time>
      </trkpt>
      <trkpt lat="43.35516" lon="-1.61962">
        <ele>18</ele>
        <time>2026-08-23T13:19:02.000Z</time>
      </trkpt>
      <trkpt lat="43.35609" lon="-1.61816">
        <ele>13</ele>
        <time>2026-08-23T13:19:27.000Z</time>
      </trkpt>
      <trkpt lat="43.35788" lon="-1.61534">
        <ele>14</ele>
        <time>2026-08-23T13:20:15.000Z</time>
      </trkpt>
      <trkpt lat="43.35815" lon="-1.61503">
        <ele>12</ele>
        <time>2026-08-23T13:20:22.000Z</time>
      </trkpt>
      <trkpt lat="43.35914" lon="-1.61418">
        <ele>16</ele>
        <time>2026-08-23T13:20:42.000Z</time>
      </trkpt>
      <trkpt lat="43.35934" lon="-1.61396">
        <ele>16</ele>
        <time>2026-08-23T13:20:47.000Z</time>
      </trkpt>
      <trkpt lat="43.35993" lon="-1.6132">
        <ele>11</ele>
        <time>2026-08-23T13:21:01.000Z</time>
      </trkpt>
      <trkpt lat="43.36034" lon="-1.61267">
        <ele>11</ele>
        <time>2026-08-23T13:21:11.000Z</time>
      </trkpt>
      <trkpt lat="43.36043" lon="-1.61252">
        <ele>11</ele>
        <time>2026-08-23T13:21:14.000Z</time>
      </trkpt>
      <trkpt lat="43.36052" lon="-1.61238">
        <ele>11</ele>
        <time>2026-08-23T13:21:16.000Z</time>
      </trkpt>
      <trkpt lat="43.36058" lon="-1.61226">
        <ele>11</ele>
        <time>2026-08-23T13:21:18.000Z</time>
      </trkpt>
      <trkpt lat="43.36067" lon="-1.61209">
        <ele>11</ele>
        <time>2026-08-23T13:21:21.000Z</time>
      </trkpt>
      <trkpt lat="43.36075" lon="-1.61187">
        <ele>12</ele>
        <time>2026-08-23T13:21:24.000Z</time>
      </trkpt>
      <trkpt lat="43.36083" lon="-1.61166">
        <ele>12</ele>
        <time>2026-08-23T13:21:27.000Z</time>
      </trkpt>
      <trkpt lat="43.36091" lon="-1.61138">
        <ele>13</ele>
        <time>2026-08-23T13:21:31.000Z</time>
      </trkpt>
      <trkpt lat="43.36097" lon="-1.6111">
        <ele>14</ele>
        <time>2026-08-23T13:21:35.000Z</time>
      </trkpt>
      <trkpt lat="43.36101" lon="-1.61077">
        <ele>15</ele>
        <time>2026-08-23T13:21:39.000Z</time>
      </trkpt>
      <trkpt lat="43.36106" lon="-1.61018">
        <ele>17</ele>
        <time>2026-08-23T13:21:47.000Z</time>
      </trkpt>
      <trkpt lat="43.36109" lon="-1.60963">
        <ele>17</ele>
        <time>2026-08-23T13:21:54.000Z</time>
      </trkpt>
      <trkpt lat="43.36114" lon="-1.60838">
        <ele>16</ele>
        <time>2026-08-23T13:22:10.000Z</time>
      </trkpt>
      <trkpt lat="43.36114" lon="-1.6083">
        <ele>16</ele>
        <time>2026-08-23T13:22:11.000Z</time>
      </trkpt>
      <trkpt lat="43.36119" lon="-1.60749">
        <ele>18</ele>
        <time>2026-08-23T13:22:22.000Z</time>
      </trkpt>
      <trkpt lat="43.36119" lon="-1.60723">
        <ele>18</ele>
        <time>2026-08-23T13:22:25.000Z</time>
      </trkpt>
      <trkpt lat="43.36117" lon="-1.60698">
        <ele>18</ele>
        <time>2026-08-23T13:22:28.000Z</time>
      </trkpt>
      <trkpt lat="43.36108" lon="-1.60615">
        <ele>18</ele>
        <time>2026-08-23T13:22:39.000Z</time>
      </trkpt>
      <trkpt lat="43.36104" lon="-1.60585">
        <ele>18</ele>
        <time>2026-08-23T13:22:43.000Z</time>
      </trkpt>
      <trkpt lat="43.36102" lon="-1.60551">
        <ele>17</ele>
        <time>2026-08-23T13:22:48.000Z</time>
      </trkpt>
      <trkpt lat="43.36102" lon="-1.60518">
        <ele>17</ele>
        <time>2026-08-23T13:22:52.000Z</time>
      </trkpt>
      <trkpt lat="43.36104" lon="-1.60493">
        <ele>17</ele>
        <time>2026-08-23T13:22:55.000Z</time>
      </trkpt>
      <trkpt lat="43.36109" lon="-1.60462">
        <ele>16</ele>
        <time>2026-08-23T13:22:59.000Z</time>
      </trkpt>
      <trkpt lat="43.36116" lon="-1.60439">
        <ele>16</ele>
        <time>2026-08-23T13:23:02.000Z</time>
      </trkpt>
      <trkpt lat="43.36126" lon="-1.60409">
        <ele>15</ele>
        <time>2026-08-23T13:23:07.000Z</time>
      </trkpt>
      <trkpt lat="43.36139" lon="-1.60384">
        <ele>15</ele>
        <time>2026-08-23T13:23:11.000Z</time>
      </trkpt>
      <trkpt lat="43.36153" lon="-1.60362">
        <ele>14</ele>
        <time>2026-08-23T13:23:14.000Z</time>
      </trkpt>
      <trkpt lat="43.36173" lon="-1.60337">
        <ele>13</ele>
        <time>2026-08-23T13:23:19.000Z</time>
      </trkpt>
      <trkpt lat="43.36204" lon="-1.60308">
        <ele>15</ele>
        <time>2026-08-23T13:23:26.000Z</time>
      </trkpt>
      <trkpt lat="43.36212" lon="-1.60301">
        <ele>16</ele>
        <time>2026-08-23T13:23:28.000Z</time>
      </trkpt>
      <trkpt lat="43.36265" lon="-1.60257">
        <ele>19</ele>
        <time>2026-08-23T13:23:39.000Z</time>
      </trkpt>
      <trkpt lat="43.36299" lon="-1.60225">
        <ele>21</ele>
        <time>2026-08-23T13:23:46.000Z</time>
      </trkpt>
      <trkpt lat="43.36317" lon="-1.602">
        <ele>20</ele>
        <time>2026-08-23T13:23:50.000Z</time>
      </trkpt>
      <trkpt lat="43.36327" lon="-1.60184">
        <ele>18</ele>
        <time>2026-08-23T13:23:53.000Z</time>
      </trkpt>
      <trkpt lat="43.36337" lon="-1.60165">
        <ele>17</ele>
        <time>2026-08-23T13:23:56.000Z</time>
      </trkpt>
      <trkpt lat="43.36345" lon="-1.60144">
        <ele>16</ele>
        <time>2026-08-23T13:23:59.000Z</time>
      </trkpt>
      <trkpt lat="43.36362" lon="-1.60097">
        <ele>16</ele>
        <time>2026-08-23T13:24:06.000Z</time>
      </trkpt>
      <trkpt lat="43.36372" lon="-1.60073">
        <ele>15</ele>
        <time>2026-08-23T13:24:10.000Z</time>
      </trkpt>
      <trkpt lat="43.36388" lon="-1.60042">
        <ele>15</ele>
        <time>2026-08-23T13:24:15.000Z</time>
      </trkpt>
      <trkpt lat="43.36405" lon="-1.60015">
        <ele>14</ele>
        <time>2026-08-23T13:24:19.000Z</time>
      </trkpt>
      <trkpt lat="43.36419" lon="-1.59995">
        <ele>13</ele>
        <time>2026-08-23T13:24:23.000Z</time>
      </trkpt>
      <trkpt lat="43.36432" lon="-1.5998">
        <ele>14</ele>
        <time>2026-08-23T13:24:26.000Z</time>
      </trkpt>
      <trkpt lat="43.36447" lon="-1.59964">
        <ele>14</ele>
        <time>2026-08-23T13:24:29.000Z</time>
      </trkpt>
      <trkpt lat="43.36476" lon="-1.5994">
        <ele>14</ele>
        <time>2026-08-23T13:24:35.000Z</time>
      </trkpt>
      <trkpt lat="43.36504" lon="-1.59919">
        <ele>13</ele>
        <time>2026-08-23T13:24:41.000Z</time>
      </trkpt>
      <trkpt lat="43.36533" lon="-1.59896">
        <ele>16</ele>
        <time>2026-08-23T13:24:47.000Z</time>
      </trkpt>
      <trkpt lat="43.3655" lon="-1.59872">
        <ele>17</ele>
        <time>2026-08-23T13:24:51.000Z</time>
      </trkpt>
      <trkpt lat="43.36562" lon="-1.59842">
        <ele>18</ele>
        <time>2026-08-23T13:24:56.000Z</time>
      </trkpt>
      <trkpt lat="43.36568" lon="-1.59809">
        <ele>19</ele>
        <time>2026-08-23T13:25:00.000Z</time>
      </trkpt>
      <trkpt lat="43.36589" lon="-1.59546">
        <ele>11</ele>
        <time>2026-08-23T13:25:34.000Z</time>
      </trkpt>
      <trkpt lat="43.36592" lon="-1.59481">
        <ele>9</ele>
        <time>2026-08-23T13:25:43.000Z</time>
      </trkpt>
      <trkpt lat="43.3659" lon="-1.59429">
        <ele>9</ele>
        <time>2026-08-23T13:25:49.000Z</time>
      </trkpt>
      <trkpt lat="43.36582" lon="-1.59375">
        <ele>9</ele>
        <time>2026-08-23T13:25:57.000Z</time>
      </trkpt>
      <trkpt lat="43.36539" lon="-1.59228">
        <ele>10</ele>
        <time>2026-08-23T13:26:17.000Z</time>
      </trkpt>
      <trkpt lat="43.36483" lon="-1.59044">
        <ele>9</ele>
        <time>2026-08-23T13:26:43.000Z</time>
      </trkpt>
      <trkpt lat="43.36461" lon="-1.58975">
        <ele>11</ele>
        <time>2026-08-23T13:26:53.000Z</time>
      </trkpt>
      <trkpt lat="43.36444" lon="-1.5894">
        <ele>12</ele>
        <time>2026-08-23T13:26:58.000Z</time>
      </trkpt>
      <trkpt lat="43.36427" lon="-1.58913">
        <ele>13</ele>
        <time>2026-08-23T13:27:03.000Z</time>
      </trkpt>
      <trkpt lat="43.36403" lon="-1.58885">
        <ele>17</ele>
        <time>2026-08-23T13:27:08.000Z</time>
      </trkpt>
      <trkpt lat="43.36382" lon="-1.58865">
        <ele>19</ele>
        <time>2026-08-23T13:27:13.000Z</time>
      </trkpt>
      <trkpt lat="43.36309" lon="-1.588">
        <ele>19</ele>
        <time>2026-08-23T13:27:28.000Z</time>
      </trkpt>
      <trkpt lat="43.3628" lon="-1.58766">
        <ele>18</ele>
        <time>2026-08-23T13:27:35.000Z</time>
      </trkpt>
      <trkpt lat="43.36258" lon="-1.58723">
        <ele>14</ele>
        <time>2026-08-23T13:27:42.000Z</time>
      </trkpt>
      <trkpt lat="43.36233" lon="-1.58644">
        <ele>11</ele>
        <time>2026-08-23T13:27:53.000Z</time>
      </trkpt>
      <trkpt lat="43.36192" lon="-1.58518">
        <ele>11</ele>
        <time>2026-08-23T13:28:11.000Z</time>
      </trkpt>
      <trkpt lat="43.36164" lon="-1.58429">
        <ele>12</ele>
        <time>2026-08-23T13:28:23.000Z</time>
      </trkpt>
      <trkpt lat="43.3614" lon="-1.58363">
        <ele>12</ele>
        <time>2026-08-23T13:28:33.000Z</time>
      </trkpt>
      <trkpt lat="43.36129" lon="-1.58341">
        <ele>12</ele>
        <time>2026-08-23T13:28:36.000Z</time>
      </trkpt>
      <trkpt lat="43.36109" lon="-1.58302">
        <ele>12</ele>
        <time>2026-08-23T13:28:43.000Z</time>
      </trkpt>
      <trkpt lat="43.36004" lon="-1.58147">
        <ele>11</ele>
        <time>2026-08-23T13:29:10.000Z</time>
      </trkpt>
      <trkpt lat="43.35991" lon="-1.5813">
        <ele>11</ele>
        <time>2026-08-23T13:29:13.000Z</time>
      </trkpt>
      <trkpt lat="43.35895" lon="-1.57993">
        <ele>11</ele>
        <time>2026-08-23T13:29:38.000Z</time>
      </trkpt>
      <trkpt lat="43.35883" lon="-1.57972">
        <ele>11</ele>
        <time>2026-08-23T13:29:41.000Z</time>
      </trkpt>
      <trkpt lat="43.35864" lon="-1.57936">
        <ele>12</ele>
        <time>2026-08-23T13:29:47.000Z</time>
      </trkpt>
      <trkpt lat="43.35853" lon="-1.57913">
        <ele>12</ele>
        <time>2026-08-23T13:29:51.000Z</time>
      </trkpt>
      <trkpt lat="43.35845" lon="-1.5789">
        <ele>12</ele>
        <time>2026-08-23T13:29:54.000Z</time>
      </trkpt>
      <trkpt lat="43.35839" lon="-1.57869">
        <ele>12</ele>
        <time>2026-08-23T13:29:57.000Z</time>
      </trkpt>
      <trkpt lat="43.35828" lon="-1.5782">
        <ele>11</ele>
        <time>2026-08-23T13:30:03.000Z</time>
      </trkpt>
      <trkpt lat="43.35807" lon="-1.57719">
        <ele>12</ele>
        <time>2026-08-23T13:30:17.000Z</time>
      </trkpt>
      <trkpt lat="43.35783" lon="-1.57586">
        <ele>13</ele>
        <time>2026-08-23T13:30:35.000Z</time>
      </trkpt>
      <trkpt lat="43.3578" lon="-1.57552">
        <ele>13</ele>
        <time>2026-08-23T13:30:39.000Z</time>
      </trkpt>
      <trkpt lat="43.35779" lon="-1.57525">
        <ele>13</ele>
        <time>2026-08-23T13:30:43.000Z</time>
      </trkpt>
      <trkpt lat="43.35774" lon="-1.5748">
        <ele>13</ele>
        <time>2026-08-23T13:30:49.000Z</time>
      </trkpt>
      <trkpt lat="43.3577" lon="-1.57475">
        <ele>13</ele>
        <time>2026-08-23T13:30:50.000Z</time>
      </trkpt>
      <trkpt lat="43.35769" lon="-1.57469">
        <ele>13</ele>
        <time>2026-08-23T13:30:50.000Z</time>
      </trkpt>
      <trkpt lat="43.35769" lon="-1.57463">
        <ele>13</ele>
        <time>2026-08-23T13:30:51.000Z</time>
      </trkpt>
      <trkpt lat="43.35771" lon="-1.57458">
        <ele>13</ele>
        <time>2026-08-23T13:30:52.000Z</time>
      </trkpt>
      <trkpt lat="43.35767" lon="-1.57433">
        <ele>13</ele>
        <time>2026-08-23T13:30:55.000Z</time>
      </trkpt>
      <trkpt lat="43.35764" lon="-1.57417">
        <ele>13</ele>
        <time>2026-08-23T13:30:57.000Z</time>
      </trkpt>
      <trkpt lat="43.35759" lon="-1.57365">
        <ele>13</ele>
        <time>2026-08-23T13:31:04.000Z</time>
      </trkpt>
      <trkpt lat="43.35756" lon="-1.57342">
        <ele>13</ele>
        <time>2026-08-23T13:31:07.000Z</time>
      </trkpt>
      <trkpt lat="43.35755" lon="-1.57323">
        <ele>13</ele>
        <time>2026-08-23T13:31:10.000Z</time>
      </trkpt>
      <trkpt lat="43.35751" lon="-1.57286">
        <ele>14</ele>
        <time>2026-08-23T13:31:14.000Z</time>
      </trkpt>
      <trkpt lat="43.35745" lon="-1.57225">
        <ele>14</ele>
        <time>2026-08-23T13:31:22.000Z</time>
      </trkpt>
      <trkpt lat="43.3574" lon="-1.57188">
        <ele>15</ele>
        <time>2026-08-23T13:31:27.000Z</time>
      </trkpt>
      <trkpt lat="43.35734" lon="-1.5716">
        <ele>15</ele>
        <time>2026-08-23T13:31:31.000Z</time>
      </trkpt>
      <trkpt lat="43.35724" lon="-1.57131">
        <ele>15</ele>
        <time>2026-08-23T13:31:35.000Z</time>
      </trkpt>
      <trkpt lat="43.35682" lon="-1.57042">
        <ele>15</ele>
        <time>2026-08-23T13:31:49.000Z</time>
      </trkpt>
      <trkpt lat="43.35665" lon="-1.57006">
        <ele>15</ele>
        <time>2026-08-23T13:31:54.000Z</time>
      </trkpt>
      <trkpt lat="43.35626" lon="-1.56922">
        <ele>17</ele>
        <time>2026-08-23T13:32:07.000Z</time>
      </trkpt>
      <trkpt lat="43.35616" lon="-1.56907">
        <ele>17</ele>
        <time>2026-08-23T13:32:10.000Z</time>
      </trkpt>
      <trkpt lat="43.35597" lon="-1.56872">
        <ele>17</ele>
        <time>2026-08-23T13:32:16.000Z</time>
      </trkpt>
      <trkpt lat="43.35593" lon="-1.56864">
        <ele>17</ele>
        <time>2026-08-23T13:32:17.000Z</time>
      </trkpt>
      <trkpt lat="43.35589" lon="-1.5685">
        <ele>17</ele>
        <time>2026-08-23T13:32:19.000Z</time>
      </trkpt>
      <trkpt lat="43.35587" lon="-1.56838">
        <ele>17</ele>
        <time>2026-08-23T13:32:20.000Z</time>
      </trkpt>
      <trkpt lat="43.35586" lon="-1.56823">
        <ele>17</ele>
        <time>2026-08-23T13:32:22.000Z</time>
      </trkpt>
      <trkpt lat="43.35586" lon="-1.56813">
        <ele>17</ele>
        <time>2026-08-23T13:32:24.000Z</time>
      </trkpt>
      <trkpt lat="43.3559" lon="-1.56787">
        <ele>17</ele>
        <time>2026-08-23T13:32:27.000Z</time>
      </trkpt>
      <trkpt lat="43.35608" lon="-1.56729">
        <ele>18</ele>
        <time>2026-08-23T13:32:35.000Z</time>
      </trkpt>
      <trkpt lat="43.35618" lon="-1.56692">
        <ele>19</ele>
        <time>2026-08-23T13:32:40.000Z</time>
      </trkpt>
      <trkpt lat="43.3562" lon="-1.56681">
        <ele>19</ele>
        <time>2026-08-23T13:32:42.000Z</time>
      </trkpt>
      <trkpt lat="43.35625" lon="-1.56641">
        <ele>19</ele>
        <time>2026-08-23T13:32:47.000Z</time>
      </trkpt>
      <trkpt lat="43.35626" lon="-1.56626">
        <ele>19</ele>
        <time>2026-08-23T13:32:49.000Z</time>
      </trkpt>
      <trkpt lat="43.35625" lon="-1.56614">
        <ele>19</ele>
        <time>2026-08-23T13:32:51.000Z</time>
      </trkpt>
      <trkpt lat="43.35619" lon="-1.56611">
        <ele>19</ele>
        <time>2026-08-23T13:32:52.000Z</time>
      </trkpt>
      <trkpt lat="43.35617" lon="-1.56608">
        <ele>19</ele>
        <time>2026-08-23T13:32:52.000Z</time>
      </trkpt>
      <trkpt lat="43.35616" lon="-1.56601">
        <ele>19</ele>
        <time>2026-08-23T13:32:53.000Z</time>
      </trkpt>
      <trkpt lat="43.35616" lon="-1.56597">
        <ele>19</ele>
        <time>2026-08-23T13:32:54.000Z</time>
      </trkpt>
      <trkpt lat="43.35617" lon="-1.56593">
        <ele>19</ele>
        <time>2026-08-23T13:32:54.000Z</time>
      </trkpt>
      <trkpt lat="43.35619" lon="-1.5659">
        <ele>19</ele>
        <time>2026-08-23T13:32:55.000Z</time>
      </trkpt>
      <trkpt lat="43.35622" lon="-1.56588">
        <ele>19</ele>
        <time>2026-08-23T13:32:55.000Z</time>
      </trkpt>
      <trkpt lat="43.35625" lon="-1.56587">
        <ele>19</ele>
        <time>2026-08-23T13:32:56.000Z</time>
      </trkpt>
      <trkpt lat="43.35624" lon="-1.56576">
        <ele>19</ele>
        <time>2026-08-23T13:32:57.000Z</time>
      </trkpt>
      <trkpt lat="43.35622" lon="-1.56557">
        <ele>19</ele>
        <time>2026-08-23T13:33:00.000Z</time>
      </trkpt>
      <trkpt lat="43.35622" lon="-1.56509">
        <ele>19</ele>
        <time>2026-08-23T13:33:06.000Z</time>
      </trkpt>
      <trkpt lat="43.35619" lon="-1.56504">
        <ele>18</ele>
        <time>2026-08-23T13:33:07.000Z</time>
      </trkpt>
      <trkpt lat="43.35617" lon="-1.56498">
        <ele>18</ele>
        <time>2026-08-23T13:33:08.000Z</time>
      </trkpt>
      <trkpt lat="43.35613" lon="-1.56369">
        <ele>18</ele>
        <time>2026-08-23T13:33:24.000Z</time>
      </trkpt>
      <trkpt lat="43.35611" lon="-1.56297">
        <ele>18</ele>
        <time>2026-08-23T13:33:34.000Z</time>
      </trkpt>
      <trkpt lat="43.3561" lon="-1.56222">
        <ele>18</ele>
        <time>2026-08-23T13:33:43.000Z</time>
      </trkpt>
      <trkpt lat="43.35615" lon="-1.56148">
        <ele>19</ele>
        <time>2026-08-23T13:33:53.000Z</time>
      </trkpt>
      <trkpt lat="43.35619" lon="-1.56124">
        <ele>18</ele>
        <time>2026-08-23T13:33:56.000Z</time>
      </trkpt>
      <trkpt lat="43.35625" lon="-1.56126">
        <ele>18</ele>
        <time>2026-08-23T13:33:57.000Z</time>
      </trkpt>
      <trkpt lat="43.35635" lon="-1.56106">
        <ele>18</ele>
        <time>2026-08-23T13:34:00.000Z</time>
      </trkpt>
      <trkpt lat="43.35643" lon="-1.56095">
        <ele>18</ele>
        <time>2026-08-23T13:34:02.000Z</time>
      </trkpt>
      <trkpt lat="43.35652" lon="-1.56086">
        <ele>18</ele>
        <time>2026-08-23T13:34:04.000Z</time>
      </trkpt>
      <trkpt lat="43.3566" lon="-1.5608">
        <ele>18</ele>
        <time>2026-08-23T13:34:06.000Z</time>
      </trkpt>
      <trkpt lat="43.35697" lon="-1.56057">
        <ele>18</ele>
        <time>2026-08-23T13:34:13.000Z</time>
      </trkpt>
      <trkpt lat="43.35722" lon="-1.5604">
        <ele>19</ele>
        <time>2026-08-23T13:34:18.000Z</time>
      </trkpt>
      <trkpt lat="43.3573" lon="-1.56032">
        <ele>19</ele>
        <time>2026-08-23T13:34:20.000Z</time>
      </trkpt>
      <trkpt lat="43.35734" lon="-1.56023">
        <ele>19</ele>
        <time>2026-08-23T13:34:21.000Z</time>
      </trkpt>
      <trkpt lat="43.35739" lon="-1.56006">
        <ele>18</ele>
        <time>2026-08-23T13:34:24.000Z</time>
      </trkpt>
      <trkpt lat="43.35738" lon="-1.56">
        <ele>17</ele>
        <time>2026-08-23T13:34:25.000Z</time>
      </trkpt>
      <trkpt lat="43.35738" lon="-1.55993">
        <ele>17</ele>
        <time>2026-08-23T13:34:25.000Z</time>
      </trkpt>
      <trkpt lat="43.35729" lon="-1.55981">
        <ele>17</ele>
        <time>2026-08-23T13:34:28.000Z</time>
      </trkpt>
      <trkpt lat="43.35718" lon="-1.5597">
        <ele>16</ele>
        <time>2026-08-23T13:34:30.000Z</time>
      </trkpt>
      <trkpt lat="43.35683" lon="-1.55941">
        <ele>16</ele>
        <time>2026-08-23T13:34:37.000Z</time>
      </trkpt>
      <trkpt lat="43.35646" lon="-1.55912">
        <ele>16</ele>
        <time>2026-08-23T13:34:45.000Z</time>
      </trkpt>
      <trkpt lat="43.35633" lon="-1.55898">
        <ele>15</ele>
        <time>2026-08-23T13:34:48.000Z</time>
      </trkpt>
      <trkpt lat="43.35615" lon="-1.55872">
        <ele>15</ele>
        <time>2026-08-23T13:34:53.000Z</time>
      </trkpt>
      <trkpt lat="43.35607" lon="-1.55857">
        <ele>15</ele>
        <time>2026-08-23T13:34:55.000Z</time>
      </trkpt>
      <trkpt lat="43.35592" lon="-1.55813">
        <ele>15</ele>
        <time>2026-08-23T13:35:01.000Z</time>
      </trkpt>
      <trkpt lat="43.35588" lon="-1.5579">
        <ele>16</ele>
        <time>2026-08-23T13:35:04.000Z</time>
      </trkpt>
      <trkpt lat="43.35586" lon="-1.55766">
        <ele>16</ele>
        <time>2026-08-23T13:35:07.000Z</time>
      </trkpt>
      <trkpt lat="43.35585" lon="-1.55731">
        <ele>16</ele>
        <time>2026-08-23T13:35:12.000Z</time>
      </trkpt>
      <trkpt lat="43.35582" lon="-1.55514">
        <ele>13</ele>
        <time>2026-08-23T13:35:40.000Z</time>
      </trkpt>
      <trkpt lat="43.35579" lon="-1.55486">
        <ele>14</ele>
        <time>2026-08-23T13:35:44.000Z</time>
      </trkpt>
      <trkpt lat="43.35575" lon="-1.55465">
        <ele>14</ele>
        <time>2026-08-23T13:35:47.000Z</time>
      </trkpt>
      <trkpt lat="43.35561" lon="-1.55441">
        <ele>15</ele>
        <time>2026-08-23T13:35:51.000Z</time>
      </trkpt>
      <trkpt lat="43.35553" lon="-1.55433">
        <ele>15</ele>
        <time>2026-08-23T13:35:52.000Z</time>
      </trkpt>
      <trkpt lat="43.35547" lon="-1.55433">
        <ele>15</ele>
        <time>2026-08-23T13:35:53.000Z</time>
      </trkpt>
      <trkpt lat="43.35543" lon="-1.5543">
        <ele>15</ele>
        <time>2026-08-23T13:35:54.000Z</time>
      </trkpt>
      <trkpt lat="43.3554" lon="-1.55426">
        <ele>15</ele>
        <time>2026-08-23T13:35:55.000Z</time>
      </trkpt>
      <trkpt lat="43.35538" lon="-1.55418">
        <ele>15</ele>
        <time>2026-08-23T13:35:56.000Z</time>
      </trkpt>
      <trkpt lat="43.35538" lon="-1.5541">
        <ele>16</ele>
        <time>2026-08-23T13:35:57.000Z</time>
      </trkpt>
      <trkpt lat="43.3554" lon="-1.55404">
        <ele>16</ele>
        <time>2026-08-23T13:35:58.000Z</time>
      </trkpt>
      <trkpt lat="43.35542" lon="-1.55399">
        <ele>16</ele>
        <time>2026-08-23T13:35:59.000Z</time>
      </trkpt>
      <trkpt lat="43.35546" lon="-1.55396">
        <ele>16</ele>
        <time>2026-08-23T13:35:59.000Z</time>
      </trkpt>
      <trkpt lat="43.35548" lon="-1.55395">
        <ele>16</ele>
        <time>2026-08-23T13:36:00.000Z</time>
      </trkpt>
      <trkpt lat="43.35554" lon="-1.55395">
        <ele>16</ele>
        <time>2026-08-23T13:36:01.000Z</time>
      </trkpt>
      <trkpt lat="43.35558" lon="-1.55397">
        <ele>16</ele>
        <time>2026-08-23T13:36:02.000Z</time>
      </trkpt>
      <trkpt lat="43.35561" lon="-1.554">
        <ele>16</ele>
        <time>2026-08-23T13:36:02.000Z</time>
      </trkpt>
      <trkpt lat="43.35564" lon="-1.55404">
        <ele>16</ele>
        <time>2026-08-23T13:36:03.000Z</time>
      </trkpt>
      <trkpt lat="43.35565" lon="-1.55408">
        <ele>16</ele>
        <time>2026-08-23T13:36:04.000Z</time>
      </trkpt>
      <trkpt lat="43.35566" lon="-1.55416">
        <ele>16</ele>
        <time>2026-08-23T13:36:05.000Z</time>
      </trkpt>
      <trkpt lat="43.35564" lon="-1.55422">
        <ele>16</ele>
        <time>2026-08-23T13:36:05.000Z</time>
      </trkpt>
      <trkpt lat="43.35562" lon="-1.55428">
        <ele>15</ele>
        <time>2026-08-23T13:36:06.000Z</time>
      </trkpt>
      <trkpt lat="43.35558" lon="-1.55431">
        <ele>15</ele>
        <time>2026-08-23T13:36:07.000Z</time>
      </trkpt>
      <trkpt lat="43.35553" lon="-1.55433">
        <ele>15</ele>
        <time>2026-08-23T13:36:08.000Z</time>
      </trkpt>
      <trkpt lat="43.35547" lon="-1.55433">
        <ele>15</ele>
        <time>2026-08-23T13:36:09.000Z</time>
      </trkpt>
      <trkpt lat="43.35543" lon="-1.5543">
        <ele>15</ele>
        <time>2026-08-23T13:36:10.000Z</time>
      </trkpt>
      <trkpt lat="43.3554" lon="-1.55426">
        <ele>15</ele>
        <time>2026-08-23T13:36:11.000Z</time>
      </trkpt>
      <trkpt lat="43.35538" lon="-1.55418">
        <ele>15</ele>
        <time>2026-08-23T13:36:12.000Z</time>
      </trkpt>
      <trkpt lat="43.35538" lon="-1.5541">
        <ele>16</ele>
        <time>2026-08-23T13:36:13.000Z</time>
      </trkpt>
      <trkpt lat="43.35529" lon="-1.55397">
        <ele>16</ele>
        <time>2026-08-23T13:36:15.000Z</time>
      </trkpt>
      <trkpt lat="43.35523" lon="-1.55387">
        <ele>16</ele>
        <time>2026-08-23T13:36:17.000Z</time>
      </trkpt>
      <trkpt lat="43.3551" lon="-1.55377">
        <ele>16</ele>
        <time>2026-08-23T13:36:19.000Z</time>
      </trkpt>
      <trkpt lat="43.35497" lon="-1.55372">
        <ele>16</ele>
        <time>2026-08-23T13:36:22.000Z</time>
      </trkpt>
      <trkpt lat="43.35484" lon="-1.5537">
        <ele>16</ele>
        <time>2026-08-23T13:36:24.000Z</time>
      </trkpt>
      <trkpt lat="43.35456" lon="-1.5537">
        <ele>16</ele>
        <time>2026-08-23T13:36:29.000Z</time>
      </trkpt>
      <trkpt lat="43.35398" lon="-1.5538">
        <ele>16</ele>
        <time>2026-08-23T13:36:40.000Z</time>
      </trkpt>
      <trkpt lat="43.35369" lon="-1.55382">
        <ele>16</ele>
        <time>2026-08-23T13:36:45.000Z</time>
      </trkpt>
      <trkpt lat="43.35338" lon="-1.55376">
        <ele>16</ele>
        <time>2026-08-23T13:36:50.000Z</time>
      </trkpt>
      <trkpt lat="43.35313" lon="-1.55362">
        <ele>17</ele>
        <time>2026-08-23T13:36:55.000Z</time>
      </trkpt>
      <trkpt lat="43.35294" lon="-1.55346">
        <ele>17</ele>
        <time>2026-08-23T13:36:59.000Z</time>
      </trkpt>
      <trkpt lat="43.35275" lon="-1.55324">
        <ele>18</ele>
        <time>2026-08-23T13:37:03.000Z</time>
      </trkpt>
      <trkpt lat="43.35262" lon="-1.553">
        <ele>17</ele>
        <time>2026-08-23T13:37:07.000Z</time>
      </trkpt>
      <trkpt lat="43.35241" lon="-1.55256">
        <ele>17</ele>
        <time>2026-08-23T13:37:14.000Z</time>
      </trkpt>
      <trkpt lat="43.3521" lon="-1.55187">
        <ele>16</ele>
        <time>2026-08-23T13:37:25.000Z</time>
      </trkpt>
      <trkpt lat="43.35143" lon="-1.55034">
        <ele>17</ele>
        <time>2026-08-23T13:37:48.000Z</time>
      </trkpt>
      <trkpt lat="43.35128" lon="-1.55">
        <ele>17</ele>
        <time>2026-08-23T13:37:53.000Z</time>
      </trkpt>
      <trkpt lat="43.35123" lon="-1.54989">
        <ele>18</ele>
        <time>2026-08-23T13:37:55.000Z</time>
      </trkpt>
      <trkpt lat="43.35117" lon="-1.54993">
        <ele>18</ele>
        <time>2026-08-23T13:37:56.000Z</time>
      </trkpt>
      <trkpt lat="43.35111" lon="-1.54994">
        <ele>18</ele>
        <time>2026-08-23T13:37:57.000Z</time>
      </trkpt>
      <trkpt lat="43.35105" lon="-1.54992">
        <ele>18</ele>
        <time>2026-08-23T13:37:58.000Z</time>
      </trkpt>
      <trkpt lat="43.35099" lon="-1.54988">
        <ele>18</ele>
        <time>2026-08-23T13:37:59.000Z</time>
      </trkpt>
      <trkpt lat="43.35095" lon="-1.54982">
        <ele>18</ele>
        <time>2026-08-23T13:38:00.000Z</time>
      </trkpt>
      <trkpt lat="43.35092" lon="-1.54975">
        <ele>18</ele>
        <time>2026-08-23T13:38:01.000Z</time>
      </trkpt>
      <trkpt lat="43.3509" lon="-1.54968">
        <ele>19</ele>
        <time>2026-08-23T13:38:02.000Z</time>
      </trkpt>
      <trkpt lat="43.3509" lon="-1.54959">
        <ele>19</ele>
        <time>2026-08-23T13:38:03.000Z</time>
      </trkpt>
      <trkpt lat="43.35092" lon="-1.5495">
        <ele>19</ele>
        <time>2026-08-23T13:38:05.000Z</time>
      </trkpt>
      <trkpt lat="43.35085" lon="-1.5492">
        <ele>20</ele>
        <time>2026-08-23T13:38:09.000Z</time>
      </trkpt>
      <trkpt lat="43.35076" lon="-1.54912">
        <ele>20</ele>
        <time>2026-08-23T13:38:11.000Z</time>
      </trkpt>
      <trkpt lat="43.35055" lon="-1.54901">
        <ele>21</ele>
        <time>2026-08-23T13:38:15.000Z</time>
      </trkpt>
      <trkpt lat="43.35018" lon="-1.54882">
        <ele>22</ele>
        <time>2026-08-23T13:38:22.000Z</time>
      </trkpt>
      <trkpt lat="43.34941" lon="-1.5484">
        <ele>23</ele>
        <time>2026-08-23T13:38:36.000Z</time>
      </trkpt>
      <trkpt lat="43.3491" lon="-1.5482">
        <ele>24</ele>
        <time>2026-08-23T13:38:42.000Z</time>
      </trkpt>
      <trkpt lat="43.34888" lon="-1.548">
        <ele>25</ele>
        <time>2026-08-23T13:38:47.000Z</time>
      </trkpt>
      <trkpt lat="43.34869" lon="-1.54775">
        <ele>25</ele>
        <time>2026-08-23T13:38:52.000Z</time>
      </trkpt>
      <trkpt lat="43.34827" lon="-1.54708">
        <ele>25</ele>
        <time>2026-08-23T13:39:03.000Z</time>
      </trkpt>
      <trkpt lat="43.34701" lon="-1.54509">
        <ele>28</ele>
        <time>2026-08-23T13:39:37.000Z</time>
      </trkpt>
      <trkpt lat="43.34688" lon="-1.54482">
        <ele>28</ele>
        <time>2026-08-23T13:39:42.000Z</time>
      </trkpt>
      <trkpt lat="43.34681" lon="-1.5445">
        <ele>30</ele>
        <time>2026-08-23T13:39:46.000Z</time>
      </trkpt>
      <trkpt lat="43.34678" lon="-1.5443">
        <ele>30</ele>
        <time>2026-08-23T13:39:49.000Z</time>
      </trkpt>
      <trkpt lat="43.34676" lon="-1.54411">
        <ele>31</ele>
        <time>2026-08-23T13:39:51.000Z</time>
      </trkpt>
      <trkpt lat="43.34675" lon="-1.5436">
        <ele>32</ele>
        <time>2026-08-23T13:39:58.000Z</time>
      </trkpt>
      <trkpt lat="43.34673" lon="-1.54279">
        <ele>35</ele>
        <time>2026-08-23T13:40:08.000Z</time>
      </trkpt>
      <trkpt lat="43.3467" lon="-1.54249">
        <ele>36</ele>
        <time>2026-08-23T13:40:12.000Z</time>
      </trkpt>
      <trkpt lat="43.34667" lon="-1.54235">
        <ele>36</ele>
        <time>2026-08-23T13:40:14.000Z</time>
      </trkpt>
      <trkpt lat="43.34662" lon="-1.5421">
        <ele>37</ele>
        <time>2026-08-23T13:40:17.000Z</time>
      </trkpt>
      <trkpt lat="43.3465" lon="-1.54177">
        <ele>38</ele>
        <time>2026-08-23T13:40:22.000Z</time>
      </trkpt>
      <trkpt lat="43.3464" lon="-1.54154">
        <ele>37</ele>
        <time>2026-08-23T13:40:26.000Z</time>
      </trkpt>
      <trkpt lat="43.34591" lon="-1.54058">
        <ele>34</ele>
        <time>2026-08-23T13:40:41.000Z</time>
      </trkpt>
      <trkpt lat="43.34579" lon="-1.54024">
        <ele>34</ele>
        <time>2026-08-23T13:40:46.000Z</time>
      </trkpt>
      <trkpt lat="43.34573" lon="-1.53997">
        <ele>34</ele>
        <time>2026-08-23T13:40:49.000Z</time>
      </trkpt>
      <trkpt lat="43.34568" lon="-1.53959">
        <ele>34</ele>
        <time>2026-08-23T13:40:54.000Z</time>
      </trkpt>
      <trkpt lat="43.34568" lon="-1.53925">
        <ele>34</ele>
        <time>2026-08-23T13:40:59.000Z</time>
      </trkpt>
      <trkpt lat="43.34568" lon="-1.53905">
        <ele>35</ele>
        <time>2026-08-23T13:41:01.000Z</time>
      </trkpt>
      <trkpt lat="43.34565" lon="-1.53861">
        <ele>37</ele>
        <time>2026-08-23T13:41:07.000Z</time>
      </trkpt>
      <trkpt lat="43.34558" lon="-1.53826">
        <ele>38</ele>
        <time>2026-08-23T13:41:12.000Z</time>
      </trkpt>
      <trkpt lat="43.34532" lon="-1.53721">
        <ele>39</ele>
        <time>2026-08-23T13:41:26.000Z</time>
      </trkpt>
      <trkpt lat="43.34524" lon="-1.53674">
        <ele>39</ele>
        <time>2026-08-23T13:41:32.000Z</time>
      </trkpt>
      <trkpt lat="43.34496" lon="-1.53483">
        <ele>42</ele>
        <time>2026-08-23T13:41:57.000Z</time>
      </trkpt>
      <trkpt lat="43.34488" lon="-1.53413">
        <ele>43</ele>
        <time>2026-08-23T13:42:07.000Z</time>
      </trkpt>
      <trkpt lat="43.3447" lon="-1.53193">
        <ele>39</ele>
        <time>2026-08-23T13:42:35.000Z</time>
      </trkpt>
      <trkpt lat="43.34452" lon="-1.53015">
        <ele>38</ele>
        <time>2026-08-23T13:42:59.000Z</time>
      </trkpt>
      <trkpt lat="43.34446" lon="-1.52983">
        <ele>37</ele>
        <time>2026-08-23T13:43:03.000Z</time>
      </trkpt>
      <trkpt lat="43.3444" lon="-1.5296">
        <ele>36</ele>
        <time>2026-08-23T13:43:06.000Z</time>
      </trkpt>
      <trkpt lat="43.34432" lon="-1.52938">
        <ele>36</ele>
        <time>2026-08-23T13:43:09.000Z</time>
      </trkpt>
      <trkpt lat="43.34418" lon="-1.52909">
        <ele>35</ele>
        <time>2026-08-23T13:43:14.000Z</time>
      </trkpt>
      <trkpt lat="43.3436" lon="-1.52813">
        <ele>35</ele>
        <time>2026-08-23T13:43:30.000Z</time>
      </trkpt>
      <trkpt lat="43.34345" lon="-1.52803">
        <ele>35</ele>
        <time>2026-08-23T13:43:33.000Z</time>
      </trkpt>
      <trkpt lat="43.34339" lon="-1.52805">
        <ele>36</ele>
        <time>2026-08-23T13:43:34.000Z</time>
      </trkpt>
      <trkpt lat="43.34331" lon="-1.52803">
        <ele>36</ele>
        <time>2026-08-23T13:43:35.000Z</time>
      </trkpt>
      <trkpt lat="43.34326" lon="-1.528">
        <ele>36</ele>
        <time>2026-08-23T13:43:36.000Z</time>
      </trkpt>
      <trkpt lat="43.34323" lon="-1.52796">
        <ele>36</ele>
        <time>2026-08-23T13:43:37.000Z</time>
      </trkpt>
      <trkpt lat="43.3432" lon="-1.52788">
        <ele>36</ele>
        <time>2026-08-23T13:43:38.000Z</time>
      </trkpt>
      <trkpt lat="43.34319" lon="-1.52783">
        <ele>36</ele>
        <time>2026-08-23T13:43:39.000Z</time>
      </trkpt>
      <trkpt lat="43.3432" lon="-1.52774">
        <ele>36</ele>
        <time>2026-08-23T13:43:40.000Z</time>
      </trkpt>
      <trkpt lat="43.34323" lon="-1.52766">
        <ele>36</ele>
        <time>2026-08-23T13:43:41.000Z</time>
      </trkpt>
      <trkpt lat="43.34321" lon="-1.52744">
        <ele>36</ele>
        <time>2026-08-23T13:43:44.000Z</time>
      </trkpt>
      <trkpt lat="43.3432" lon="-1.52741">
        <ele>36</ele>
        <time>2026-08-23T13:43:45.000Z</time>
      </trkpt>
      <trkpt lat="43.34313" lon="-1.5273">
        <ele>38</ele>
        <time>2026-08-23T13:43:46.000Z</time>
      </trkpt>
      <trkpt lat="43.34276" lon="-1.52667">
        <ele>40</ele>
        <time>2026-08-23T13:43:57.000Z</time>
      </trkpt>
      <trkpt lat="43.34271" lon="-1.5266">
        <ele>40</ele>
        <time>2026-08-23T13:43:58.000Z</time>
      </trkpt>
      <trkpt lat="43.34244" lon="-1.52613">
        <ele>41</ele>
        <time>2026-08-23T13:44:06.000Z</time>
      </trkpt>
      <trkpt lat="43.34179" lon="-1.52508">
        <ele>42</ele>
        <time>2026-08-23T13:44:24.000Z</time>
      </trkpt>
      <trkpt lat="43.34167" lon="-1.52488">
        <ele>41</ele>
        <time>2026-08-23T13:44:27.000Z</time>
      </trkpt>
      <trkpt lat="43.34142" lon="-1.52436">
        <ele>42</ele>
        <time>2026-08-23T13:44:35.000Z</time>
      </trkpt>
      <trkpt lat="43.34123" lon="-1.52391">
        <ele>43</ele>
        <time>2026-08-23T13:44:42.000Z</time>
      </trkpt>
      <trkpt lat="43.34119" lon="-1.52379">
        <ele>43</ele>
        <time>2026-08-23T13:44:44.000Z</time>
      </trkpt>
      <trkpt lat="43.34085" lon="-1.52311">
        <ele>42</ele>
        <time>2026-08-23T13:44:54.000Z</time>
      </trkpt>
      <trkpt lat="43.34083" lon="-1.52314">
        <ele>42</ele>
        <time>2026-08-23T13:44:55.000Z</time>
      </trkpt>
      <trkpt lat="43.3408" lon="-1.52315">
        <ele>42</ele>
        <time>2026-08-23T13:44:55.000Z</time>
      </trkpt>
      <trkpt lat="43.34077" lon="-1.52316">
        <ele>42</ele>
        <time>2026-08-23T13:44:56.000Z</time>
      </trkpt>
      <trkpt lat="43.34074" lon="-1.52315">
        <ele>42</ele>
        <time>2026-08-23T13:44:56.000Z</time>
      </trkpt>
      <trkpt lat="43.34071" lon="-1.52312">
        <ele>43</ele>
        <time>2026-08-23T13:44:57.000Z</time>
      </trkpt>
      <trkpt lat="43.34069" lon="-1.52309">
        <ele>43</ele>
        <time>2026-08-23T13:44:58.000Z</time>
      </trkpt>
      <trkpt lat="43.34068" lon="-1.52305">
        <ele>43</ele>
        <time>2026-08-23T13:44:58.000Z</time>
      </trkpt>
      <trkpt lat="43.34068" lon="-1.52301">
        <ele>43</ele>
        <time>2026-08-23T13:44:59.000Z</time>
      </trkpt>
      <trkpt lat="43.34068" lon="-1.52297">
        <ele>43</ele>
        <time>2026-08-23T13:44:59.000Z</time>
      </trkpt>
      <trkpt lat="43.3407" lon="-1.52293">
        <ele>42</ele>
        <time>2026-08-23T13:45:00.000Z</time>
      </trkpt>
      <trkpt lat="43.34072" lon="-1.5229">
        <ele>42</ele>
        <time>2026-08-23T13:45:00.000Z</time>
      </trkpt>
      <trkpt lat="43.34075" lon="-1.52289">
        <ele>42</ele>
        <time>2026-08-23T13:45:01.000Z</time>
      </trkpt>
      <trkpt lat="43.34059" lon="-1.52242">
        <ele>43</ele>
        <time>2026-08-23T13:45:08.000Z</time>
      </trkpt>
      <trkpt lat="43.3398" lon="-1.52055">
        <ele>41</ele>
        <time>2026-08-23T13:45:36.000Z</time>
      </trkpt>
      <trkpt lat="43.33975" lon="-1.5204">
        <ele>41</ele>
        <time>2026-08-23T13:45:38.000Z</time>
      </trkpt>
      <trkpt lat="43.3397" lon="-1.52028">
        <ele>41</ele>
        <time>2026-08-23T13:45:40.000Z</time>
      </trkpt>
      <trkpt lat="43.33846" lon="-1.51736">
        <ele>43</ele>
        <time>2026-08-23T13:46:23.000Z</time>
      </trkpt>
      <trkpt lat="43.33835" lon="-1.5171">
        <ele>44</ele>
        <time>2026-08-23T13:46:27.000Z</time>
      </trkpt>
      <trkpt lat="43.33773" lon="-1.51561">
        <ele>47</ele>
        <time>2026-08-23T13:46:49.000Z</time>
      </trkpt>
      <trkpt lat="43.33754" lon="-1.51513">
        <ele>47</ele>
        <time>2026-08-23T13:46:56.000Z</time>
      </trkpt>
      <trkpt lat="43.33748" lon="-1.51497">
        <ele>47</ele>
        <time>2026-08-23T13:46:59.000Z</time>
      </trkpt>
      <trkpt lat="43.33643" lon="-1.51157">
        <ele>52</ele>
        <time>2026-08-23T13:47:47.000Z</time>
      </trkpt>
      <trkpt lat="43.33637" lon="-1.51133">
        <ele>52</ele>
        <time>2026-08-23T13:47:50.000Z</time>
      </trkpt>
      <trkpt lat="43.3363" lon="-1.51093">
        <ele>53</ele>
        <time>2026-08-23T13:47:55.000Z</time>
      </trkpt>
      <trkpt lat="43.33624" lon="-1.5104">
        <ele>54</ele>
        <time>2026-08-23T13:48:02.000Z</time>
      </trkpt>
      <trkpt lat="43.3359" lon="-1.50779">
        <ele>60</ele>
        <time>2026-08-23T13:48:36.000Z</time>
      </trkpt>
      <trkpt lat="43.33587" lon="-1.50737">
        <ele>62</ele>
        <time>2026-08-23T13:48:42.000Z</time>
      </trkpt>
      <trkpt lat="43.33588" lon="-1.50712">
        <ele>64</ele>
        <time>2026-08-23T13:48:45.000Z</time>
      </trkpt>
      <trkpt lat="43.33589" lon="-1.50702">
        <ele>66</ele>
        <time>2026-08-23T13:48:47.000Z</time>
      </trkpt>
      <trkpt lat="43.33595" lon="-1.50663">
        <ele>70</ele>
        <time>2026-08-23T13:48:52.000Z</time>
      </trkpt>
      <trkpt lat="43.33612" lon="-1.50569">
        <ele>76</ele>
        <time>2026-08-23T13:49:04.000Z</time>
      </trkpt>
      <trkpt lat="43.33612" lon="-1.50548">
        <ele>76</ele>
        <time>2026-08-23T13:49:07.000Z</time>
      </trkpt>
      <trkpt lat="43.33608" lon="-1.50521">
        <ele>76</ele>
        <time>2026-08-23T13:49:10.000Z</time>
      </trkpt>
      <trkpt lat="43.336" lon="-1.50474">
        <ele>76</ele>
        <time>2026-08-23T13:49:17.000Z</time>
      </trkpt>
      <trkpt lat="43.3358" lon="-1.50425">
        <ele>74</ele>
        <time>2026-08-23T13:49:24.000Z</time>
      </trkpt>
      <trkpt lat="43.33567" lon="-1.50402">
        <ele>75</ele>
        <time>2026-08-23T13:49:28.000Z</time>
      </trkpt>
      <trkpt lat="43.33552" lon="-1.50375">
        <ele>76</ele>
        <time>2026-08-23T13:49:32.000Z</time>
      </trkpt>
      <trkpt lat="43.33499" lon="-1.50311">
        <ele>75</ele>
        <time>2026-08-23T13:49:45.000Z</time>
      </trkpt>
      <trkpt lat="43.33479" lon="-1.50282">
        <ele>76</ele>
        <time>2026-08-23T13:49:50.000Z</time>
      </trkpt>
      <trkpt lat="43.3346" lon="-1.50244">
        <ele>77</ele>
        <time>2026-08-23T13:49:56.000Z</time>
      </trkpt>
      <trkpt lat="43.33411" lon="-1.50101">
        <ele>78</ele>
        <time>2026-08-23T13:50:16.000Z</time>
      </trkpt>
      <trkpt lat="43.33372" lon="-1.49993">
        <ele>82</ele>
        <time>2026-08-23T13:50:32.000Z</time>
      </trkpt>
      <trkpt lat="43.33329" lon="-1.4987">
        <ele>89</ele>
        <time>2026-08-23T13:50:50.000Z</time>
      </trkpt>
      <trkpt lat="43.3332" lon="-1.49838">
        <ele>92</ele>
        <time>2026-08-23T13:50:54.000Z</time>
      </trkpt>
      <trkpt lat="43.33314" lon="-1.49793">
        <ele>93</ele>
        <time>2026-08-23T13:51:00.000Z</time>
      </trkpt>
      <trkpt lat="43.33312" lon="-1.49746">
        <ele>94</ele>
        <time>2026-08-23T13:51:06.000Z</time>
      </trkpt>
      <trkpt lat="43.33315" lon="-1.49692">
        <ele>96</ele>
        <time>2026-08-23T13:51:13.000Z</time>
      </trkpt>
      <trkpt lat="43.33336" lon="-1.49514">
        <ele>105</ele>
        <time>2026-08-23T13:51:36.000Z</time>
      </trkpt>
      <trkpt lat="43.33338" lon="-1.49477">
        <ele>105</ele>
        <time>2026-08-23T13:51:41.000Z</time>
      </trkpt>
      <trkpt lat="43.33339" lon="-1.49433">
        <ele>104</ele>
        <time>2026-08-23T13:51:47.000Z</time>
      </trkpt>
      <trkpt lat="43.33336" lon="-1.49373">
        <ele>105</ele>
        <time>2026-08-23T13:51:55.000Z</time>
      </trkpt>
      <trkpt lat="43.33314" lon="-1.49049">
        <ele>120</ele>
        <time>2026-08-23T13:52:37.000Z</time>
      </trkpt>
      <trkpt lat="43.33309" lon="-1.49011">
        <ele>122</ele>
        <time>2026-08-23T13:52:42.000Z</time>
      </trkpt>
      <trkpt lat="43.33305" lon="-1.48993">
        <ele>123</ele>
        <time>2026-08-23T13:52:44.000Z</time>
      </trkpt>
      <trkpt lat="43.333" lon="-1.4898">
        <ele>124</ele>
        <time>2026-08-23T13:52:46.000Z</time>
      </trkpt>
      <trkpt lat="43.33294" lon="-1.48965">
        <ele>124</ele>
        <time>2026-08-23T13:52:48.000Z</time>
      </trkpt>
      <trkpt lat="43.33285" lon="-1.48952">
        <ele>125</ele>
        <time>2026-08-23T13:52:51.000Z</time>
      </trkpt>
      <trkpt lat="43.33282" lon="-1.48952">
        <ele>125</ele>
        <time>2026-08-23T13:52:51.000Z</time>
      </trkpt>
      <trkpt lat="43.33277" lon="-1.48949">
        <ele>125</ele>
        <time>2026-08-23T13:52:52.000Z</time>
      </trkpt>
      <trkpt lat="43.33273" lon="-1.48943">
        <ele>125</ele>
        <time>2026-08-23T13:52:53.000Z</time>
      </trkpt>
      <trkpt lat="43.33273" lon="-1.48939">
        <ele>124</ele>
        <time>2026-08-23T13:52:54.000Z</time>
      </trkpt>
      <trkpt lat="43.33274" lon="-1.48931">
        <ele>124</ele>
        <time>2026-08-23T13:52:55.000Z</time>
      </trkpt>
      <trkpt lat="43.33277" lon="-1.48926">
        <ele>124</ele>
        <time>2026-08-23T13:52:56.000Z</time>
      </trkpt>
      <trkpt lat="43.33283" lon="-1.48892">
        <ele>122</ele>
        <time>2026-08-23T13:53:00.000Z</time>
      </trkpt>
      <trkpt lat="43.33285" lon="-1.48865">
        <ele>122</ele>
        <time>2026-08-23T13:53:04.000Z</time>
      </trkpt>
      <trkpt lat="43.33289" lon="-1.48848">
        <ele>122</ele>
        <time>2026-08-23T13:53:06.000Z</time>
      </trkpt>
      <trkpt lat="43.33302" lon="-1.48814">
        <ele>121</ele>
        <time>2026-08-23T13:53:11.000Z</time>
      </trkpt>
      <trkpt lat="43.33316" lon="-1.48783">
        <ele>120</ele>
        <time>2026-08-23T13:53:16.000Z</time>
      </trkpt>
      <trkpt lat="43.33329" lon="-1.48762">
        <ele>119</ele>
        <time>2026-08-23T13:53:19.000Z</time>
      </trkpt>
      <trkpt lat="43.33344" lon="-1.48738">
        <ele>117</ele>
        <time>2026-08-23T13:53:23.000Z</time>
      </trkpt>
      <trkpt lat="43.33361" lon="-1.48716">
        <ele>114</ele>
        <time>2026-08-23T13:53:27.000Z</time>
      </trkpt>
      <trkpt lat="43.33393" lon="-1.48682">
        <ele>112</ele>
        <time>2026-08-23T13:53:35.000Z</time>
      </trkpt>
      <trkpt lat="43.334" lon="-1.48674">
        <ele>111</ele>
        <time>2026-08-23T13:53:36.000Z</time>
      </trkpt>
      <trkpt lat="43.33412" lon="-1.48655">
        <ele>110</ele>
        <time>2026-08-23T13:53:40.000Z</time>
      </trkpt>
      <trkpt lat="43.33422" lon="-1.48635">
        <ele>110</ele>
        <time>2026-08-23T13:53:43.000Z</time>
      </trkpt>
      <trkpt lat="43.3343" lon="-1.48615">
        <ele>111</ele>
        <time>2026-08-23T13:53:46.000Z</time>
      </trkpt>
      <trkpt lat="43.33437" lon="-1.48593">
        <ele>111</ele>
        <time>2026-08-23T13:53:49.000Z</time>
      </trkpt>
      <trkpt lat="43.3344" lon="-1.48576">
        <ele>110</ele>
        <time>2026-08-23T13:53:51.000Z</time>
      </trkpt>
      <trkpt lat="43.33445" lon="-1.48535">
        <ele>108</ele>
        <time>2026-08-23T13:53:56.000Z</time>
      </trkpt>
      <trkpt lat="43.33451" lon="-1.48502">
        <ele>107</ele>
        <time>2026-08-23T13:54:01.000Z</time>
      </trkpt>
      <trkpt lat="43.33458" lon="-1.48475">
        <ele>105</ele>
        <time>2026-08-23T13:54:05.000Z</time>
      </trkpt>
      <trkpt lat="43.33476" lon="-1.48429">
        <ele>103</ele>
        <time>2026-08-23T13:54:11.000Z</time>
      </trkpt>
      <trkpt lat="43.33494" lon="-1.48395">
        <ele>101</ele>
        <time>2026-08-23T13:54:17.000Z</time>
      </trkpt>
      <trkpt lat="43.33532" lon="-1.48328">
        <ele>98</ele>
        <time>2026-08-23T13:54:28.000Z</time>
      </trkpt>
      <trkpt lat="43.3355" lon="-1.48289">
        <ele>98</ele>
        <time>2026-08-23T13:54:34.000Z</time>
      </trkpt>
      <trkpt lat="43.33556" lon="-1.48272">
        <ele>97</ele>
        <time>2026-08-23T13:54:36.000Z</time>
      </trkpt>
      <trkpt lat="43.33562" lon="-1.48252">
        <ele>96</ele>
        <time>2026-08-23T13:54:39.000Z</time>
      </trkpt>
      <trkpt lat="43.33575" lon="-1.48188">
        <ele>94</ele>
        <time>2026-08-23T13:54:48.000Z</time>
      </trkpt>
      <trkpt lat="43.33575" lon="-1.48181">
        <ele>93</ele>
        <time>2026-08-23T13:54:48.000Z</time>
      </trkpt>
      <trkpt lat="43.33582" lon="-1.48129">
        <ele>90</ele>
        <time>2026-08-23T13:54:55.000Z</time>
      </trkpt>
      <trkpt lat="43.33599" lon="-1.47995">
        <ele>84</ele>
        <time>2026-08-23T13:55:13.000Z</time>
      </trkpt>
      <trkpt lat="43.33619" lon="-1.47845">
        <ele>75</ele>
        <time>2026-08-23T13:55:33.000Z</time>
      </trkpt>
      <trkpt lat="43.33624" lon="-1.47822">
        <ele>74</ele>
        <time>2026-08-23T13:55:36.000Z</time>
      </trkpt>
      <trkpt lat="43.3363" lon="-1.47801">
        <ele>74</ele>
        <time>2026-08-23T13:55:39.000Z</time>
      </trkpt>
      <trkpt lat="43.33636" lon="-1.47788">
        <ele>73</ele>
        <time>2026-08-23T13:55:41.000Z</time>
      </trkpt>
      <trkpt lat="43.3365" lon="-1.47766">
        <ele>72</ele>
        <time>2026-08-23T13:55:44.000Z</time>
      </trkpt>
      <trkpt lat="43.33662" lon="-1.47753">
        <ele>71</ele>
        <time>2026-08-23T13:55:47.000Z</time>
      </trkpt>
      <trkpt lat="43.33679" lon="-1.4774">
        <ele>70</ele>
        <time>2026-08-23T13:55:51.000Z</time>
      </trkpt>
      <trkpt lat="43.33697" lon="-1.47732">
        <ele>69</ele>
        <time>2026-08-23T13:55:54.000Z</time>
      </trkpt>
      <trkpt lat="43.33718" lon="-1.47728">
        <ele>68</ele>
        <time>2026-08-23T13:55:58.000Z</time>
      </trkpt>
      <trkpt lat="43.33733" lon="-1.47729">
        <ele>68</ele>
        <time>2026-08-23T13:56:00.000Z</time>
      </trkpt>
      <trkpt lat="43.33815" lon="-1.47753">
        <ele>66</ele>
        <time>2026-08-23T13:56:15.000Z</time>
      </trkpt>
      <trkpt lat="43.33846" lon="-1.47757">
        <ele>65</ele>
        <time>2026-08-23T13:56:21.000Z</time>
      </trkpt>
      <trkpt lat="43.33865" lon="-1.47758">
        <ele>65</ele>
        <time>2026-08-23T13:56:24.000Z</time>
      </trkpt>
      <trkpt lat="43.33885" lon="-1.47756">
        <ele>65</ele>
        <time>2026-08-23T13:56:28.000Z</time>
      </trkpt>
      <trkpt lat="43.33893" lon="-1.47754">
        <ele>65</ele>
        <time>2026-08-23T13:56:29.000Z</time>
      </trkpt>
      <trkpt lat="43.33898" lon="-1.47752">
        <ele>65</ele>
        <time>2026-08-23T13:56:30.000Z</time>
      </trkpt>
      <trkpt lat="43.33921" lon="-1.47741">
        <ele>65</ele>
        <time>2026-08-23T13:56:35.000Z</time>
      </trkpt>
      <trkpt lat="43.33947" lon="-1.47725">
        <ele>67</ele>
        <time>2026-08-23T13:56:40.000Z</time>
      </trkpt>
      <trkpt lat="43.3397" lon="-1.477">
        <ele>68</ele>
        <time>2026-08-23T13:56:45.000Z</time>
      </trkpt>
      <trkpt lat="43.34002" lon="-1.47662">
        <ele>67</ele>
        <time>2026-08-23T13:56:52.000Z</time>
      </trkpt>
      <trkpt lat="43.34028" lon="-1.47629">
        <ele>68</ele>
        <time>2026-08-23T13:56:59.000Z</time>
      </trkpt>
      <trkpt lat="43.34031" lon="-1.47624">
        <ele>68</ele>
        <time>2026-08-23T13:56:59.000Z</time>
      </trkpt>
      <trkpt lat="43.34043" lon="-1.47603">
        <ele>68</ele>
        <time>2026-08-23T13:57:03.000Z</time>
      </trkpt>
      <trkpt lat="43.34058" lon="-1.47571">
        <ele>68</ele>
        <time>2026-08-23T13:57:08.000Z</time>
      </trkpt>
      <trkpt lat="43.34072" lon="-1.47542">
        <ele>66</ele>
        <time>2026-08-23T13:57:12.000Z</time>
      </trkpt>
      <trkpt lat="43.3407" lon="-1.47538">
        <ele>66</ele>
        <time>2026-08-23T13:57:13.000Z</time>
      </trkpt>
      <trkpt lat="43.34069" lon="-1.47533">
        <ele>66</ele>
        <time>2026-08-23T13:57:14.000Z</time>
      </trkpt>
      <trkpt lat="43.34069" lon="-1.47529">
        <ele>66</ele>
        <time>2026-08-23T13:57:14.000Z</time>
      </trkpt>
      <trkpt lat="43.34071" lon="-1.47524">
        <ele>66</ele>
        <time>2026-08-23T13:57:15.000Z</time>
      </trkpt>
      <trkpt lat="43.34073" lon="-1.47521">
        <ele>65</ele>
        <time>2026-08-23T13:57:15.000Z</time>
      </trkpt>
      <trkpt lat="43.34077" lon="-1.47518">
        <ele>65</ele>
        <time>2026-08-23T13:57:16.000Z</time>
      </trkpt>
      <trkpt lat="43.3408" lon="-1.47506">
        <ele>64</ele>
        <time>2026-08-23T13:57:18.000Z</time>
      </trkpt>
      <trkpt lat="43.34083" lon="-1.47484">
        <ele>63</ele>
        <time>2026-08-23T13:57:21.000Z</time>
      </trkpt>
      <trkpt lat="43.34084" lon="-1.47467">
        <ele>64</ele>
        <time>2026-08-23T13:57:23.000Z</time>
      </trkpt>
      <trkpt lat="43.34084" lon="-1.47434">
        <ele>65</ele>
        <time>2026-08-23T13:57:27.000Z</time>
      </trkpt>
      <trkpt lat="43.34081" lon="-1.47417">
        <ele>65</ele>
        <time>2026-08-23T13:57:30.000Z</time>
      </trkpt>
      <trkpt lat="43.34071" lon="-1.47328">
        <ele>67</ele>
        <time>2026-08-23T13:57:41.000Z</time>
      </trkpt>
      <trkpt lat="43.34071" lon="-1.47314">
        <ele>66</ele>
        <time>2026-08-23T13:57:43.000Z</time>
      </trkpt>
      <trkpt lat="43.34069" lon="-1.47299">
        <ele>66</ele>
        <time>2026-08-23T13:57:45.000Z</time>
      </trkpt>
      <trkpt lat="43.34066" lon="-1.47296">
        <ele>66</ele>
        <time>2026-08-23T13:57:46.000Z</time>
      </trkpt>
      <trkpt lat="43.34064" lon="-1.47292">
        <ele>66</ele>
        <time>2026-08-23T13:57:46.000Z</time>
      </trkpt>
      <trkpt lat="43.34063" lon="-1.47287">
        <ele>66</ele>
        <time>2026-08-23T13:57:47.000Z</time>
      </trkpt>
      <trkpt lat="43.34063" lon="-1.47281">
        <ele>66</ele>
        <time>2026-08-23T13:57:48.000Z</time>
      </trkpt>
      <trkpt lat="43.34065" lon="-1.47273">
        <ele>65</ele>
        <time>2026-08-23T13:57:49.000Z</time>
      </trkpt>
      <trkpt lat="43.34063" lon="-1.47256">
        <ele>65</ele>
        <time>2026-08-23T13:57:51.000Z</time>
      </trkpt>
      <trkpt lat="43.34062" lon="-1.47249">
        <ele>65</ele>
        <time>2026-08-23T13:57:52.000Z</time>
      </trkpt>
      <trkpt lat="43.34059" lon="-1.47242">
        <ele>65</ele>
        <time>2026-08-23T13:57:53.000Z</time>
      </trkpt>
      <trkpt lat="43.34043" lon="-1.47206">
        <ele>65</ele>
        <time>2026-08-23T13:57:58.000Z</time>
      </trkpt>
      <trkpt lat="43.33979" lon="-1.47069">
        <ele>64</ele>
        <time>2026-08-23T13:58:20.000Z</time>
      </trkpt>
      <trkpt lat="43.33961" lon="-1.47042">
        <ele>63</ele>
        <time>2026-08-23T13:58:24.000Z</time>
      </trkpt>
      <trkpt lat="43.33957" lon="-1.47037">
        <ele>63</ele>
        <time>2026-08-23T13:58:25.000Z</time>
      </trkpt>
      <trkpt lat="43.33914" lon="-1.46989">
        <ele>63</ele>
        <time>2026-08-23T13:58:35.000Z</time>
      </trkpt>
      <trkpt lat="43.33898" lon="-1.46973">
        <ele>64</ele>
        <time>2026-08-23T13:58:39.000Z</time>
      </trkpt>
      <trkpt lat="43.33877" lon="-1.46955">
        <ele>65</ele>
        <time>2026-08-23T13:58:43.000Z</time>
      </trkpt>
      <trkpt lat="43.33854" lon="-1.46941">
        <ele>66</ele>
        <time>2026-08-23T13:58:47.000Z</time>
      </trkpt>
      <trkpt lat="43.33789" lon="-1.46898">
        <ele>67</ele>
        <time>2026-08-23T13:59:00.000Z</time>
      </trkpt>
      <trkpt lat="43.33777" lon="-1.46889">
        <ele>67</ele>
        <time>2026-08-23T13:59:03.000Z</time>
      </trkpt>
      <trkpt lat="43.33766" lon="-1.46878">
        <ele>67</ele>
        <time>2026-08-23T13:59:05.000Z</time>
      </trkpt>
      <trkpt lat="43.33753" lon="-1.46863">
        <ele>67</ele>
        <time>2026-08-23T13:59:08.000Z</time>
      </trkpt>
      <trkpt lat="43.3374" lon="-1.46846">
        <ele>67</ele>
        <time>2026-08-23T13:59:11.000Z</time>
      </trkpt>
      <trkpt lat="43.33729" lon="-1.46825">
        <ele>67</ele>
        <time>2026-08-23T13:59:15.000Z</time>
      </trkpt>
      <trkpt lat="43.3372" lon="-1.46802">
        <ele>67</ele>
        <time>2026-08-23T13:59:18.000Z</time>
      </trkpt>
      <trkpt lat="43.33702" lon="-1.46745">
        <ele>66</ele>
        <time>2026-08-23T13:59:26.000Z</time>
      </trkpt>
      <trkpt lat="43.33698" lon="-1.46717">
        <ele>66</ele>
        <time>2026-08-23T13:59:30.000Z</time>
      </trkpt>
      <trkpt lat="43.33696" lon="-1.46681">
        <ele>65</ele>
        <time>2026-08-23T13:59:35.000Z</time>
      </trkpt>
      <trkpt lat="43.337" lon="-1.46591">
        <ele>64</ele>
        <time>2026-08-23T13:59:46.000Z</time>
      </trkpt>
      <trkpt lat="43.33699" lon="-1.46577">
        <ele>64</ele>
        <time>2026-08-23T13:59:48.000Z</time>
      </trkpt>
      <trkpt lat="43.33699" lon="-1.46555">
        <ele>64</ele>
        <time>2026-08-23T13:59:51.000Z</time>
      </trkpt>
      <trkpt lat="43.33696" lon="-1.46537">
        <ele>63</ele>
        <time>2026-08-23T13:59:53.000Z</time>
      </trkpt>
      <trkpt lat="43.3369" lon="-1.46504">
        <ele>63</ele>
        <time>2026-08-23T13:59:58.000Z</time>
      </trkpt>
      <trkpt lat="43.33649" lon="-1.46259">
        <ele>56</ele>
        <time>2026-08-23T14:00:30.000Z</time>
      </trkpt>
      <trkpt lat="43.33638" lon="-1.46212">
        <ele>56</ele>
        <time>2026-08-23T14:00:37.000Z</time>
      </trkpt>
      <trkpt lat="43.33623" lon="-1.46178">
        <ele>56</ele>
        <time>2026-08-23T14:00:42.000Z</time>
      </trkpt>
      <trkpt lat="43.33593" lon="-1.46124">
        <ele>57</ele>
        <time>2026-08-23T14:00:51.000Z</time>
      </trkpt>
      <trkpt lat="43.33583" lon="-1.46106">
        <ele>57</ele>
        <time>2026-08-23T14:00:53.000Z</time>
      </trkpt>
      <trkpt lat="43.33575" lon="-1.46086">
        <ele>57</ele>
        <time>2026-08-23T14:00:56.000Z</time>
      </trkpt>
      <trkpt lat="43.33568" lon="-1.46064">
        <ele>57</ele>
        <time>2026-08-23T14:01:00.000Z</time>
      </trkpt>
      <trkpt lat="43.33557" lon="-1.46026">
        <ele>58</ele>
        <time>2026-08-23T14:01:05.000Z</time>
      </trkpt>
      <trkpt lat="43.33551" lon="-1.45999">
        <ele>58</ele>
        <time>2026-08-23T14:01:08.000Z</time>
      </trkpt>
      <trkpt lat="43.33547" lon="-1.45974">
        <ele>61</ele>
        <time>2026-08-23T14:01:12.000Z</time>
      </trkpt>
      <trkpt lat="43.33546" lon="-1.45957">
        <ele>62</ele>
        <time>2026-08-23T14:01:14.000Z</time>
      </trkpt>
      <trkpt lat="43.33547" lon="-1.45936">
        <ele>64</ele>
        <time>2026-08-23T14:01:17.000Z</time>
      </trkpt>
      <trkpt lat="43.33549" lon="-1.45923">
        <ele>65</ele>
        <time>2026-08-23T14:01:18.000Z</time>
      </trkpt>
      <trkpt lat="43.33551" lon="-1.45913">
        <ele>65</ele>
        <time>2026-08-23T14:01:20.000Z</time>
      </trkpt>
      <trkpt lat="43.33558" lon="-1.45893">
        <ele>67</ele>
        <time>2026-08-23T14:01:23.000Z</time>
      </trkpt>
      <trkpt lat="43.33564" lon="-1.45878">
        <ele>68</ele>
        <time>2026-08-23T14:01:25.000Z</time>
      </trkpt>
      <trkpt lat="43.33574" lon="-1.45862">
        <ele>67</ele>
        <time>2026-08-23T14:01:28.000Z</time>
      </trkpt>
      <trkpt lat="43.33603" lon="-1.45817">
        <ele>67</ele>
        <time>2026-08-23T14:01:35.000Z</time>
      </trkpt>
      <trkpt lat="43.33733" lon="-1.45627">
        <ele>63</ele>
        <time>2026-08-23T14:02:09.000Z</time>
      </trkpt>
      <trkpt lat="43.33757" lon="-1.4559">
        <ele>62</ele>
        <time>2026-08-23T14:02:16.000Z</time>
      </trkpt>
      <trkpt lat="43.33767" lon="-1.45573">
        <ele>62</ele>
        <time>2026-08-23T14:02:18.000Z</time>
      </trkpt>
      <trkpt lat="43.33793" lon="-1.45523">
        <ele>62</ele>
        <time>2026-08-23T14:02:26.000Z</time>
      </trkpt>
      <trkpt lat="43.33805" lon="-1.45492">
        <ele>62</ele>
        <time>2026-08-23T14:02:31.000Z</time>
      </trkpt>
      <trkpt lat="43.33827" lon="-1.4543">
        <ele>60</ele>
        <time>2026-08-23T14:02:40.000Z</time>
      </trkpt>
      <trkpt lat="43.33839" lon="-1.45406">
        <ele>59</ele>
        <time>2026-08-23T14:02:44.000Z</time>
      </trkpt>
      <trkpt lat="43.33846" lon="-1.45394">
        <ele>59</ele>
        <time>2026-08-23T14:02:46.000Z</time>
      </trkpt>
      <trkpt lat="43.33858" lon="-1.45379">
        <ele>59</ele>
        <time>2026-08-23T14:02:48.000Z</time>
      </trkpt>
      <trkpt lat="43.33877" lon="-1.45358">
        <ele>60</ele>
        <time>2026-08-23T14:02:53.000Z</time>
      </trkpt>
      <trkpt lat="43.339" lon="-1.45334">
        <ele>60</ele>
        <time>2026-08-23T14:02:58.000Z</time>
      </trkpt>
      <trkpt lat="43.33926" lon="-1.45309">
        <ele>60</ele>
        <time>2026-08-23T14:03:04.000Z</time>
      </trkpt>
      <trkpt lat="43.33938" lon="-1.45298">
        <ele>60</ele>
        <time>2026-08-23T14:03:06.000Z</time>
      </trkpt>
      <trkpt lat="43.3395" lon="-1.45287">
        <ele>60</ele>
        <time>2026-08-23T14:03:09.000Z</time>
      </trkpt>
      <trkpt lat="43.33959" lon="-1.45277">
        <ele>60</ele>
        <time>2026-08-23T14:03:11.000Z</time>
      </trkpt>
      <trkpt lat="43.33969" lon="-1.45262">
        <ele>60</ele>
        <time>2026-08-23T14:03:13.000Z</time>
      </trkpt>
      <trkpt lat="43.33973" lon="-1.45255">
        <ele>60</ele>
        <time>2026-08-23T14:03:15.000Z</time>
      </trkpt>
      <trkpt lat="43.33981" lon="-1.45239">
        <ele>60</ele>
        <time>2026-08-23T14:03:17.000Z</time>
      </trkpt>
      <trkpt lat="43.33983" lon="-1.45229">
        <ele>60</ele>
        <time>2026-08-23T14:03:18.000Z</time>
      </trkpt>
      <trkpt lat="43.3399" lon="-1.45195">
        <ele>60</ele>
        <time>2026-08-23T14:03:23.000Z</time>
      </trkpt>
      <trkpt lat="43.33993" lon="-1.45165">
        <ele>61</ele>
        <time>2026-08-23T14:03:27.000Z</time>
      </trkpt>
      <trkpt lat="43.33991" lon="-1.45161">
        <ele>61</ele>
        <time>2026-08-23T14:03:28.000Z</time>
      </trkpt>
      <trkpt lat="43.3399" lon="-1.45156">
        <ele>61</ele>
        <time>2026-08-23T14:03:28.000Z</time>
      </trkpt>
      <trkpt lat="43.3399" lon="-1.45151">
        <ele>62</ele>
        <time>2026-08-23T14:03:29.000Z</time>
      </trkpt>
      <trkpt lat="43.33991" lon="-1.45146">
        <ele>62</ele>
        <time>2026-08-23T14:03:29.000Z</time>
      </trkpt>
      <trkpt lat="43.33984" lon="-1.45121">
        <ele>63</ele>
        <time>2026-08-23T14:03:33.000Z</time>
      </trkpt>
      <trkpt lat="43.33866" lon="-1.44918">
        <ele>72</ele>
        <time>2026-08-23T14:04:07.000Z</time>
      </trkpt>
      <trkpt lat="43.33853" lon="-1.44892">
        <ele>73</ele>
        <time>2026-08-23T14:04:11.000Z</time>
      </trkpt>
      <trkpt lat="43.33848" lon="-1.44879">
        <ele>73</ele>
        <time>2026-08-23T14:04:13.000Z</time>
      </trkpt>
      <trkpt lat="43.33845" lon="-1.44868">
        <ele>73</ele>
        <time>2026-08-23T14:04:14.000Z</time>
      </trkpt>
      <trkpt lat="43.33842" lon="-1.44856">
        <ele>73</ele>
        <time>2026-08-23T14:04:16.000Z</time>
      </trkpt>
      <trkpt lat="43.3384" lon="-1.44838">
        <ele>73</ele>
        <time>2026-08-23T14:04:18.000Z</time>
      </trkpt>
      <trkpt lat="43.33839" lon="-1.44739">
        <ele>77</ele>
        <time>2026-08-23T14:04:31.000Z</time>
      </trkpt>
      <trkpt lat="43.33838" lon="-1.44722">
        <ele>78</ele>
        <time>2026-08-23T14:04:33.000Z</time>
      </trkpt>
      <trkpt lat="43.33837" lon="-1.44704">
        <ele>78</ele>
        <time>2026-08-23T14:04:35.000Z</time>
      </trkpt>
      <trkpt lat="43.33829" lon="-1.44676">
        <ele>79</ele>
        <time>2026-08-23T14:04:39.000Z</time>
      </trkpt>
      <trkpt lat="43.33826" lon="-1.44673">
        <ele>79</ele>
        <time>2026-08-23T14:04:40.000Z</time>
      </trkpt>
      <trkpt lat="43.33824" lon="-1.44666">
        <ele>79</ele>
        <time>2026-08-23T14:04:41.000Z</time>
      </trkpt>
      <trkpt lat="43.33823" lon="-1.44662">
        <ele>79</ele>
        <time>2026-08-23T14:04:42.000Z</time>
      </trkpt>
      <trkpt lat="43.33825" lon="-1.44654">
        <ele>79</ele>
        <time>2026-08-23T14:04:43.000Z</time>
      </trkpt>
      <trkpt lat="43.3383" lon="-1.44649">
        <ele>79</ele>
        <time>2026-08-23T14:04:44.000Z</time>
      </trkpt>
      <trkpt lat="43.33831" lon="-1.44649">
        <ele>79</ele>
        <time>2026-08-23T14:04:44.000Z</time>
      </trkpt>
      <trkpt lat="43.33835" lon="-1.44648">
        <ele>79</ele>
        <time>2026-08-23T14:04:45.000Z</time>
      </trkpt>
      <trkpt lat="43.33838" lon="-1.44649">
        <ele>79</ele>
        <time>2026-08-23T14:04:45.000Z</time>
      </trkpt>
      <trkpt lat="43.33841" lon="-1.44651">
        <ele>79</ele>
        <time>2026-08-23T14:04:46.000Z</time>
      </trkpt>
      <trkpt lat="43.33844" lon="-1.44657">
        <ele>79</ele>
        <time>2026-08-23T14:04:47.000Z</time>
      </trkpt>
      <trkpt lat="43.33845" lon="-1.44665">
        <ele>79</ele>
        <time>2026-08-23T14:04:48.000Z</time>
      </trkpt>
      <trkpt lat="43.33843" lon="-1.44672">
        <ele>79</ele>
        <time>2026-08-23T14:04:49.000Z</time>
      </trkpt>
      <trkpt lat="43.33841" lon="-1.44674">
        <ele>79</ele>
        <time>2026-08-23T14:04:49.000Z</time>
      </trkpt>
      <trkpt lat="43.33838" lon="-1.44676">
        <ele>79</ele>
        <time>2026-08-23T14:04:50.000Z</time>
      </trkpt>
      <trkpt lat="43.33835" lon="-1.44678">
        <ele>79</ele>
        <time>2026-08-23T14:04:50.000Z</time>
      </trkpt>
      <trkpt lat="43.33832" lon="-1.44677">
        <ele>79</ele>
        <time>2026-08-23T14:04:51.000Z</time>
      </trkpt>
      <trkpt lat="43.33829" lon="-1.44676">
        <ele>79</ele>
        <time>2026-08-23T14:04:51.000Z</time>
      </trkpt>
      <trkpt lat="43.33826" lon="-1.44673">
        <ele>79</ele>
        <time>2026-08-23T14:04:52.000Z</time>
      </trkpt>
      <trkpt lat="43.33824" lon="-1.44666">
        <ele>79</ele>
        <time>2026-08-23T14:04:53.000Z</time>
      </trkpt>
      <trkpt lat="43.33823" lon="-1.44662">
        <ele>79</ele>
        <time>2026-08-23T14:04:54.000Z</time>
      </trkpt>
      <trkpt lat="43.33817" lon="-1.44647">
        <ele>79</ele>
        <time>2026-08-23T14:04:56.000Z</time>
      </trkpt>
      <trkpt lat="43.3381" lon="-1.4464">
        <ele>79</ele>
        <time>2026-08-23T14:04:57.000Z</time>
      </trkpt>
      <trkpt lat="43.33785" lon="-1.44625">
        <ele>78</ele>
        <time>2026-08-23T14:05:02.000Z</time>
      </trkpt>
      <trkpt lat="43.33769" lon="-1.44622">
        <ele>78</ele>
        <time>2026-08-23T14:05:05.000Z</time>
      </trkpt>
      <trkpt lat="43.33754" lon="-1.44619">
        <ele>78</ele>
        <time>2026-08-23T14:05:08.000Z</time>
      </trkpt>
      <trkpt lat="43.33699" lon="-1.44617">
        <ele>79</ele>
        <time>2026-08-23T14:05:18.000Z</time>
      </trkpt>
      <trkpt lat="43.33672" lon="-1.44615">
        <ele>79</ele>
        <time>2026-08-23T14:05:22.000Z</time>
      </trkpt>
      <trkpt lat="43.33635" lon="-1.44621">
        <ele>80</ele>
        <time>2026-08-23T14:05:29.000Z</time>
      </trkpt>
      <trkpt lat="43.33625" lon="-1.44621">
        <ele>81</ele>
        <time>2026-08-23T14:05:31.000Z</time>
      </trkpt>
      <trkpt lat="43.33614" lon="-1.44622">
        <ele>81</ele>
        <time>2026-08-23T14:05:33.000Z</time>
      </trkpt>
      <trkpt lat="43.33584" lon="-1.44613">
        <ele>81</ele>
        <time>2026-08-23T14:05:38.000Z</time>
      </trkpt>
      <trkpt lat="43.33564" lon="-1.44602">
        <ele>81</ele>
        <time>2026-08-23T14:05:42.000Z</time>
      </trkpt>
      <trkpt lat="43.33502" lon="-1.44556">
        <ele>80</ele>
        <time>2026-08-23T14:05:55.000Z</time>
      </trkpt>
      <trkpt lat="43.33473" lon="-1.44538">
        <ele>78</ele>
        <time>2026-08-23T14:06:00.000Z</time>
      </trkpt>
      <trkpt lat="43.3345" lon="-1.44532">
        <ele>77</ele>
        <time>2026-08-23T14:06:04.000Z</time>
      </trkpt>
      <trkpt lat="43.33429" lon="-1.44535">
        <ele>78</ele>
        <time>2026-08-23T14:06:08.000Z</time>
      </trkpt>
      <trkpt lat="43.33411" lon="-1.44544">
        <ele>79</ele>
        <time>2026-08-23T14:06:12.000Z</time>
      </trkpt>
      <trkpt lat="43.33406" lon="-1.4455">
        <ele>80</ele>
        <time>2026-08-23T14:06:13.000Z</time>
      </trkpt>
      <trkpt lat="43.33398" lon="-1.44563">
        <ele>80</ele>
        <time>2026-08-23T14:06:15.000Z</time>
      </trkpt>
      <trkpt lat="43.3339" lon="-1.44582">
        <ele>81</ele>
        <time>2026-08-23T14:06:18.000Z</time>
      </trkpt>
      <trkpt lat="43.33359" lon="-1.44672">
        <ele>83</ele>
        <time>2026-08-23T14:06:31.000Z</time>
      </trkpt>
      <trkpt lat="43.33342" lon="-1.44694">
        <ele>80</ele>
        <time>2026-08-23T14:06:35.000Z</time>
      </trkpt>
      <trkpt lat="43.33326" lon="-1.44707">
        <ele>79</ele>
        <time>2026-08-23T14:06:38.000Z</time>
      </trkpt>
      <trkpt lat="43.33309" lon="-1.44714">
        <ele>80</ele>
        <time>2026-08-23T14:06:41.000Z</time>
      </trkpt>
      <trkpt lat="43.33216" lon="-1.4473">
        <ele>87</ele>
        <time>2026-08-23T14:06:58.000Z</time>
      </trkpt>
      <trkpt lat="43.33199" lon="-1.44737">
        <ele>88</ele>
        <time>2026-08-23T14:07:01.000Z</time>
      </trkpt>
      <trkpt lat="43.33183" lon="-1.44749">
        <ele>88</ele>
        <time>2026-08-23T14:07:04.000Z</time>
      </trkpt>
      <trkpt lat="43.3317" lon="-1.44766">
        <ele>89</ele>
        <time>2026-08-23T14:07:08.000Z</time>
      </trkpt>
      <trkpt lat="43.33161" lon="-1.44784">
        <ele>88</ele>
        <time>2026-08-23T14:07:10.000Z</time>
      </trkpt>
      <trkpt lat="43.33151" lon="-1.44806">
        <ele>88</ele>
        <time>2026-08-23T14:07:14.000Z</time>
      </trkpt>
      <trkpt lat="43.33148" lon="-1.44815">
        <ele>87</ele>
        <time>2026-08-23T14:07:15.000Z</time>
      </trkpt>
      <trkpt lat="43.33144" lon="-1.44833">
        <ele>86</ele>
        <time>2026-08-23T14:07:18.000Z</time>
      </trkpt>
      <trkpt lat="43.33139" lon="-1.4488">
        <ele>92</ele>
        <time>2026-08-23T14:07:24.000Z</time>
      </trkpt>
      <trkpt lat="43.33135" lon="-1.44896">
        <ele>93</ele>
        <time>2026-08-23T14:07:26.000Z</time>
      </trkpt>
      <trkpt lat="43.33114" lon="-1.44946">
        <ele>94</ele>
        <time>2026-08-23T14:07:33.000Z</time>
      </trkpt>
      <trkpt lat="43.33106" lon="-1.4496">
        <ele>93</ele>
        <time>2026-08-23T14:07:36.000Z</time>
      </trkpt>
      <trkpt lat="43.33096" lon="-1.44974">
        <ele>91</ele>
        <time>2026-08-23T14:07:38.000Z</time>
      </trkpt>
      <trkpt lat="43.33079" lon="-1.44982">
        <ele>88</ele>
        <time>2026-08-23T14:07:41.000Z</time>
      </trkpt>
      <trkpt lat="43.33062" lon="-1.4498">
        <ele>89</ele>
        <time>2026-08-23T14:07:44.000Z</time>
      </trkpt>
      <trkpt lat="43.32995" lon="-1.44943">
        <ele>86</ele>
        <time>2026-08-23T14:07:57.000Z</time>
      </trkpt>
      <trkpt lat="43.32957" lon="-1.44929">
        <ele>87</ele>
        <time>2026-08-23T14:08:04.000Z</time>
      </trkpt>
      <trkpt lat="43.3293" lon="-1.44924">
        <ele>89</ele>
        <time>2026-08-23T14:08:09.000Z</time>
      </trkpt>
      <trkpt lat="43.32898" lon="-1.44932">
        <ele>93</ele>
        <time>2026-08-23T14:08:15.000Z</time>
      </trkpt>
      <trkpt lat="43.32885" lon="-1.44923">
        <ele>91</ele>
        <time>2026-08-23T14:08:17.000Z</time>
      </trkpt>
      <trkpt lat="43.32877" lon="-1.44922">
        <ele>91</ele>
        <time>2026-08-23T14:08:19.000Z</time>
      </trkpt>
      <trkpt lat="43.32852" lon="-1.44936">
        <ele>97</ele>
        <time>2026-08-23T14:08:24.000Z</time>
      </trkpt>
      <trkpt lat="43.32835" lon="-1.44937">
        <ele>98</ele>
        <time>2026-08-23T14:08:27.000Z</time>
      </trkpt>
      <trkpt lat="43.32788" lon="-1.44935">
        <ele>102</ele>
        <time>2026-08-23T14:08:35.000Z</time>
      </trkpt>
      <trkpt lat="43.32778" lon="-1.44929">
        <ele>101</ele>
        <time>2026-08-23T14:08:37.000Z</time>
      </trkpt>
      <trkpt lat="43.32727" lon="-1.44884">
        <ele>105</ele>
        <time>2026-08-23T14:08:48.000Z</time>
      </trkpt>
      <trkpt lat="43.32686" lon="-1.44837">
        <ele>103</ele>
        <time>2026-08-23T14:08:57.000Z</time>
      </trkpt>
      <trkpt lat="43.32667" lon="-1.44809">
        <ele>101</ele>
        <time>2026-08-23T14:09:02.000Z</time>
      </trkpt>
      <trkpt lat="43.32654" lon="-1.44801">
        <ele>101</ele>
        <time>2026-08-23T14:09:05.000Z</time>
      </trkpt>
      <trkpt lat="43.32608" lon="-1.44781">
        <ele>98</ele>
        <time>2026-08-23T14:09:13.000Z</time>
      </trkpt>
      <trkpt lat="43.32598" lon="-1.44772">
        <ele>96</ele>
        <time>2026-08-23T14:09:16.000Z</time>
      </trkpt>
      <trkpt lat="43.32592" lon="-1.44758">
        <ele>93</ele>
        <time>2026-08-23T14:09:18.000Z</time>
      </trkpt>
      <trkpt lat="43.32551" lon="-1.44575">
        <ele>103</ele>
        <time>2026-08-23T14:09:42.000Z</time>
      </trkpt>
      <trkpt lat="43.32541" lon="-1.44494">
        <ele>109</ele>
        <time>2026-08-23T14:09:53.000Z</time>
      </trkpt>
      <trkpt lat="43.32531" lon="-1.44437">
        <ele>109</ele>
        <time>2026-08-23T14:10:01.000Z</time>
      </trkpt>
      <trkpt lat="43.3252" lon="-1.44406">
        <ele>109</ele>
        <time>2026-08-23T14:10:05.000Z</time>
      </trkpt>
      <trkpt lat="43.32505" lon="-1.44363">
        <ele>107</ele>
        <time>2026-08-23T14:10:11.000Z</time>
      </trkpt>
      <trkpt lat="43.32503" lon="-1.44357">
        <ele>107</ele>
        <time>2026-08-23T14:10:12.000Z</time>
      </trkpt>
      <trkpt lat="43.32499" lon="-1.44346">
        <ele>107</ele>
        <time>2026-08-23T14:10:14.000Z</time>
      </trkpt>
      <trkpt lat="43.32498" lon="-1.44333">
        <ele>106</ele>
        <time>2026-08-23T14:10:15.000Z</time>
      </trkpt>
      <trkpt lat="43.32501" lon="-1.4432">
        <ele>106</ele>
        <time>2026-08-23T14:10:17.000Z</time>
      </trkpt>
      <trkpt lat="43.32509" lon="-1.44299">
        <ele>106</ele>
        <time>2026-08-23T14:10:20.000Z</time>
      </trkpt>
      <trkpt lat="43.32514" lon="-1.44271">
        <ele>107</ele>
        <time>2026-08-23T14:10:24.000Z</time>
      </trkpt>
      <trkpt lat="43.32516" lon="-1.44205">
        <ele>110</ele>
        <time>2026-08-23T14:10:33.000Z</time>
      </trkpt>
      <trkpt lat="43.3252" lon="-1.44179">
        <ele>112</ele>
        <time>2026-08-23T14:10:36.000Z</time>
      </trkpt>
      <trkpt lat="43.32541" lon="-1.44103">
        <ele>118</ele>
        <time>2026-08-23T14:10:46.000Z</time>
      </trkpt>
      <trkpt lat="43.32551" lon="-1.4402">
        <ele>123</ele>
        <time>2026-08-23T14:10:57.000Z</time>
      </trkpt>
      <trkpt lat="43.32567" lon="-1.43938">
        <ele>121</ele>
        <time>2026-08-23T14:11:08.000Z</time>
      </trkpt>
      <trkpt lat="43.32573" lon="-1.43916">
        <ele>119</ele>
        <time>2026-08-23T14:11:11.000Z</time>
      </trkpt>
      <trkpt lat="43.32581" lon="-1.43898">
        <ele>119</ele>
        <time>2026-08-23T14:11:14.000Z</time>
      </trkpt>
      <trkpt lat="43.32602" lon="-1.43872">
        <ele>122</ele>
        <time>2026-08-23T14:11:19.000Z</time>
      </trkpt>
      <trkpt lat="43.3263" lon="-1.43846">
        <ele>125</ele>
        <time>2026-08-23T14:11:25.000Z</time>
      </trkpt>
      <trkpt lat="43.32646" lon="-1.43834">
        <ele>125</ele>
        <time>2026-08-23T14:11:28.000Z</time>
      </trkpt>
      <trkpt lat="43.32668" lon="-1.43815">
        <ele>127</ele>
        <time>2026-08-23T14:11:33.000Z</time>
      </trkpt>
      <trkpt lat="43.32685" lon="-1.43792">
        <ele>131</ele>
        <time>2026-08-23T14:11:37.000Z</time>
      </trkpt>
      <trkpt lat="43.32697" lon="-1.43765">
        <ele>133</ele>
        <time>2026-08-23T14:11:41.000Z</time>
      </trkpt>
      <trkpt lat="43.3271" lon="-1.43721">
        <ele>134</ele>
        <time>2026-08-23T14:11:48.000Z</time>
      </trkpt>
      <trkpt lat="43.32718" lon="-1.43706">
        <ele>134</ele>
        <time>2026-08-23T14:11:50.000Z</time>
      </trkpt>
      <trkpt lat="43.32727" lon="-1.43693">
        <ele>134</ele>
        <time>2026-08-23T14:11:52.000Z</time>
      </trkpt>
      <trkpt lat="43.32735" lon="-1.43685">
        <ele>135</ele>
        <time>2026-08-23T14:11:54.000Z</time>
      </trkpt>
      <trkpt lat="43.32738" lon="-1.43682">
        <ele>135</ele>
        <time>2026-08-23T14:11:55.000Z</time>
      </trkpt>
      <trkpt lat="43.32773" lon="-1.43645">
        <ele>134</ele>
        <time>2026-08-23T14:12:03.000Z</time>
      </trkpt>
      <trkpt lat="43.32817" lon="-1.43609">
        <ele>132</ele>
        <time>2026-08-23T14:12:12.000Z</time>
      </trkpt>
      <trkpt lat="43.32824" lon="-1.43596">
        <ele>131</ele>
        <time>2026-08-23T14:12:14.000Z</time>
      </trkpt>
      <trkpt lat="43.32828" lon="-1.43572">
        <ele>129</ele>
        <time>2026-08-23T14:12:17.000Z</time>
      </trkpt>
      <trkpt lat="43.32825" lon="-1.43539">
        <ele>127</ele>
        <time>2026-08-23T14:12:21.000Z</time>
      </trkpt>
      <trkpt lat="43.32821" lon="-1.43514">
        <ele>125</ele>
        <time>2026-08-23T14:12:25.000Z</time>
      </trkpt>
      <trkpt lat="43.32809" lon="-1.4347">
        <ele>122</ele>
        <time>2026-08-23T14:12:31.000Z</time>
      </trkpt>
      <trkpt lat="43.32806" lon="-1.43441">
        <ele>121</ele>
        <time>2026-08-23T14:12:34.000Z</time>
      </trkpt>
      <trkpt lat="43.32808" lon="-1.4341">
        <ele>120</ele>
        <time>2026-08-23T14:12:38.000Z</time>
      </trkpt>
      <trkpt lat="43.32823" lon="-1.43332">
        <ele>117</ele>
        <time>2026-08-23T14:12:49.000Z</time>
      </trkpt>
      <trkpt lat="43.32839" lon="-1.43202">
        <ele>115</ele>
        <time>2026-08-23T14:13:06.000Z</time>
      </trkpt>
      <trkpt lat="43.32851" lon="-1.43163">
        <ele>113</ele>
        <time>2026-08-23T14:13:11.000Z</time>
      </trkpt>
      <trkpt lat="43.32871" lon="-1.43121">
        <ele>114</ele>
        <time>2026-08-23T14:13:18.000Z</time>
      </trkpt>
      <trkpt lat="43.3289" lon="-1.43095">
        <ele>114</ele>
        <time>2026-08-23T14:13:23.000Z</time>
      </trkpt>
      <trkpt lat="43.32895" lon="-1.43085">
        <ele>114</ele>
        <time>2026-08-23T14:13:24.000Z</time>
      </trkpt>
      <trkpt lat="43.329" lon="-1.43073">
        <ele>114</ele>
        <time>2026-08-23T14:13:26.000Z</time>
      </trkpt>
      <trkpt lat="43.32901" lon="-1.43056">
        <ele>113</ele>
        <time>2026-08-23T14:13:28.000Z</time>
      </trkpt>
      <trkpt lat="43.32899" lon="-1.43042">
        <ele>112</ele>
        <time>2026-08-23T14:13:30.000Z</time>
      </trkpt>
      <trkpt lat="43.32894" lon="-1.43006">
        <ele>111</ele>
        <time>2026-08-23T14:13:35.000Z</time>
      </trkpt>
      <trkpt lat="43.32893" lon="-1.42941">
        <ele>109</ele>
        <time>2026-08-23T14:13:43.000Z</time>
      </trkpt>
      <trkpt lat="43.32898" lon="-1.42921">
        <ele>108</ele>
        <time>2026-08-23T14:13:46.000Z</time>
      </trkpt>
      <trkpt lat="43.32904" lon="-1.42909">
        <ele>108</ele>
        <time>2026-08-23T14:13:48.000Z</time>
      </trkpt>
      <trkpt lat="43.32928" lon="-1.42874">
        <ele>107</ele>
        <time>2026-08-23T14:13:54.000Z</time>
      </trkpt>
      <trkpt lat="43.32944" lon="-1.42845">
        <ele>106</ele>
        <time>2026-08-23T14:13:59.000Z</time>
      </trkpt>
      <trkpt lat="43.32957" lon="-1.4282">
        <ele>106</ele>
        <time>2026-08-23T14:14:03.000Z</time>
      </trkpt>
      <trkpt lat="43.32986" lon="-1.42756">
        <ele>103</ele>
        <time>2026-08-23T14:14:13.000Z</time>
      </trkpt>
      <trkpt lat="43.32995" lon="-1.42742">
        <ele>102</ele>
        <time>2026-08-23T14:14:15.000Z</time>
      </trkpt>
      <trkpt lat="43.33006" lon="-1.42733">
        <ele>102</ele>
        <time>2026-08-23T14:14:17.000Z</time>
      </trkpt>
      <trkpt lat="43.33027" lon="-1.42721">
        <ele>105</ele>
        <time>2026-08-23T14:14:21.000Z</time>
      </trkpt>
      <trkpt lat="43.33048" lon="-1.42709">
        <ele>107</ele>
        <time>2026-08-23T14:14:25.000Z</time>
      </trkpt>
      <trkpt lat="43.33057" lon="-1.427">
        <ele>108</ele>
        <time>2026-08-23T14:14:27.000Z</time>
      </trkpt>
      <trkpt lat="43.33073" lon="-1.42667">
        <ele>107</ele>
        <time>2026-08-23T14:14:32.000Z</time>
      </trkpt>
      <trkpt lat="43.33086" lon="-1.4263">
        <ele>104</ele>
        <time>2026-08-23T14:14:38.000Z</time>
      </trkpt>
      <trkpt lat="43.33101" lon="-1.4256">
        <ele>100</ele>
        <time>2026-08-23T14:14:47.000Z</time>
      </trkpt>
      <trkpt lat="43.33108" lon="-1.4254">
        <ele>100</ele>
        <time>2026-08-23T14:14:50.000Z</time>
      </trkpt>
      <trkpt lat="43.33131" lon="-1.42497">
        <ele>102</ele>
        <time>2026-08-23T14:14:57.000Z</time>
      </trkpt>
      <trkpt lat="43.33136" lon="-1.42479">
        <ele>103</ele>
        <time>2026-08-23T14:15:00.000Z</time>
      </trkpt>
      <trkpt lat="43.33137" lon="-1.42462">
        <ele>103</ele>
        <time>2026-08-23T14:15:02.000Z</time>
      </trkpt>
      <trkpt lat="43.33138" lon="-1.42425">
        <ele>103</ele>
        <time>2026-08-23T14:15:07.000Z</time>
      </trkpt>
      <trkpt lat="43.33138" lon="-1.42312">
        <ele>102</ele>
        <time>2026-08-23T14:15:21.000Z</time>
      </trkpt>
      <trkpt lat="43.33144" lon="-1.42266">
        <ele>101</ele>
        <time>2026-08-23T14:15:27.000Z</time>
      </trkpt>
      <trkpt lat="43.33146" lon="-1.42248">
        <ele>100</ele>
        <time>2026-08-23T14:15:30.000Z</time>
      </trkpt>
      <trkpt lat="43.33145" lon="-1.42202">
        <ele>98</ele>
        <time>2026-08-23T14:15:35.000Z</time>
      </trkpt>
      <trkpt lat="43.33146" lon="-1.42181">
        <ele>97</ele>
        <time>2026-08-23T14:15:38.000Z</time>
      </trkpt>
      <trkpt lat="43.3315" lon="-1.42151">
        <ele>96</ele>
        <time>2026-08-23T14:15:42.000Z</time>
      </trkpt>
      <trkpt lat="43.33156" lon="-1.42123">
        <ele>95</ele>
        <time>2026-08-23T14:15:46.000Z</time>
      </trkpt>
      <trkpt lat="43.33163" lon="-1.42102">
        <ele>95</ele>
        <time>2026-08-23T14:15:49.000Z</time>
      </trkpt>
      <trkpt lat="43.33248" lon="-1.41961">
        <ele>102</ele>
        <time>2026-08-23T14:16:13.000Z</time>
      </trkpt>
      <trkpt lat="43.33258" lon="-1.41943">
        <ele>103</ele>
        <time>2026-08-23T14:16:16.000Z</time>
      </trkpt>
      <trkpt lat="43.33265" lon="-1.41921">
        <ele>104</ele>
        <time>2026-08-23T14:16:19.000Z</time>
      </trkpt>
      <trkpt lat="43.33274" lon="-1.41868">
        <ele>102</ele>
        <time>2026-08-23T14:16:26.000Z</time>
      </trkpt>
      <trkpt lat="43.33276" lon="-1.41826">
        <ele>100</ele>
        <time>2026-08-23T14:16:31.000Z</time>
      </trkpt>
      <trkpt lat="43.33273" lon="-1.41796">
        <ele>99</ele>
        <time>2026-08-23T14:16:35.000Z</time>
      </trkpt>
      <trkpt lat="43.3327" lon="-1.41786">
        <ele>98</ele>
        <time>2026-08-23T14:16:36.000Z</time>
      </trkpt>
      <trkpt lat="43.33264" lon="-1.41774">
        <ele>98</ele>
        <time>2026-08-23T14:16:38.000Z</time>
      </trkpt>
      <trkpt lat="43.33219" lon="-1.41731">
        <ele>96</ele>
        <time>2026-08-23T14:16:48.000Z</time>
      </trkpt>
      <trkpt lat="43.3321" lon="-1.41716">
        <ele>96</ele>
        <time>2026-08-23T14:16:51.000Z</time>
      </trkpt>
      <trkpt lat="43.33205" lon="-1.41705">
        <ele>95</ele>
        <time>2026-08-23T14:16:52.000Z</time>
      </trkpt>
      <trkpt lat="43.33202" lon="-1.4169">
        <ele>95</ele>
        <time>2026-08-23T14:16:54.000Z</time>
      </trkpt>
      <trkpt lat="43.33201" lon="-1.41675">
        <ele>94</ele>
        <time>2026-08-23T14:16:56.000Z</time>
      </trkpt>
      <trkpt lat="43.33201" lon="-1.41636">
        <ele>93</ele>
        <time>2026-08-23T14:17:01.000Z</time>
      </trkpt>
      <trkpt lat="43.33205" lon="-1.41602">
        <ele>92</ele>
        <time>2026-08-23T14:17:06.000Z</time>
      </trkpt>
      <trkpt lat="43.33218" lon="-1.41528">
        <ele>88</ele>
        <time>2026-08-23T14:17:16.000Z</time>
      </trkpt>
      <trkpt lat="43.3322" lon="-1.41508">
        <ele>87</ele>
        <time>2026-08-23T14:17:18.000Z</time>
      </trkpt>
      <trkpt lat="43.33226" lon="-1.41382">
        <ele>85</ele>
        <time>2026-08-23T14:17:35.000Z</time>
      </trkpt>
      <trkpt lat="43.33228" lon="-1.41367">
        <ele>86</ele>
        <time>2026-08-23T14:17:37.000Z</time>
      </trkpt>
      <trkpt lat="43.33231" lon="-1.4135">
        <ele>87</ele>
        <time>2026-08-23T14:17:39.000Z</time>
      </trkpt>
      <trkpt lat="43.33236" lon="-1.41337">
        <ele>88</ele>
        <time>2026-08-23T14:17:41.000Z</time>
      </trkpt>
      <trkpt lat="43.33243" lon="-1.41321">
        <ele>90</ele>
        <time>2026-08-23T14:17:43.000Z</time>
      </trkpt>
      <trkpt lat="43.33273" lon="-1.41279">
        <ele>93</ele>
        <time>2026-08-23T14:17:51.000Z</time>
      </trkpt>
      <trkpt lat="43.33278" lon="-1.41265">
        <ele>93</ele>
        <time>2026-08-23T14:17:53.000Z</time>
      </trkpt>
      <trkpt lat="43.3328" lon="-1.4125">
        <ele>94</ele>
        <time>2026-08-23T14:17:55.000Z</time>
      </trkpt>
      <trkpt lat="43.3328" lon="-1.41225">
        <ele>93</ele>
        <time>2026-08-23T14:17:58.000Z</time>
      </trkpt>
      <trkpt lat="43.33276" lon="-1.41195">
        <ele>93</ele>
        <time>2026-08-23T14:18:02.000Z</time>
      </trkpt>
      <trkpt lat="43.33275" lon="-1.41187">
        <ele>92</ele>
        <time>2026-08-23T14:18:03.000Z</time>
      </trkpt>
      <trkpt lat="43.33272" lon="-1.41171">
        <ele>92</ele>
        <time>2026-08-23T14:18:05.000Z</time>
      </trkpt>
      <trkpt lat="43.3327" lon="-1.41152">
        <ele>92</ele>
        <time>2026-08-23T14:18:08.000Z</time>
      </trkpt>
      <trkpt lat="43.3327" lon="-1.41137">
        <ele>91</ele>
        <time>2026-08-23T14:18:10.000Z</time>
      </trkpt>
      <trkpt lat="43.33266" lon="-1.4109">
        <ele>90</ele>
        <time>2026-08-23T14:18:16.000Z</time>
      </trkpt>
      <trkpt lat="43.33266" lon="-1.41065">
        <ele>90</ele>
        <time>2026-08-23T14:18:19.000Z</time>
      </trkpt>
      <trkpt lat="43.33265" lon="-1.41036">
        <ele>89</ele>
        <time>2026-08-23T14:18:23.000Z</time>
      </trkpt>
      <trkpt lat="43.33265" lon="-1.41011">
        <ele>88</ele>
        <time>2026-08-23T14:18:26.000Z</time>
      </trkpt>
      <trkpt lat="43.33262" lon="-1.40975">
        <ele>87</ele>
        <time>2026-08-23T14:18:31.000Z</time>
      </trkpt>
      <trkpt lat="43.33262" lon="-1.40946">
        <ele>87</ele>
        <time>2026-08-23T14:18:34.000Z</time>
      </trkpt>
      <trkpt lat="43.33268" lon="-1.40911">
        <ele>86</ele>
        <time>2026-08-23T14:18:39.000Z</time>
      </trkpt>
      <trkpt lat="43.33276" lon="-1.40878">
        <ele>84</ele>
        <time>2026-08-23T14:18:44.000Z</time>
      </trkpt>
      <trkpt lat="43.3328" lon="-1.40861">
        <ele>83</ele>
        <time>2026-08-23T14:18:46.000Z</time>
      </trkpt>
      <trkpt lat="43.33289" lon="-1.4086">
        <ele>83</ele>
        <time>2026-08-23T14:18:47.000Z</time>
      </trkpt>
      <trkpt lat="43.33295" lon="-1.40854">
        <ele>82</ele>
        <time>2026-08-23T14:18:49.000Z</time>
      </trkpt>
      <trkpt lat="43.33341" lon="-1.40773">
        <ele>80</ele>
        <time>2026-08-23T14:19:02.000Z</time>
      </trkpt>
      <trkpt lat="43.33353" lon="-1.40757">
        <ele>80</ele>
        <time>2026-08-23T14:19:05.000Z</time>
      </trkpt>
      <trkpt lat="43.33382" lon="-1.4072">
        <ele>80</ele>
        <time>2026-08-23T14:19:12.000Z</time>
      </trkpt>
      <trkpt lat="43.33392" lon="-1.4071">
        <ele>80</ele>
        <time>2026-08-23T14:19:14.000Z</time>
      </trkpt>
      <trkpt lat="43.33405" lon="-1.407">
        <ele>80</ele>
        <time>2026-08-23T14:19:17.000Z</time>
      </trkpt>
      <trkpt lat="43.33418" lon="-1.40692">
        <ele>80</ele>
        <time>2026-08-23T14:19:19.000Z</time>
      </trkpt>
      <trkpt lat="43.33438" lon="-1.40683">
        <ele>80</ele>
        <time>2026-08-23T14:19:23.000Z</time>
      </trkpt>
      <trkpt lat="43.33455" lon="-1.40677">
        <ele>80</ele>
        <time>2026-08-23T14:19:26.000Z</time>
      </trkpt>
      <trkpt lat="43.33463" lon="-1.40676">
        <ele>80</ele>
        <time>2026-08-23T14:19:28.000Z</time>
      </trkpt>
      <trkpt lat="43.33478" lon="-1.40677">
        <ele>80</ele>
        <time>2026-08-23T14:19:30.000Z</time>
      </trkpt>
      <trkpt lat="43.33497" lon="-1.40675">
        <ele>80</ele>
        <time>2026-08-23T14:19:34.000Z</time>
      </trkpt>
      <trkpt lat="43.33513" lon="-1.40669">
        <ele>80</ele>
        <time>2026-08-23T14:19:37.000Z</time>
      </trkpt>
      <trkpt lat="43.33529" lon="-1.4066">
        <ele>81</ele>
        <time>2026-08-23T14:19:40.000Z</time>
      </trkpt>
      <trkpt lat="43.33545" lon="-1.40644">
        <ele>81</ele>
        <time>2026-08-23T14:19:43.000Z</time>
      </trkpt>
      <trkpt lat="43.33589" lon="-1.40592">
        <ele>81</ele>
        <time>2026-08-23T14:19:54.000Z</time>
      </trkpt>
      <trkpt lat="43.33597" lon="-1.40577">
        <ele>82</ele>
        <time>2026-08-23T14:19:56.000Z</time>
      </trkpt>
      <trkpt lat="43.33613" lon="-1.40526">
        <ele>82</ele>
        <time>2026-08-23T14:20:03.000Z</time>
      </trkpt>
      <trkpt lat="43.3361" lon="-1.40524">
        <ele>82</ele>
        <time>2026-08-23T14:20:04.000Z</time>
      </trkpt>
      <trkpt lat="43.33608" lon="-1.40519">
        <ele>82</ele>
        <time>2026-08-23T14:20:05.000Z</time>
      </trkpt>
      <trkpt lat="43.33608" lon="-1.40515">
        <ele>82</ele>
        <time>2026-08-23T14:20:05.000Z</time>
      </trkpt>
      <trkpt lat="43.3361" lon="-1.4051">
        <ele>82</ele>
        <time>2026-08-23T14:20:06.000Z</time>
      </trkpt>
      <trkpt lat="43.33612" lon="-1.40507">
        <ele>82</ele>
        <time>2026-08-23T14:20:06.000Z</time>
      </trkpt>
      <trkpt lat="43.33616" lon="-1.40506">
        <ele>82</ele>
        <time>2026-08-23T14:20:07.000Z</time>
      </trkpt>
      <trkpt lat="43.33618" lon="-1.40462">
        <ele>81</ele>
        <time>2026-08-23T14:20:13.000Z</time>
      </trkpt>
      <trkpt lat="43.3362" lon="-1.40447">
        <ele>81</ele>
        <time>2026-08-23T14:20:15.000Z</time>
      </trkpt>
      <trkpt lat="43.33625" lon="-1.40411">
        <ele>81</ele>
        <time>2026-08-23T14:20:20.000Z</time>
      </trkpt>
      <trkpt lat="43.33627" lon="-1.40401">
        <ele>81</ele>
        <time>2026-08-23T14:20:21.000Z</time>
      </trkpt>
      <trkpt lat="43.3363" lon="-1.40393">
        <ele>81</ele>
        <time>2026-08-23T14:20:22.000Z</time>
      </trkpt>
      <trkpt lat="43.33632" lon="-1.40379">
        <ele>81</ele>
        <time>2026-08-23T14:20:24.000Z</time>
      </trkpt>
      <trkpt lat="43.33633" lon="-1.40367">
        <ele>81</ele>
        <time>2026-08-23T14:20:25.000Z</time>
      </trkpt>
      <trkpt lat="43.33632" lon="-1.40361">
        <ele>81</ele>
        <time>2026-08-23T14:20:26.000Z</time>
      </trkpt>
      <trkpt lat="43.33632" lon="-1.40354">
        <ele>81</ele>
        <time>2026-08-23T14:20:27.000Z</time>
      </trkpt>
      <trkpt lat="43.33635" lon="-1.40348">
        <ele>81</ele>
        <time>2026-08-23T14:20:28.000Z</time>
      </trkpt>
      <trkpt lat="43.33638" lon="-1.40343">
        <ele>82</ele>
        <time>2026-08-23T14:20:29.000Z</time>
      </trkpt>
      <trkpt lat="43.33642" lon="-1.4034">
        <ele>82</ele>
        <time>2026-08-23T14:20:30.000Z</time>
      </trkpt>
      <trkpt lat="43.33647" lon="-1.40339">
        <ele>82</ele>
        <time>2026-08-23T14:20:31.000Z</time>
      </trkpt>
      <trkpt lat="43.33652" lon="-1.40341">
        <ele>82</ele>
        <time>2026-08-23T14:20:32.000Z</time>
      </trkpt>
      <trkpt lat="43.33656" lon="-1.40344">
        <ele>82</ele>
        <time>2026-08-23T14:20:32.000Z</time>
      </trkpt>
      <trkpt lat="43.33659" lon="-1.4035">
        <ele>82</ele>
        <time>2026-08-23T14:20:33.000Z</time>
      </trkpt>
      <trkpt lat="43.33672" lon="-1.4036">
        <ele>81</ele>
        <time>2026-08-23T14:20:36.000Z</time>
      </trkpt>
      <trkpt lat="43.33682" lon="-1.40364">
        <ele>81</ele>
        <time>2026-08-23T14:20:38.000Z</time>
      </trkpt>
      <trkpt lat="43.33687" lon="-1.40364">
        <ele>81</ele>
        <time>2026-08-23T14:20:39.000Z</time>
      </trkpt>
      <trkpt lat="43.33697" lon="-1.40361">
        <ele>81</ele>
        <time>2026-08-23T14:20:41.000Z</time>
      </trkpt>
      <trkpt lat="43.33714" lon="-1.40356">
        <ele>82</ele>
        <time>2026-08-23T14:20:44.000Z</time>
      </trkpt>
      <trkpt lat="43.33772" lon="-1.40337">
        <ele>81</ele>
        <time>2026-08-23T14:20:54.000Z</time>
      </trkpt>
      <trkpt lat="43.33808" lon="-1.40321">
        <ele>80</ele>
        <time>2026-08-23T14:21:01.000Z</time>
      </trkpt>
      <trkpt lat="43.33819" lon="-1.40313">
        <ele>80</ele>
        <time>2026-08-23T14:21:03.000Z</time>
      </trkpt>
      <trkpt lat="43.33874" lon="-1.40271">
        <ele>80</ele>
        <time>2026-08-23T14:21:14.000Z</time>
      </trkpt>
      <trkpt lat="43.33936" lon="-1.40227">
        <ele>79</ele>
        <time>2026-08-23T14:21:27.000Z</time>
      </trkpt>
      <trkpt lat="43.3397" lon="-1.40208">
        <ele>79</ele>
        <time>2026-08-23T14:21:33.000Z</time>
      </trkpt>
      <trkpt lat="43.33994" lon="-1.40196">
        <ele>78</ele>
        <time>2026-08-23T14:21:38.000Z</time>
      </trkpt>
      <trkpt lat="43.3403" lon="-1.40185">
        <ele>80</ele>
        <time>2026-08-23T14:21:44.000Z</time>
      </trkpt>
      <trkpt lat="43.34044" lon="-1.40183">
        <ele>81</ele>
        <time>2026-08-23T14:21:47.000Z</time>
      </trkpt>
      <trkpt lat="43.34069" lon="-1.40182">
        <ele>83</ele>
        <time>2026-08-23T14:21:51.000Z</time>
      </trkpt>
      <trkpt lat="43.34096" lon="-1.40185">
        <ele>84</ele>
        <time>2026-08-23T14:21:56.000Z</time>
      </trkpt>
      <trkpt lat="43.3411" lon="-1.40188">
        <ele>85</ele>
        <time>2026-08-23T14:21:59.000Z</time>
      </trkpt>
      <trkpt lat="43.34124" lon="-1.40194">
        <ele>85</ele>
        <time>2026-08-23T14:22:01.000Z</time>
      </trkpt>
      <trkpt lat="43.34141" lon="-1.40203">
        <ele>86</ele>
        <time>2026-08-23T14:22:05.000Z</time>
      </trkpt>
      <trkpt lat="43.34144" lon="-1.40204">
        <ele>86</ele>
        <time>2026-08-23T14:22:05.000Z</time>
      </trkpt>
      <trkpt lat="43.34194" lon="-1.40231">
        <ele>87</ele>
        <time>2026-08-23T14:22:15.000Z</time>
      </trkpt>
      <trkpt lat="43.34217" lon="-1.40241">
        <ele>87</ele>
        <time>2026-08-23T14:22:19.000Z</time>
      </trkpt>
      <trkpt lat="43.34231" lon="-1.40246">
        <ele>87</ele>
        <time>2026-08-23T14:22:22.000Z</time>
      </trkpt>
      <trkpt lat="43.34246" lon="-1.40249">
        <ele>86</ele>
        <time>2026-08-23T14:22:24.000Z</time>
      </trkpt>
      <trkpt lat="43.34258" lon="-1.40249">
        <ele>86</ele>
        <time>2026-08-23T14:22:26.000Z</time>
      </trkpt>
      <trkpt lat="43.34281" lon="-1.40248">
        <ele>86</ele>
        <time>2026-08-23T14:22:30.000Z</time>
      </trkpt>
      <trkpt lat="43.34298" lon="-1.40245">
        <ele>87</ele>
        <time>2026-08-23T14:22:34.000Z</time>
      </trkpt>
      <trkpt lat="43.34402" lon="-1.4022">
        <ele>86</ele>
        <time>2026-08-23T14:22:52.000Z</time>
      </trkpt>
      <trkpt lat="43.34431" lon="-1.40217">
        <ele>86</ele>
        <time>2026-08-23T14:22:57.000Z</time>
      </trkpt>
      <trkpt lat="43.34456" lon="-1.40217">
        <ele>86</ele>
        <time>2026-08-23T14:23:02.000Z</time>
      </trkpt>
      <trkpt lat="43.34457" lon="-1.40211">
        <ele>86</ele>
        <time>2026-08-23T14:23:03.000Z</time>
      </trkpt>
      <trkpt lat="43.34459" lon="-1.40205">
        <ele>86</ele>
        <time>2026-08-23T14:23:04.000Z</time>
      </trkpt>
      <trkpt lat="43.34463" lon="-1.40201">
        <ele>86</ele>
        <time>2026-08-23T14:23:04.000Z</time>
      </trkpt>
      <trkpt lat="43.34467" lon="-1.40198">
        <ele>86</ele>
        <time>2026-08-23T14:23:05.000Z</time>
      </trkpt>
      <trkpt lat="43.34472" lon="-1.40197">
        <ele>86</ele>
        <time>2026-08-23T14:23:06.000Z</time>
      </trkpt>
      <trkpt lat="43.34476" lon="-1.40198">
        <ele>86</ele>
        <time>2026-08-23T14:23:07.000Z</time>
      </trkpt>
      <trkpt lat="43.34484" lon="-1.40177">
        <ele>86</ele>
        <time>2026-08-23T14:23:10.000Z</time>
      </trkpt>
      <trkpt lat="43.34496" lon="-1.40153">
        <ele>87</ele>
        <time>2026-08-23T14:23:14.000Z</time>
      </trkpt>
      <trkpt lat="43.34503" lon="-1.40142">
        <ele>88</ele>
        <time>2026-08-23T14:23:16.000Z</time>
      </trkpt>
      <trkpt lat="43.34511" lon="-1.40132">
        <ele>88</ele>
        <time>2026-08-23T14:23:18.000Z</time>
      </trkpt>
      <trkpt lat="43.34525" lon="-1.40119">
        <ele>89</ele>
        <time>2026-08-23T14:23:21.000Z</time>
      </trkpt>
      <trkpt lat="43.34583" lon="-1.4007">
        <ele>89</ele>
        <time>2026-08-23T14:23:33.000Z</time>
      </trkpt>
      <trkpt lat="43.34641" lon="-1.40019">
        <ele>87</ele>
        <time>2026-08-23T14:23:45.000Z</time>
      </trkpt>
      <trkpt lat="43.34655" lon="-1.40008">
        <ele>87</ele>
        <time>2026-08-23T14:23:48.000Z</time>
      </trkpt>
      <trkpt lat="43.34672" lon="-1.39997">
        <ele>86</ele>
        <time>2026-08-23T14:23:51.000Z</time>
      </trkpt>
      <trkpt lat="43.34699" lon="-1.39984">
        <ele>88</ele>
        <time>2026-08-23T14:23:56.000Z</time>
      </trkpt>
      <trkpt lat="43.34755" lon="-1.39962">
        <ele>90</ele>
        <time>2026-08-23T14:24:07.000Z</time>
      </trkpt>
      <trkpt lat="43.34775" lon="-1.39956">
        <ele>91</ele>
        <time>2026-08-23T14:24:10.000Z</time>
      </trkpt>
      <trkpt lat="43.34869" lon="-1.39933">
        <ele>96</ele>
        <time>2026-08-23T14:24:27.000Z</time>
      </trkpt>
      <trkpt lat="43.3492" lon="-1.39919">
        <ele>99</ele>
        <time>2026-08-23T14:24:36.000Z</time>
      </trkpt>
      <trkpt lat="43.34938" lon="-1.39915">
        <ele>99</ele>
        <time>2026-08-23T14:24:40.000Z</time>
      </trkpt>
      <trkpt lat="43.34951" lon="-1.39912">
        <ele>99</ele>
        <time>2026-08-23T14:24:42.000Z</time>
      </trkpt>
      <trkpt lat="43.35093" lon="-1.3987">
        <ele>84</ele>
        <time>2026-08-23T14:25:08.000Z</time>
      </trkpt>
      <trkpt lat="43.35111" lon="-1.39863">
        <ele>82</ele>
        <time>2026-08-23T14:25:11.000Z</time>
      </trkpt>
      <trkpt lat="43.35114" lon="-1.39863">
        <ele>82</ele>
        <time>2026-08-23T14:25:12.000Z</time>
      </trkpt>
      <trkpt lat="43.35117" lon="-1.39862">
        <ele>82</ele>
        <time>2026-08-23T14:25:12.000Z</time>
      </trkpt>
      <trkpt lat="43.35121" lon="-1.39861">
        <ele>81</ele>
        <time>2026-08-23T14:25:13.000Z</time>
      </trkpt>
      <trkpt lat="43.35189" lon="-1.3984">
        <ele>74</ele>
        <time>2026-08-23T14:25:25.000Z</time>
      </trkpt>
      <trkpt lat="43.3523" lon="-1.3983">
        <ele>70</ele>
        <time>2026-08-23T14:25:33.000Z</time>
      </trkpt>
      <trkpt lat="43.35233" lon="-1.3983">
        <ele>70</ele>
        <time>2026-08-23T14:25:33.000Z</time>
      </trkpt>
      <trkpt lat="43.35262" lon="-1.39831">
        <ele>68</ele>
        <time>2026-08-23T14:25:39.000Z</time>
      </trkpt>
      <trkpt lat="43.35264" lon="-1.39824">
        <ele>68</ele>
        <time>2026-08-23T14:25:40.000Z</time>
      </trkpt>
      <trkpt lat="43.35267" lon="-1.39821">
        <ele>68</ele>
        <time>2026-08-23T14:25:40.000Z</time>
      </trkpt>
      <trkpt lat="43.35271" lon="-1.3982">
        <ele>68</ele>
        <time>2026-08-23T14:25:41.000Z</time>
      </trkpt>
      <trkpt lat="43.35275" lon="-1.3982">
        <ele>68</ele>
        <time>2026-08-23T14:25:42.000Z</time>
      </trkpt>
      <trkpt lat="43.35278" lon="-1.39823">
        <ele>68</ele>
        <time>2026-08-23T14:25:42.000Z</time>
      </trkpt>
      <trkpt lat="43.35281" lon="-1.39827">
        <ele>68</ele>
        <time>2026-08-23T14:25:43.000Z</time>
      </trkpt>
      <trkpt lat="43.35282" lon="-1.39832">
        <ele>68</ele>
        <time>2026-08-23T14:25:44.000Z</time>
      </trkpt>
      <trkpt lat="43.35282" lon="-1.39837">
        <ele>68</ele>
        <time>2026-08-23T14:25:44.000Z</time>
      </trkpt>
      <trkpt lat="43.3529" lon="-1.39845">
        <ele>68</ele>
        <time>2026-08-23T14:25:46.000Z</time>
      </trkpt>
      <trkpt lat="43.35299" lon="-1.39849">
        <ele>68</ele>
        <time>2026-08-23T14:25:48.000Z</time>
      </trkpt>
      <trkpt lat="43.35318" lon="-1.39849">
        <ele>68</ele>
        <time>2026-08-23T14:25:51.000Z</time>
      </trkpt>
      <trkpt lat="43.35405" lon="-1.39872">
        <ele>69</ele>
        <time>2026-08-23T14:26:07.000Z</time>
      </trkpt>
      <trkpt lat="43.35418" lon="-1.39876">
        <ele>70</ele>
        <time>2026-08-23T14:26:09.000Z</time>
      </trkpt>
      <trkpt lat="43.35429" lon="-1.3988">
        <ele>70</ele>
        <time>2026-08-23T14:26:11.000Z</time>
      </trkpt>
      <trkpt lat="43.35441" lon="-1.39884">
        <ele>70</ele>
        <time>2026-08-23T14:26:13.000Z</time>
      </trkpt>
      <trkpt lat="43.3549" lon="-1.39895">
        <ele>73</ele>
        <time>2026-08-23T14:26:22.000Z</time>
      </trkpt>
      <trkpt lat="43.35508" lon="-1.399">
        <ele>73</ele>
        <time>2026-08-23T14:26:26.000Z</time>
      </trkpt>
      <trkpt lat="43.3552" lon="-1.39904">
        <ele>73</ele>
        <time>2026-08-23T14:26:28.000Z</time>
      </trkpt>
      <trkpt lat="43.35601" lon="-1.39921">
        <ele>74</ele>
        <time>2026-08-23T14:26:42.000Z</time>
      </trkpt>
      <trkpt lat="43.35633" lon="-1.39926">
        <ele>73</ele>
        <time>2026-08-23T14:26:48.000Z</time>
      </trkpt>
      <trkpt lat="43.35648" lon="-1.39924">
        <ele>73</ele>
        <time>2026-08-23T14:26:51.000Z</time>
      </trkpt>
      <trkpt lat="43.35705" lon="-1.39908">
        <ele>72</ele>
        <time>2026-08-23T14:27:01.000Z</time>
      </trkpt>
      <trkpt lat="43.35736" lon="-1.399">
        <ele>71</ele>
        <time>2026-08-23T14:27:07.000Z</time>
      </trkpt>
      <trkpt lat="43.3584" lon="-1.39879">
        <ele>71</ele>
        <time>2026-08-23T14:27:25.000Z</time>
      </trkpt>
      <trkpt lat="43.35868" lon="-1.39875">
        <ele>71</ele>
        <time>2026-08-23T14:27:30.000Z</time>
      </trkpt>
      <trkpt lat="43.3589" lon="-1.39877">
        <ele>72</ele>
        <time>2026-08-23T14:27:34.000Z</time>
      </trkpt>
      <trkpt lat="43.35944" lon="-1.39886">
        <ele>71</ele>
        <time>2026-08-23T14:27:44.000Z</time>
      </trkpt>
      <trkpt lat="43.35958" lon="-1.3989">
        <ele>71</ele>
        <time>2026-08-23T14:27:47.000Z</time>
      </trkpt>
      <trkpt lat="43.35978" lon="-1.39892">
        <ele>71</ele>
        <time>2026-08-23T14:27:50.000Z</time>
      </trkpt>
      <trkpt lat="43.3598" lon="-1.39885">
        <ele>71</ele>
        <time>2026-08-23T14:27:51.000Z</time>
      </trkpt>
      <trkpt lat="43.35984" lon="-1.3988">
        <ele>70</ele>
        <time>2026-08-23T14:27:52.000Z</time>
      </trkpt>
      <trkpt lat="43.35988" lon="-1.39879">
        <ele>70</ele>
        <time>2026-08-23T14:27:53.000Z</time>
      </trkpt>
      <trkpt lat="43.35991" lon="-1.39879">
        <ele>70</ele>
        <time>2026-08-23T14:27:53.000Z</time>
      </trkpt>
      <trkpt lat="43.35994" lon="-1.39881">
        <ele>70</ele>
        <time>2026-08-23T14:27:54.000Z</time>
      </trkpt>
      <trkpt lat="43.35996" lon="-1.39884">
        <ele>70</ele>
        <time>2026-08-23T14:27:54.000Z</time>
      </trkpt>
      <trkpt lat="43.35998" lon="-1.39888">
        <ele>70</ele>
        <time>2026-08-23T14:27:55.000Z</time>
      </trkpt>
      <trkpt lat="43.35998" lon="-1.39895">
        <ele>71</ele>
        <time>2026-08-23T14:27:56.000Z</time>
      </trkpt>
      <trkpt lat="43.35996" lon="-1.39902">
        <ele>71</ele>
        <time>2026-08-23T14:27:57.000Z</time>
      </trkpt>
      <trkpt lat="43.36006" lon="-1.39913">
        <ele>71</ele>
        <time>2026-08-23T14:27:59.000Z</time>
      </trkpt>
      <trkpt lat="43.36001" lon="-1.39925">
        <ele>71</ele>
        <time>2026-08-23T14:28:01.000Z</time>
      </trkpt>
      <trkpt lat="43.35987" lon="-1.39918">
        <ele>71</ele>
        <time>2026-08-23T14:28:04.000Z</time>
      </trkpt>
      <trkpt lat="43.36001" lon="-1.39925">
        <ele>71</ele>
        <time>2026-08-23T14:28:06.000Z</time>
      </trkpt>
      <trkpt lat="43.36006" lon="-1.39913">
        <ele>71</ele>
        <time>2026-08-23T14:28:08.000Z</time>
      </trkpt>
      <trkpt lat="43.3602" lon="-1.39929">
        <ele>70</ele>
        <time>2026-08-23T14:28:11.000Z</time>
      </trkpt>
      <trkpt lat="43.36041" lon="-1.39965">
        <ele>70</ele>
        <time>2026-08-23T14:28:17.000Z</time>
      </trkpt>
      <trkpt lat="43.36048" lon="-1.39977">
        <ele>70</ele>
        <time>2026-08-23T14:28:19.000Z</time>
      </trkpt>
      <trkpt lat="43.36051" lon="-1.39976">
        <ele>70</ele>
        <time>2026-08-23T14:28:20.000Z</time>
      </trkpt>
      <trkpt lat="43.36054" lon="-1.39976">
        <ele>70</ele>
        <time>2026-08-23T14:28:20.000Z</time>
      </trkpt>
      <trkpt lat="43.36057" lon="-1.39978">
        <ele>70</ele>
        <time>2026-08-23T14:28:21.000Z</time>
      </trkpt>
      <trkpt lat="43.3606" lon="-1.39981">
        <ele>70</ele>
        <time>2026-08-23T14:28:22.000Z</time>
      </trkpt>
      <trkpt lat="43.36064" lon="-1.39978">
        <ele>70</ele>
        <time>2026-08-23T14:28:22.000Z</time>
      </trkpt>
      <trkpt lat="43.36075" lon="-1.39957">
        <ele>69</ele>
        <time>2026-08-23T14:28:26.000Z</time>
      </trkpt>
      <trkpt lat="43.36089" lon="-1.39919">
        <ele>67</ele>
        <time>2026-08-23T14:28:31.000Z</time>
      </trkpt>
      <trkpt lat="43.36098" lon="-1.39892">
        <ele>66</ele>
        <time>2026-08-23T14:28:35.000Z</time>
      </trkpt>
      <trkpt lat="43.361" lon="-1.39887">
        <ele>66</ele>
        <time>2026-08-23T14:28:36.000Z</time>
      </trkpt>
      <trkpt lat="43.36105" lon="-1.39872">
        <ele>65</ele>
        <time>2026-08-23T14:28:38.000Z</time>
      </trkpt>
      <trkpt lat="43.36111" lon="-1.39854">
        <ele>65</ele>
        <time>2026-08-23T14:28:41.000Z</time>
      </trkpt>
      <trkpt lat="43.36114" lon="-1.39847">
        <ele>65</ele>
        <time>2026-08-23T14:28:42.000Z</time>
      </trkpt>
      <trkpt lat="43.36119" lon="-1.39832">
        <ele>64</ele>
        <time>2026-08-23T14:28:44.000Z</time>
      </trkpt>
      <trkpt lat="43.3614" lon="-1.39774">
        <ele>63</ele>
        <time>2026-08-23T14:28:52.000Z</time>
      </trkpt>
      <trkpt lat="43.36196" lon="-1.3981">
        <ele>56</ele>
        <time>2026-08-23T14:29:03.000Z</time>
      </trkpt>
      <trkpt lat="43.36198" lon="-1.39806">
        <ele>56</ele>
        <time>2026-08-23T14:29:04.000Z</time>
      </trkpt>
      <trkpt lat="43.362" lon="-1.39806">
        <ele>55</ele>
        <time>2026-08-23T14:29:04.000Z</time>
      </trkpt>
      <trkpt lat="43.36203" lon="-1.39807">
        <ele>55</ele>
        <time>2026-08-23T14:29:05.000Z</time>
      </trkpt>
      <trkpt lat="43.36212" lon="-1.39798">
        <ele>53</ele>
        <time>2026-08-23T14:29:07.000Z</time>
      </trkpt>
      <trkpt lat="43.36218" lon="-1.39791">
        <ele>52</ele>
        <time>2026-08-23T14:29:08.000Z</time>
      </trkpt>
      <trkpt lat="43.36223" lon="-1.39776">
        <ele>51</ele>
        <time>2026-08-23T14:29:10.000Z</time>
      </trkpt>
      <trkpt lat="43.36223" lon="-1.39771">
        <ele>51</ele>
        <time>2026-08-23T14:29:11.000Z</time>
      </trkpt>
      <trkpt lat="43.36226" lon="-1.39742">
        <ele>50</ele>
        <time>2026-08-23T14:29:15.000Z</time>
      </trkpt>
      <trkpt lat="43.36227" lon="-1.39729">
        <ele>50</ele>
        <time>2026-08-23T14:29:16.000Z</time>
      </trkpt>
      <trkpt lat="43.36236" lon="-1.3967">
        <ele>49</ele>
        <time>2026-08-23T14:29:24.000Z</time>
      </trkpt>
      <trkpt lat="43.36238" lon="-1.39605">
        <ele>47</ele>
        <time>2026-08-23T14:29:33.000Z</time>
      </trkpt>
      <trkpt lat="43.36237" lon="-1.39564">
        <ele>47</ele>
        <time>2026-08-23T14:29:38.000Z</time>
      </trkpt>
      <trkpt lat="43.3625" lon="-1.39504">
        <ele>45</ele>
        <time>2026-08-23T14:29:46.000Z</time>
      </trkpt>
      <trkpt lat="43.36256" lon="-1.39494">
        <ele>42</ele>
        <time>2026-08-23T14:29:48.000Z</time>
      </trkpt>
      <trkpt lat="43.36259" lon="-1.39508">
        <ele>42</ele>
        <time>2026-08-23T14:29:50.000Z</time>
      </trkpt>
      <trkpt lat="43.36253" lon="-1.3955">
        <ele>44</ele>
        <time>2026-08-23T14:29:55.000Z</time>
      </trkpt>
      <trkpt lat="43.36253" lon="-1.3959">
        <ele>44</ele>
        <time>2026-08-23T14:30:00.000Z</time>
      </trkpt>
      <trkpt lat="43.36277" lon="-1.39735">
        <ele>36</ele>
        <time>2026-08-23T14:30:20.000Z</time>
      </trkpt>
      <trkpt lat="43.3628" lon="-1.39743">
        <ele>35</ele>
        <time>2026-08-23T14:30:21.000Z</time>
      </trkpt>
      <trkpt lat="43.36283" lon="-1.3975">
        <ele>34</ele>
        <time>2026-08-23T14:30:22.000Z</time>
      </trkpt>
      <trkpt lat="43.36286" lon="-1.39754">
        <ele>33</ele>
        <time>2026-08-23T14:30:22.000Z</time>
      </trkpt>
      <trkpt lat="43.36293" lon="-1.39759">
        <ele>31</ele>
        <time>2026-08-23T14:30:24.000Z</time>
      </trkpt>
      <trkpt lat="43.36312" lon="-1.39766">
        <ele>24</ele>
        <time>2026-08-23T14:30:27.000Z</time>
      </trkpt>
      <trkpt lat="43.36326" lon="-1.39771">
        <ele>20</ele>
        <time>2026-08-23T14:30:30.000Z</time>
      </trkpt>
      <trkpt lat="43.3635" lon="-1.39774">
        <ele>17</ele>
        <time>2026-08-23T14:30:34.000Z</time>
      </trkpt>
      <trkpt lat="43.36358" lon="-1.39774">
        <ele>18</ele>
        <time>2026-08-23T14:30:36.000Z</time>
      </trkpt>
      <trkpt lat="43.36366" lon="-1.39773">
        <ele>18</ele>
        <time>2026-08-23T14:30:37.000Z</time>
      </trkpt>
      <trkpt lat="43.36379" lon="-1.39771">
        <ele>18</ele>
        <time>2026-08-23T14:30:39.000Z</time>
      </trkpt>
      <trkpt lat="43.36391" lon="-1.39767">
        <ele>18</ele>
        <time>2026-08-23T14:30:42.000Z</time>
      </trkpt>
      <trkpt lat="43.36426" lon="-1.39749">
        <ele>19</ele>
        <time>2026-08-23T14:30:48.000Z</time>
      </trkpt>
      <trkpt lat="43.36501" lon="-1.39708">
        <ele>21</ele>
        <time>2026-08-23T14:31:03.000Z</time>
      </trkpt>
      <trkpt lat="43.3651" lon="-1.39704">
        <ele>21</ele>
        <time>2026-08-23T14:31:04.000Z</time>
      </trkpt>
      <trkpt lat="43.36521" lon="-1.397">
        <ele>21</ele>
        <time>2026-08-23T14:31:06.000Z</time>
      </trkpt>
      <trkpt lat="43.36516" lon="-1.39692">
        <ele>21</ele>
        <time>2026-08-23T14:31:08.000Z</time>
      </trkpt>
      <trkpt lat="43.36518" lon="-1.3969">
        <ele>21</ele>
        <time>2026-08-23T14:31:08.000Z</time>
      </trkpt>
      <trkpt lat="43.36528" lon="-1.39688">
        <ele>21</ele>
        <time>2026-08-23T14:31:10.000Z</time>
      </trkpt>
      <trkpt lat="43.36529" lon="-1.39687">
        <ele>21</ele>
        <time>2026-08-23T14:31:10.000Z</time>
      </trkpt>
      <trkpt lat="43.36531" lon="-1.39685">
        <ele>21</ele>
        <time>2026-08-23T14:31:11.000Z</time>
      </trkpt>
      <trkpt lat="43.36534" lon="-1.3968">
        <ele>22</ele>
        <time>2026-08-23T14:31:11.000Z</time>
      </trkpt>
      <trkpt lat="43.36537" lon="-1.39676">
        <ele>22</ele>
        <time>2026-08-23T14:31:12.000Z</time>
      </trkpt>
      <trkpt lat="43.36539" lon="-1.39682">
        <ele>22</ele>
        <time>2026-08-23T14:31:13.000Z</time>
      </trkpt>
      <trkpt lat="43.36539" lon="-1.39689">
        <ele>22</ele>
        <time>2026-08-23T14:31:14.000Z</time>
      </trkpt>
      <trkpt lat="43.36537" lon="-1.39695">
        <ele>21</ele>
        <time>2026-08-23T14:31:15.000Z</time>
      </trkpt>
      <trkpt lat="43.36533" lon="-1.39699">
        <ele>21</ele>
        <time>2026-08-23T14:31:16.000Z</time>
      </trkpt>
      <trkpt lat="43.36529" lon="-1.397">
        <ele>21</ele>
        <time>2026-08-23T14:31:16.000Z</time>
      </trkpt>
      <trkpt lat="43.36521" lon="-1.397">
        <ele>21</ele>
        <time>2026-08-23T14:31:18.000Z</time>
      </trkpt>
      <trkpt lat="43.36531" lon="-1.39714">
        <ele>21</ele>
        <time>2026-08-23T14:31:20.000Z</time>
      </trkpt>
      <trkpt lat="43.36544" lon="-1.39735">
        <ele>21</ele>
        <time>2026-08-23T14:31:24.000Z</time>
      </trkpt>
      <trkpt lat="43.36594" lon="-1.39818">
        <ele>21</ele>
        <time>2026-08-23T14:31:38.000Z</time>
      </trkpt>
      <trkpt lat="43.3667" lon="-1.39947">
        <ele>21</ele>
        <time>2026-08-23T14:31:59.000Z</time>
      </trkpt>
      <trkpt lat="43.36709" lon="-1.4001">
        <ele>20</ele>
        <time>2026-08-23T14:32:10.000Z</time>
      </trkpt>
      <trkpt lat="43.36718" lon="-1.40022">
        <ele>20</ele>
        <time>2026-08-23T14:32:12.000Z</time>
      </trkpt>
      <trkpt lat="43.36736" lon="-1.40037">
        <ele>20</ele>
        <time>2026-08-23T14:32:16.000Z</time>
      </trkpt>
      <trkpt lat="43.36748" lon="-1.40046">
        <ele>19</ele>
        <time>2026-08-23T14:32:18.000Z</time>
      </trkpt>
      <trkpt lat="43.3677" lon="-1.4006">
        <ele>20</ele>
        <time>2026-08-23T14:32:23.000Z</time>
      </trkpt>
      <trkpt lat="43.36779" lon="-1.40064">
        <ele>20</ele>
        <time>2026-08-23T14:32:24.000Z</time>
      </trkpt>
      <trkpt lat="43.36786" lon="-1.40065">
        <ele>20</ele>
        <time>2026-08-23T14:32:26.000Z</time>
      </trkpt>
      <trkpt lat="43.36795" lon="-1.40062">
        <ele>21</ele>
        <time>2026-08-23T14:32:27.000Z</time>
      </trkpt>
      <trkpt lat="43.36801" lon="-1.40057">
        <ele>21</ele>
        <time>2026-08-23T14:32:29.000Z</time>
      </trkpt>
      <trkpt lat="43.36809" lon="-1.40046">
        <ele>21</ele>
        <time>2026-08-23T14:32:31.000Z</time>
      </trkpt>
      <trkpt lat="43.36811" lon="-1.4004">
        <ele>22</ele>
        <time>2026-08-23T14:32:31.000Z</time>
      </trkpt>
      <trkpt lat="43.36824" lon="-1.3998">
        <ele>24</ele>
        <time>2026-08-23T14:32:40.000Z</time>
      </trkpt>
      <trkpt lat="43.3683" lon="-1.39962">
        <ele>25</ele>
        <time>2026-08-23T14:32:42.000Z</time>
      </trkpt>
      <trkpt lat="43.36835" lon="-1.39955">
        <ele>26</ele>
        <time>2026-08-23T14:32:43.000Z</time>
      </trkpt>
      <trkpt lat="43.36831" lon="-1.39945">
        <ele>26</ele>
        <time>2026-08-23T14:32:45.000Z</time>
      </trkpt>
      <trkpt lat="43.3682" lon="-1.39925">
        <ele>26</ele>
        <time>2026-08-23T14:32:48.000Z</time>
      </trkpt>
      <trkpt lat="43.36818" lon="-1.39924">
        <ele>26</ele>
        <time>2026-08-23T14:32:48.000Z</time>
      </trkpt>
      <trkpt lat="43.36808" lon="-1.39915">
        <ele>25</ele>
        <time>2026-08-23T14:32:51.000Z</time>
      </trkpt>
      <trkpt lat="43.36806" lon="-1.39908">
        <ele>25</ele>
        <time>2026-08-23T14:32:52.000Z</time>
      </trkpt>
      <trkpt lat="43.36805" lon="-1.39904">
        <ele>25</ele>
        <time>2026-08-23T14:32:52.000Z</time>
      </trkpt>
      <trkpt lat="43.36804" lon="-1.39896">
        <ele>25</ele>
        <time>2026-08-23T14:32:53.000Z</time>
      </trkpt>
      <trkpt lat="43.36815" lon="-1.39848">
        <ele>27</ele>
        <time>2026-08-23T14:33:00.000Z</time>
      </trkpt>
      <trkpt lat="43.36815" lon="-1.39832">
        <ele>27</ele>
        <time>2026-08-23T14:33:02.000Z</time>
      </trkpt>
      <trkpt lat="43.36816" lon="-1.39816">
        <ele>28</ele>
        <time>2026-08-23T14:33:04.000Z</time>
      </trkpt>
      <trkpt lat="43.36819" lon="-1.39805">
        <ele>29</ele>
        <time>2026-08-23T14:33:05.000Z</time>
      </trkpt>
      <trkpt lat="43.36835" lon="-1.39776">
        <ele>31</ele>
        <time>2026-08-23T14:33:10.000Z</time>
      </trkpt>
      <trkpt lat="43.36841" lon="-1.39768">
        <ele>31</ele>
        <time>2026-08-23T14:33:12.000Z</time>
      </trkpt>
      <trkpt lat="43.36871" lon="-1.39736">
        <ele>34</ele>
        <time>2026-08-23T14:33:18.000Z</time>
      </trkpt>
      <trkpt lat="43.36911" lon="-1.39698">
        <ele>39</ele>
        <time>2026-08-23T14:33:27.000Z</time>
      </trkpt>
      <trkpt lat="43.36916" lon="-1.39689">
        <ele>40</ele>
        <time>2026-08-23T14:33:28.000Z</time>
      </trkpt>
      <trkpt lat="43.36919" lon="-1.39678">
        <ele>41</ele>
        <time>2026-08-23T14:33:30.000Z</time>
      </trkpt>
      <trkpt lat="43.36922" lon="-1.39591">
        <ele>43</ele>
        <time>2026-08-23T14:33:41.000Z</time>
      </trkpt>
      <trkpt lat="43.36924" lon="-1.39576">
        <ele>43</ele>
        <time>2026-08-23T14:33:43.000Z</time>
      </trkpt>
      <trkpt lat="43.36926" lon="-1.39569">
        <ele>43</ele>
        <time>2026-08-23T14:33:44.000Z</time>
      </trkpt>
      <trkpt lat="43.36924" lon="-1.39576">
        <ele>43</ele>
        <time>2026-08-23T14:33:45.000Z</time>
      </trkpt>
      <trkpt lat="43.36923" lon="-1.39548">
        <ele>43</ele>
        <time>2026-08-23T14:33:49.000Z</time>
      </trkpt>
      <trkpt lat="43.36919" lon="-1.39525">
        <ele>44</ele>
        <time>2026-08-23T14:33:52.000Z</time>
      </trkpt>
      <trkpt lat="43.36914" lon="-1.39507">
        <ele>44</ele>
        <time>2026-08-23T14:33:54.000Z</time>
      </trkpt>
      <trkpt lat="43.36864" lon="-1.39401">
        <ele>48</ele>
        <time>2026-08-23T14:34:11.000Z</time>
      </trkpt>
      <trkpt lat="43.36836" lon="-1.39343">
        <ele>58</ele>
        <time>2026-08-23T14:34:20.000Z</time>
      </trkpt>
      <trkpt lat="43.36826" lon="-1.39328">
        <ele>59</ele>
        <time>2026-08-23T14:34:22.000Z</time>
      </trkpt>
      <trkpt lat="43.36804" lon="-1.39303">
        <ele>59</ele>
        <time>2026-08-23T14:34:27.000Z</time>
      </trkpt>
      <trkpt lat="43.36716" lon="-1.39155">
        <ele>73</ele>
        <time>2026-08-23T14:34:52.000Z</time>
      </trkpt>
      <trkpt lat="43.36705" lon="-1.3912">
        <ele>76</ele>
        <time>2026-08-23T14:34:57.000Z</time>
      </trkpt>
      <trkpt lat="43.36699" lon="-1.39097">
        <ele>78</ele>
        <time>2026-08-23T14:35:00.000Z</time>
      </trkpt>
      <trkpt lat="43.36692" lon="-1.39046">
        <ele>81</ele>
        <time>2026-08-23T14:35:07.000Z</time>
      </trkpt>
      <trkpt lat="43.36693" lon="-1.39029">
        <ele>82</ele>
        <time>2026-08-23T14:35:09.000Z</time>
      </trkpt>
      <trkpt lat="43.36699" lon="-1.39013">
        <ele>82</ele>
        <time>2026-08-23T14:35:11.000Z</time>
      </trkpt>
      <trkpt lat="43.36709" lon="-1.38988">
        <ele>81</ele>
        <time>2026-08-23T14:35:15.000Z</time>
      </trkpt>
      <trkpt lat="43.36726" lon="-1.38936">
        <ele>82</ele>
        <time>2026-08-23T14:35:22.000Z</time>
      </trkpt>
      <trkpt lat="43.36743" lon="-1.38837">
        <ele>90</ele>
        <time>2026-08-23T14:35:36.000Z</time>
      </trkpt>
      <trkpt lat="43.36745" lon="-1.38791">
        <ele>89</ele>
        <time>2026-08-23T14:35:42.000Z</time>
      </trkpt>
      <trkpt lat="43.36743" lon="-1.38773">
        <ele>88</ele>
        <time>2026-08-23T14:35:44.000Z</time>
      </trkpt>
      <trkpt lat="43.36736" lon="-1.38759">
        <ele>89</ele>
        <time>2026-08-23T14:35:46.000Z</time>
      </trkpt>
      <trkpt lat="43.36705" lon="-1.38727">
        <ele>91</ele>
        <time>2026-08-23T14:35:53.000Z</time>
      </trkpt>
      <trkpt lat="43.36696" lon="-1.38709">
        <ele>92</ele>
        <time>2026-08-23T14:35:56.000Z</time>
      </trkpt>
      <trkpt lat="43.36696" lon="-1.3869">
        <ele>91</ele>
        <time>2026-08-23T14:35:58.000Z</time>
      </trkpt>
      <trkpt lat="43.36711" lon="-1.38641">
        <ele>87</ele>
        <time>2026-08-23T14:36:05.000Z</time>
      </trkpt>
      <trkpt lat="43.36727" lon="-1.38573">
        <ele>83</ele>
        <time>2026-08-23T14:36:14.000Z</time>
      </trkpt>
      <trkpt lat="43.36738" lon="-1.38538">
        <ele>84</ele>
        <time>2026-08-23T14:36:19.000Z</time>
      </trkpt>
      <trkpt lat="43.36754" lon="-1.385">
        <ele>84</ele>
        <time>2026-08-23T14:36:25.000Z</time>
      </trkpt>
      <trkpt lat="43.36758" lon="-1.38473">
        <ele>85</ele>
        <time>2026-08-23T14:36:29.000Z</time>
      </trkpt>
      <trkpt lat="43.36756" lon="-1.38434">
        <ele>86</ele>
        <time>2026-08-23T14:36:34.000Z</time>
      </trkpt>
      <trkpt lat="43.36748" lon="-1.38396">
        <ele>86</ele>
        <time>2026-08-23T14:36:39.000Z</time>
      </trkpt>
      <trkpt lat="43.36737" lon="-1.38372">
        <ele>83</ele>
        <time>2026-08-23T14:36:42.000Z</time>
      </trkpt>
      <trkpt lat="43.36733" lon="-1.38344">
        <ele>81</ele>
        <time>2026-08-23T14:36:46.000Z</time>
      </trkpt>
      <trkpt lat="43.36734" lon="-1.38319">
        <ele>80</ele>
        <time>2026-08-23T14:36:49.000Z</time>
      </trkpt>
      <trkpt lat="43.36738" lon="-1.38258">
        <ele>81</ele>
        <time>2026-08-23T14:36:57.000Z</time>
      </trkpt>
      <trkpt lat="43.36743" lon="-1.38235">
        <ele>83</ele>
        <time>2026-08-23T14:37:00.000Z</time>
      </trkpt>
      <trkpt lat="43.36754" lon="-1.38204">
        <ele>85</ele>
        <time>2026-08-23T14:37:05.000Z</time>
      </trkpt>
      <trkpt lat="43.36756" lon="-1.38187">
        <ele>85</ele>
        <time>2026-08-23T14:37:07.000Z</time>
      </trkpt>
      <trkpt lat="43.36752" lon="-1.38137">
        <ele>87</ele>
        <time>2026-08-23T14:37:14.000Z</time>
      </trkpt>
      <trkpt lat="43.36758" lon="-1.38012">
        <ele>95</ele>
        <time>2026-08-23T14:37:30.000Z</time>
      </trkpt>
      <trkpt lat="43.36764" lon="-1.37983">
        <ele>96</ele>
        <time>2026-08-23T14:37:34.000Z</time>
      </trkpt>
      <trkpt lat="43.36837" lon="-1.37825">
        <ele>109</ele>
        <time>2026-08-23T14:37:58.000Z</time>
      </trkpt>
      <trkpt lat="43.36847" lon="-1.37787">
        <ele>109</ele>
        <time>2026-08-23T14:38:03.000Z</time>
      </trkpt>
      <trkpt lat="43.36868" lon="-1.3773">
        <ele>108</ele>
        <time>2026-08-23T14:38:11.000Z</time>
      </trkpt>
      <trkpt lat="43.36897" lon="-1.37651">
        <ele>110</ele>
        <time>2026-08-23T14:38:23.000Z</time>
      </trkpt>
      <trkpt lat="43.36909" lon="-1.37628">
        <ele>113</ele>
        <time>2026-08-23T14:38:27.000Z</time>
      </trkpt>
      <trkpt lat="43.36922" lon="-1.37615">
        <ele>114</ele>
        <time>2026-08-23T14:38:29.000Z</time>
      </trkpt>
      <trkpt lat="43.36944" lon="-1.376">
        <ele>112</ele>
        <time>2026-08-23T14:38:34.000Z</time>
      </trkpt>
      <trkpt lat="43.36976" lon="-1.37576">
        <ele>110</ele>
        <time>2026-08-23T14:38:40.000Z</time>
      </trkpt>
      <trkpt lat="43.36997" lon="-1.37553">
        <ele>111</ele>
        <time>2026-08-23T14:38:45.000Z</time>
      </trkpt>
      <trkpt lat="43.37033" lon="-1.37524">
        <ele>113</ele>
        <time>2026-08-23T14:38:52.000Z</time>
      </trkpt>
      <trkpt lat="43.37059" lon="-1.37486">
        <ele>116</ele>
        <time>2026-08-23T14:38:59.000Z</time>
      </trkpt>
      <trkpt lat="43.37061" lon="-1.37478">
        <ele>116</ele>
        <time>2026-08-23T14:39:00.000Z</time>
      </trkpt>
      <trkpt lat="43.3707" lon="-1.37437">
        <ele>118</ele>
        <time>2026-08-23T14:39:06.000Z</time>
      </trkpt>
      <trkpt lat="43.37079" lon="-1.37414">
        <ele>119</ele>
        <time>2026-08-23T14:39:09.000Z</time>
      </trkpt>
      <trkpt lat="43.37136" lon="-1.37343">
        <ele>122</ele>
        <time>2026-08-23T14:39:23.000Z</time>
      </trkpt>
      <trkpt lat="43.37181" lon="-1.37301">
        <ele>120</ele>
        <time>2026-08-23T14:39:33.000Z</time>
      </trkpt>
      <trkpt lat="43.37209" lon="-1.37269">
        <ele>118</ele>
        <time>2026-08-23T14:39:39.000Z</time>
      </trkpt>
      <trkpt lat="43.3727" lon="-1.37194">
        <ele>116</ele>
        <time>2026-08-23T14:39:54.000Z</time>
      </trkpt>
      <trkpt lat="43.37301" lon="-1.37148">
        <ele>115</ele>
        <time>2026-08-23T14:40:02.000Z</time>
      </trkpt>
      <trkpt lat="43.37342" lon="-1.37068">
        <ele>117</ele>
        <time>2026-08-23T14:40:14.000Z</time>
      </trkpt>
      <trkpt lat="43.37363" lon="-1.37039">
        <ele>118</ele>
        <time>2026-08-23T14:40:20.000Z</time>
      </trkpt>
      <trkpt lat="43.37375" lon="-1.37016">
        <ele>119</ele>
        <time>2026-08-23T14:40:23.000Z</time>
      </trkpt>
      <trkpt lat="43.3738" lon="-1.36984">
        <ele>122</ele>
        <time>2026-08-23T14:40:28.000Z</time>
      </trkpt>
      <trkpt lat="43.37383" lon="-1.36946">
        <ele>126</ele>
        <time>2026-08-23T14:40:33.000Z</time>
      </trkpt>
      <trkpt lat="43.37392" lon="-1.36926">
        <ele>127</ele>
        <time>2026-08-23T14:40:36.000Z</time>
      </trkpt>
      <trkpt lat="43.37416" lon="-1.36891">
        <ele>125</ele>
        <time>2026-08-23T14:40:42.000Z</time>
      </trkpt>
      <trkpt lat="43.37437" lon="-1.36865">
        <ele>126</ele>
        <time>2026-08-23T14:40:47.000Z</time>
      </trkpt>
      <trkpt lat="43.37462" lon="-1.36841">
        <ele>127</ele>
        <time>2026-08-23T14:40:52.000Z</time>
      </trkpt>
      <trkpt lat="43.37471" lon="-1.36824">
        <ele>127</ele>
        <time>2026-08-23T14:40:55.000Z</time>
      </trkpt>
      <trkpt lat="43.37487" lon="-1.36779">
        <ele>126</ele>
        <time>2026-08-23T14:41:01.000Z</time>
      </trkpt>
      <trkpt lat="43.37497" lon="-1.36764">
        <ele>126</ele>
        <time>2026-08-23T14:41:04.000Z</time>
      </trkpt>
      <trkpt lat="43.37517" lon="-1.36752">
        <ele>129</ele>
        <time>2026-08-23T14:41:08.000Z</time>
      </trkpt>
      <trkpt lat="43.37551" lon="-1.36739">
        <ele>134</ele>
        <time>2026-08-23T14:41:14.000Z</time>
      </trkpt>
      <trkpt lat="43.37569" lon="-1.36719">
        <ele>137</ele>
        <time>2026-08-23T14:41:18.000Z</time>
      </trkpt>
      <trkpt lat="43.37576" lon="-1.367">
        <ele>137</ele>
        <time>2026-08-23T14:41:21.000Z</time>
      </trkpt>
      <trkpt lat="43.37578" lon="-1.36658">
        <ele>137</ele>
        <time>2026-08-23T14:41:27.000Z</time>
      </trkpt>
      <trkpt lat="43.37582" lon="-1.36621">
        <ele>138</ele>
        <time>2026-08-23T14:41:31.000Z</time>
      </trkpt>
      <trkpt lat="43.37591" lon="-1.36586">
        <ele>137</ele>
        <time>2026-08-23T14:41:36.000Z</time>
      </trkpt>
      <trkpt lat="43.37595" lon="-1.36583">
        <ele>137</ele>
        <time>2026-08-23T14:41:37.000Z</time>
      </trkpt>
      <trkpt lat="43.37596" lon="-1.36581">
        <ele>137</ele>
        <time>2026-08-23T14:41:37.000Z</time>
      </trkpt>
      <trkpt lat="43.37653" lon="-1.36657">
        <ele>139</ele>
        <time>2026-08-23T14:41:51.000Z</time>
      </trkpt>
      <trkpt lat="43.37667" lon="-1.36682">
        <ele>141</ele>
        <time>2026-08-23T14:41:56.000Z</time>
      </trkpt>
      <trkpt lat="43.37671" lon="-1.36698">
        <ele>140</ele>
        <time>2026-08-23T14:41:58.000Z</time>
      </trkpt>
      <trkpt lat="43.37674" lon="-1.36718">
        <ele>141</ele>
        <time>2026-08-23T14:42:00.000Z</time>
      </trkpt>
      <trkpt lat="43.37673" lon="-1.36764">
        <ele>142</ele>
        <time>2026-08-23T14:42:06.000Z</time>
      </trkpt>
      <trkpt lat="43.37675" lon="-1.36791">
        <ele>140</ele>
        <time>2026-08-23T14:42:10.000Z</time>
      </trkpt>
      <trkpt lat="43.37686" lon="-1.36841">
        <ele>136</ele>
        <time>2026-08-23T14:42:17.000Z</time>
      </trkpt>
      <trkpt lat="43.37739" lon="-1.37032">
        <ele>130</ele>
        <time>2026-08-23T14:42:43.000Z</time>
      </trkpt>
      <trkpt lat="43.37753" lon="-1.37079">
        <ele>129</ele>
        <time>2026-08-23T14:42:50.000Z</time>
      </trkpt>
      <trkpt lat="43.37766" lon="-1.37115">
        <ele>127</ele>
        <time>2026-08-23T14:42:55.000Z</time>
      </trkpt>
      <trkpt lat="43.37782" lon="-1.37149">
        <ele>126</ele>
        <time>2026-08-23T14:43:00.000Z</time>
      </trkpt>
      <trkpt lat="43.37795" lon="-1.37169">
        <ele>125</ele>
        <time>2026-08-23T14:43:03.000Z</time>
      </trkpt>
      <trkpt lat="43.37811" lon="-1.37189">
        <ele>122</ele>
        <time>2026-08-23T14:43:07.000Z</time>
      </trkpt>
      <trkpt lat="43.37892" lon="-1.37277">
        <ele>115</ele>
        <time>2026-08-23T14:43:26.000Z</time>
      </trkpt>
      <trkpt lat="43.38093" lon="-1.37501">
        <ele>126</ele>
        <time>2026-08-23T14:44:12.000Z</time>
      </trkpt>
      <trkpt lat="43.38112" lon="-1.37522">
        <ele>125</ele>
        <time>2026-08-23T14:44:16.000Z</time>
      </trkpt>
      <trkpt lat="43.38186" lon="-1.37614">
        <ele>120</ele>
        <time>2026-08-23T14:44:34.000Z</time>
      </trkpt>
      <trkpt lat="43.38242" lon="-1.37695">
        <ele>119</ele>
        <time>2026-08-23T14:44:48.000Z</time>
      </trkpt>
      <trkpt lat="43.38311" lon="-1.37794">
        <ele>117</ele>
        <time>2026-08-23T14:45:06.000Z</time>
      </trkpt>
      <trkpt lat="43.38416" lon="-1.37984">
        <ele>117</ele>
        <time>2026-08-23T14:45:37.000Z</time>
      </trkpt>
      <trkpt lat="43.38459" lon="-1.38056">
        <ele>118</ele>
        <time>2026-08-23T14:45:49.000Z</time>
      </trkpt>
      <trkpt lat="43.38482" lon="-1.38087">
        <ele>119</ele>
        <time>2026-08-23T14:45:55.000Z</time>
      </trkpt>
      <trkpt lat="43.38507" lon="-1.3811">
        <ele>118</ele>
        <time>2026-08-23T14:46:00.000Z</time>
      </trkpt>
      <trkpt lat="43.38525" lon="-1.38123">
        <ele>116</ele>
        <time>2026-08-23T14:46:04.000Z</time>
      </trkpt>
      <trkpt lat="43.38589" lon="-1.38159">
        <ele>114</ele>
        <time>2026-08-23T14:46:16.000Z</time>
      </trkpt>
      <trkpt lat="43.38625" lon="-1.38188">
        <ele>115</ele>
        <time>2026-08-23T14:46:23.000Z</time>
      </trkpt>
      <trkpt lat="43.38643" lon="-1.38209">
        <ele>117</ele>
        <time>2026-08-23T14:46:28.000Z</time>
      </trkpt>
      <trkpt lat="43.38652" lon="-1.38231">
        <ele>118</ele>
        <time>2026-08-23T14:46:31.000Z</time>
      </trkpt>
      <trkpt lat="43.38658" lon="-1.38249">
        <ele>120</ele>
        <time>2026-08-23T14:46:33.000Z</time>
      </trkpt>
      <trkpt lat="43.38663" lon="-1.38267">
        <ele>121</ele>
        <time>2026-08-23T14:46:36.000Z</time>
      </trkpt>
      <trkpt lat="43.38668" lon="-1.38293">
        <ele>122</ele>
        <time>2026-08-23T14:46:39.000Z</time>
      </trkpt>
      <trkpt lat="43.38674" lon="-1.38345">
        <ele>123</ele>
        <time>2026-08-23T14:46:46.000Z</time>
      </trkpt>
      <trkpt lat="43.38676" lon="-1.38377">
        <ele>123</ele>
        <time>2026-08-23T14:46:50.000Z</time>
      </trkpt>
      <trkpt lat="43.38677" lon="-1.38422">
        <ele>123</ele>
        <time>2026-08-23T14:46:56.000Z</time>
      </trkpt>
      <trkpt lat="43.38679" lon="-1.38497">
        <ele>128</ele>
        <time>2026-08-23T14:47:06.000Z</time>
      </trkpt>
      <trkpt lat="43.38682" lon="-1.38529">
        <ele>127</ele>
        <time>2026-08-23T14:47:10.000Z</time>
      </trkpt>
      <trkpt lat="43.38705" lon="-1.38714">
        <ele>127</ele>
        <time>2026-08-23T14:47:34.000Z</time>
      </trkpt>
      <trkpt lat="43.38706" lon="-1.38727">
        <ele>127</ele>
        <time>2026-08-23T14:47:36.000Z</time>
      </trkpt>
      <trkpt lat="43.38716" lon="-1.38911">
        <ele>122</ele>
        <time>2026-08-23T14:48:00.000Z</time>
      </trkpt>
      <trkpt lat="43.3872" lon="-1.38998">
        <ele>120</ele>
        <time>2026-08-23T14:48:11.000Z</time>
      </trkpt>
      <trkpt lat="43.38727" lon="-1.3905">
        <ele>120</ele>
        <time>2026-08-23T14:48:18.000Z</time>
      </trkpt>
      <trkpt lat="43.38749" lon="-1.39166">
        <ele>121</ele>
        <time>2026-08-23T14:48:33.000Z</time>
      </trkpt>
      <trkpt lat="43.38757" lon="-1.39204">
        <ele>122</ele>
        <time>2026-08-23T14:48:39.000Z</time>
      </trkpt>
      <trkpt lat="43.38766" lon="-1.39241">
        <ele>123</ele>
        <time>2026-08-23T14:48:44.000Z</time>
      </trkpt>
      <trkpt lat="43.38776" lon="-1.3927">
        <ele>123</ele>
        <time>2026-08-23T14:48:48.000Z</time>
      </trkpt>
      <trkpt lat="43.38787" lon="-1.39292">
        <ele>125</ele>
        <time>2026-08-23T14:48:51.000Z</time>
      </trkpt>
      <trkpt lat="43.38818" lon="-1.39337">
        <ele>129</ele>
        <time>2026-08-23T14:48:59.000Z</time>
      </trkpt>
      <trkpt lat="43.38805" lon="-1.39361">
        <ele>127</ele>
        <time>2026-08-23T14:49:03.000Z</time>
      </trkpt>
      <trkpt lat="43.3879" lon="-1.39398">
        <ele>126</ele>
        <time>2026-08-23T14:49:09.000Z</time>
      </trkpt>
      <trkpt lat="43.3878" lon="-1.39431">
        <ele>124</ele>
        <time>2026-08-23T14:49:13.000Z</time>
      </trkpt>
      <trkpt lat="43.38766" lon="-1.39487">
        <ele>121</ele>
        <time>2026-08-23T14:49:21.000Z</time>
      </trkpt>
      <trkpt lat="43.38715" lon="-1.39635">
        <ele>117</ele>
        <time>2026-08-23T14:49:42.000Z</time>
      </trkpt>
      <trkpt lat="43.38707" lon="-1.39649">
        <ele>117</ele>
        <time>2026-08-23T14:49:44.000Z</time>
      </trkpt>
      <trkpt lat="43.38691" lon="-1.39663">
        <ele>117</ele>
        <time>2026-08-23T14:49:48.000Z</time>
      </trkpt>
      <trkpt lat="43.38666" lon="-1.39679">
        <ele>117</ele>
        <time>2026-08-23T14:49:53.000Z</time>
      </trkpt>
      <trkpt lat="43.38636" lon="-1.39699">
        <ele>114</ele>
        <time>2026-08-23T14:49:59.000Z</time>
      </trkpt>
      <trkpt lat="43.38626" lon="-1.3971">
        <ele>113</ele>
        <time>2026-08-23T14:50:01.000Z</time>
      </trkpt>
      <trkpt lat="43.38616" lon="-1.39723">
        <ele>113</ele>
        <time>2026-08-23T14:50:03.000Z</time>
      </trkpt>
      <trkpt lat="43.38481" lon="-1.40032">
        <ele>108</ele>
        <time>2026-08-23T14:50:50.000Z</time>
      </trkpt>
      <trkpt lat="43.38412" lon="-1.40196">
        <ele>108</ele>
        <time>2026-08-23T14:51:14.000Z</time>
      </trkpt>
      <trkpt lat="43.38388" lon="-1.40247">
        <ele>109</ele>
        <time>2026-08-23T14:51:22.000Z</time>
      </trkpt>
      <trkpt lat="43.38379" lon="-1.40264">
        <ele>109</ele>
        <time>2026-08-23T14:51:25.000Z</time>
      </trkpt>
      <trkpt lat="43.38366" lon="-1.40279">
        <ele>109</ele>
        <time>2026-08-23T14:51:28.000Z</time>
      </trkpt>
      <trkpt lat="43.3835" lon="-1.40294">
        <ele>109</ele>
        <time>2026-08-23T14:51:31.000Z</time>
      </trkpt>
      <trkpt lat="43.38265" lon="-1.40365">
        <ele>109</ele>
        <time>2026-08-23T14:51:49.000Z</time>
      </trkpt>
      <trkpt lat="43.3825" lon="-1.40382">
        <ele>109</ele>
        <time>2026-08-23T14:51:53.000Z</time>
      </trkpt>
      <trkpt lat="43.38229" lon="-1.40413">
        <ele>107</ele>
        <time>2026-08-23T14:51:58.000Z</time>
      </trkpt>
      <trkpt lat="43.3821" lon="-1.40445">
        <ele>107</ele>
        <time>2026-08-23T14:52:03.000Z</time>
      </trkpt>
      <trkpt lat="43.38194" lon="-1.40477">
        <ele>107</ele>
        <time>2026-08-23T14:52:08.000Z</time>
      </trkpt>
      <trkpt lat="43.38185" lon="-1.40502">
        <ele>108</ele>
        <time>2026-08-23T14:52:12.000Z</time>
      </trkpt>
      <trkpt lat="43.3818" lon="-1.40525">
        <ele>109</ele>
        <time>2026-08-23T14:52:15.000Z</time>
      </trkpt>
      <trkpt lat="43.38179" lon="-1.40546">
        <ele>109</ele>
        <time>2026-08-23T14:52:18.000Z</time>
      </trkpt>
      <trkpt lat="43.38182" lon="-1.40573">
        <ele>108</ele>
        <time>2026-08-23T14:52:21.000Z</time>
      </trkpt>
      <trkpt lat="43.38185" lon="-1.40591">
        <ele>108</ele>
        <time>2026-08-23T14:52:24.000Z</time>
      </trkpt>
      <trkpt lat="43.38188" lon="-1.40601">
        <ele>108</ele>
        <time>2026-08-23T14:52:25.000Z</time>
      </trkpt>
      <trkpt lat="43.38193" lon="-1.4061">
        <ele>108</ele>
        <time>2026-08-23T14:52:27.000Z</time>
      </trkpt>
      <trkpt lat="43.38202" lon="-1.40619">
        <ele>108</ele>
        <time>2026-08-23T14:52:29.000Z</time>
      </trkpt>
      <trkpt lat="43.38214" lon="-1.40625">
        <ele>108</ele>
        <time>2026-08-23T14:52:31.000Z</time>
      </trkpt>
      <trkpt lat="43.38237" lon="-1.40633">
        <ele>108</ele>
        <time>2026-08-23T14:52:35.000Z</time>
      </trkpt>
      <trkpt lat="43.38248" lon="-1.40641">
        <ele>109</ele>
        <time>2026-08-23T14:52:37.000Z</time>
      </trkpt>
      <trkpt lat="43.38256" lon="-1.40652">
        <ele>109</ele>
        <time>2026-08-23T14:52:39.000Z</time>
      </trkpt>
      <trkpt lat="43.38263" lon="-1.40665">
        <ele>109</ele>
        <time>2026-08-23T14:52:41.000Z</time>
      </trkpt>
      <trkpt lat="43.38266" lon="-1.40678">
        <ele>108</ele>
        <time>2026-08-23T14:52:43.000Z</time>
      </trkpt>
      <trkpt lat="43.38273" lon="-1.40719">
        <ele>107</ele>
        <time>2026-08-23T14:52:49.000Z</time>
      </trkpt>
      <trkpt lat="43.38277" lon="-1.4074">
        <ele>106</ele>
        <time>2026-08-23T14:52:51.000Z</time>
      </trkpt>
      <trkpt lat="43.38284" lon="-1.40767">
        <ele>105</ele>
        <time>2026-08-23T14:52:55.000Z</time>
      </trkpt>
      <trkpt lat="43.38298" lon="-1.40807">
        <ele>104</ele>
        <time>2026-08-23T14:53:01.000Z</time>
      </trkpt>
      <trkpt lat="43.38319" lon="-1.4086">
        <ele>102</ele>
        <time>2026-08-23T14:53:09.000Z</time>
      </trkpt>
      <trkpt lat="43.38323" lon="-1.40869">
        <ele>102</ele>
        <time>2026-08-23T14:53:10.000Z</time>
      </trkpt>
      <trkpt lat="43.38364" lon="-1.40965">
        <ele>101</ele>
        <time>2026-08-23T14:53:24.000Z</time>
      </trkpt>
      <trkpt lat="43.38372" lon="-1.40988">
        <ele>101</ele>
        <time>2026-08-23T14:53:28.000Z</time>
      </trkpt>
      <trkpt lat="43.38377" lon="-1.41005">
        <ele>102</ele>
        <time>2026-08-23T14:53:30.000Z</time>
      </trkpt>
      <trkpt lat="43.3838" lon="-1.41022">
        <ele>102</ele>
        <time>2026-08-23T14:53:32.000Z</time>
      </trkpt>
      <trkpt lat="43.38382" lon="-1.41083">
        <ele>101</ele>
        <time>2026-08-23T14:53:40.000Z</time>
      </trkpt>
      <trkpt lat="43.38385" lon="-1.411">
        <ele>101</ele>
        <time>2026-08-23T14:53:43.000Z</time>
      </trkpt>
      <trkpt lat="43.38393" lon="-1.41136">
        <ele>101</ele>
        <time>2026-08-23T14:53:47.000Z</time>
      </trkpt>
      <trkpt lat="43.38402" lon="-1.41165">
        <ele>102</ele>
        <time>2026-08-23T14:53:51.000Z</time>
      </trkpt>
      <trkpt lat="43.3841" lon="-1.41185">
        <ele>102</ele>
        <time>2026-08-23T14:53:54.000Z</time>
      </trkpt>
      <trkpt lat="43.38432" lon="-1.41228">
        <ele>102</ele>
        <time>2026-08-23T14:54:01.000Z</time>
      </trkpt>
      <trkpt lat="43.38451" lon="-1.4126">
        <ele>101</ele>
        <time>2026-08-23T14:54:07.000Z</time>
      </trkpt>
      <trkpt lat="43.38511" lon="-1.41336">
        <ele>98</ele>
        <time>2026-08-23T14:54:21.000Z</time>
      </trkpt>
      <trkpt lat="43.38523" lon="-1.41355">
        <ele>97</ele>
        <time>2026-08-23T14:54:24.000Z</time>
      </trkpt>
      <trkpt lat="43.38594" lon="-1.41489">
        <ele>94</ele>
        <time>2026-08-23T14:54:46.000Z</time>
      </trkpt>
      <trkpt lat="43.38627" lon="-1.41549">
        <ele>90</ele>
        <time>2026-08-23T14:54:56.000Z</time>
      </trkpt>
      <trkpt lat="43.38667" lon="-1.41624">
        <ele>87</ele>
        <time>2026-08-23T14:55:08.000Z</time>
      </trkpt>
      <trkpt lat="43.38685" lon="-1.41666">
        <ele>87</ele>
        <time>2026-08-23T14:55:14.000Z</time>
      </trkpt>
      <trkpt lat="43.38706" lon="-1.4173">
        <ele>87</ele>
        <time>2026-08-23T14:55:23.000Z</time>
      </trkpt>
      <trkpt lat="43.38737" lon="-1.41828">
        <ele>90</ele>
        <time>2026-08-23T14:55:37.000Z</time>
      </trkpt>
      <trkpt lat="43.3875" lon="-1.41881">
        <ele>91</ele>
        <time>2026-08-23T14:55:44.000Z</time>
      </trkpt>
      <trkpt lat="43.38751" lon="-1.419">
        <ele>90</ele>
        <time>2026-08-23T14:55:46.000Z</time>
      </trkpt>
      <trkpt lat="43.3875" lon="-1.41911">
        <ele>90</ele>
        <time>2026-08-23T14:55:48.000Z</time>
      </trkpt>
      <trkpt lat="43.38738" lon="-1.41976">
        <ele>89</ele>
        <time>2026-08-23T14:55:57.000Z</time>
      </trkpt>
      <trkpt lat="43.38736" lon="-1.41997">
        <ele>89</ele>
        <time>2026-08-23T14:55:59.000Z</time>
      </trkpt>
      <trkpt lat="43.38737" lon="-1.42017">
        <ele>90</ele>
        <time>2026-08-23T14:56:02.000Z</time>
      </trkpt>
      <trkpt lat="43.3874" lon="-1.42035">
        <ele>91</ele>
        <time>2026-08-23T14:56:04.000Z</time>
      </trkpt>
      <trkpt lat="43.38748" lon="-1.42059">
        <ele>93</ele>
        <time>2026-08-23T14:56:08.000Z</time>
      </trkpt>
      <trkpt lat="43.38777" lon="-1.4211">
        <ele>93</ele>
        <time>2026-08-23T14:56:16.000Z</time>
      </trkpt>
      <trkpt lat="43.38796" lon="-1.42141">
        <ele>94</ele>
        <time>2026-08-23T14:56:21.000Z</time>
      </trkpt>
      <trkpt lat="43.38804" lon="-1.42157">
        <ele>94</ele>
        <time>2026-08-23T14:56:24.000Z</time>
      </trkpt>
      <trkpt lat="43.38813" lon="-1.4218">
        <ele>94</ele>
        <time>2026-08-23T14:56:27.000Z</time>
      </trkpt>
      <trkpt lat="43.38816" lon="-1.42193">
        <ele>95</ele>
        <time>2026-08-23T14:56:29.000Z</time>
      </trkpt>
      <trkpt lat="43.38818" lon="-1.42214">
        <ele>95</ele>
        <time>2026-08-23T14:56:32.000Z</time>
      </trkpt>
      <trkpt lat="43.3882" lon="-1.42288">
        <ele>95</ele>
        <time>2026-08-23T14:56:41.000Z</time>
      </trkpt>
      <trkpt lat="43.3882" lon="-1.4239">
        <ele>90</ele>
        <time>2026-08-23T14:56:54.000Z</time>
      </trkpt>
      <trkpt lat="43.38823" lon="-1.42418">
        <ele>88</ele>
        <time>2026-08-23T14:56:58.000Z</time>
      </trkpt>
      <trkpt lat="43.3883" lon="-1.42465">
        <ele>86</ele>
        <time>2026-08-23T14:57:04.000Z</time>
      </trkpt>
      <trkpt lat="43.38835" lon="-1.42493">
        <ele>84</ele>
        <time>2026-08-23T14:57:08.000Z</time>
      </trkpt>
      <trkpt lat="43.38837" lon="-1.42514">
        <ele>84</ele>
        <time>2026-08-23T14:57:11.000Z</time>
      </trkpt>
      <trkpt lat="43.38837" lon="-1.42534">
        <ele>83</ele>
        <time>2026-08-23T14:57:13.000Z</time>
      </trkpt>
      <trkpt lat="43.38835" lon="-1.42575">
        <ele>81</ele>
        <time>2026-08-23T14:57:19.000Z</time>
      </trkpt>
      <trkpt lat="43.38833" lon="-1.4261">
        <ele>78</ele>
        <time>2026-08-23T14:57:23.000Z</time>
      </trkpt>
      <trkpt lat="43.38832" lon="-1.42647">
        <ele>75</ele>
        <time>2026-08-23T14:57:28.000Z</time>
      </trkpt>
      <trkpt lat="43.38832" lon="-1.42659">
        <ele>74</ele>
        <time>2026-08-23T14:57:30.000Z</time>
      </trkpt>
      <trkpt lat="43.3882" lon="-1.42755">
        <ele>66</ele>
        <time>2026-08-23T14:57:42.000Z</time>
      </trkpt>
      <trkpt lat="43.38816" lon="-1.42813">
        <ele>66</ele>
        <time>2026-08-23T14:57:50.000Z</time>
      </trkpt>
      <trkpt lat="43.38816" lon="-1.42852">
        <ele>65</ele>
        <time>2026-08-23T14:57:55.000Z</time>
      </trkpt>
      <trkpt lat="43.38819" lon="-1.42881">
        <ele>65</ele>
        <time>2026-08-23T14:57:59.000Z</time>
      </trkpt>
      <trkpt lat="43.38823" lon="-1.42881">
        <ele>65</ele>
        <time>2026-08-23T14:57:59.000Z</time>
      </trkpt>
      <trkpt lat="43.38825" lon="-1.42883">
        <ele>65</ele>
        <time>2026-08-23T14:58:00.000Z</time>
      </trkpt>
      <trkpt lat="43.38828" lon="-1.42887">
        <ele>65</ele>
        <time>2026-08-23T14:58:00.000Z</time>
      </trkpt>
      <trkpt lat="43.38828" lon="-1.4289">
        <ele>65</ele>
        <time>2026-08-23T14:58:01.000Z</time>
      </trkpt>
      <trkpt lat="43.38827" lon="-1.42896">
        <ele>64</ele>
        <time>2026-08-23T14:58:02.000Z</time>
      </trkpt>
      <trkpt lat="43.38823" lon="-1.429">
        <ele>64</ele>
        <time>2026-08-23T14:58:02.000Z</time>
      </trkpt>
      <trkpt lat="43.3882" lon="-1.429">
        <ele>64</ele>
        <time>2026-08-23T14:58:03.000Z</time>
      </trkpt>
      <trkpt lat="43.38819" lon="-1.42929">
        <ele>64</ele>
        <time>2026-08-23T14:58:07.000Z</time>
      </trkpt>
      <trkpt lat="43.38819" lon="-1.42939">
        <ele>63</ele>
        <time>2026-08-23T14:58:08.000Z</time>
      </trkpt>
      <trkpt lat="43.38816" lon="-1.42966">
        <ele>63</ele>
        <time>2026-08-23T14:58:12.000Z</time>
      </trkpt>
      <trkpt lat="43.3881" lon="-1.42996">
        <ele>62</ele>
        <time>2026-08-23T14:58:16.000Z</time>
      </trkpt>
      <trkpt lat="43.38799" lon="-1.4304">
        <ele>62</ele>
        <time>2026-08-23T14:58:22.000Z</time>
      </trkpt>
      <trkpt lat="43.38822" lon="-1.43044">
        <ele>62</ele>
        <time>2026-08-23T14:58:26.000Z</time>
      </trkpt>
      <trkpt lat="43.38838" lon="-1.43047">
        <ele>62</ele>
        <time>2026-08-23T14:58:29.000Z</time>
      </trkpt>
      <trkpt lat="43.3889" lon="-1.43077">
        <ele>62</ele>
        <time>2026-08-23T14:58:39.000Z</time>
      </trkpt>
      <trkpt lat="43.38898" lon="-1.43079">
        <ele>62</ele>
        <time>2026-08-23T14:58:40.000Z</time>
      </trkpt>
      <trkpt lat="43.38907" lon="-1.43081">
        <ele>62</ele>
        <time>2026-08-23T14:58:42.000Z</time>
      </trkpt>
      <trkpt lat="43.39015" lon="-1.4311">
        <ele>60</ele>
        <time>2026-08-23T14:59:01.000Z</time>
      </trkpt>
      <trkpt lat="43.39147" lon="-1.43145">
        <ele>59</ele>
        <time>2026-08-23T14:59:25.000Z</time>
      </trkpt>
      <trkpt lat="43.39182" lon="-1.43159">
        <ele>58</ele>
        <time>2026-08-23T14:59:32.000Z</time>
      </trkpt>
      <trkpt lat="43.39277" lon="-1.43222">
        <ele>58</ele>
        <time>2026-08-23T14:59:50.000Z</time>
      </trkpt>
      <trkpt lat="43.39303" lon="-1.43244">
        <ele>58</ele>
        <time>2026-08-23T14:59:56.000Z</time>
      </trkpt>
      <trkpt lat="43.3933" lon="-1.43265">
        <ele>59</ele>
        <time>2026-08-23T15:00:01.000Z</time>
      </trkpt>
      <trkpt lat="43.39362" lon="-1.43293">
        <ele>60</ele>
        <time>2026-08-23T15:00:08.000Z</time>
      </trkpt>
      <trkpt lat="43.39422" lon="-1.43322">
        <ele>61</ele>
        <time>2026-08-23T15:00:20.000Z</time>
      </trkpt>
      <trkpt lat="43.3943" lon="-1.4333">
        <ele>60</ele>
        <time>2026-08-23T15:00:21.000Z</time>
      </trkpt>
      <trkpt lat="43.39468" lon="-1.43362">
        <ele>61</ele>
        <time>2026-08-23T15:00:29.000Z</time>
      </trkpt>
      <trkpt lat="43.3953" lon="-1.4342">
        <ele>60</ele>
        <time>2026-08-23T15:00:43.000Z</time>
      </trkpt>
      <trkpt lat="43.39559" lon="-1.43447">
        <ele>59</ele>
        <time>2026-08-23T15:00:49.000Z</time>
      </trkpt>
      <trkpt lat="43.39624" lon="-1.43491">
        <ele>58</ele>
        <time>2026-08-23T15:01:02.000Z</time>
      </trkpt>
      <trkpt lat="43.39659" lon="-1.43518">
        <ele>58</ele>
        <time>2026-08-23T15:01:09.000Z</time>
      </trkpt>
      <trkpt lat="43.39664" lon="-1.43524">
        <ele>58</ele>
        <time>2026-08-23T15:01:10.000Z</time>
      </trkpt>
      <trkpt lat="43.39738" lon="-1.43613">
        <ele>58</ele>
        <time>2026-08-23T15:01:27.000Z</time>
      </trkpt>
      <trkpt lat="43.3976" lon="-1.43647">
        <ele>59</ele>
        <time>2026-08-23T15:01:33.000Z</time>
      </trkpt>
      <trkpt lat="43.39785" lon="-1.43675">
        <ele>58</ele>
        <time>2026-08-23T15:01:39.000Z</time>
      </trkpt>
      <trkpt lat="43.39829" lon="-1.43718">
        <ele>56</ele>
        <time>2026-08-23T15:01:49.000Z</time>
      </trkpt>
      <trkpt lat="43.39851" lon="-1.4375">
        <ele>57</ele>
        <time>2026-08-23T15:01:54.000Z</time>
      </trkpt>
      <trkpt lat="43.39863" lon="-1.43793">
        <ele>57</ele>
        <time>2026-08-23T15:02:00.000Z</time>
      </trkpt>
      <trkpt lat="43.39867" lon="-1.43805">
        <ele>57</ele>
        <time>2026-08-23T15:02:02.000Z</time>
      </trkpt>
      <trkpt lat="43.39875" lon="-1.4382">
        <ele>57</ele>
        <time>2026-08-23T15:02:04.000Z</time>
      </trkpt>
      <trkpt lat="43.39885" lon="-1.43834">
        <ele>57</ele>
        <time>2026-08-23T15:02:07.000Z</time>
      </trkpt>
      <trkpt lat="43.39947" lon="-1.43901">
        <ele>57</ele>
        <time>2026-08-23T15:02:21.000Z</time>
      </trkpt>
      <trkpt lat="43.39958" lon="-1.43914">
        <ele>57</ele>
        <time>2026-08-23T15:02:24.000Z</time>
      </trkpt>
      <trkpt lat="43.39971" lon="-1.43933">
        <ele>56</ele>
        <time>2026-08-23T15:02:27.000Z</time>
      </trkpt>
      <trkpt lat="43.39996" lon="-1.43961">
        <ele>56</ele>
        <time>2026-08-23T15:02:33.000Z</time>
      </trkpt>
      <trkpt lat="43.39999" lon="-1.43965">
        <ele>55</ele>
        <time>2026-08-23T15:02:33.000Z</time>
      </trkpt>
      <trkpt lat="43.40007" lon="-1.43972">
        <ele>55</ele>
        <time>2026-08-23T15:02:35.000Z</time>
      </trkpt>
      <trkpt lat="43.40016" lon="-1.43978">
        <ele>55</ele>
        <time>2026-08-23T15:02:37.000Z</time>
      </trkpt>
      <trkpt lat="43.40054" lon="-1.43991">
        <ele>55</ele>
        <time>2026-08-23T15:02:44.000Z</time>
      </trkpt>
      <trkpt lat="43.40064" lon="-1.43996">
        <ele>55</ele>
        <time>2026-08-23T15:02:46.000Z</time>
      </trkpt>
      <trkpt lat="43.4007" lon="-1.44001">
        <ele>55</ele>
        <time>2026-08-23T15:02:47.000Z</time>
      </trkpt>
      <trkpt lat="43.40077" lon="-1.44006">
        <ele>55</ele>
        <time>2026-08-23T15:02:48.000Z</time>
      </trkpt>
      <trkpt lat="43.40085" lon="-1.44015">
        <ele>55</ele>
        <time>2026-08-23T15:02:50.000Z</time>
      </trkpt>
      <trkpt lat="43.40097" lon="-1.4403">
        <ele>55</ele>
        <time>2026-08-23T15:02:53.000Z</time>
      </trkpt>
      <trkpt lat="43.40124" lon="-1.44069">
        <ele>54</ele>
        <time>2026-08-23T15:03:00.000Z</time>
      </trkpt>
      <trkpt lat="43.40144" lon="-1.44092">
        <ele>54</ele>
        <time>2026-08-23T15:03:05.000Z</time>
      </trkpt>
      <trkpt lat="43.40268" lon="-1.44216">
        <ele>54</ele>
        <time>2026-08-23T15:03:32.000Z</time>
      </trkpt>
      <trkpt lat="43.40278" lon="-1.44228">
        <ele>54</ele>
        <time>2026-08-23T15:03:34.000Z</time>
      </trkpt>
      <trkpt lat="43.40288" lon="-1.44243">
        <ele>54</ele>
        <time>2026-08-23T15:03:37.000Z</time>
      </trkpt>
      <trkpt lat="43.40326" lon="-1.44312">
        <ele>52</ele>
        <time>2026-08-23T15:03:48.000Z</time>
      </trkpt>
      <trkpt lat="43.40354" lon="-1.44364">
        <ele>48</ele>
        <time>2026-08-23T15:03:57.000Z</time>
      </trkpt>
      <trkpt lat="43.40454" lon="-1.44516">
        <ele>46</ele>
        <time>2026-08-23T15:04:23.000Z</time>
      </trkpt>
      <trkpt lat="43.40482" lon="-1.44564">
        <ele>47</ele>
        <time>2026-08-23T15:04:31.000Z</time>
      </trkpt>
      <trkpt lat="43.40505" lon="-1.44619">
        <ele>47</ele>
        <time>2026-08-23T15:04:39.000Z</time>
      </trkpt>
      <trkpt lat="43.40521" lon="-1.44661">
        <ele>45</ele>
        <time>2026-08-23T15:04:45.000Z</time>
      </trkpt>
      <trkpt lat="43.40552" lon="-1.44714">
        <ele>45</ele>
        <time>2026-08-23T15:04:54.000Z</time>
      </trkpt>
      <trkpt lat="43.40577" lon="-1.44765">
        <ele>44</ele>
        <time>2026-08-23T15:05:02.000Z</time>
      </trkpt>
      <trkpt lat="43.40594" lon="-1.44796">
        <ele>38</ele>
        <time>2026-08-23T15:05:07.000Z</time>
      </trkpt>
      <trkpt lat="43.40611" lon="-1.4482">
        <ele>32</ele>
        <time>2026-08-23T15:05:11.000Z</time>
      </trkpt>
      <trkpt lat="43.40644" lon="-1.44859">
        <ele>25</ele>
        <time>2026-08-23T15:05:19.000Z</time>
      </trkpt>
      <trkpt lat="43.40655" lon="-1.44871">
        <ele>23</ele>
        <time>2026-08-23T15:05:22.000Z</time>
      </trkpt>
      <trkpt lat="43.40667" lon="-1.4488">
        <ele>22</ele>
        <time>2026-08-23T15:05:24.000Z</time>
      </trkpt>
      <trkpt lat="43.407" lon="-1.44918">
        <ele>17</ele>
        <time>2026-08-23T15:05:32.000Z</time>
      </trkpt>
      <trkpt lat="43.4072" lon="-1.44939">
        <ele>14</ele>
        <time>2026-08-23T15:05:36.000Z</time>
      </trkpt>
      <trkpt lat="43.4073" lon="-1.44955">
        <ele>13</ele>
        <time>2026-08-23T15:05:39.000Z</time>
      </trkpt>
      <trkpt lat="43.40739" lon="-1.44962">
        <ele>12</ele>
        <time>2026-08-23T15:05:41.000Z</time>
      </trkpt>
      <trkpt lat="43.40748" lon="-1.44966">
        <ele>12</ele>
        <time>2026-08-23T15:05:43.000Z</time>
      </trkpt>
      <trkpt lat="43.40762" lon="-1.44968">
        <ele>11</ele>
        <time>2026-08-23T15:05:45.000Z</time>
      </trkpt>
      <trkpt lat="43.40784" lon="-1.44967">
        <ele>11</ele>
        <time>2026-08-23T15:05:49.000Z</time>
      </trkpt>
      <trkpt lat="43.40795" lon="-1.44969">
        <ele>10</ele>
        <time>2026-08-23T15:05:51.000Z</time>
      </trkpt>
      <trkpt lat="43.40809" lon="-1.44973">
        <ele>10</ele>
        <time>2026-08-23T15:05:53.000Z</time>
      </trkpt>
      <trkpt lat="43.40818" lon="-1.44984">
        <ele>9</ele>
        <time>2026-08-23T15:05:56.000Z</time>
      </trkpt>
      <trkpt lat="43.40839" lon="-1.4502">
        <ele>9</ele>
        <time>2026-08-23T15:06:02.000Z</time>
      </trkpt>
      <trkpt lat="43.4086" lon="-1.45042">
        <ele>8</ele>
        <time>2026-08-23T15:06:06.000Z</time>
      </trkpt>
      <trkpt lat="43.40866" lon="-1.4504">
        <ele>8</ele>
        <time>2026-08-23T15:06:07.000Z</time>
      </trkpt>
      <trkpt lat="43.40871" lon="-1.4504">
        <ele>8</ele>
        <time>2026-08-23T15:06:08.000Z</time>
      </trkpt>
      <trkpt lat="43.40882" lon="-1.45042">
        <ele>7</ele>
        <time>2026-08-23T15:06:10.000Z</time>
      </trkpt>
      <trkpt lat="43.40954" lon="-1.45072">
        <ele>6</ele>
        <time>2026-08-23T15:06:24.000Z</time>
      </trkpt>
      <trkpt lat="43.40966" lon="-1.45073">
        <ele>6</ele>
        <time>2026-08-23T15:06:26.000Z</time>
      </trkpt>
      <trkpt lat="43.40977" lon="-1.45072">
        <ele>6</ele>
        <time>2026-08-23T15:06:28.000Z</time>
      </trkpt>
      <trkpt lat="43.41064" lon="-1.45053">
        <ele>8</ele>
        <time>2026-08-23T15:06:43.000Z</time>
      </trkpt>
      <trkpt lat="43.41073" lon="-1.45052">
        <ele>9</ele>
        <time>2026-08-23T15:06:45.000Z</time>
      </trkpt>
      <trkpt lat="43.4108" lon="-1.45051">
        <ele>10</ele>
        <time>2026-08-23T15:06:46.000Z</time>
      </trkpt>
      <trkpt lat="43.41089" lon="-1.45054">
        <ele>10</ele>
        <time>2026-08-23T15:06:48.000Z</time>
      </trkpt>
      <trkpt lat="43.41099" lon="-1.45062">
        <ele>12</ele>
        <time>2026-08-23T15:06:50.000Z</time>
      </trkpt>
      <trkpt lat="43.4118" lon="-1.45141">
        <ele>13</ele>
        <time>2026-08-23T15:07:08.000Z</time>
      </trkpt>
      <trkpt lat="43.41233" lon="-1.45191">
        <ele>13</ele>
        <time>2026-08-23T15:07:19.000Z</time>
      </trkpt>
      <trkpt lat="43.41246" lon="-1.45201">
        <ele>13</ele>
        <time>2026-08-23T15:07:22.000Z</time>
      </trkpt>
      <trkpt lat="43.41255" lon="-1.45204">
        <ele>12</ele>
        <time>2026-08-23T15:07:23.000Z</time>
      </trkpt>
      <trkpt lat="43.41269" lon="-1.45204">
        <ele>12</ele>
        <time>2026-08-23T15:07:26.000Z</time>
      </trkpt>
      <trkpt lat="43.41332" lon="-1.45169">
        <ele>15</ele>
        <time>2026-08-23T15:07:38.000Z</time>
      </trkpt>
      <trkpt lat="43.4135" lon="-1.45165">
        <ele>15</ele>
        <time>2026-08-23T15:07:41.000Z</time>
      </trkpt>
      <trkpt lat="43.41364" lon="-1.45166">
        <ele>15</ele>
        <time>2026-08-23T15:07:44.000Z</time>
      </trkpt>
      <trkpt lat="43.41385" lon="-1.45174">
        <ele>14</ele>
        <time>2026-08-23T15:07:48.000Z</time>
      </trkpt>
      <trkpt lat="43.4141" lon="-1.45181">
        <ele>12</ele>
        <time>2026-08-23T15:07:52.000Z</time>
      </trkpt>
      <trkpt lat="43.41435" lon="-1.45184">
        <ele>14</ele>
        <time>2026-08-23T15:07:57.000Z</time>
      </trkpt>
      <trkpt lat="43.41452" lon="-1.45192">
        <ele>16</ele>
        <time>2026-08-23T15:08:00.000Z</time>
      </trkpt>
      <trkpt lat="43.41473" lon="-1.45211">
        <ele>16</ele>
        <time>2026-08-23T15:08:04.000Z</time>
      </trkpt>
      <trkpt lat="43.41491" lon="-1.45234">
        <ele>14</ele>
        <time>2026-08-23T15:08:09.000Z</time>
      </trkpt>
      <trkpt lat="43.41514" lon="-1.45258">
        <ele>14</ele>
        <time>2026-08-23T15:08:14.000Z</time>
      </trkpt>
      <trkpt lat="43.41529" lon="-1.45266">
        <ele>16</ele>
        <time>2026-08-23T15:08:17.000Z</time>
      </trkpt>
      <trkpt lat="43.41848" lon="-1.45381">
        <ele>12</ele>
        <time>2026-08-23T15:09:15.000Z</time>
      </trkpt>
      <trkpt lat="43.41981" lon="-1.45432">
        <ele>16</ele>
        <time>2026-08-23T15:09:40.000Z</time>
      </trkpt>
      <trkpt lat="43.42012" lon="-1.45444">
        <ele>17</ele>
        <time>2026-08-23T15:09:46.000Z</time>
      </trkpt>
      <trkpt lat="43.4202" lon="-1.45449">
        <ele>17</ele>
        <time>2026-08-23T15:09:47.000Z</time>
      </trkpt>
      <trkpt lat="43.42028" lon="-1.45456">
        <ele>17</ele>
        <time>2026-08-23T15:09:49.000Z</time>
      </trkpt>
      <trkpt lat="43.42036" lon="-1.45468">
        <ele>17</ele>
        <time>2026-08-23T15:09:51.000Z</time>
      </trkpt>
      <trkpt lat="43.42053" lon="-1.45499">
        <ele>15</ele>
        <time>2026-08-23T15:09:56.000Z</time>
      </trkpt>
      <trkpt lat="43.42065" lon="-1.45523">
        <ele>15</ele>
        <time>2026-08-23T15:10:00.000Z</time>
      </trkpt>
      <trkpt lat="43.42083" lon="-1.45553">
        <ele>14</ele>
        <time>2026-08-23T15:10:05.000Z</time>
      </trkpt>
      <trkpt lat="43.42105" lon="-1.45584">
        <ele>12</ele>
        <time>2026-08-23T15:10:10.000Z</time>
      </trkpt>
      <trkpt lat="43.42119" lon="-1.45598">
        <ele>11</ele>
        <time>2026-08-23T15:10:13.000Z</time>
      </trkpt>
      <trkpt lat="43.42136" lon="-1.45608">
        <ele>11</ele>
        <time>2026-08-23T15:10:17.000Z</time>
      </trkpt>
      <trkpt lat="43.42152" lon="-1.45614">
        <ele>11</ele>
        <time>2026-08-23T15:10:20.000Z</time>
      </trkpt>
      <trkpt lat="43.42167" lon="-1.45615">
        <ele>11</ele>
        <time>2026-08-23T15:10:22.000Z</time>
      </trkpt>
      <trkpt lat="43.42183" lon="-1.45613">
        <ele>11</ele>
        <time>2026-08-23T15:10:25.000Z</time>
      </trkpt>
      <trkpt lat="43.42197" lon="-1.45608">
        <ele>10</ele>
        <time>2026-08-23T15:10:28.000Z</time>
      </trkpt>
      <trkpt lat="43.42209" lon="-1.45599">
        <ele>10</ele>
        <time>2026-08-23T15:10:30.000Z</time>
      </trkpt>
      <trkpt lat="43.42267" lon="-1.45544">
        <ele>13</ele>
        <time>2026-08-23T15:10:43.000Z</time>
      </trkpt>
      <trkpt lat="43.42275" lon="-1.45532">
        <ele>13</ele>
        <time>2026-08-23T15:10:45.000Z</time>
      </trkpt>
      <trkpt lat="43.42282" lon="-1.45518">
        <ele>13</ele>
        <time>2026-08-23T15:10:47.000Z</time>
      </trkpt>
      <trkpt lat="43.42307" lon="-1.45434">
        <ele>13</ele>
        <time>2026-08-23T15:10:59.000Z</time>
      </trkpt>
      <trkpt lat="43.42312" lon="-1.45425">
        <ele>13</ele>
        <time>2026-08-23T15:11:00.000Z</time>
      </trkpt>
      <trkpt lat="43.42319" lon="-1.45418">
        <ele>11</ele>
        <time>2026-08-23T15:11:02.000Z</time>
      </trkpt>
      <trkpt lat="43.42329" lon="-1.45411">
        <ele>9</ele>
        <time>2026-08-23T15:11:04.000Z</time>
      </trkpt>
      <trkpt lat="43.4234" lon="-1.45407">
        <ele>9</ele>
        <time>2026-08-23T15:11:06.000Z</time>
      </trkpt>
      <trkpt lat="43.42404" lon="-1.45394">
        <ele>12</ele>
        <time>2026-08-23T15:11:17.000Z</time>
      </trkpt>
      <trkpt lat="43.42456" lon="-1.45389">
        <ele>12</ele>
        <time>2026-08-23T15:11:27.000Z</time>
      </trkpt>
      <trkpt lat="43.42488" lon="-1.45383">
        <ele>12</ele>
        <time>2026-08-23T15:11:32.000Z</time>
      </trkpt>
      <trkpt lat="43.42561" lon="-1.45344">
        <ele>11</ele>
        <time>2026-08-23T15:11:46.000Z</time>
      </trkpt>
      <trkpt lat="43.42593" lon="-1.45326">
        <ele>11</ele>
        <time>2026-08-23T15:11:52.000Z</time>
      </trkpt>
      <trkpt lat="43.42667" lon="-1.4526">
        <ele>13</ele>
        <time>2026-08-23T15:12:08.000Z</time>
      </trkpt>
      <trkpt lat="43.42692" lon="-1.45245">
        <ele>15</ele>
        <time>2026-08-23T15:12:13.000Z</time>
      </trkpt>
      <trkpt lat="43.42707" lon="-1.45242">
        <ele>15</ele>
        <time>2026-08-23T15:12:16.000Z</time>
      </trkpt>
      <trkpt lat="43.42724" lon="-1.45246">
        <ele>15</ele>
        <time>2026-08-23T15:12:19.000Z</time>
      </trkpt>
      <trkpt lat="43.42746" lon="-1.4527">
        <ele>12</ele>
        <time>2026-08-23T15:12:24.000Z</time>
      </trkpt>
      <trkpt lat="43.42778" lon="-1.45306">
        <ele>12</ele>
        <time>2026-08-23T15:12:31.000Z</time>
      </trkpt>
      <trkpt lat="43.42819" lon="-1.45355">
        <ele>12</ele>
        <time>2026-08-23T15:12:41.000Z</time>
      </trkpt>
      <trkpt lat="43.42851" lon="-1.45394">
        <ele>12</ele>
        <time>2026-08-23T15:12:48.000Z</time>
      </trkpt>
      <trkpt lat="43.42868" lon="-1.4541">
        <ele>12</ele>
        <time>2026-08-23T15:12:52.000Z</time>
      </trkpt>
      <trkpt lat="43.42896" lon="-1.4543">
        <ele>11</ele>
        <time>2026-08-23T15:12:58.000Z</time>
      </trkpt>
      <trkpt lat="43.42999" lon="-1.45497">
        <ele>8</ele>
        <time>2026-08-23T15:13:18.000Z</time>
      </trkpt>
      <trkpt lat="43.43036" lon="-1.45506">
        <ele>7</ele>
        <time>2026-08-23T15:13:25.000Z</time>
      </trkpt>
      <trkpt lat="43.4308" lon="-1.45507">
        <ele>6</ele>
        <time>2026-08-23T15:13:32.000Z</time>
      </trkpt>
      <trkpt lat="43.43118" lon="-1.45519">
        <ele>6</ele>
        <time>2026-08-23T15:13:39.000Z</time>
      </trkpt>
      <trkpt lat="43.43147" lon="-1.45528">
        <ele>7</ele>
        <time>2026-08-23T15:13:45.000Z</time>
      </trkpt>
      <trkpt lat="43.43158" lon="-1.45529">
        <ele>7</ele>
        <time>2026-08-23T15:13:47.000Z</time>
      </trkpt>
      <trkpt lat="43.43159" lon="-1.4554">
        <ele>6</ele>
        <time>2026-08-23T15:13:48.000Z</time>
      </trkpt>
      <trkpt lat="43.43168" lon="-1.45563">
        <ele>6</ele>
        <time>2026-08-23T15:13:51.000Z</time>
      </trkpt>
      <trkpt lat="43.43176" lon="-1.4557">
        <ele>6</ele>
        <time>2026-08-23T15:13:53.000Z</time>
      </trkpt>
      <trkpt lat="43.43191" lon="-1.45578">
        <ele>7</ele>
        <time>2026-08-23T15:13:56.000Z</time>
      </trkpt>
      <trkpt lat="43.432" lon="-1.45584">
        <ele>7</ele>
        <time>2026-08-23T15:13:58.000Z</time>
      </trkpt>
      <trkpt lat="43.43208" lon="-1.45592">
        <ele>8</ele>
        <time>2026-08-23T15:13:59.000Z</time>
      </trkpt>
      <trkpt lat="43.43211" lon="-1.45596">
        <ele>8</ele>
        <time>2026-08-23T15:14:00.000Z</time>
      </trkpt>
      <trkpt lat="43.43221" lon="-1.45612">
        <ele>7</ele>
        <time>2026-08-23T15:14:03.000Z</time>
      </trkpt>
      <trkpt lat="43.43238" lon="-1.45625">
        <ele>7</ele>
        <time>2026-08-23T15:14:06.000Z</time>
      </trkpt>
      <trkpt lat="43.43239" lon="-1.45626">
        <ele>7</ele>
        <time>2026-08-23T15:14:07.000Z</time>
      </trkpt>
      <trkpt lat="43.43242" lon="-1.4563">
        <ele>7</ele>
        <time>2026-08-23T15:14:07.000Z</time>
      </trkpt>
      <trkpt lat="43.43242" lon="-1.4563">
        <ele>7</ele>
        <time>2026-08-23T15:14:07.000Z</time>
      </trkpt>
      <trkpt lat="43.43257" lon="-1.45659">
        <ele>5</ele>
        <time>2026-08-23T15:14:12.000Z</time>
      </trkpt>
      <trkpt lat="43.43263" lon="-1.45667">
        <ele>5</ele>
        <time>2026-08-23T15:14:13.000Z</time>
      </trkpt>
      <trkpt lat="43.4327" lon="-1.45673">
        <ele>5</ele>
        <time>2026-08-23T15:14:15.000Z</time>
      </trkpt>
      <trkpt lat="43.43276" lon="-1.45675">
        <ele>5</ele>
        <time>2026-08-23T15:14:16.000Z</time>
      </trkpt>
      <trkpt lat="43.43302" lon="-1.45675">
        <ele>6</ele>
        <time>2026-08-23T15:14:21.000Z</time>
      </trkpt>
      <trkpt lat="43.43312" lon="-1.45678">
        <ele>6</ele>
        <time>2026-08-23T15:14:22.000Z</time>
      </trkpt>
      <trkpt lat="43.43317" lon="-1.45681">
        <ele>6</ele>
        <time>2026-08-23T15:14:23.000Z</time>
      </trkpt>
      <trkpt lat="43.4332" lon="-1.45685">
        <ele>6</ele>
        <time>2026-08-23T15:14:24.000Z</time>
      </trkpt>
      <trkpt lat="43.43318" lon="-1.45691">
        <ele>6</ele>
        <time>2026-08-23T15:14:25.000Z</time>
      </trkpt>
      <trkpt lat="43.43318" lon="-1.45691">
        <ele>6</ele>
        <time>2026-08-23T15:14:25.000Z</time>
      </trkpt>
      <trkpt lat="43.43317" lon="-1.45697">
        <ele>5</ele>
        <time>2026-08-23T15:14:26.000Z</time>
      </trkpt>
      <trkpt lat="43.43304" lon="-1.45763">
        <ele>2</ele>
        <time>2026-08-23T15:14:35.000Z</time>
      </trkpt>
      <trkpt lat="43.43303" lon="-1.45769">
        <ele>2</ele>
        <time>2026-08-23T15:14:35.000Z</time>
      </trkpt>
      <trkpt lat="43.43303" lon="-1.45769">
        <ele>2</ele>
        <time>2026-08-23T15:14:35.000Z</time>
      </trkpt>
      <trkpt lat="43.43303" lon="-1.45772">
        <ele>2</ele>
        <time>2026-08-23T15:14:36.000Z</time>
      </trkpt>
      <trkpt lat="43.43304" lon="-1.45772">
        <ele>2</ele>
        <time>2026-08-23T15:14:36.000Z</time>
      </trkpt>
      <trkpt lat="43.43332" lon="-1.45777">
        <ele>2</ele>
        <time>2026-08-23T15:14:41.000Z</time>
      </trkpt>
      <trkpt lat="43.43343" lon="-1.45782">
        <ele>2</ele>
        <time>2026-08-23T15:14:43.000Z</time>
      </trkpt>
      <trkpt lat="43.43393" lon="-1.45811">
        <ele>3</ele>
        <time>2026-08-23T15:14:53.000Z</time>
      </trkpt>
      <trkpt lat="43.43412" lon="-1.45827">
        <ele>4</ele>
        <time>2026-08-23T15:14:57.000Z</time>
      </trkpt>
      <trkpt lat="43.43432" lon="-1.45837">
        <ele>5</ele>
        <time>2026-08-23T15:15:00.000Z</time>
      </trkpt>
      <trkpt lat="43.43447" lon="-1.45848">
        <ele>5</ele>
        <time>2026-08-23T15:15:03.000Z</time>
      </trkpt>
      <trkpt lat="43.43463" lon="-1.45862">
        <ele>6</ele>
        <time>2026-08-23T15:15:07.000Z</time>
      </trkpt>
      <trkpt lat="43.43481" lon="-1.45882">
        <ele>6</ele>
        <time>2026-08-23T15:15:11.000Z</time>
      </trkpt>
      <trkpt lat="43.43577" lon="-1.46009">
        <ele>4</ele>
        <time>2026-08-23T15:15:35.000Z</time>
      </trkpt>
      <trkpt lat="43.4361" lon="-1.46061">
        <ele>4</ele>
        <time>2026-08-23T15:15:44.000Z</time>
      </trkpt>
      <trkpt lat="43.43682" lon="-1.46181">
        <ele>4</ele>
        <time>2026-08-23T15:16:04.000Z</time>
      </trkpt>
      <trkpt lat="43.43708" lon="-1.46231">
        <ele>5</ele>
        <time>2026-08-23T15:16:12.000Z</time>
      </trkpt>
      <trkpt lat="43.43728" lon="-1.46263">
        <ele>6</ele>
        <time>2026-08-23T15:16:17.000Z</time>
      </trkpt>
      <trkpt lat="43.43756" lon="-1.46311">
        <ele>7</ele>
        <time>2026-08-23T15:16:25.000Z</time>
      </trkpt>
      <trkpt lat="43.43767" lon="-1.46335">
        <ele>8</ele>
        <time>2026-08-23T15:16:29.000Z</time>
      </trkpt>
      <trkpt lat="43.43775" lon="-1.46361">
        <ele>9</ele>
        <time>2026-08-23T15:16:32.000Z</time>
      </trkpt>
      <trkpt lat="43.4378" lon="-1.46388">
        <ele>9</ele>
        <time>2026-08-23T15:16:36.000Z</time>
      </trkpt>
      <trkpt lat="43.43782" lon="-1.46416">
        <ele>9</ele>
        <time>2026-08-23T15:16:40.000Z</time>
      </trkpt>
      <trkpt lat="43.43782" lon="-1.46434">
        <ele>9</ele>
        <time>2026-08-23T15:16:42.000Z</time>
      </trkpt>
      <trkpt lat="43.43779" lon="-1.46457">
        <ele>9</ele>
        <time>2026-08-23T15:16:45.000Z</time>
      </trkpt>
      <trkpt lat="43.43771" lon="-1.46497">
        <ele>9</ele>
        <time>2026-08-23T15:16:50.000Z</time>
      </trkpt>
      <trkpt lat="43.43765" lon="-1.4654">
        <ele>9</ele>
        <time>2026-08-23T15:16:56.000Z</time>
      </trkpt>
      <trkpt lat="43.43758" lon="-1.4661">
        <ele>8</ele>
        <time>2026-08-23T15:17:05.000Z</time>
      </trkpt>
      <trkpt lat="43.43756" lon="-1.46659">
        <ele>7</ele>
        <time>2026-08-23T15:17:11.000Z</time>
      </trkpt>
      <trkpt lat="43.43755" lon="-1.46759">
        <ele>8</ele>
        <time>2026-08-23T15:17:24.000Z</time>
      </trkpt>
      <trkpt lat="43.43744" lon="-1.46869">
        <ele>5</ele>
        <time>2026-08-23T15:17:39.000Z</time>
      </trkpt>
      <trkpt lat="43.43744" lon="-1.46896">
        <ele>5</ele>
        <time>2026-08-23T15:17:42.000Z</time>
      </trkpt>
      <trkpt lat="43.43745" lon="-1.46917">
        <ele>5</ele>
        <time>2026-08-23T15:17:45.000Z</time>
      </trkpt>
      <trkpt lat="43.4375" lon="-1.46951">
        <ele>6</ele>
        <time>2026-08-23T15:17:49.000Z</time>
      </trkpt>
      <trkpt lat="43.43758" lon="-1.46993">
        <ele>7</ele>
        <time>2026-08-23T15:17:55.000Z</time>
      </trkpt>
      <trkpt lat="43.43762" lon="-1.47023">
        <ele>7</ele>
        <time>2026-08-23T15:17:59.000Z</time>
      </trkpt>
      <trkpt lat="43.43764" lon="-1.47057">
        <ele>6</ele>
        <time>2026-08-23T15:18:03.000Z</time>
      </trkpt>
      <trkpt lat="43.43764" lon="-1.47134">
        <ele>5</ele>
        <time>2026-08-23T15:18:13.000Z</time>
      </trkpt>
      <trkpt lat="43.43762" lon="-1.4717">
        <ele>5</ele>
        <time>2026-08-23T15:18:18.000Z</time>
      </trkpt>
      <trkpt lat="43.43759" lon="-1.47202">
        <ele>4</ele>
        <time>2026-08-23T15:18:22.000Z</time>
      </trkpt>
      <trkpt lat="43.43757" lon="-1.47215">
        <ele>4</ele>
        <time>2026-08-23T15:18:24.000Z</time>
      </trkpt>
      <trkpt lat="43.43757" lon="-1.47215">
        <ele>4</ele>
        <time>2026-08-23T15:18:24.000Z</time>
      </trkpt>
      <trkpt lat="43.43757" lon="-1.47221">
        <ele>4</ele>
        <time>2026-08-23T15:18:25.000Z</time>
      </trkpt>
      <trkpt lat="43.43756" lon="-1.47236">
        <ele>4</ele>
        <time>2026-08-23T15:18:27.000Z</time>
      </trkpt>
      <trkpt lat="43.43755" lon="-1.47245">
        <ele>4</ele>
        <time>2026-08-23T15:18:28.000Z</time>
      </trkpt>
      <trkpt lat="43.43756" lon="-1.47256">
        <ele>4</ele>
        <time>2026-08-23T15:18:29.000Z</time>
      </trkpt>
      <trkpt lat="43.43768" lon="-1.47308">
        <ele>3</ele>
        <time>2026-08-23T15:18:36.000Z</time>
      </trkpt>
      <trkpt lat="43.43776" lon="-1.47341">
        <ele>3</ele>
        <time>2026-08-23T15:18:41.000Z</time>
      </trkpt>
      <trkpt lat="43.43791" lon="-1.47387">
        <ele>3</ele>
        <time>2026-08-23T15:18:47.000Z</time>
      </trkpt>
      <trkpt lat="43.43804" lon="-1.47408">
        <ele>3</ele>
        <time>2026-08-23T15:18:51.000Z</time>
      </trkpt>
      <trkpt lat="43.43813" lon="-1.47421">
        <ele>3</ele>
        <time>2026-08-23T15:18:53.000Z</time>
      </trkpt>
      <trkpt lat="43.43843" lon="-1.47448">
        <ele>4</ele>
        <time>2026-08-23T15:18:59.000Z</time>
      </trkpt>
      <trkpt lat="43.43872" lon="-1.47468">
        <ele>4</ele>
        <time>2026-08-23T15:19:05.000Z</time>
      </trkpt>
      <trkpt lat="43.43903" lon="-1.47486">
        <ele>3</ele>
        <time>2026-08-23T15:19:11.000Z</time>
      </trkpt>
      <trkpt lat="43.4391" lon="-1.47488">
        <ele>2</ele>
        <time>2026-08-23T15:19:13.000Z</time>
      </trkpt>
      <trkpt lat="43.4392" lon="-1.4749">
        <ele>2</ele>
        <time>2026-08-23T15:19:14.000Z</time>
      </trkpt>
      <trkpt lat="43.43926" lon="-1.47491">
        <ele>2</ele>
        <time>2026-08-23T15:19:15.000Z</time>
      </trkpt>
      <trkpt lat="43.44014" lon="-1.4751">
        <ele>2</ele>
        <time>2026-08-23T15:19:31.000Z</time>
      </trkpt>
      <trkpt lat="43.44071" lon="-1.47522">
        <ele>2</ele>
        <time>2026-08-23T15:19:41.000Z</time>
      </trkpt>
      <trkpt lat="43.44159" lon="-1.47533">
        <ele>1</ele>
        <time>2026-08-23T15:19:57.000Z</time>
      </trkpt>
      <trkpt lat="43.4419" lon="-1.4754">
        <ele>1</ele>
        <time>2026-08-23T15:20:03.000Z</time>
      </trkpt>
      <trkpt lat="43.44243" lon="-1.47555">
        <ele>3</ele>
        <time>2026-08-23T15:20:12.000Z</time>
      </trkpt>
      <trkpt lat="43.4424" lon="-1.47578">
        <ele>3</ele>
        <time>2026-08-23T15:20:15.000Z</time>
      </trkpt>
      <trkpt lat="43.44237" lon="-1.47597">
        <ele>3</ele>
        <time>2026-08-23T15:20:18.000Z</time>
      </trkpt>
      <trkpt lat="43.44229" lon="-1.47625">
        <ele>3</ele>
        <time>2026-08-23T15:20:22.000Z</time>
      </trkpt>
      <trkpt lat="43.44228" lon="-1.47635">
        <ele>3</ele>
        <time>2026-08-23T15:20:23.000Z</time>
      </trkpt>
      <trkpt lat="43.4423" lon="-1.4765">
        <ele>3</ele>
        <time>2026-08-23T15:20:25.000Z</time>
      </trkpt>
      <trkpt lat="43.44245" lon="-1.47735">
        <ele>3</ele>
        <time>2026-08-23T15:20:36.000Z</time>
      </trkpt>
      <trkpt lat="43.44251" lon="-1.47791">
        <ele>3</ele>
        <time>2026-08-23T15:20:44.000Z</time>
      </trkpt>
      <trkpt lat="43.44251" lon="-1.47824">
        <ele>2</ele>
        <time>2026-08-23T15:20:48.000Z</time>
      </trkpt>
      <trkpt lat="43.44249" lon="-1.47843">
        <ele>2</ele>
        <time>2026-08-23T15:20:50.000Z</time>
      </trkpt>
      <trkpt lat="43.44244" lon="-1.47862">
        <ele>2</ele>
        <time>2026-08-23T15:20:53.000Z</time>
      </trkpt>
      <trkpt lat="43.44237" lon="-1.47883">
        <ele>1</ele>
        <time>2026-08-23T15:20:56.000Z</time>
      </trkpt>
      <trkpt lat="43.44231" lon="-1.47898">
        <ele>1</ele>
        <time>2026-08-23T15:20:58.000Z</time>
      </trkpt>
      <trkpt lat="43.44223" lon="-1.47911">
        <ele>1</ele>
        <time>2026-08-23T15:21:00.000Z</time>
      </trkpt>
      <trkpt lat="43.44213" lon="-1.47921">
        <ele>2</ele>
        <time>2026-08-23T15:21:03.000Z</time>
      </trkpt>
      <trkpt lat="43.44188" lon="-1.47934">
        <ele>2</ele>
        <time>2026-08-23T15:21:07.000Z</time>
      </trkpt>
      <trkpt lat="43.44183" lon="-1.47946">
        <ele>2</ele>
        <time>2026-08-23T15:21:09.000Z</time>
      </trkpt>
      <trkpt lat="43.44174" lon="-1.47969">
        <ele>3</ele>
        <time>2026-08-23T15:21:13.000Z</time>
      </trkpt>
      <trkpt lat="43.44159" lon="-1.48006">
        <ele>4</ele>
        <time>2026-08-23T15:21:18.000Z</time>
      </trkpt>
      <trkpt lat="43.44137" lon="-1.48054">
        <ele>8</ele>
        <time>2026-08-23T15:21:25.000Z</time>
      </trkpt>
      <trkpt lat="43.44133" lon="-1.48067">
        <ele>10</ele>
        <time>2026-08-23T15:21:27.000Z</time>
      </trkpt>
      <trkpt lat="43.44132" lon="-1.48077">
        <ele>10</ele>
        <time>2026-08-23T15:21:29.000Z</time>
      </trkpt>
      <trkpt lat="43.44135" lon="-1.48087">
        <ele>12</ele>
        <time>2026-08-23T15:21:30.000Z</time>
      </trkpt>
      <trkpt lat="43.44154" lon="-1.48115">
        <ele>15</ele>
        <time>2026-08-23T15:21:35.000Z</time>
      </trkpt>
      <trkpt lat="43.44166" lon="-1.48127">
        <ele>16</ele>
        <time>2026-08-23T15:21:38.000Z</time>
      </trkpt>
      <trkpt lat="43.44184" lon="-1.48141">
        <ele>17</ele>
        <time>2026-08-23T15:21:41.000Z</time>
      </trkpt>
      <trkpt lat="43.44207" lon="-1.48155">
        <ele>18</ele>
        <time>2026-08-23T15:21:46.000Z</time>
      </trkpt>
      <trkpt lat="43.44222" lon="-1.48164">
        <ele>19</ele>
        <time>2026-08-23T15:21:49.000Z</time>
      </trkpt>
      <trkpt lat="43.44311" lon="-1.48158">
        <ele>17</ele>
        <time>2026-08-23T15:22:04.000Z</time>
      </trkpt>
      <trkpt lat="43.44328" lon="-1.48154">
        <ele>16</ele>
        <time>2026-08-23T15:22:08.000Z</time>
      </trkpt>
      <trkpt lat="43.44336" lon="-1.4815">
        <ele>16</ele>
        <time>2026-08-23T15:22:09.000Z</time>
      </trkpt>
      <trkpt lat="43.44354" lon="-1.48137">
        <ele>15</ele>
        <time>2026-08-23T15:22:13.000Z</time>
      </trkpt>
      <trkpt lat="43.44364" lon="-1.48126">
        <ele>14</ele>
        <time>2026-08-23T15:22:15.000Z</time>
      </trkpt>
      <trkpt lat="43.44397" lon="-1.4808">
        <ele>10</ele>
        <time>2026-08-23T15:22:23.000Z</time>
      </trkpt>
      <trkpt lat="43.44415" lon="-1.48058">
        <ele>10</ele>
        <time>2026-08-23T15:22:28.000Z</time>
      </trkpt>
      <trkpt lat="43.44427" lon="-1.48046">
        <ele>9</ele>
        <time>2026-08-23T15:22:30.000Z</time>
      </trkpt>
      <trkpt lat="43.44439" lon="-1.48039">
        <ele>8</ele>
        <time>2026-08-23T15:22:33.000Z</time>
      </trkpt>
      <trkpt lat="43.44448" lon="-1.48036">
        <ele>7</ele>
        <time>2026-08-23T15:22:34.000Z</time>
      </trkpt>
      <trkpt lat="43.44458" lon="-1.48038">
        <ele>7</ele>
        <time>2026-08-23T15:22:36.000Z</time>
      </trkpt>
      <trkpt lat="43.44465" lon="-1.48042">
        <ele>7</ele>
        <time>2026-08-23T15:22:37.000Z</time>
      </trkpt>
      <trkpt lat="43.44472" lon="-1.48049">
        <ele>6</ele>
        <time>2026-08-23T15:22:39.000Z</time>
      </trkpt>
      <trkpt lat="43.4448" lon="-1.48062">
        <ele>6</ele>
        <time>2026-08-23T15:22:41.000Z</time>
      </trkpt>
      <trkpt lat="43.44493" lon="-1.48087">
        <ele>7</ele>
        <time>2026-08-23T15:22:45.000Z</time>
      </trkpt>
      <trkpt lat="43.44503" lon="-1.48115">
        <ele>8</ele>
        <time>2026-08-23T15:22:49.000Z</time>
      </trkpt>
      <trkpt lat="43.44523" lon="-1.48181">
        <ele>11</ele>
        <time>2026-08-23T15:22:58.000Z</time>
      </trkpt>
      <trkpt lat="43.44535" lon="-1.48207">
        <ele>12</ele>
        <time>2026-08-23T15:23:02.000Z</time>
      </trkpt>
      <trkpt lat="43.44576" lon="-1.48272">
        <ele>14</ele>
        <time>2026-08-23T15:23:13.000Z</time>
      </trkpt>
      <trkpt lat="43.44599" lon="-1.48319">
        <ele>19</ele>
        <time>2026-08-23T15:23:21.000Z</time>
      </trkpt>
      <trkpt lat="43.44648" lon="-1.48424">
        <ele>16</ele>
        <time>2026-08-23T15:23:37.000Z</time>
      </trkpt>
      <trkpt lat="43.44664" lon="-1.48472">
        <ele>17</ele>
        <time>2026-08-23T15:23:44.000Z</time>
      </trkpt>
      <trkpt lat="43.44671" lon="-1.48509">
        <ele>20</ele>
        <time>2026-08-23T15:23:49.000Z</time>
      </trkpt>
      <trkpt lat="43.44681" lon="-1.48554">
        <ele>22</ele>
        <time>2026-08-23T15:23:55.000Z</time>
      </trkpt>
      <trkpt lat="43.44711" lon="-1.48631">
        <ele>20</ele>
        <time>2026-08-23T15:24:06.000Z</time>
      </trkpt>
      <trkpt lat="43.44722" lon="-1.48672">
        <ele>18</ele>
        <time>2026-08-23T15:24:12.000Z</time>
      </trkpt>
      <trkpt lat="43.44722" lon="-1.48739">
        <ele>19</ele>
        <time>2026-08-23T15:24:20.000Z</time>
      </trkpt>
      <trkpt lat="43.44711" lon="-1.48836">
        <ele>23</ele>
        <time>2026-08-23T15:24:33.000Z</time>
      </trkpt>
      <trkpt lat="43.44711" lon="-1.48856">
        <ele>23</ele>
        <time>2026-08-23T15:24:36.000Z</time>
      </trkpt>
      <trkpt lat="43.44719" lon="-1.48919">
        <ele>22</ele>
        <time>2026-08-23T15:24:44.000Z</time>
      </trkpt>
      <trkpt lat="43.44731" lon="-1.48953">
        <ele>19</ele>
        <time>2026-08-23T15:24:49.000Z</time>
      </trkpt>
      <trkpt lat="43.44736" lon="-1.48956">
        <ele>17</ele>
        <time>2026-08-23T15:24:50.000Z</time>
      </trkpt>
      <trkpt lat="43.44822" lon="-1.49019">
        <ele>8</ele>
        <time>2026-08-23T15:25:07.000Z</time>
      </trkpt>
      <trkpt lat="43.44864" lon="-1.49049">
        <ele>5</ele>
        <time>2026-08-23T15:25:15.000Z</time>
      </trkpt>
      <trkpt lat="43.44878" lon="-1.49059">
        <ele>5</ele>
        <time>2026-08-23T15:25:18.000Z</time>
      </trkpt>
      <trkpt lat="43.44964" lon="-1.49121">
        <ele>6</ele>
        <time>2026-08-23T15:25:35.000Z</time>
      </trkpt>
      <trkpt lat="43.44975" lon="-1.49134">
        <ele>7</ele>
        <time>2026-08-23T15:25:38.000Z</time>
      </trkpt>
      <trkpt lat="43.44981" lon="-1.49148">
        <ele>7</ele>
        <time>2026-08-23T15:25:40.000Z</time>
      </trkpt>
      <trkpt lat="43.44984" lon="-1.4916">
        <ele>8</ele>
        <time>2026-08-23T15:25:42.000Z</time>
      </trkpt>
      <trkpt lat="43.44985" lon="-1.49165">
        <ele>8</ele>
        <time>2026-08-23T15:25:42.000Z</time>
      </trkpt>
      <trkpt lat="43.44989" lon="-1.49186">
        <ele>7</ele>
        <time>2026-08-23T15:25:45.000Z</time>
      </trkpt>
      <trkpt lat="43.44992" lon="-1.49204">
        <ele>7</ele>
        <time>2026-08-23T15:25:48.000Z</time>
      </trkpt>
      <trkpt lat="43.44993" lon="-1.49219">
        <ele>7</ele>
        <time>2026-08-23T15:25:50.000Z</time>
      </trkpt>
      <trkpt lat="43.4499" lon="-1.49306">
        <ele>5</ele>
        <time>2026-08-23T15:26:01.000Z</time>
      </trkpt>
      <trkpt lat="43.44999" lon="-1.49325">
        <ele>3</ele>
        <time>2026-08-23T15:26:04.000Z</time>
      </trkpt>
      <trkpt lat="43.45005" lon="-1.49326">
        <ele>3</ele>
        <time>2026-08-23T15:26:05.000Z</time>
      </trkpt>
      <trkpt lat="43.4501" lon="-1.4933">
        <ele>3</ele>
        <time>2026-08-23T15:26:06.000Z</time>
      </trkpt>
      <trkpt lat="43.45013" lon="-1.49334">
        <ele>3</ele>
        <time>2026-08-23T15:26:07.000Z</time>
      </trkpt>
      <trkpt lat="43.45016" lon="-1.49343">
        <ele>3</ele>
        <time>2026-08-23T15:26:08.000Z</time>
      </trkpt>
      <trkpt lat="43.45016" lon="-1.49351">
        <ele>3</ele>
        <time>2026-08-23T15:26:09.000Z</time>
      </trkpt>
      <trkpt lat="43.45012" lon="-1.49361">
        <ele>3</ele>
        <time>2026-08-23T15:26:10.000Z</time>
      </trkpt>
      <trkpt lat="43.45008" lon="-1.49365">
        <ele>3</ele>
        <time>2026-08-23T15:26:11.000Z</time>
      </trkpt>
      <trkpt lat="43.45005" lon="-1.49367">
        <ele>3</ele>
        <time>2026-08-23T15:26:12.000Z</time>
      </trkpt>
      <trkpt lat="43.45003" lon="-1.49373">
        <ele>3</ele>
        <time>2026-08-23T15:26:13.000Z</time>
      </trkpt>
      <trkpt lat="43.45002" lon="-1.49382">
        <ele>2</ele>
        <time>2026-08-23T15:26:14.000Z</time>
      </trkpt>
      <trkpt lat="43.45003" lon="-1.49393">
        <ele>2</ele>
        <time>2026-08-23T15:26:15.000Z</time>
      </trkpt>
      <trkpt lat="43.45024" lon="-1.49436">
        <ele>2</ele>
        <time>2026-08-23T15:26:22.000Z</time>
      </trkpt>
      <trkpt lat="43.45037" lon="-1.49463">
        <ele>2</ele>
        <time>2026-08-23T15:26:26.000Z</time>
      </trkpt>
      <trkpt lat="43.45055" lon="-1.49491">
        <ele>2</ele>
        <time>2026-08-23T15:26:31.000Z</time>
      </trkpt>
      <trkpt lat="43.45055" lon="-1.49496">
        <ele>2</ele>
        <time>2026-08-23T15:26:32.000Z</time>
      </trkpt>
      <trkpt lat="43.45056" lon="-1.49505">
        <ele>2</ele>
        <time>2026-08-23T15:26:33.000Z</time>
      </trkpt>
      <trkpt lat="43.4508" lon="-1.49559">
        <ele>5</ele>
        <time>2026-08-23T15:26:41.000Z</time>
      </trkpt>
      <trkpt lat="43.45083" lon="-1.49569">
        <ele>5</ele>
        <time>2026-08-23T15:26:42.000Z</time>
      </trkpt>
      <trkpt lat="43.45085" lon="-1.49583">
        <ele>6</ele>
        <time>2026-08-23T15:26:44.000Z</time>
      </trkpt>
      <trkpt lat="43.45078" lon="-1.49601">
        <ele>7</ele>
        <time>2026-08-23T15:26:47.000Z</time>
      </trkpt>
      <trkpt lat="43.45062" lon="-1.4963">
        <ele>8</ele>
        <time>2026-08-23T15:26:52.000Z</time>
      </trkpt>
      <trkpt lat="43.45026" lon="-1.49687">
        <ele>11</ele>
        <time>2026-08-23T15:27:01.000Z</time>
      </trkpt>
      <trkpt lat="43.45" lon="-1.49707">
        <ele>12</ele>
        <time>2026-08-23T15:27:07.000Z</time>
      </trkpt>
      <trkpt lat="43.44974" lon="-1.49711">
        <ele>12</ele>
        <time>2026-08-23T15:27:11.000Z</time>
      </trkpt>
      <trkpt lat="43.44939" lon="-1.49691">
        <ele>11</ele>
        <time>2026-08-23T15:27:18.000Z</time>
      </trkpt>
      <trkpt lat="43.4492" lon="-1.49694">
        <ele>11</ele>
        <time>2026-08-23T15:27:22.000Z</time>
      </trkpt>
      <trkpt lat="43.44863" lon="-1.49754">
        <ele>12</ele>
        <time>2026-08-23T15:27:34.000Z</time>
      </trkpt>
      <trkpt lat="43.44842" lon="-1.49763">
        <ele>11</ele>
        <time>2026-08-23T15:27:38.000Z</time>
      </trkpt>
      <trkpt lat="43.44814" lon="-1.49762">
        <ele>9</ele>
        <time>2026-08-23T15:27:43.000Z</time>
      </trkpt>
      <trkpt lat="43.44805" lon="-1.49763">
        <ele>8</ele>
        <time>2026-08-23T15:27:45.000Z</time>
      </trkpt>
      <trkpt lat="43.44797" lon="-1.4977">
        <ele>7</ele>
        <time>2026-08-23T15:27:46.000Z</time>
      </trkpt>
      <trkpt lat="43.44791" lon="-1.49779">
        <ele>7</ele>
        <time>2026-08-23T15:27:48.000Z</time>
      </trkpt>
      <trkpt lat="43.44788" lon="-1.49793">
        <ele>6</ele>
        <time>2026-08-23T15:27:50.000Z</time>
      </trkpt>
      <trkpt lat="43.4479" lon="-1.4981">
        <ele>6</ele>
        <time>2026-08-23T15:27:52.000Z</time>
      </trkpt>
      <trkpt lat="43.44792" lon="-1.4982">
        <ele>6</ele>
        <time>2026-08-23T15:27:53.000Z</time>
      </trkpt>
      <trkpt lat="43.4484" lon="-1.49978">
        <ele>7</ele>
        <time>2026-08-23T15:28:16.000Z</time>
      </trkpt>
      <trkpt lat="43.44843" lon="-1.49999">
        <ele>7</ele>
        <time>2026-08-23T15:28:18.000Z</time>
      </trkpt>
      <trkpt lat="43.44842" lon="-1.50013">
        <ele>6</ele>
        <time>2026-08-23T15:28:20.000Z</time>
      </trkpt>
      <trkpt lat="43.44836" lon="-1.50031">
        <ele>6</ele>
        <time>2026-08-23T15:28:23.000Z</time>
      </trkpt>
      <trkpt lat="43.44819" lon="-1.50059">
        <ele>6</ele>
        <time>2026-08-23T15:28:27.000Z</time>
      </trkpt>
      <trkpt lat="43.44811" lon="-1.50069">
        <ele>6</ele>
        <time>2026-08-23T15:28:29.000Z</time>
      </trkpt>
      <trkpt lat="43.44798" lon="-1.50078">
        <ele>7</ele>
        <time>2026-08-23T15:28:32.000Z</time>
      </trkpt>
      <trkpt lat="43.44785" lon="-1.50083">
        <ele>7</ele>
        <time>2026-08-23T15:28:34.000Z</time>
      </trkpt>
      <trkpt lat="43.44775" lon="-1.50083">
        <ele>8</ele>
        <time>2026-08-23T15:28:36.000Z</time>
      </trkpt>
      <trkpt lat="43.44764" lon="-1.50083">
        <ele>8</ele>
        <time>2026-08-23T15:28:38.000Z</time>
      </trkpt>
      <trkpt lat="43.4475" lon="-1.50079">
        <ele>9</ele>
        <time>2026-08-23T15:28:41.000Z</time>
      </trkpt>
      <trkpt lat="43.44727" lon="-1.50068">
        <ele>8</ele>
        <time>2026-08-23T15:28:45.000Z</time>
      </trkpt>
      <trkpt lat="43.44713" lon="-1.50068">
        <ele>8</ele>
        <time>2026-08-23T15:28:47.000Z</time>
      </trkpt>
      <trkpt lat="43.44701" lon="-1.50073">
        <ele>8</ele>
        <time>2026-08-23T15:28:50.000Z</time>
      </trkpt>
      <trkpt lat="43.44678" lon="-1.50088">
        <ele>9</ele>
        <time>2026-08-23T15:28:54.000Z</time>
      </trkpt>
      <trkpt lat="43.44662" lon="-1.50094">
        <ele>10</ele>
        <time>2026-08-23T15:28:57.000Z</time>
      </trkpt>
      <trkpt lat="43.44622" lon="-1.50102">
        <ele>13</ele>
        <time>2026-08-23T15:29:04.000Z</time>
      </trkpt>
      <trkpt lat="43.44608" lon="-1.50109">
        <ele>14</ele>
        <time>2026-08-23T15:29:07.000Z</time>
      </trkpt>
      <trkpt lat="43.44595" lon="-1.50119">
        <ele>15</ele>
        <time>2026-08-23T15:29:10.000Z</time>
      </trkpt>
      <trkpt lat="43.44586" lon="-1.50122">
        <ele>15</ele>
        <time>2026-08-23T15:29:11.000Z</time>
      </trkpt>
      <trkpt lat="43.4458" lon="-1.50124">
        <ele>15</ele>
        <time>2026-08-23T15:29:12.000Z</time>
      </trkpt>
      <trkpt lat="43.44558" lon="-1.50126">
        <ele>14</ele>
        <time>2026-08-23T15:29:16.000Z</time>
      </trkpt>
      <trkpt lat="43.44547" lon="-1.50133">
        <ele>14</ele>
        <time>2026-08-23T15:29:19.000Z</time>
      </trkpt>
      <trkpt lat="43.4454" lon="-1.50139">
        <ele>15</ele>
        <time>2026-08-23T15:29:20.000Z</time>
      </trkpt>
      <trkpt lat="43.44534" lon="-1.50148">
        <ele>15</ele>
        <time>2026-08-23T15:29:22.000Z</time>
      </trkpt>
      <trkpt lat="43.44529" lon="-1.50159">
        <ele>16</ele>
        <time>2026-08-23T15:29:23.000Z</time>
      </trkpt>
      <trkpt lat="43.44523" lon="-1.50176">
        <ele>17</ele>
        <time>2026-08-23T15:29:26.000Z</time>
      </trkpt>
      <trkpt lat="43.44521" lon="-1.50192">
        <ele>18</ele>
        <time>2026-08-23T15:29:28.000Z</time>
      </trkpt>
      <trkpt lat="43.44524" lon="-1.50253">
        <ele>24</ele>
        <time>2026-08-23T15:29:36.000Z</time>
      </trkpt>
      <trkpt lat="43.44521" lon="-1.50296">
        <ele>28</ele>
        <time>2026-08-23T15:29:41.000Z</time>
      </trkpt>
      <trkpt lat="43.44521" lon="-1.50321">
        <ele>31</ele>
        <time>2026-08-23T15:29:44.000Z</time>
      </trkpt>
      <trkpt lat="43.44528" lon="-1.50373">
        <ele>34</ele>
        <time>2026-08-23T15:29:51.000Z</time>
      </trkpt>
      <trkpt lat="43.44536" lon="-1.50431">
        <ele>35</ele>
        <time>2026-08-23T15:29:59.000Z</time>
      </trkpt>
      <trkpt lat="43.44543" lon="-1.50472">
        <ele>34</ele>
        <time>2026-08-23T15:30:04.000Z</time>
      </trkpt>
      <trkpt lat="43.44556" lon="-1.50525">
        <ele>35</ele>
        <time>2026-08-23T15:30:12.000Z</time>
      </trkpt>
      <trkpt lat="43.44571" lon="-1.50575">
        <ele>36</ele>
        <time>2026-08-23T15:30:19.000Z</time>
      </trkpt>
      <trkpt lat="43.44576" lon="-1.506">
        <ele>37</ele>
        <time>2026-08-23T15:30:22.000Z</time>
      </trkpt>
      <trkpt lat="43.44581" lon="-1.50625">
        <ele>39</ele>
        <time>2026-08-23T15:30:25.000Z</time>
      </trkpt>
      <trkpt lat="43.44582" lon="-1.5065">
        <ele>40</ele>
        <time>2026-08-23T15:30:29.000Z</time>
      </trkpt>
      <trkpt lat="43.4458" lon="-1.50669">
        <ele>41</ele>
        <time>2026-08-23T15:30:31.000Z</time>
      </trkpt>
      <trkpt lat="43.44576" lon="-1.50687">
        <ele>43</ele>
        <time>2026-08-23T15:30:33.000Z</time>
      </trkpt>
      <trkpt lat="43.4457" lon="-1.50705">
        <ele>44</ele>
        <time>2026-08-23T15:30:36.000Z</time>
      </trkpt>
      <trkpt lat="43.44564" lon="-1.50718">
        <ele>45</ele>
        <time>2026-08-23T15:30:38.000Z</time>
      </trkpt>
      <trkpt lat="43.44556" lon="-1.50725">
        <ele>46</ele>
        <time>2026-08-23T15:30:40.000Z</time>
      </trkpt>
      <trkpt lat="43.44523" lon="-1.50745">
        <ele>47</ele>
        <time>2026-08-23T15:30:46.000Z</time>
      </trkpt>
      <trkpt lat="43.44517" lon="-1.50751">
        <ele>48</ele>
        <time>2026-08-23T15:30:47.000Z</time>
      </trkpt>
      <trkpt lat="43.44513" lon="-1.50759">
        <ele>48</ele>
        <time>2026-08-23T15:30:49.000Z</time>
      </trkpt>
      <trkpt lat="43.44511" lon="-1.50769">
        <ele>49</ele>
        <time>2026-08-23T15:30:50.000Z</time>
      </trkpt>
      <trkpt lat="43.44511" lon="-1.50779">
        <ele>49</ele>
        <time>2026-08-23T15:30:51.000Z</time>
      </trkpt>
      <trkpt lat="43.44528" lon="-1.50823">
        <ele>52</ele>
        <time>2026-08-23T15:30:58.000Z</time>
      </trkpt>
      <trkpt lat="43.4453" lon="-1.50822">
        <ele>52</ele>
        <time>2026-08-23T15:30:58.000Z</time>
      </trkpt>
      <trkpt lat="43.44532" lon="-1.50823">
        <ele>52</ele>
        <time>2026-08-23T15:30:58.000Z</time>
      </trkpt>
      <trkpt lat="43.44535" lon="-1.50827">
        <ele>52</ele>
        <time>2026-08-23T15:30:59.000Z</time>
      </trkpt>
      <trkpt lat="43.44535" lon="-1.50832">
        <ele>52</ele>
        <time>2026-08-23T15:31:00.000Z</time>
      </trkpt>
      <trkpt lat="43.44532" lon="-1.50836">
        <ele>52</ele>
        <time>2026-08-23T15:31:01.000Z</time>
      </trkpt>
      <trkpt lat="43.4456" lon="-1.50875">
        <ele>54</ele>
        <time>2026-08-23T15:31:08.000Z</time>
      </trkpt>
      <trkpt lat="43.44564" lon="-1.50881">
        <ele>54</ele>
        <time>2026-08-23T15:31:09.000Z</time>
      </trkpt>
      <trkpt lat="43.4458" lon="-1.50905">
        <ele>55</ele>
        <time>2026-08-23T15:31:13.000Z</time>
      </trkpt>
      <trkpt lat="43.44606" lon="-1.50969">
        <ele>53</ele>
        <time>2026-08-23T15:31:22.000Z</time>
      </trkpt>
      <trkpt lat="43.44607" lon="-1.50972">
        <ele>53</ele>
        <time>2026-08-23T15:31:23.000Z</time>
      </trkpt>
      <trkpt lat="43.44619" lon="-1.51014">
        <ele>52</ele>
        <time>2026-08-23T15:31:29.000Z</time>
      </trkpt>
      <trkpt lat="43.44632" lon="-1.51059">
        <ele>52</ele>
        <time>2026-08-23T15:31:35.000Z</time>
      </trkpt>
      <trkpt lat="43.44636" lon="-1.51076">
        <ele>52</ele>
        <time>2026-08-23T15:31:37.000Z</time>
      </trkpt>
      <trkpt lat="43.44643" lon="-1.51105">
        <ele>52</ele>
        <time>2026-08-23T15:31:41.000Z</time>
      </trkpt>
      <trkpt lat="43.4466" lon="-1.5121">
        <ele>55</ele>
        <time>2026-08-23T15:31:55.000Z</time>
      </trkpt>
      <trkpt lat="43.44668" lon="-1.51262">
        <ele>56</ele>
        <time>2026-08-23T15:32:02.000Z</time>
      </trkpt>
      <trkpt lat="43.4467" lon="-1.51276">
        <ele>57</ele>
        <time>2026-08-23T15:32:04.000Z</time>
      </trkpt>
      <trkpt lat="43.44681" lon="-1.51313">
        <ele>58</ele>
        <time>2026-08-23T15:32:09.000Z</time>
      </trkpt>
      <trkpt lat="43.44716" lon="-1.51421">
        <ele>70</ele>
        <time>2026-08-23T15:32:24.000Z</time>
      </trkpt>
      <trkpt lat="43.44766" lon="-1.5155">
        <ele>74</ele>
        <time>2026-08-23T15:32:43.000Z</time>
      </trkpt>
      <trkpt lat="43.44781" lon="-1.51587">
        <ele>75</ele>
        <time>2026-08-23T15:32:49.000Z</time>
      </trkpt>
      <trkpt lat="43.44792" lon="-1.51622">
        <ele>75</ele>
        <time>2026-08-23T15:32:54.000Z</time>
      </trkpt>
      <trkpt lat="43.44792" lon="-1.51624">
        <ele>75</ele>
        <time>2026-08-23T15:32:54.000Z</time>
      </trkpt>
      <trkpt lat="43.44792" lon="-1.51622">
        <ele>75</ele>
        <time>2026-08-23T15:32:54.000Z</time>
      </trkpt>
      <trkpt lat="43.44759" lon="-1.51646">
        <ele>76</ele>
        <time>2026-08-23T15:33:01.000Z</time>
      </trkpt>
      <trkpt lat="43.44735" lon="-1.5163">
        <ele>76</ele>
        <time>2026-08-23T15:33:05.000Z</time>
      </trkpt>
      <trkpt lat="43.44708" lon="-1.51615">
        <ele>76</ele>
        <time>2026-08-23T15:33:11.000Z</time>
      </trkpt>
      <trkpt lat="43.44688" lon="-1.51612">
        <ele>75</ele>
        <time>2026-08-23T15:33:14.000Z</time>
      </trkpt>
      <trkpt lat="43.44661" lon="-1.51616">
        <ele>75</ele>
        <time>2026-08-23T15:33:19.000Z</time>
      </trkpt>
      <trkpt lat="43.44621" lon="-1.51624">
        <ele>74</ele>
        <time>2026-08-23T15:33:26.000Z</time>
      </trkpt>
      <trkpt lat="43.44524" lon="-1.51647">
        <ele>72</ele>
        <time>2026-08-23T15:33:44.000Z</time>
      </trkpt>
      <trkpt lat="43.445" lon="-1.51652">
        <ele>72</ele>
        <time>2026-08-23T15:33:48.000Z</time>
      </trkpt>
      <trkpt lat="43.44421" lon="-1.51659">
        <ele>69</ele>
        <time>2026-08-23T15:34:02.000Z</time>
      </trkpt>
      <trkpt lat="43.44404" lon="-1.51662">
        <ele>69</ele>
        <time>2026-08-23T15:34:05.000Z</time>
      </trkpt>
      <trkpt lat="43.44387" lon="-1.51668">
        <ele>69</ele>
        <time>2026-08-23T15:34:08.000Z</time>
      </trkpt>
      <trkpt lat="43.44363" lon="-1.51681">
        <ele>69</ele>
        <time>2026-08-23T15:34:13.000Z</time>
      </trkpt>
      <trkpt lat="43.44321" lon="-1.51706">
        <ele>69</ele>
        <time>2026-08-23T15:34:21.000Z</time>
      </trkpt>
      <trkpt lat="43.44307" lon="-1.51713">
        <ele>69</ele>
        <time>2026-08-23T15:34:24.000Z</time>
      </trkpt>
      <trkpt lat="43.44243" lon="-1.51733">
        <ele>68</ele>
        <time>2026-08-23T15:34:35.000Z</time>
      </trkpt>
      <trkpt lat="43.4419" lon="-1.5175">
        <ele>67</ele>
        <time>2026-08-23T15:34:45.000Z</time>
      </trkpt>
      <trkpt lat="43.44175" lon="-1.51757">
        <ele>67</ele>
        <time>2026-08-23T15:34:48.000Z</time>
      </trkpt>
      <trkpt lat="43.44165" lon="-1.51763">
        <ele>67</ele>
        <time>2026-08-23T15:34:50.000Z</time>
      </trkpt>
      <trkpt lat="43.44154" lon="-1.51773">
        <ele>67</ele>
        <time>2026-08-23T15:34:52.000Z</time>
      </trkpt>
      <trkpt lat="43.44114" lon="-1.51817">
        <ele>69</ele>
        <time>2026-08-23T15:35:01.000Z</time>
      </trkpt>
      <trkpt lat="43.44074" lon="-1.51867">
        <ele>70</ele>
        <time>2026-08-23T15:35:11.000Z</time>
      </trkpt>
      <trkpt lat="43.44056" lon="-1.51892">
        <ele>68</ele>
        <time>2026-08-23T15:35:15.000Z</time>
      </trkpt>
      <trkpt lat="43.4404" lon="-1.51912">
        <ele>67</ele>
        <time>2026-08-23T15:35:19.000Z</time>
      </trkpt>
      <trkpt lat="43.44022" lon="-1.51929">
        <ele>66</ele>
        <time>2026-08-23T15:35:23.000Z</time>
      </trkpt>
      <trkpt lat="43.43999" lon="-1.51945">
        <ele>66</ele>
        <time>2026-08-23T15:35:28.000Z</time>
      </trkpt>
      <trkpt lat="43.43873" lon="-1.52016">
        <ele>60</ele>
        <time>2026-08-23T15:35:52.000Z</time>
      </trkpt>
      <trkpt lat="43.43873" lon="-1.52023">
        <ele>61</ele>
        <time>2026-08-23T15:35:53.000Z</time>
      </trkpt>
      <trkpt lat="43.43873" lon="-1.52027">
        <ele>61</ele>
        <time>2026-08-23T15:35:53.000Z</time>
      </trkpt>
      <trkpt lat="43.4387" lon="-1.52028">
        <ele>61</ele>
        <time>2026-08-23T15:35:54.000Z</time>
      </trkpt>
      <trkpt lat="43.43823" lon="-1.52054">
        <ele>63</ele>
        <time>2026-08-23T15:36:03.000Z</time>
      </trkpt>
      <trkpt lat="43.43804" lon="-1.52057">
        <ele>64</ele>
        <time>2026-08-23T15:36:06.000Z</time>
      </trkpt>
      <trkpt lat="43.43792" lon="-1.52058">
        <ele>65</ele>
        <time>2026-08-23T15:36:09.000Z</time>
      </trkpt>
      <trkpt lat="43.43776" lon="-1.52053">
        <ele>66</ele>
        <time>2026-08-23T15:36:11.000Z</time>
      </trkpt>
      <trkpt lat="43.43713" lon="-1.5203">
        <ele>70</ele>
        <time>2026-08-23T15:36:23.000Z</time>
      </trkpt>
      <trkpt lat="43.43674" lon="-1.52013">
        <ele>73</ele>
        <time>2026-08-23T15:36:30.000Z</time>
      </trkpt>
      <trkpt lat="43.43662" lon="-1.5201">
        <ele>73</ele>
        <time>2026-08-23T15:36:32.000Z</time>
      </trkpt>
      <trkpt lat="43.43635" lon="-1.51984">
        <ele>74</ele>
        <time>2026-08-23T15:36:38.000Z</time>
      </trkpt>
      <trkpt lat="43.43602" lon="-1.51966">
        <ele>75</ele>
        <time>2026-08-23T15:36:45.000Z</time>
      </trkpt>
      <trkpt lat="43.43579" lon="-1.51951">
        <ele>75</ele>
        <time>2026-08-23T15:36:49.000Z</time>
      </trkpt>
      <trkpt lat="43.43571" lon="-1.51951">
        <ele>74</ele>
        <time>2026-08-23T15:36:51.000Z</time>
      </trkpt>
      <trkpt lat="43.43551" lon="-1.51944">
        <ele>72</ele>
        <time>2026-08-23T15:36:54.000Z</time>
      </trkpt>
      <trkpt lat="43.43549" lon="-1.51945">
        <ele>72</ele>
        <time>2026-08-23T15:36:55.000Z</time>
      </trkpt>
      <trkpt lat="43.43538" lon="-1.51964">
        <ele>71</ele>
        <time>2026-08-23T15:36:58.000Z</time>
      </trkpt>
      <trkpt lat="43.43535" lon="-1.51971">
        <ele>70</ele>
        <time>2026-08-23T15:36:59.000Z</time>
      </trkpt>
      <trkpt lat="43.43533" lon="-1.51969">
        <ele>70</ele>
        <time>2026-08-23T15:36:59.000Z</time>
      </trkpt>
      <trkpt lat="43.43527" lon="-1.51966">
        <ele>70</ele>
        <time>2026-08-23T15:37:00.000Z</time>
      </trkpt>
      <trkpt lat="43.43507" lon="-1.51947">
        <ele>69</ele>
        <time>2026-08-23T15:37:05.000Z</time>
      </trkpt>
      <trkpt lat="43.435" lon="-1.51936">
        <ele>69</ele>
        <time>2026-08-23T15:37:07.000Z</time>
      </trkpt>
      <trkpt lat="43.43497" lon="-1.51924">
        <ele>69</ele>
        <time>2026-08-23T15:37:08.000Z</time>
      </trkpt>
      <trkpt lat="43.43492" lon="-1.51915">
        <ele>70</ele>
        <time>2026-08-23T15:37:10.000Z</time>
      </trkpt>
      <trkpt lat="43.43494" lon="-1.51909">
        <ele>70</ele>
        <time>2026-08-23T15:37:11.000Z</time>
      </trkpt>
      <trkpt lat="43.43497" lon="-1.51911">
        <ele>70</ele>
        <time>2026-08-23T15:37:11.000Z</time>
      </trkpt>
      <trkpt lat="43.43501" lon="-1.51919">
        <ele>70</ele>
        <time>2026-08-23T15:37:12.000Z</time>
      </trkpt>
      <trkpt lat="43.43503" lon="-1.51913">
        <ele>70</ele>
        <time>2026-08-23T15:37:13.000Z</time>
      </trkpt>
      <trkpt lat="43.43505" lon="-1.51908">
        <ele>71</ele>
        <time>2026-08-23T15:37:14.000Z</time>
      </trkpt>
      <trkpt lat="43.43509" lon="-1.51904">
        <ele>71</ele>
        <time>2026-08-23T15:37:15.000Z</time>
      </trkpt>
      <trkpt lat="43.43513" lon="-1.51902">
        <ele>71</ele>
        <time>2026-08-23T15:37:16.000Z</time>
      </trkpt>
      <trkpt lat="43.43519" lon="-1.51902">
        <ele>72</ele>
        <time>2026-08-23T15:37:17.000Z</time>
      </trkpt>
      <trkpt lat="43.43524" lon="-1.51905">
        <ele>72</ele>
        <time>2026-08-23T15:37:18.000Z</time>
      </trkpt>
      <trkpt lat="43.43528" lon="-1.5191">
        <ele>72</ele>
        <time>2026-08-23T15:37:19.000Z</time>
      </trkpt>
      <trkpt lat="43.43531" lon="-1.51917">
        <ele>72</ele>
        <time>2026-08-23T15:37:20.000Z</time>
      </trkpt>
      <trkpt lat="43.43531" lon="-1.51925">
        <ele>72</ele>
        <time>2026-08-23T15:37:21.000Z</time>
      </trkpt>
      <trkpt lat="43.4353" lon="-1.51932">
        <ele>71</ele>
        <time>2026-08-23T15:37:22.000Z</time>
      </trkpt>
      <trkpt lat="43.43526" lon="-1.51939">
        <ele>71</ele>
        <time>2026-08-23T15:37:23.000Z</time>
      </trkpt>
      <trkpt lat="43.43532" lon="-1.51953">
        <ele>71</ele>
        <time>2026-08-23T15:37:25.000Z</time>
      </trkpt>
      <trkpt lat="43.43537" lon="-1.51964">
        <ele>71</ele>
        <time>2026-08-23T15:37:27.000Z</time>
      </trkpt>
      <trkpt lat="43.43538" lon="-1.51964">
        <ele>71</ele>
        <time>2026-08-23T15:37:27.000Z</time>
      </trkpt>
      <trkpt lat="43.43535" lon="-1.51971">
        <ele>70</ele>
        <time>2026-08-23T15:37:28.000Z</time>
      </trkpt>
      <trkpt lat="43.43533" lon="-1.51969">
        <ele>70</ele>
        <time>2026-08-23T15:37:28.000Z</time>
      </trkpt>
      <trkpt lat="43.43527" lon="-1.51966">
        <ele>70</ele>
        <time>2026-08-23T15:37:29.000Z</time>
      </trkpt>
      <trkpt lat="43.43507" lon="-1.51947">
        <ele>69</ele>
        <time>2026-08-23T15:37:34.000Z</time>
      </trkpt>
      <trkpt lat="43.435" lon="-1.51936">
        <ele>69</ele>
        <time>2026-08-23T15:37:36.000Z</time>
      </trkpt>
      <trkpt lat="43.43497" lon="-1.51924">
        <ele>69</ele>
        <time>2026-08-23T15:37:37.000Z</time>
      </trkpt>
      <trkpt lat="43.43492" lon="-1.51915">
        <ele>70</ele>
        <time>2026-08-23T15:37:39.000Z</time>
      </trkpt>
      <trkpt lat="43.43494" lon="-1.51909">
        <ele>70</ele>
        <time>2026-08-23T15:37:40.000Z</time>
      </trkpt>
      <trkpt lat="43.43483" lon="-1.51899">
        <ele>70</ele>
        <time>2026-08-23T15:37:42.000Z</time>
      </trkpt>
      <trkpt lat="43.43476" lon="-1.51892">
        <ele>70</ele>
        <time>2026-08-23T15:37:43.000Z</time>
      </trkpt>
      <trkpt lat="43.43465" lon="-1.51885">
        <ele>70</ele>
        <time>2026-08-23T15:37:46.000Z</time>
      </trkpt>
      <trkpt lat="43.43446" lon="-1.51879">
        <ele>70</ele>
        <time>2026-08-23T15:37:49.000Z</time>
      </trkpt>
      <trkpt lat="43.43439" lon="-1.5188">
        <ele>70</ele>
        <time>2026-08-23T15:37:50.000Z</time>
      </trkpt>
      <trkpt lat="43.43427" lon="-1.51886">
        <ele>70</ele>
        <time>2026-08-23T15:37:53.000Z</time>
      </trkpt>
      <trkpt lat="43.43413" lon="-1.51904">
        <ele>68</ele>
        <time>2026-08-23T15:37:56.000Z</time>
      </trkpt>
      <trkpt lat="43.43343" lon="-1.51992">
        <ele>67</ele>
        <time>2026-08-23T15:38:13.000Z</time>
      </trkpt>
      <trkpt lat="43.43328" lon="-1.52013">
        <ele>67</ele>
        <time>2026-08-23T15:38:17.000Z</time>
      </trkpt>
      <trkpt lat="43.4332" lon="-1.52027">
        <ele>65</ele>
        <time>2026-08-23T15:38:19.000Z</time>
      </trkpt>
      <trkpt lat="43.43312" lon="-1.52041">
        <ele>64</ele>
        <time>2026-08-23T15:38:21.000Z</time>
      </trkpt>
      <trkpt lat="43.43293" lon="-1.52082">
        <ele>62</ele>
        <time>2026-08-23T15:38:28.000Z</time>
      </trkpt>
      <trkpt lat="43.43291" lon="-1.52087">
        <ele>62</ele>
        <time>2026-08-23T15:38:28.000Z</time>
      </trkpt>
      <trkpt lat="43.43226" lon="-1.52222">
        <ele>61</ele>
        <time>2026-08-23T15:38:49.000Z</time>
      </trkpt>
      <trkpt lat="43.43212" lon="-1.52248">
        <ele>59</ele>
        <time>2026-08-23T15:38:53.000Z</time>
      </trkpt>
      <trkpt lat="43.43197" lon="-1.52261">
        <ele>59</ele>
        <time>2026-08-23T15:38:57.000Z</time>
      </trkpt>
      <trkpt lat="43.43187" lon="-1.52267">
        <ele>59</ele>
        <time>2026-08-23T15:38:59.000Z</time>
      </trkpt>
      <trkpt lat="43.43176" lon="-1.52272">
        <ele>59</ele>
        <time>2026-08-23T15:39:01.000Z</time>
      </trkpt>
      <trkpt lat="43.43088" lon="-1.52305">
        <ele>58</ele>
        <time>2026-08-23T15:39:17.000Z</time>
      </trkpt>
      <trkpt lat="43.43065" lon="-1.52315">
        <ele>58</ele>
        <time>2026-08-23T15:39:21.000Z</time>
      </trkpt>
      <trkpt lat="43.43047" lon="-1.52325">
        <ele>57</ele>
        <time>2026-08-23T15:39:25.000Z</time>
      </trkpt>
      <trkpt lat="43.43011" lon="-1.52352">
        <ele>56</ele>
        <time>2026-08-23T15:39:32.000Z</time>
      </trkpt>
      <trkpt lat="43.42963" lon="-1.52387">
        <ele>54</ele>
        <time>2026-08-23T15:39:42.000Z</time>
      </trkpt>
      <trkpt lat="43.42955" lon="-1.5239">
        <ele>53</ele>
        <time>2026-08-23T15:39:43.000Z</time>
      </trkpt>
      <trkpt lat="43.42938" lon="-1.52394">
        <ele>52</ele>
        <time>2026-08-23T15:39:46.000Z</time>
      </trkpt>
      <trkpt lat="43.4291" lon="-1.52396">
        <ele>50</ele>
        <time>2026-08-23T15:39:51.000Z</time>
      </trkpt>
      <trkpt lat="43.42833" lon="-1.52401">
        <ele>44</ele>
        <time>2026-08-23T15:40:05.000Z</time>
      </trkpt>
      <trkpt lat="43.42779" lon="-1.52406">
        <ele>40</ele>
        <time>2026-08-23T15:40:14.000Z</time>
      </trkpt>
      <trkpt lat="43.42725" lon="-1.52416">
        <ele>37</ele>
        <time>2026-08-23T15:40:24.000Z</time>
      </trkpt>
      <trkpt lat="43.42695" lon="-1.52424">
        <ele>36</ele>
        <time>2026-08-23T15:40:30.000Z</time>
      </trkpt>
      <trkpt lat="43.42675" lon="-1.52427">
        <ele>35</ele>
        <time>2026-08-23T15:40:33.000Z</time>
      </trkpt>
      <trkpt lat="43.42452" lon="-1.5241">
        <ele>24</ele>
        <time>2026-08-23T15:41:13.000Z</time>
      </trkpt>
      <trkpt lat="43.42423" lon="-1.52407">
        <ele>23</ele>
        <time>2026-08-23T15:41:18.000Z</time>
      </trkpt>
      <trkpt lat="43.42408" lon="-1.52409">
        <ele>23</ele>
        <time>2026-08-23T15:41:21.000Z</time>
      </trkpt>
      <trkpt lat="43.42393" lon="-1.52417">
        <ele>22</ele>
        <time>2026-08-23T15:41:24.000Z</time>
      </trkpt>
      <trkpt lat="43.42347" lon="-1.52467">
        <ele>22</ele>
        <time>2026-08-23T15:41:34.000Z</time>
      </trkpt>
      <trkpt lat="43.423" lon="-1.52515">
        <ele>25</ele>
        <time>2026-08-23T15:41:44.000Z</time>
      </trkpt>
      <trkpt lat="43.42276" lon="-1.52546">
        <ele>27</ele>
        <time>2026-08-23T15:41:50.000Z</time>
      </trkpt>
      <trkpt lat="43.42268" lon="-1.52563">
        <ele>28</ele>
        <time>2026-08-23T15:41:53.000Z</time>
      </trkpt>
      <trkpt lat="43.42265" lon="-1.52574">
        <ele>29</ele>
        <time>2026-08-23T15:41:54.000Z</time>
      </trkpt>
      <trkpt lat="43.42262" lon="-1.52584">
        <ele>29</ele>
        <time>2026-08-23T15:41:56.000Z</time>
      </trkpt>
      <trkpt lat="43.42261" lon="-1.52607">
        <ele>29</ele>
        <time>2026-08-23T15:41:59.000Z</time>
      </trkpt>
      <trkpt lat="43.42265" lon="-1.52775">
        <ele>28</ele>
        <time>2026-08-23T15:42:20.000Z</time>
      </trkpt>
      <trkpt lat="43.42263" lon="-1.52795">
        <ele>29</ele>
        <time>2026-08-23T15:42:23.000Z</time>
      </trkpt>
      <trkpt lat="43.42258" lon="-1.52816">
        <ele>30</ele>
        <time>2026-08-23T15:42:26.000Z</time>
      </trkpt>
      <trkpt lat="43.4225" lon="-1.52834">
        <ele>31</ele>
        <time>2026-08-23T15:42:29.000Z</time>
      </trkpt>
      <trkpt lat="43.42239" lon="-1.52847">
        <ele>32</ele>
        <time>2026-08-23T15:42:31.000Z</time>
      </trkpt>
      <trkpt lat="43.42219" lon="-1.52863">
        <ele>33</ele>
        <time>2026-08-23T15:42:35.000Z</time>
      </trkpt>
      <trkpt lat="43.42198" lon="-1.52863">
        <ele>35</ele>
        <time>2026-08-23T15:42:39.000Z</time>
      </trkpt>
      <trkpt lat="43.42188" lon="-1.5286">
        <ele>36</ele>
        <time>2026-08-23T15:42:41.000Z</time>
      </trkpt>
      <trkpt lat="43.42178" lon="-1.52853">
        <ele>37</ele>
        <time>2026-08-23T15:42:43.000Z</time>
      </trkpt>
      <trkpt lat="43.42167" lon="-1.52842">
        <ele>38</ele>
        <time>2026-08-23T15:42:45.000Z</time>
      </trkpt>
      <trkpt lat="43.42151" lon="-1.52819">
        <ele>38</ele>
        <time>2026-08-23T15:42:49.000Z</time>
      </trkpt>
      <trkpt lat="43.42135" lon="-1.52793">
        <ele>39</ele>
        <time>2026-08-23T15:42:54.000Z</time>
      </trkpt>
      <trkpt lat="43.42054" lon="-1.52666">
        <ele>44</ele>
        <time>2026-08-23T15:43:16.000Z</time>
      </trkpt>
      <trkpt lat="43.42043" lon="-1.52651">
        <ele>44</ele>
        <time>2026-08-23T15:43:18.000Z</time>
      </trkpt>
      <trkpt lat="43.42029" lon="-1.52637">
        <ele>44</ele>
        <time>2026-08-23T15:43:22.000Z</time>
      </trkpt>
      <trkpt lat="43.4202" lon="-1.5263">
        <ele>44</ele>
        <time>2026-08-23T15:43:23.000Z</time>
      </trkpt>
      <trkpt lat="43.42006" lon="-1.52621">
        <ele>43</ele>
        <time>2026-08-23T15:43:26.000Z</time>
      </trkpt>
      <trkpt lat="43.41988" lon="-1.52615">
        <ele>44</ele>
        <time>2026-08-23T15:43:29.000Z</time>
      </trkpt>
      <trkpt lat="43.41976" lon="-1.52613">
        <ele>45</ele>
        <time>2026-08-23T15:43:32.000Z</time>
      </trkpt>
      <trkpt lat="43.41963" lon="-1.52612">
        <ele>46</ele>
        <time>2026-08-23T15:43:34.000Z</time>
      </trkpt>
      <trkpt lat="43.41947" lon="-1.52614">
        <ele>48</ele>
        <time>2026-08-23T15:43:37.000Z</time>
      </trkpt>
      <trkpt lat="43.4193" lon="-1.52617">
        <ele>49</ele>
        <time>2026-08-23T15:43:40.000Z</time>
      </trkpt>
      <trkpt lat="43.41814" lon="-1.52645">
        <ele>60</ele>
        <time>2026-08-23T15:44:01.000Z</time>
      </trkpt>
      <trkpt lat="43.41793" lon="-1.5265">
        <ele>60</ele>
        <time>2026-08-23T15:44:05.000Z</time>
      </trkpt>
      <trkpt lat="43.4166" lon="-1.52662">
        <ele>59</ele>
        <time>2026-08-23T15:44:28.000Z</time>
      </trkpt>
      <trkpt lat="43.41653" lon="-1.52661">
        <ele>58</ele>
        <time>2026-08-23T15:44:30.000Z</time>
      </trkpt>
      <trkpt lat="43.41645" lon="-1.52661">
        <ele>58</ele>
        <time>2026-08-23T15:44:31.000Z</time>
      </trkpt>
      <trkpt lat="43.41625" lon="-1.52656">
        <ele>55</ele>
        <time>2026-08-23T15:44:35.000Z</time>
      </trkpt>
      <trkpt lat="43.41616" lon="-1.5265">
        <ele>54</ele>
        <time>2026-08-23T15:44:36.000Z</time>
      </trkpt>
      <trkpt lat="43.41589" lon="-1.52629">
        <ele>51</ele>
        <time>2026-08-23T15:44:42.000Z</time>
      </trkpt>
      <trkpt lat="43.41544" lon="-1.52586">
        <ele>48</ele>
        <time>2026-08-23T15:44:52.000Z</time>
      </trkpt>
      <trkpt lat="43.41514" lon="-1.52558">
        <ele>47</ele>
        <time>2026-08-23T15:44:58.000Z</time>
      </trkpt>
      <trkpt lat="43.415" lon="-1.5255">
        <ele>47</ele>
        <time>2026-08-23T15:45:01.000Z</time>
      </trkpt>
      <trkpt lat="43.41486" lon="-1.52544">
        <ele>48</ele>
        <time>2026-08-23T15:45:03.000Z</time>
      </trkpt>
      <trkpt lat="43.4146" lon="-1.52536">
        <ele>50</ele>
        <time>2026-08-23T15:45:08.000Z</time>
      </trkpt>
      <trkpt lat="43.41413" lon="-1.52524">
        <ele>53</ele>
        <time>2026-08-23T15:45:17.000Z</time>
      </trkpt>
      <trkpt lat="43.41401" lon="-1.5252">
        <ele>54</ele>
        <time>2026-08-23T15:45:19.000Z</time>
      </trkpt>
      <trkpt lat="43.41374" lon="-1.52509">
        <ele>55</ele>
        <time>2026-08-23T15:45:24.000Z</time>
      </trkpt>
      <trkpt lat="43.41362" lon="-1.52495">
        <ele>55</ele>
        <time>2026-08-23T15:45:27.000Z</time>
      </trkpt>
      <trkpt lat="43.41352" lon="-1.52476">
        <ele>55</ele>
        <time>2026-08-23T15:45:30.000Z</time>
      </trkpt>
      <trkpt lat="43.41343" lon="-1.52449">
        <ele>56</ele>
        <time>2026-08-23T15:45:33.000Z</time>
      </trkpt>
      <trkpt lat="43.41328" lon="-1.52396">
        <ele>56</ele>
        <time>2026-08-23T15:45:41.000Z</time>
      </trkpt>
      <trkpt lat="43.41322" lon="-1.52382">
        <ele>57</ele>
        <time>2026-08-23T15:45:43.000Z</time>
      </trkpt>
      <trkpt lat="43.41316" lon="-1.52369">
        <ele>57</ele>
        <time>2026-08-23T15:45:45.000Z</time>
      </trkpt>
      <trkpt lat="43.41308" lon="-1.52358">
        <ele>58</ele>
        <time>2026-08-23T15:45:47.000Z</time>
      </trkpt>
      <trkpt lat="43.41298" lon="-1.52349">
        <ele>58</ele>
        <time>2026-08-23T15:45:49.000Z</time>
      </trkpt>
      <trkpt lat="43.41282" lon="-1.52343">
        <ele>59</ele>
        <time>2026-08-23T15:45:52.000Z</time>
      </trkpt>
      <trkpt lat="43.4127" lon="-1.52343">
        <ele>61</ele>
        <time>2026-08-23T15:45:54.000Z</time>
      </trkpt>
      <trkpt lat="43.4126" lon="-1.52348">
        <ele>61</ele>
        <time>2026-08-23T15:45:56.000Z</time>
      </trkpt>
      <trkpt lat="43.41212" lon="-1.52395">
        <ele>62</ele>
        <time>2026-08-23T15:46:07.000Z</time>
      </trkpt>
      <trkpt lat="43.41094" lon="-1.52514">
        <ele>63</ele>
        <time>2026-08-23T15:46:33.000Z</time>
      </trkpt>
      <trkpt lat="43.41051" lon="-1.52544">
        <ele>62</ele>
        <time>2026-08-23T15:46:41.000Z</time>
      </trkpt>
      <trkpt lat="43.40927" lon="-1.52634">
        <ele>60</ele>
        <time>2026-08-23T15:47:06.000Z</time>
      </trkpt>
      <trkpt lat="43.40909" lon="-1.52644">
        <ele>61</ele>
        <time>2026-08-23T15:47:10.000Z</time>
      </trkpt>
      <trkpt lat="43.40886" lon="-1.52653">
        <ele>62</ele>
        <time>2026-08-23T15:47:14.000Z</time>
      </trkpt>
      <trkpt lat="43.40667" lon="-1.52701">
        <ele>61</ele>
        <time>2026-08-23T15:47:53.000Z</time>
      </trkpt>
      <trkpt lat="43.40618" lon="-1.52711">
        <ele>60</ele>
        <time>2026-08-23T15:48:02.000Z</time>
      </trkpt>
      <trkpt lat="43.40581" lon="-1.52717">
        <ele>60</ele>
        <time>2026-08-23T15:48:09.000Z</time>
      </trkpt>
      <trkpt lat="43.40545" lon="-1.52722">
        <ele>61</ele>
        <time>2026-08-23T15:48:15.000Z</time>
      </trkpt>
      <trkpt lat="43.40521" lon="-1.52728">
        <ele>62</ele>
        <time>2026-08-23T15:48:19.000Z</time>
      </trkpt>
      <trkpt lat="43.40468" lon="-1.52748">
        <ele>64</ele>
        <time>2026-08-23T15:48:29.000Z</time>
      </trkpt>
      <trkpt lat="43.40436" lon="-1.5276">
        <ele>65</ele>
        <time>2026-08-23T15:48:35.000Z</time>
      </trkpt>
      <trkpt lat="43.40394" lon="-1.52774">
        <ele>66</ele>
        <time>2026-08-23T15:48:43.000Z</time>
      </trkpt>
      <trkpt lat="43.40371" lon="-1.52778">
        <ele>67</ele>
        <time>2026-08-23T15:48:47.000Z</time>
      </trkpt>
      <trkpt lat="43.40354" lon="-1.52778">
        <ele>68</ele>
        <time>2026-08-23T15:48:50.000Z</time>
      </trkpt>
      <trkpt lat="43.40333" lon="-1.52774">
        <ele>69</ele>
        <time>2026-08-23T15:48:54.000Z</time>
      </trkpt>
      <trkpt lat="43.40258" lon="-1.52744">
        <ele>72</ele>
        <time>2026-08-23T15:49:08.000Z</time>
      </trkpt>
      <trkpt lat="43.40213" lon="-1.52725">
        <ele>71</ele>
        <time>2026-08-23T15:49:16.000Z</time>
      </trkpt>
      <trkpt lat="43.4019" lon="-1.52718">
        <ele>70</ele>
        <time>2026-08-23T15:49:20.000Z</time>
      </trkpt>
      <trkpt lat="43.40139" lon="-1.52711">
        <ele>69</ele>
        <time>2026-08-23T15:49:29.000Z</time>
      </trkpt>
      <trkpt lat="43.40026" lon="-1.52696">
        <ele>69</ele>
        <time>2026-08-23T15:49:50.000Z</time>
      </trkpt>
      <trkpt lat="43.40001" lon="-1.52695">
        <ele>70</ele>
        <time>2026-08-23T15:49:54.000Z</time>
      </trkpt>
      <trkpt lat="43.39955" lon="-1.52705">
        <ele>75</ele>
        <time>2026-08-23T15:50:02.000Z</time>
      </trkpt>
      <trkpt lat="43.39897" lon="-1.52722">
        <ele>80</ele>
        <time>2026-08-23T15:50:13.000Z</time>
      </trkpt>
      <trkpt lat="43.39845" lon="-1.52737">
        <ele>83</ele>
        <time>2026-08-23T15:50:22.000Z</time>
      </trkpt>
      <trkpt lat="43.39825" lon="-1.52746">
        <ele>84</ele>
        <time>2026-08-23T15:50:26.000Z</time>
      </trkpt>
      <trkpt lat="43.39809" lon="-1.52761">
        <ele>85</ele>
        <time>2026-08-23T15:50:29.000Z</time>
      </trkpt>
      <trkpt lat="43.39734" lon="-1.52865">
        <ele>90</ele>
        <time>2026-08-23T15:50:48.000Z</time>
      </trkpt>
      <trkpt lat="43.39665" lon="-1.5296">
        <ele>86</ele>
        <time>2026-08-23T15:51:06.000Z</time>
      </trkpt>
      <trkpt lat="43.39661" lon="-1.52968">
        <ele>86</ele>
        <time>2026-08-23T15:51:07.000Z</time>
      </trkpt>
      <trkpt lat="43.39659" lon="-1.52978">
        <ele>86</ele>
        <time>2026-08-23T15:51:08.000Z</time>
      </trkpt>
      <trkpt lat="43.39659" lon="-1.52988">
        <ele>86</ele>
        <time>2026-08-23T15:51:10.000Z</time>
      </trkpt>
      <trkpt lat="43.39661" lon="-1.52999">
        <ele>86</ele>
        <time>2026-08-23T15:51:11.000Z</time>
      </trkpt>
      <trkpt lat="43.3968" lon="-1.53048">
        <ele>86</ele>
        <time>2026-08-23T15:51:18.000Z</time>
      </trkpt>
      <trkpt lat="43.39683" lon="-1.5306">
        <ele>86</ele>
        <time>2026-08-23T15:51:20.000Z</time>
      </trkpt>
      <trkpt lat="43.39699" lon="-1.53094">
        <ele>85</ele>
        <time>2026-08-23T15:51:25.000Z</time>
      </trkpt>
      <trkpt lat="43.39688" lon="-1.53104">
        <ele>84</ele>
        <time>2026-08-23T15:51:28.000Z</time>
      </trkpt>
      <trkpt lat="43.3957" lon="-1.53214">
        <ele>82</ele>
        <time>2026-08-23T15:51:53.000Z</time>
      </trkpt>
      <trkpt lat="43.39523" lon="-1.53266">
        <ele>79</ele>
        <time>2026-08-23T15:52:04.000Z</time>
      </trkpt>
      <trkpt lat="43.39497" lon="-1.53288">
        <ele>78</ele>
        <time>2026-08-23T15:52:09.000Z</time>
      </trkpt>
      <trkpt lat="43.39425" lon="-1.53336">
        <ele>80</ele>
        <time>2026-08-23T15:52:23.000Z</time>
      </trkpt>
      <trkpt lat="43.394" lon="-1.53354">
        <ele>79</ele>
        <time>2026-08-23T15:52:28.000Z</time>
      </trkpt>
      <trkpt lat="43.3938" lon="-1.53377">
        <ele>80</ele>
        <time>2026-08-23T15:52:33.000Z</time>
      </trkpt>
      <trkpt lat="43.39349" lon="-1.53413">
        <ele>83</ele>
        <time>2026-08-23T15:52:40.000Z</time>
      </trkpt>
      <trkpt lat="43.39334" lon="-1.53427">
        <ele>85</ele>
        <time>2026-08-23T15:52:43.000Z</time>
      </trkpt>
      <trkpt lat="43.39319" lon="-1.53431">
        <ele>86</ele>
        <time>2026-08-23T15:52:46.000Z</time>
      </trkpt>
      <trkpt lat="43.39303" lon="-1.53425">
        <ele>85</ele>
        <time>2026-08-23T15:52:49.000Z</time>
      </trkpt>
      <trkpt lat="43.3929" lon="-1.53413">
        <ele>84</ele>
        <time>2026-08-23T15:52:52.000Z</time>
      </trkpt>
      <trkpt lat="43.39262" lon="-1.53369">
        <ele>78</ele>
        <time>2026-08-23T15:52:59.000Z</time>
      </trkpt>
      <trkpt lat="43.39246" lon="-1.5335">
        <ele>74</ele>
        <time>2026-08-23T15:53:03.000Z</time>
      </trkpt>
      <trkpt lat="43.39231" lon="-1.5334">
        <ele>72</ele>
        <time>2026-08-23T15:53:06.000Z</time>
      </trkpt>
      <trkpt lat="43.39216" lon="-1.53338">
        <ele>71</ele>
        <time>2026-08-23T15:53:09.000Z</time>
      </trkpt>
      <trkpt lat="43.39201" lon="-1.53345">
        <ele>70</ele>
        <time>2026-08-23T15:53:12.000Z</time>
      </trkpt>
      <trkpt lat="43.39107" lon="-1.53427">
        <ele>68</ele>
        <time>2026-08-23T15:53:31.000Z</time>
      </trkpt>
      <trkpt lat="43.39094" lon="-1.53443">
        <ele>66</ele>
        <time>2026-08-23T15:53:35.000Z</time>
      </trkpt>
      <trkpt lat="43.39087" lon="-1.53459">
        <ele>66</ele>
        <time>2026-08-23T15:53:37.000Z</time>
      </trkpt>
      <trkpt lat="43.39075" lon="-1.53507">
        <ele>66</ele>
        <time>2026-08-23T15:53:43.000Z</time>
      </trkpt>
      <trkpt lat="43.39065" lon="-1.53526">
        <ele>66</ele>
        <time>2026-08-23T15:53:47.000Z</time>
      </trkpt>
      <trkpt lat="43.39054" lon="-1.53538">
        <ele>66</ele>
        <time>2026-08-23T15:53:49.000Z</time>
      </trkpt>
      <trkpt lat="43.39036" lon="-1.53543">
        <ele>64</ele>
        <time>2026-08-23T15:53:52.000Z</time>
      </trkpt>
      <trkpt lat="43.38999" lon="-1.53539">
        <ele>59</ele>
        <time>2026-08-23T15:53:59.000Z</time>
      </trkpt>
      <trkpt lat="43.38984" lon="-1.53542">
        <ele>57</ele>
        <time>2026-08-23T15:54:02.000Z</time>
      </trkpt>
      <trkpt lat="43.38968" lon="-1.53547">
        <ele>55</ele>
        <time>2026-08-23T15:54:05.000Z</time>
      </trkpt>
      <trkpt lat="43.38953" lon="-1.53563">
        <ele>53</ele>
        <time>2026-08-23T15:54:08.000Z</time>
      </trkpt>
      <trkpt lat="43.38934" lon="-1.53593">
        <ele>52</ele>
        <time>2026-08-23T15:54:13.000Z</time>
      </trkpt>
      <trkpt lat="43.38914" lon="-1.53633">
        <ele>51</ele>
        <time>2026-08-23T15:54:19.000Z</time>
      </trkpt>
      <trkpt lat="43.38902" lon="-1.53667">
        <ele>51</ele>
        <time>2026-08-23T15:54:24.000Z</time>
      </trkpt>
      <trkpt lat="43.38867" lon="-1.53817">
        <ele>42</ele>
        <time>2026-08-23T15:54:45.000Z</time>
      </trkpt>
      <trkpt lat="43.38855" lon="-1.53849">
        <ele>40</ele>
        <time>2026-08-23T15:54:49.000Z</time>
      </trkpt>
      <trkpt lat="43.38843" lon="-1.5387">
        <ele>40</ele>
        <time>2026-08-23T15:54:53.000Z</time>
      </trkpt>
      <trkpt lat="43.38828" lon="-1.53891">
        <ele>40</ele>
        <time>2026-08-23T15:54:56.000Z</time>
      </trkpt>
      <trkpt lat="43.3881" lon="-1.5391">
        <ele>41</ele>
        <time>2026-08-23T15:55:01.000Z</time>
      </trkpt>
      <trkpt lat="43.38724" lon="-1.53966">
        <ele>52</ele>
        <time>2026-08-23T15:55:17.000Z</time>
      </trkpt>
      <trkpt lat="43.38664" lon="-1.54005">
        <ele>57</ele>
        <time>2026-08-23T15:55:29.000Z</time>
      </trkpt>
      <trkpt lat="43.38602" lon="-1.54062">
        <ele>60</ele>
        <time>2026-08-23T15:55:43.000Z</time>
      </trkpt>
      <trkpt lat="43.38588" lon="-1.54078">
        <ele>60</ele>
        <time>2026-08-23T15:55:46.000Z</time>
      </trkpt>
      <trkpt lat="43.38578" lon="-1.54102">
        <ele>62</ele>
        <time>2026-08-23T15:55:49.000Z</time>
      </trkpt>
      <trkpt lat="43.38572" lon="-1.5415">
        <ele>67</ele>
        <time>2026-08-23T15:55:56.000Z</time>
      </trkpt>
      <trkpt lat="43.38567" lon="-1.54184">
        <ele>70</ele>
        <time>2026-08-23T15:56:00.000Z</time>
      </trkpt>
      <trkpt lat="43.3856" lon="-1.54209">
        <ele>72</ele>
        <time>2026-08-23T15:56:04.000Z</time>
      </trkpt>
      <trkpt lat="43.3855" lon="-1.54225">
        <ele>74</ele>
        <time>2026-08-23T15:56:06.000Z</time>
      </trkpt>
      <trkpt lat="43.3854" lon="-1.54235">
        <ele>75</ele>
        <time>2026-08-23T15:56:09.000Z</time>
      </trkpt>
      <trkpt lat="43.38529" lon="-1.54238">
        <ele>76</ele>
        <time>2026-08-23T15:56:11.000Z</time>
      </trkpt>
      <trkpt lat="43.38512" lon="-1.54232">
        <ele>76</ele>
        <time>2026-08-23T15:56:14.000Z</time>
      </trkpt>
      <trkpt lat="43.38492" lon="-1.54216">
        <ele>76</ele>
        <time>2026-08-23T15:56:18.000Z</time>
      </trkpt>
      <trkpt lat="43.38472" lon="-1.54196">
        <ele>76</ele>
        <time>2026-08-23T15:56:22.000Z</time>
      </trkpt>
      <trkpt lat="43.3843" lon="-1.54142">
        <ele>76</ele>
        <time>2026-08-23T15:56:32.000Z</time>
      </trkpt>
      <trkpt lat="43.38416" lon="-1.54126">
        <ele>76</ele>
        <time>2026-08-23T15:56:36.000Z</time>
      </trkpt>
      <trkpt lat="43.38407" lon="-1.5412">
        <ele>76</ele>
        <time>2026-08-23T15:56:37.000Z</time>
      </trkpt>
      <trkpt lat="43.38403" lon="-1.54117">
        <ele>76</ele>
        <time>2026-08-23T15:56:38.000Z</time>
      </trkpt>
      <trkpt lat="43.38388" lon="-1.54112">
        <ele>77</ele>
        <time>2026-08-23T15:56:41.000Z</time>
      </trkpt>
      <trkpt lat="43.38369" lon="-1.54112">
        <ele>78</ele>
        <time>2026-08-23T15:56:44.000Z</time>
      </trkpt>
      <trkpt lat="43.38351" lon="-1.54118">
        <ele>80</ele>
        <time>2026-08-23T15:56:48.000Z</time>
      </trkpt>
      <trkpt lat="43.3828" lon="-1.54167">
        <ele>86</ele>
        <time>2026-08-23T15:57:02.000Z</time>
      </trkpt>
      <trkpt lat="43.38263" lon="-1.54175">
        <ele>86</ele>
        <time>2026-08-23T15:57:05.000Z</time>
      </trkpt>
      <trkpt lat="43.38247" lon="-1.54173">
        <ele>87</ele>
        <time>2026-08-23T15:57:08.000Z</time>
      </trkpt>
      <trkpt lat="43.38232" lon="-1.54163">
        <ele>88</ele>
        <time>2026-08-23T15:57:11.000Z</time>
      </trkpt>
      <trkpt lat="43.38219" lon="-1.54147">
        <ele>90</ele>
        <time>2026-08-23T15:57:14.000Z</time>
      </trkpt>
      <trkpt lat="43.38172" lon="-1.53992">
        <ele>94</ele>
        <time>2026-08-23T15:57:36.000Z</time>
      </trkpt>
      <trkpt lat="43.38163" lon="-1.53962">
        <ele>94</ele>
        <time>2026-08-23T15:57:40.000Z</time>
      </trkpt>
      <trkpt lat="43.38153" lon="-1.53944">
        <ele>94</ele>
        <time>2026-08-23T15:57:43.000Z</time>
      </trkpt>
      <trkpt lat="43.38139" lon="-1.5393">
        <ele>93</ele>
        <time>2026-08-23T15:57:46.000Z</time>
      </trkpt>
      <trkpt lat="43.38126" lon="-1.53922">
        <ele>92</ele>
        <time>2026-08-23T15:57:48.000Z</time>
      </trkpt>
      <trkpt lat="43.38105" lon="-1.53922">
        <ele>92</ele>
        <time>2026-08-23T15:57:52.000Z</time>
      </trkpt>
      <trkpt lat="43.38047" lon="-1.53947">
        <ele>87</ele>
        <time>2026-08-23T15:58:03.000Z</time>
      </trkpt>
      <trkpt lat="43.38027" lon="-1.5395">
        <ele>85</ele>
        <time>2026-08-23T15:58:06.000Z</time>
      </trkpt>
      <trkpt lat="43.37941" lon="-1.53945">
        <ele>75</ele>
        <time>2026-08-23T15:58:22.000Z</time>
      </trkpt>
      <trkpt lat="43.37915" lon="-1.53948">
        <ele>72</ele>
        <time>2026-08-23T15:58:26.000Z</time>
      </trkpt>
      <trkpt lat="43.37894" lon="-1.53954">
        <ele>72</ele>
        <time>2026-08-23T15:58:30.000Z</time>
      </trkpt>
      <trkpt lat="43.37871" lon="-1.53969">
        <ele>72</ele>
        <time>2026-08-23T15:58:35.000Z</time>
      </trkpt>
      <trkpt lat="43.37852" lon="-1.5399">
        <ele>71</ele>
        <time>2026-08-23T15:58:39.000Z</time>
      </trkpt>
      <trkpt lat="43.37826" lon="-1.54041">
        <ele>68</ele>
        <time>2026-08-23T15:58:47.000Z</time>
      </trkpt>
      <trkpt lat="43.3778" lon="-1.54119">
        <ele>66</ele>
        <time>2026-08-23T15:59:00.000Z</time>
      </trkpt>
      <trkpt lat="43.37746" lon="-1.54171">
        <ele>60</ele>
        <time>2026-08-23T15:59:09.000Z</time>
      </trkpt>
      <trkpt lat="43.37603" lon="-1.54366">
        <ele>53</ele>
        <time>2026-08-23T15:59:45.000Z</time>
      </trkpt>
      <trkpt lat="43.37562" lon="-1.54423">
        <ele>51</ele>
        <time>2026-08-23T15:59:55.000Z</time>
      </trkpt>
      <trkpt lat="43.37489" lon="-1.54489">
        <ele>49</ele>
        <time>2026-08-23T16:00:11.000Z</time>
      </trkpt>
      <trkpt lat="43.37399" lon="-1.54586">
        <ele>55</ele>
        <time>2026-08-23T16:00:31.000Z</time>
      </trkpt>
      <trkpt lat="43.37377" lon="-1.54596">
        <ele>55</ele>
        <time>2026-08-23T16:00:35.000Z</time>
      </trkpt>
      <trkpt lat="43.37356" lon="-1.54598">
        <ele>55</ele>
        <time>2026-08-23T16:00:39.000Z</time>
      </trkpt>
      <trkpt lat="43.37334" lon="-1.54595">
        <ele>55</ele>
        <time>2026-08-23T16:00:43.000Z</time>
      </trkpt>
      <trkpt lat="43.37095" lon="-1.54556">
        <ele>60</ele>
        <time>2026-08-23T16:01:26.000Z</time>
      </trkpt>
      <trkpt lat="43.37077" lon="-1.54558">
        <ele>60</ele>
        <time>2026-08-23T16:01:29.000Z</time>
      </trkpt>
      <trkpt lat="43.37052" lon="-1.54569">
        <ele>62</ele>
        <time>2026-08-23T16:01:34.000Z</time>
      </trkpt>
      <trkpt lat="43.37031" lon="-1.54584">
        <ele>63</ele>
        <time>2026-08-23T16:01:38.000Z</time>
      </trkpt>
      <trkpt lat="43.37016" lon="-1.54601">
        <ele>65</ele>
        <time>2026-08-23T16:01:41.000Z</time>
      </trkpt>
      <trkpt lat="43.37003" lon="-1.54617">
        <ele>68</ele>
        <time>2026-08-23T16:01:45.000Z</time>
      </trkpt>
      <trkpt lat="43.36991" lon="-1.54623">
        <ele>69</ele>
        <time>2026-08-23T16:01:47.000Z</time>
      </trkpt>
      <trkpt lat="43.36979" lon="-1.54623">
        <ele>70</ele>
        <time>2026-08-23T16:01:49.000Z</time>
      </trkpt>
      <trkpt lat="43.36966" lon="-1.54615">
        <ele>70</ele>
        <time>2026-08-23T16:01:52.000Z</time>
      </trkpt>
      <trkpt lat="43.36952" lon="-1.54582">
        <ele>68</ele>
        <time>2026-08-23T16:01:56.000Z</time>
      </trkpt>
      <trkpt lat="43.36941" lon="-1.54563">
        <ele>68</ele>
        <time>2026-08-23T16:02:00.000Z</time>
      </trkpt>
      <trkpt lat="43.36932" lon="-1.54558">
        <ele>69</ele>
        <time>2026-08-23T16:02:01.000Z</time>
      </trkpt>
      <trkpt lat="43.36916" lon="-1.54555">
        <ele>71</ele>
        <time>2026-08-23T16:02:04.000Z</time>
      </trkpt>
      <trkpt lat="43.36901" lon="-1.54549">
        <ele>72</ele>
        <time>2026-08-23T16:02:07.000Z</time>
      </trkpt>
      <trkpt lat="43.36865" lon="-1.54515">
        <ele>74</ele>
        <time>2026-08-23T16:02:15.000Z</time>
      </trkpt>
      <trkpt lat="43.36844" lon="-1.54508">
        <ele>76</ele>
        <time>2026-08-23T16:02:19.000Z</time>
      </trkpt>
      <trkpt lat="43.36824" lon="-1.54508">
        <ele>77</ele>
        <time>2026-08-23T16:02:22.000Z</time>
      </trkpt>
      <trkpt lat="43.36812" lon="-1.54505">
        <ele>77</ele>
        <time>2026-08-23T16:02:24.000Z</time>
      </trkpt>
      <trkpt lat="43.36768" lon="-1.54484">
        <ele>78</ele>
        <time>2026-08-23T16:02:33.000Z</time>
      </trkpt>
      <trkpt lat="43.36755" lon="-1.54481">
        <ele>78</ele>
        <time>2026-08-23T16:02:35.000Z</time>
      </trkpt>
      <trkpt lat="43.36744" lon="-1.54483">
        <ele>79</ele>
        <time>2026-08-23T16:02:37.000Z</time>
      </trkpt>
      <trkpt lat="43.36733" lon="-1.54491">
        <ele>79</ele>
        <time>2026-08-23T16:02:39.000Z</time>
      </trkpt>
      <trkpt lat="43.36709" lon="-1.54519">
        <ele>83</ele>
        <time>2026-08-23T16:02:45.000Z</time>
      </trkpt>
      <trkpt lat="43.36693" lon="-1.54532">
        <ele>84</ele>
        <time>2026-08-23T16:02:48.000Z</time>
      </trkpt>
      <trkpt lat="43.3668" lon="-1.54538">
        <ele>85</ele>
        <time>2026-08-23T16:02:50.000Z</time>
      </trkpt>
      <trkpt lat="43.36671" lon="-1.54539">
        <ele>85</ele>
        <time>2026-08-23T16:02:52.000Z</time>
      </trkpt>
      <trkpt lat="43.36664" lon="-1.54537">
        <ele>85</ele>
        <time>2026-08-23T16:02:53.000Z</time>
      </trkpt>
      <trkpt lat="43.36616" lon="-1.54483">
        <ele>85</ele>
        <time>2026-08-23T16:03:04.000Z</time>
      </trkpt>
      <trkpt lat="43.36599" lon="-1.54478">
        <ele>86</ele>
        <time>2026-08-23T16:03:07.000Z</time>
      </trkpt>
      <trkpt lat="43.36557" lon="-1.54473">
        <ele>88</ele>
        <time>2026-08-23T16:03:15.000Z</time>
      </trkpt>
      <trkpt lat="43.3655" lon="-1.54474">
        <ele>89</ele>
        <time>2026-08-23T16:03:16.000Z</time>
      </trkpt>
      <trkpt lat="43.3653" lon="-1.54476">
        <ele>90</ele>
        <time>2026-08-23T16:03:20.000Z</time>
      </trkpt>
      <trkpt lat="43.36446" lon="-1.54498">
        <ele>88</ele>
        <time>2026-08-23T16:03:35.000Z</time>
      </trkpt>
      <trkpt lat="43.36382" lon="-1.54515">
        <ele>84</ele>
        <time>2026-08-23T16:03:47.000Z</time>
      </trkpt>
      <trkpt lat="43.36371" lon="-1.54515">
        <ele>84</ele>
        <time>2026-08-23T16:03:49.000Z</time>
      </trkpt>
      <trkpt lat="43.36356" lon="-1.54511">
        <ele>84</ele>
        <time>2026-08-23T16:03:51.000Z</time>
      </trkpt>
      <trkpt lat="43.36348" lon="-1.5451">
        <ele>83</ele>
        <time>2026-08-23T16:03:53.000Z</time>
      </trkpt>
      <trkpt lat="43.36338" lon="-1.54516">
        <ele>82</ele>
        <time>2026-08-23T16:03:55.000Z</time>
      </trkpt>
      <trkpt lat="43.36321" lon="-1.54556">
        <ele>76</ele>
        <time>2026-08-23T16:04:01.000Z</time>
      </trkpt>
      <trkpt lat="43.36305" lon="-1.54575">
        <ele>72</ele>
        <time>2026-08-23T16:04:04.000Z</time>
      </trkpt>
      <trkpt lat="43.36291" lon="-1.54587">
        <ele>70</ele>
        <time>2026-08-23T16:04:07.000Z</time>
      </trkpt>
      <trkpt lat="43.36275" lon="-1.54596">
        <ele>69</ele>
        <time>2026-08-23T16:04:10.000Z</time>
      </trkpt>
      <trkpt lat="43.36234" lon="-1.54605">
        <ele>67</ele>
        <time>2026-08-23T16:04:18.000Z</time>
      </trkpt>
      <trkpt lat="43.36082" lon="-1.54665">
        <ele>58</ele>
        <time>2026-08-23T16:04:46.000Z</time>
      </trkpt>
      <trkpt lat="43.36068" lon="-1.5467">
        <ele>58</ele>
        <time>2026-08-23T16:04:49.000Z</time>
      </trkpt>
      <trkpt lat="43.36026" lon="-1.54699">
        <ele>55</ele>
        <time>2026-08-23T16:04:57.000Z</time>
      </trkpt>
      <trkpt lat="43.3601" lon="-1.54707">
        <ele>53</ele>
        <time>2026-08-23T16:05:00.000Z</time>
      </trkpt>
      <trkpt lat="43.35884" lon="-1.5476">
        <ele>39</ele>
        <time>2026-08-23T16:05:23.000Z</time>
      </trkpt>
      <trkpt lat="43.35865" lon="-1.54771">
        <ele>37</ele>
        <time>2026-08-23T16:05:27.000Z</time>
      </trkpt>
      <trkpt lat="43.35856" lon="-1.54778">
        <ele>36</ele>
        <time>2026-08-23T16:05:29.000Z</time>
      </trkpt>
      <trkpt lat="43.35848" lon="-1.54787">
        <ele>35</ele>
        <time>2026-08-23T16:05:31.000Z</time>
      </trkpt>
      <trkpt lat="43.35792" lon="-1.54891">
        <ele>30</ele>
        <time>2026-08-23T16:05:47.000Z</time>
      </trkpt>
      <trkpt lat="43.35785" lon="-1.54901">
        <ele>30</ele>
        <time>2026-08-23T16:05:49.000Z</time>
      </trkpt>
      <trkpt lat="43.35774" lon="-1.54915">
        <ele>29</ele>
        <time>2026-08-23T16:05:52.000Z</time>
      </trkpt>
      <trkpt lat="43.35753" lon="-1.54939">
        <ele>27</ele>
        <time>2026-08-23T16:05:57.000Z</time>
      </trkpt>
      <trkpt lat="43.35698" lon="-1.54998">
        <ele>23</ele>
        <time>2026-08-23T16:06:09.000Z</time>
      </trkpt>
      <trkpt lat="43.35668" lon="-1.55031">
        <ele>23</ele>
        <time>2026-08-23T16:06:16.000Z</time>
      </trkpt>
      <trkpt lat="43.35645" lon="-1.55055">
        <ele>22</ele>
        <time>2026-08-23T16:06:21.000Z</time>
      </trkpt>
      <trkpt lat="43.35639" lon="-1.5506">
        <ele>22</ele>
        <time>2026-08-23T16:06:22.000Z</time>
      </trkpt>
      <trkpt lat="43.35625" lon="-1.55061">
        <ele>21</ele>
        <time>2026-08-23T16:06:25.000Z</time>
      </trkpt>
      <trkpt lat="43.35617" lon="-1.55061">
        <ele>21</ele>
        <time>2026-08-23T16:06:26.000Z</time>
      </trkpt>
      <trkpt lat="43.35597" lon="-1.55061">
        <ele>21</ele>
        <time>2026-08-23T16:06:30.000Z</time>
      </trkpt>
      <trkpt lat="43.35554" lon="-1.55057">
        <ele>20</ele>
        <time>2026-08-23T16:06:38.000Z</time>
      </trkpt>
      <trkpt lat="43.35526" lon="-1.55055">
        <ele>20</ele>
        <time>2026-08-23T16:06:43.000Z</time>
      </trkpt>
      <trkpt lat="43.35483" lon="-1.55043">
        <ele>20</ele>
        <time>2026-08-23T16:06:50.000Z</time>
      </trkpt>
      <trkpt lat="43.35481" lon="-1.55042">
        <ele>20</ele>
        <time>2026-08-23T16:06:51.000Z</time>
      </trkpt>
      <trkpt lat="43.35471" lon="-1.5504">
        <ele>20</ele>
        <time>2026-08-23T16:06:53.000Z</time>
      </trkpt>
      <trkpt lat="43.3544" lon="-1.55031">
        <ele>19</ele>
        <time>2026-08-23T16:06:58.000Z</time>
      </trkpt>
      <trkpt lat="43.35434" lon="-1.55029">
        <ele>19</ele>
        <time>2026-08-23T16:06:59.000Z</time>
      </trkpt>
      <trkpt lat="43.3543" lon="-1.55028">
        <ele>19</ele>
        <time>2026-08-23T16:07:00.000Z</time>
      </trkpt>
      <trkpt lat="43.35421" lon="-1.55026">
        <ele>19</ele>
        <time>2026-08-23T16:07:02.000Z</time>
      </trkpt>
      <trkpt lat="43.35381" lon="-1.55014">
        <ele>19</ele>
        <time>2026-08-23T16:07:09.000Z</time>
      </trkpt>
      <trkpt lat="43.3537" lon="-1.55011">
        <ele>19</ele>
        <time>2026-08-23T16:07:11.000Z</time>
      </trkpt>
      <trkpt lat="43.35319" lon="-1.54996">
        <ele>19</ele>
        <time>2026-08-23T16:07:20.000Z</time>
      </trkpt>
      <trkpt lat="43.35315" lon="-1.54995">
        <ele>19</ele>
        <time>2026-08-23T16:07:21.000Z</time>
      </trkpt>
      <trkpt lat="43.35305" lon="-1.54992">
        <ele>19</ele>
        <time>2026-08-23T16:07:23.000Z</time>
      </trkpt>
      <trkpt lat="43.35286" lon="-1.54987">
        <ele>19</ele>
        <time>2026-08-23T16:07:26.000Z</time>
      </trkpt>
      <trkpt lat="43.35244" lon="-1.54978">
        <ele>18</ele>
        <time>2026-08-23T16:07:34.000Z</time>
      </trkpt>
      <trkpt lat="43.35231" lon="-1.54975">
        <ele>18</ele>
        <time>2026-08-23T16:07:36.000Z</time>
      </trkpt>
      <trkpt lat="43.35172" lon="-1.54957">
        <ele>18</ele>
        <time>2026-08-23T16:07:47.000Z</time>
      </trkpt>
      <trkpt lat="43.35151" lon="-1.54952">
        <ele>18</ele>
        <time>2026-08-23T16:07:51.000Z</time>
      </trkpt>
      <trkpt lat="43.35144" lon="-1.54952">
        <ele>18</ele>
        <time>2026-08-23T16:07:52.000Z</time>
      </trkpt>
      <trkpt lat="43.35133" lon="-1.54963">
        <ele>18</ele>
        <time>2026-08-23T16:07:54.000Z</time>
      </trkpt>
      <trkpt lat="43.35132" lon="-1.54973">
        <ele>18</ele>
        <time>2026-08-23T16:07:56.000Z</time>
      </trkpt>
      <trkpt lat="43.35129" lon="-1.54982">
        <ele>18</ele>
        <time>2026-08-23T16:07:57.000Z</time>
      </trkpt>
      <trkpt lat="43.35123" lon="-1.54989">
        <ele>18</ele>
        <time>2026-08-23T16:07:58.000Z</time>
      </trkpt>
      <trkpt lat="43.35117" lon="-1.54993">
        <ele>18</ele>
        <time>2026-08-23T16:07:59.000Z</time>
      </trkpt>
      <trkpt lat="43.35111" lon="-1.54994">
        <ele>18</ele>
        <time>2026-08-23T16:08:01.000Z</time>
      </trkpt>
      <trkpt lat="43.35105" lon="-1.54992">
        <ele>18</ele>
        <time>2026-08-23T16:08:02.000Z</time>
      </trkpt>
      <trkpt lat="43.35099" lon="-1.54988">
        <ele>18</ele>
        <time>2026-08-23T16:08:03.000Z</time>
      </trkpt>
      <trkpt lat="43.35091" lon="-1.54989">
        <ele>18</ele>
        <time>2026-08-23T16:08:04.000Z</time>
      </trkpt>
      <trkpt lat="43.35082" lon="-1.54991">
        <ele>18</ele>
        <time>2026-08-23T16:08:06.000Z</time>
      </trkpt>
      <trkpt lat="43.35073" lon="-1.54993">
        <ele>19</ele>
        <time>2026-08-23T16:08:07.000Z</time>
      </trkpt>
      <trkpt lat="43.35056" lon="-1.55008">
        <ele>20</ele>
        <time>2026-08-23T16:08:11.000Z</time>
      </trkpt>
      <trkpt lat="43.35004" lon="-1.55054">
        <ele>22</ele>
        <time>2026-08-23T16:08:22.000Z</time>
      </trkpt>
      <trkpt lat="43.34905" lon="-1.55138">
        <ele>22</ele>
        <time>2026-08-23T16:08:43.000Z</time>
      </trkpt>
      <trkpt lat="43.34876" lon="-1.55163">
        <ele>20</ele>
        <time>2026-08-23T16:08:49.000Z</time>
      </trkpt>
      <trkpt lat="43.34872" lon="-1.55169">
        <ele>20</ele>
        <time>2026-08-23T16:08:50.000Z</time>
      </trkpt>
      <trkpt lat="43.34869" lon="-1.55175">
        <ele>20</ele>
        <time>2026-08-23T16:08:51.000Z</time>
      </trkpt>
      <trkpt lat="43.34866" lon="-1.55185">
        <ele>20</ele>
        <time>2026-08-23T16:08:52.000Z</time>
      </trkpt>
      <trkpt lat="43.34859" lon="-1.55221">
        <ele>19</ele>
        <time>2026-08-23T16:08:57.000Z</time>
      </trkpt>
      <trkpt lat="43.34858" lon="-1.55229">
        <ele>19</ele>
        <time>2026-08-23T16:08:58.000Z</time>
      </trkpt>
      <trkpt lat="43.34853" lon="-1.55236">
        <ele>18</ele>
        <time>2026-08-23T16:08:59.000Z</time>
      </trkpt>
      <trkpt lat="43.34847" lon="-1.55241">
        <ele>18</ele>
        <time>2026-08-23T16:09:01.000Z</time>
      </trkpt>
      <trkpt lat="43.34834" lon="-1.55246">
        <ele>18</ele>
        <time>2026-08-23T16:09:03.000Z</time>
      </trkpt>
      <trkpt lat="43.34828" lon="-1.55246">
        <ele>18</ele>
        <time>2026-08-23T16:09:04.000Z</time>
      </trkpt>
      <trkpt lat="43.3482" lon="-1.55244">
        <ele>18</ele>
        <time>2026-08-23T16:09:06.000Z</time>
      </trkpt>
      <trkpt lat="43.34802" lon="-1.55235">
        <ele>19</ele>
        <time>2026-08-23T16:09:09.000Z</time>
      </trkpt>
      <trkpt lat="43.34792" lon="-1.55233">
        <ele>19</ele>
        <time>2026-08-23T16:09:11.000Z</time>
      </trkpt>
      <trkpt lat="43.34631" lon="-1.55217">
        <ele>19</ele>
        <time>2026-08-23T16:09:39.000Z</time>
      </trkpt>
      <trkpt lat="43.34598" lon="-1.55213">
        <ele>19</ele>
        <time>2026-08-23T16:09:45.000Z</time>
      </trkpt>
      <trkpt lat="43.34572" lon="-1.55204">
        <ele>19</ele>
        <time>2026-08-23T16:09:50.000Z</time>
      </trkpt>
      <trkpt lat="43.34562" lon="-1.55198">
        <ele>20</ele>
        <time>2026-08-23T16:09:52.000Z</time>
      </trkpt>
      <trkpt lat="43.34549" lon="-1.55188">
        <ele>20</ele>
        <time>2026-08-23T16:09:55.000Z</time>
      </trkpt>
      <trkpt lat="43.3449" lon="-1.55114">
        <ele>22</ele>
        <time>2026-08-23T16:10:09.000Z</time>
      </trkpt>
      <trkpt lat="43.34427" lon="-1.55028">
        <ele>23</ele>
        <time>2026-08-23T16:10:25.000Z</time>
      </trkpt>
      <trkpt lat="43.34419" lon="-1.55018">
        <ele>22</ele>
        <time>2026-08-23T16:10:27.000Z</time>
      </trkpt>
      <trkpt lat="43.34392" lon="-1.54981">
        <ele>24</ele>
        <time>2026-08-23T16:10:33.000Z</time>
      </trkpt>
      <trkpt lat="43.3434" lon="-1.5491">
        <ele>30</ele>
        <time>2026-08-23T16:10:46.000Z</time>
      </trkpt>
      <trkpt lat="43.34317" lon="-1.54885">
        <ele>30</ele>
        <time>2026-08-23T16:10:52.000Z</time>
      </trkpt>
      <trkpt lat="43.34293" lon="-1.5487">
        <ele>30</ele>
        <time>2026-08-23T16:10:56.000Z</time>
      </trkpt>
      <trkpt lat="43.34268" lon="-1.54861">
        <ele>31</ele>
        <time>2026-08-23T16:11:01.000Z</time>
      </trkpt>
      <trkpt lat="43.34263" lon="-1.54859">
        <ele>31</ele>
        <time>2026-08-23T16:11:02.000Z</time>
      </trkpt>
      <trkpt lat="43.34251" lon="-1.54858">
        <ele>31</ele>
        <time>2026-08-23T16:11:04.000Z</time>
      </trkpt>
      <trkpt lat="43.34238" lon="-1.54858">
        <ele>32</ele>
        <time>2026-08-23T16:11:06.000Z</time>
      </trkpt>
      <trkpt lat="43.34212" lon="-1.54862">
        <ele>33</ele>
        <time>2026-08-23T16:11:11.000Z</time>
      </trkpt>
      <trkpt lat="43.34204" lon="-1.54864">
        <ele>33</ele>
        <time>2026-08-23T16:11:12.000Z</time>
      </trkpt>
      <trkpt lat="43.3419" lon="-1.54871">
        <ele>34</ele>
        <time>2026-08-23T16:11:15.000Z</time>
      </trkpt>
      <trkpt lat="43.34186" lon="-1.54873">
        <ele>35</ele>
        <time>2026-08-23T16:11:16.000Z</time>
      </trkpt>
      <trkpt lat="43.34137" lon="-1.54903">
        <ele>37</ele>
        <time>2026-08-23T16:11:25.000Z</time>
      </trkpt>
      <trkpt lat="43.34099" lon="-1.54927">
        <ele>38</ele>
        <time>2026-08-23T16:11:33.000Z</time>
      </trkpt>
      <trkpt lat="43.34069" lon="-1.54946">
        <ele>39</ele>
        <time>2026-08-23T16:11:39.000Z</time>
      </trkpt>
      <trkpt lat="43.33954" lon="-1.55016">
        <ele>43</ele>
        <time>2026-08-23T16:12:01.000Z</time>
      </trkpt>
      <trkpt lat="43.33956" lon="-1.55021">
        <ele>44</ele>
        <time>2026-08-23T16:12:02.000Z</time>
      </trkpt>
      <trkpt lat="43.33918" lon="-1.55044">
        <ele>45</ele>
        <time>2026-08-23T16:12:09.000Z</time>
      </trkpt>
      <trkpt lat="43.33911" lon="-1.55047">
        <ele>45</ele>
        <time>2026-08-23T16:12:11.000Z</time>
      </trkpt>
      <trkpt lat="43.33897" lon="-1.55051">
        <ele>44</ele>
        <time>2026-08-23T16:12:13.000Z</time>
      </trkpt>
      <trkpt lat="43.33892" lon="-1.55051">
        <ele>43</ele>
        <time>2026-08-23T16:12:14.000Z</time>
      </trkpt>
      <trkpt lat="43.33882" lon="-1.55051">
        <ele>42</ele>
        <time>2026-08-23T16:12:16.000Z</time>
      </trkpt>
      <trkpt lat="43.33857" lon="-1.5504">
        <ele>40</ele>
        <time>2026-08-23T16:12:20.000Z</time>
      </trkpt>
      <trkpt lat="43.33827" lon="-1.55021">
        <ele>37</ele>
        <time>2026-08-23T16:12:26.000Z</time>
      </trkpt>
      <trkpt lat="43.33803" lon="-1.55003">
        <ele>35</ele>
        <time>2026-08-23T16:12:31.000Z</time>
      </trkpt>
      <trkpt lat="43.33758" lon="-1.54977">
        <ele>34</ele>
        <time>2026-08-23T16:12:40.000Z</time>
      </trkpt>
      <trkpt lat="43.33748" lon="-1.54971">
        <ele>33</ele>
        <time>2026-08-23T16:12:42.000Z</time>
      </trkpt>
      <trkpt lat="43.33692" lon="-1.54939">
        <ele>35</ele>
        <time>2026-08-23T16:12:53.000Z</time>
      </trkpt>
      <trkpt lat="43.33642" lon="-1.5492">
        <ele>36</ele>
        <time>2026-08-23T16:13:02.000Z</time>
      </trkpt>
      <trkpt lat="43.33611" lon="-1.54908">
        <ele>38</ele>
        <time>2026-08-23T16:13:08.000Z</time>
      </trkpt>
      <trkpt lat="43.33606" lon="-1.54906">
        <ele>38</ele>
        <time>2026-08-23T16:13:08.000Z</time>
      </trkpt>
      <trkpt lat="43.33606" lon="-1.54902">
        <ele>38</ele>
        <time>2026-08-23T16:13:09.000Z</time>
      </trkpt>
      <trkpt lat="43.33557" lon="-1.54877">
        <ele>37</ele>
        <time>2026-08-23T16:13:18.000Z</time>
      </trkpt>
      <trkpt lat="43.33544" lon="-1.54871">
        <ele>36</ele>
        <time>2026-08-23T16:13:21.000Z</time>
      </trkpt>
      <trkpt lat="43.33532" lon="-1.54865">
        <ele>36</ele>
        <time>2026-08-23T16:13:23.000Z</time>
      </trkpt>
      <trkpt lat="43.335" lon="-1.54853">
        <ele>35</ele>
        <time>2026-08-23T16:13:29.000Z</time>
      </trkpt>
      <trkpt lat="43.33477" lon="-1.54844">
        <ele>35</ele>
        <time>2026-08-23T16:13:33.000Z</time>
      </trkpt>
      <trkpt lat="43.33452" lon="-1.54834">
        <ele>35</ele>
        <time>2026-08-23T16:13:38.000Z</time>
      </trkpt>
      <trkpt lat="43.33398" lon="-1.54822">
        <ele>36</ele>
        <time>2026-08-23T16:13:48.000Z</time>
      </trkpt>
      <trkpt lat="43.33337" lon="-1.54808">
        <ele>40</ele>
        <time>2026-08-23T16:13:59.000Z</time>
      </trkpt>
      <trkpt lat="43.33317" lon="-1.54798">
        <ele>42</ele>
        <time>2026-08-23T16:14:02.000Z</time>
      </trkpt>
      <trkpt lat="43.33231" lon="-1.5472">
        <ele>41</ele>
        <time>2026-08-23T16:14:21.000Z</time>
      </trkpt>
      <trkpt lat="43.33227" lon="-1.54715">
        <ele>40</ele>
        <time>2026-08-23T16:14:22.000Z</time>
      </trkpt>
      <trkpt lat="43.3321" lon="-1.54694">
        <ele>39</ele>
        <time>2026-08-23T16:14:26.000Z</time>
      </trkpt>
      <trkpt lat="43.33202" lon="-1.54683">
        <ele>38</ele>
        <time>2026-08-23T16:14:28.000Z</time>
      </trkpt>
      <trkpt lat="43.33193" lon="-1.54663">
        <ele>37</ele>
        <time>2026-08-23T16:14:31.000Z</time>
      </trkpt>
      <trkpt lat="43.33176" lon="-1.54607">
        <ele>36</ele>
        <time>2026-08-23T16:14:39.000Z</time>
      </trkpt>
      <trkpt lat="43.3317" lon="-1.54592">
        <ele>35</ele>
        <time>2026-08-23T16:14:41.000Z</time>
      </trkpt>
      <trkpt lat="43.33146" lon="-1.54555">
        <ele>34</ele>
        <time>2026-08-23T16:14:47.000Z</time>
      </trkpt>
      <trkpt lat="43.33133" lon="-1.54539">
        <ele>34</ele>
        <time>2026-08-23T16:14:50.000Z</time>
      </trkpt>
      <trkpt lat="43.33101" lon="-1.545">
        <ele>33</ele>
        <time>2026-08-23T16:14:58.000Z</time>
      </trkpt>
      <trkpt lat="43.3308" lon="-1.54477">
        <ele>32</ele>
        <time>2026-08-23T16:15:03.000Z</time>
      </trkpt>
      <trkpt lat="43.33057" lon="-1.54453">
        <ele>32</ele>
        <time>2026-08-23T16:15:08.000Z</time>
      </trkpt>
      <trkpt lat="43.33043" lon="-1.54444">
        <ele>31</ele>
        <time>2026-08-23T16:15:11.000Z</time>
      </trkpt>
      <trkpt lat="43.33034" lon="-1.5444">
        <ele>31</ele>
        <time>2026-08-23T16:15:12.000Z</time>
      </trkpt>
      <trkpt lat="43.33015" lon="-1.54435">
        <ele>31</ele>
        <time>2026-08-23T16:15:16.000Z</time>
      </trkpt>
      <trkpt lat="43.32993" lon="-1.54436">
        <ele>31</ele>
        <time>2026-08-23T16:15:20.000Z</time>
      </trkpt>
      <trkpt lat="43.32973" lon="-1.54444">
        <ele>31</ele>
        <time>2026-08-23T16:15:23.000Z</time>
      </trkpt>
      <trkpt lat="43.32944" lon="-1.54462">
        <ele>32</ele>
        <time>2026-08-23T16:15:29.000Z</time>
      </trkpt>
      <trkpt lat="43.32897" lon="-1.54492">
        <ele>33</ele>
        <time>2026-08-23T16:15:38.000Z</time>
      </trkpt>
      <trkpt lat="43.32877" lon="-1.54504">
        <ele>34</ele>
        <time>2026-08-23T16:15:42.000Z</time>
      </trkpt>
      <trkpt lat="43.32847" lon="-1.54526">
        <ele>37</ele>
        <time>2026-08-23T16:15:48.000Z</time>
      </trkpt>
      <trkpt lat="43.32711" lon="-1.54661">
        <ele>41</ele>
        <time>2026-08-23T16:16:18.000Z</time>
      </trkpt>
      <trkpt lat="43.32637" lon="-1.54734">
        <ele>35</ele>
        <time>2026-08-23T16:16:34.000Z</time>
      </trkpt>
      <trkpt lat="43.32565" lon="-1.54805">
        <ele>36</ele>
        <time>2026-08-23T16:16:50.000Z</time>
      </trkpt>
      <trkpt lat="43.32482" lon="-1.54877">
        <ele>34</ele>
        <time>2026-08-23T16:17:07.000Z</time>
      </trkpt>
      <trkpt lat="43.32464" lon="-1.54892">
        <ele>34</ele>
        <time>2026-08-23T16:17:11.000Z</time>
      </trkpt>
      <trkpt lat="43.32445" lon="-1.54903">
        <ele>34</ele>
        <time>2026-08-23T16:17:15.000Z</time>
      </trkpt>
      <trkpt lat="43.32378" lon="-1.54932">
        <ele>32</ele>
        <time>2026-08-23T16:17:27.000Z</time>
      </trkpt>
      <trkpt lat="43.32325" lon="-1.54955">
        <ele>30</ele>
        <time>2026-08-23T16:17:37.000Z</time>
      </trkpt>
      <trkpt lat="43.32246" lon="-1.54991">
        <ele>30</ele>
        <time>2026-08-23T16:17:52.000Z</time>
      </trkpt>
      <trkpt lat="43.32183" lon="-1.55023">
        <ele>30</ele>
        <time>2026-08-23T16:18:04.000Z</time>
      </trkpt>
      <trkpt lat="43.32154" lon="-1.55041">
        <ele>31</ele>
        <time>2026-08-23T16:18:10.000Z</time>
      </trkpt>
      <trkpt lat="43.32154" lon="-1.55045">
        <ele>31</ele>
        <time>2026-08-23T16:18:10.000Z</time>
      </trkpt>
      <trkpt lat="43.32153" lon="-1.55049">
        <ele>31</ele>
        <time>2026-08-23T16:18:11.000Z</time>
      </trkpt>
      <trkpt lat="43.32151" lon="-1.55052">
        <ele>31</ele>
        <time>2026-08-23T16:18:11.000Z</time>
      </trkpt>
      <trkpt lat="43.32149" lon="-1.55055">
        <ele>31</ele>
        <time>2026-08-23T16:18:12.000Z</time>
      </trkpt>
      <trkpt lat="43.32146" lon="-1.55056">
        <ele>31</ele>
        <time>2026-08-23T16:18:12.000Z</time>
      </trkpt>
      <trkpt lat="43.32143" lon="-1.55056">
        <ele>31</ele>
        <time>2026-08-23T16:18:13.000Z</time>
      </trkpt>
      <trkpt lat="43.32141" lon="-1.55068">
        <ele>31</ele>
        <time>2026-08-23T16:18:14.000Z</time>
      </trkpt>
      <trkpt lat="43.32129" lon="-1.55119">
        <ele>31</ele>
        <time>2026-08-23T16:18:21.000Z</time>
      </trkpt>
      <trkpt lat="43.32111" lon="-1.55192">
        <ele>31</ele>
        <time>2026-08-23T16:18:31.000Z</time>
      </trkpt>
      <trkpt lat="43.32091" lon="-1.55273">
        <ele>33</ele>
        <time>2026-08-23T16:18:42.000Z</time>
      </trkpt>
      <trkpt lat="43.32079" lon="-1.55311">
        <ele>33</ele>
        <time>2026-08-23T16:18:48.000Z</time>
      </trkpt>
      <trkpt lat="43.32072" lon="-1.55326">
        <ele>34</ele>
        <time>2026-08-23T16:18:50.000Z</time>
      </trkpt>
      <trkpt lat="43.32065" lon="-1.55337">
        <ele>34</ele>
        <time>2026-08-23T16:18:52.000Z</time>
      </trkpt>
      <trkpt lat="43.32054" lon="-1.5535">
        <ele>34</ele>
        <time>2026-08-23T16:18:55.000Z</time>
      </trkpt>
      <trkpt lat="43.3203" lon="-1.55373">
        <ele>34</ele>
        <time>2026-08-23T16:19:00.000Z</time>
      </trkpt>
      <trkpt lat="43.32008" lon="-1.55395">
        <ele>35</ele>
        <time>2026-08-23T16:19:05.000Z</time>
      </trkpt>
      <trkpt lat="43.32004" lon="-1.55401">
        <ele>35</ele>
        <time>2026-08-23T16:19:06.000Z</time>
      </trkpt>
      <trkpt lat="43.31996" lon="-1.55416">
        <ele>35</ele>
        <time>2026-08-23T16:19:08.000Z</time>
      </trkpt>
      <trkpt lat="43.3199" lon="-1.55439">
        <ele>35</ele>
        <time>2026-08-23T16:19:11.000Z</time>
      </trkpt>
      <trkpt lat="43.31976" lon="-1.5551">
        <ele>36</ele>
        <time>2026-08-23T16:19:21.000Z</time>
      </trkpt>
      <trkpt lat="43.31947" lon="-1.55635">
        <ele>40</ele>
        <time>2026-08-23T16:19:38.000Z</time>
      </trkpt>
      <trkpt lat="43.31941" lon="-1.55652">
        <ele>41</ele>
        <time>2026-08-23T16:19:40.000Z</time>
      </trkpt>
      <trkpt lat="43.31936" lon="-1.55664">
        <ele>41</ele>
        <time>2026-08-23T16:19:42.000Z</time>
      </trkpt>
      <trkpt lat="43.31921" lon="-1.55689">
        <ele>43</ele>
        <time>2026-08-23T16:19:46.000Z</time>
      </trkpt>
      <trkpt lat="43.31881" lon="-1.5574">
        <ele>45</ele>
        <time>2026-08-23T16:19:56.000Z</time>
      </trkpt>
      <trkpt lat="43.31864" lon="-1.55763">
        <ele>46</ele>
        <time>2026-08-23T16:20:00.000Z</time>
      </trkpt>
      <trkpt lat="43.31855" lon="-1.55778">
        <ele>46</ele>
        <time>2026-08-23T16:20:03.000Z</time>
      </trkpt>
      <trkpt lat="43.31837" lon="-1.5581">
        <ele>46</ele>
        <time>2026-08-23T16:20:08.000Z</time>
      </trkpt>
      <trkpt lat="43.3181" lon="-1.55859">
        <ele>48</ele>
        <time>2026-08-23T16:20:16.000Z</time>
      </trkpt>
      <trkpt lat="43.31796" lon="-1.5588">
        <ele>50</ele>
        <time>2026-08-23T16:20:20.000Z</time>
      </trkpt>
      <trkpt lat="43.31774" lon="-1.55909">
        <ele>50</ele>
        <time>2026-08-23T16:20:25.000Z</time>
      </trkpt>
      <trkpt lat="43.31767" lon="-1.55923">
        <ele>50</ele>
        <time>2026-08-23T16:20:27.000Z</time>
      </trkpt>
      <trkpt lat="43.31764" lon="-1.55932">
        <ele>51</ele>
        <time>2026-08-23T16:20:28.000Z</time>
      </trkpt>
      <trkpt lat="43.31756" lon="-1.55967">
        <ele>52</ele>
        <time>2026-08-23T16:20:33.000Z</time>
      </trkpt>
      <trkpt lat="43.31754" lon="-1.55974">
        <ele>52</ele>
        <time>2026-08-23T16:20:34.000Z</time>
      </trkpt>
      <trkpt lat="43.31749" lon="-1.55985">
        <ele>52</ele>
        <time>2026-08-23T16:20:36.000Z</time>
      </trkpt>
      <trkpt lat="43.31745" lon="-1.55991">
        <ele>53</ele>
        <time>2026-08-23T16:20:37.000Z</time>
      </trkpt>
      <trkpt lat="43.31736" lon="-1.56002">
        <ele>53</ele>
        <time>2026-08-23T16:20:39.000Z</time>
      </trkpt>
      <trkpt lat="43.31702" lon="-1.56036">
        <ele>55</ele>
        <time>2026-08-23T16:20:47.000Z</time>
      </trkpt>
      <trkpt lat="43.31663" lon="-1.56078">
        <ele>57</ele>
        <time>2026-08-23T16:20:55.000Z</time>
      </trkpt>
      <trkpt lat="43.31655" lon="-1.56087">
        <ele>56</ele>
        <time>2026-08-23T16:20:57.000Z</time>
      </trkpt>
      <trkpt lat="43.31655" lon="-1.56096">
        <ele>56</ele>
        <time>2026-08-23T16:20:58.000Z</time>
      </trkpt>
      <trkpt lat="43.31643" lon="-1.5613">
        <ele>56</ele>
        <time>2026-08-23T16:21:03.000Z</time>
      </trkpt>
      <trkpt lat="43.31594" lon="-1.56278">
        <ele>59</ele>
        <time>2026-08-23T16:21:24.000Z</time>
      </trkpt>
      <trkpt lat="43.31538" lon="-1.56405">
        <ele>59</ele>
        <time>2026-08-23T16:21:44.000Z</time>
      </trkpt>
      <trkpt lat="43.31529" lon="-1.56433">
        <ele>60</ele>
        <time>2026-08-23T16:21:47.000Z</time>
      </trkpt>
      <trkpt lat="43.31526" lon="-1.56447">
        <ele>61</ele>
        <time>2026-08-23T16:21:49.000Z</time>
      </trkpt>
      <trkpt lat="43.3151" lon="-1.5652">
        <ele>61</ele>
        <time>2026-08-23T16:21:59.000Z</time>
      </trkpt>
      <trkpt lat="43.31502" lon="-1.56548">
        <ele>60</ele>
        <time>2026-08-23T16:22:03.000Z</time>
      </trkpt>
      <trkpt lat="43.31488" lon="-1.56588">
        <ele>59</ele>
        <time>2026-08-23T16:22:09.000Z</time>
      </trkpt>
      <trkpt lat="43.31463" lon="-1.56649">
        <ele>60</ele>
        <time>2026-08-23T16:22:18.000Z</time>
      </trkpt>
      <trkpt lat="43.31442" lon="-1.56698">
        <ele>64</ele>
        <time>2026-08-23T16:22:25.000Z</time>
      </trkpt>
      <trkpt lat="43.31431" lon="-1.5672">
        <ele>67</ele>
        <time>2026-08-23T16:22:29.000Z</time>
      </trkpt>
      <trkpt lat="43.31419" lon="-1.56737">
        <ele>68</ele>
        <time>2026-08-23T16:22:32.000Z</time>
      </trkpt>
      <trkpt lat="43.3141" lon="-1.56743">
        <ele>69</ele>
        <time>2026-08-23T16:22:34.000Z</time>
      </trkpt>
      <trkpt lat="43.314" lon="-1.56745">
        <ele>69</ele>
        <time>2026-08-23T16:22:35.000Z</time>
      </trkpt>
      <trkpt lat="43.31393" lon="-1.56744">
        <ele>70</ele>
        <time>2026-08-23T16:22:37.000Z</time>
      </trkpt>
      <trkpt lat="43.31385" lon="-1.56734">
        <ele>69</ele>
        <time>2026-08-23T16:22:39.000Z</time>
      </trkpt>
      <trkpt lat="43.31378" lon="-1.56731">
        <ele>70</ele>
        <time>2026-08-23T16:22:40.000Z</time>
      </trkpt>
      <trkpt lat="43.31372" lon="-1.56728">
        <ele>70</ele>
        <time>2026-08-23T16:22:41.000Z</time>
      </trkpt>
      <trkpt lat="43.31347" lon="-1.56722">
        <ele>70</ele>
        <time>2026-08-23T16:22:46.000Z</time>
      </trkpt>
      <trkpt lat="43.31318" lon="-1.56719">
        <ele>70</ele>
        <time>2026-08-23T16:22:51.000Z</time>
      </trkpt>
      <trkpt lat="43.31301" lon="-1.56728">
        <ele>70</ele>
        <time>2026-08-23T16:22:54.000Z</time>
      </trkpt>
      <trkpt lat="43.31299" lon="-1.5673">
        <ele>70</ele>
        <time>2026-08-23T16:22:54.000Z</time>
      </trkpt>
      <trkpt lat="43.31276" lon="-1.56758">
        <ele>71</ele>
        <time>2026-08-23T16:23:00.000Z</time>
      </trkpt>
      <trkpt lat="43.31228" lon="-1.5682">
        <ele>70</ele>
        <time>2026-08-23T16:23:12.000Z</time>
      </trkpt>
      <trkpt lat="43.31174" lon="-1.56888">
        <ele>70</ele>
        <time>2026-08-23T16:23:25.000Z</time>
      </trkpt>
      <trkpt lat="43.31137" lon="-1.56937">
        <ele>68</ele>
        <time>2026-08-23T16:23:34.000Z</time>
      </trkpt>
      <trkpt lat="43.31105" lon="-1.56973">
        <ele>65</ele>
        <time>2026-08-23T16:23:41.000Z</time>
      </trkpt>
      <trkpt lat="43.31087" lon="-1.56989">
        <ele>63</ele>
        <time>2026-08-23T16:23:45.000Z</time>
      </trkpt>
      <trkpt lat="43.31057" lon="-1.57008">
        <ele>59</ele>
        <time>2026-08-23T16:23:51.000Z</time>
      </trkpt>
      <trkpt lat="43.31037" lon="-1.5702">
        <ele>56</ele>
        <time>2026-08-23T16:23:55.000Z</time>
      </trkpt>
      <trkpt lat="43.31019" lon="-1.57039">
        <ele>53</ele>
        <time>2026-08-23T16:23:59.000Z</time>
      </trkpt>
      <trkpt lat="43.31011" lon="-1.57051">
        <ele>52</ele>
        <time>2026-08-23T16:24:01.000Z</time>
      </trkpt>
      <trkpt lat="43.31003" lon="-1.57079">
        <ele>50</ele>
        <time>2026-08-23T16:24:05.000Z</time>
      </trkpt>
      <trkpt lat="43.3099" lon="-1.57133">
        <ele>48</ele>
        <time>2026-08-23T16:24:12.000Z</time>
      </trkpt>
      <trkpt lat="43.30987" lon="-1.57137">
        <ele>48</ele>
        <time>2026-08-23T16:24:13.000Z</time>
      </trkpt>
      <trkpt lat="43.30984" lon="-1.57153">
        <ele>48</ele>
        <time>2026-08-23T16:24:15.000Z</time>
      </trkpt>
      <trkpt lat="43.3098" lon="-1.57165">
        <ele>47</ele>
        <time>2026-08-23T16:24:17.000Z</time>
      </trkpt>
      <trkpt lat="43.30969" lon="-1.57201">
        <ele>47</ele>
        <time>2026-08-23T16:24:22.000Z</time>
      </trkpt>
      <trkpt lat="43.30967" lon="-1.57218">
        <ele>47</ele>
        <time>2026-08-23T16:24:24.000Z</time>
      </trkpt>
      <trkpt lat="43.30968" lon="-1.57222">
        <ele>47</ele>
        <time>2026-08-23T16:24:25.000Z</time>
      </trkpt>
      <trkpt lat="43.30971" lon="-1.57224">
        <ele>47</ele>
        <time>2026-08-23T16:24:25.000Z</time>
      </trkpt>
      <trkpt lat="43.30977" lon="-1.57229">
        <ele>48</ele>
        <time>2026-08-23T16:24:26.000Z</time>
      </trkpt>
      <trkpt lat="43.30966" lon="-1.57231">
        <ele>47</ele>
        <time>2026-08-23T16:24:28.000Z</time>
      </trkpt>
      <trkpt lat="43.30962" lon="-1.57234">
        <ele>47</ele>
        <time>2026-08-23T16:24:29.000Z</time>
      </trkpt>
      <trkpt lat="43.3096" lon="-1.57235">
        <ele>47</ele>
        <time>2026-08-23T16:24:30.000Z</time>
      </trkpt>
      <trkpt lat="43.30957" lon="-1.57233">
        <ele>47</ele>
        <time>2026-08-23T16:24:30.000Z</time>
      </trkpt>
      <trkpt lat="43.30943" lon="-1.57238">
        <ele>47</ele>
        <time>2026-08-23T16:24:33.000Z</time>
      </trkpt>
      <trkpt lat="43.30928" lon="-1.57246">
        <ele>47</ele>
        <time>2026-08-23T16:24:36.000Z</time>
      </trkpt>
      <trkpt lat="43.309" lon="-1.57259">
        <ele>48</ele>
        <time>2026-08-23T16:24:41.000Z</time>
      </trkpt>
      <trkpt lat="43.30875" lon="-1.57269">
        <ele>48</ele>
        <time>2026-08-23T16:24:45.000Z</time>
      </trkpt>
      <trkpt lat="43.30865" lon="-1.57271">
        <ele>48</ele>
        <time>2026-08-23T16:24:47.000Z</time>
      </trkpt>
      <trkpt lat="43.30804" lon="-1.57266">
        <ele>48</ele>
        <time>2026-08-23T16:24:58.000Z</time>
      </trkpt>
      <trkpt lat="43.30792" lon="-1.57266">
        <ele>48</ele>
        <time>2026-08-23T16:25:00.000Z</time>
      </trkpt>
      <trkpt lat="43.30782" lon="-1.57266">
        <ele>48</ele>
        <time>2026-08-23T16:25:02.000Z</time>
      </trkpt>
      <trkpt lat="43.30742" lon="-1.57272">
        <ele>48</ele>
        <time>2026-08-23T16:25:09.000Z</time>
      </trkpt>
      <trkpt lat="43.30737" lon="-1.57272">
        <ele>48</ele>
        <time>2026-08-23T16:25:10.000Z</time>
      </trkpt>
      <trkpt lat="43.3073" lon="-1.57271">
        <ele>47</ele>
        <time>2026-08-23T16:25:11.000Z</time>
      </trkpt>
      <trkpt lat="43.3072" lon="-1.57269">
        <ele>47</ele>
        <time>2026-08-23T16:25:13.000Z</time>
      </trkpt>
      <trkpt lat="43.30678" lon="-1.57247">
        <ele>45</ele>
        <time>2026-08-23T16:25:21.000Z</time>
      </trkpt>
      <trkpt lat="43.30653" lon="-1.57241">
        <ele>45</ele>
        <time>2026-08-23T16:25:26.000Z</time>
      </trkpt>
      <trkpt lat="43.30624" lon="-1.57238">
        <ele>45</ele>
        <time>2026-08-23T16:25:31.000Z</time>
      </trkpt>
      <trkpt lat="43.30598" lon="-1.57239">
        <ele>45</ele>
        <time>2026-08-23T16:25:35.000Z</time>
      </trkpt>
      <trkpt lat="43.30588" lon="-1.57241">
        <ele>45</ele>
        <time>2026-08-23T16:25:37.000Z</time>
      </trkpt>
      <trkpt lat="43.3058" lon="-1.57245">
        <ele>45</ele>
        <time>2026-08-23T16:25:39.000Z</time>
      </trkpt>
      <trkpt lat="43.30568" lon="-1.57251">
        <ele>45</ele>
        <time>2026-08-23T16:25:41.000Z</time>
      </trkpt>
      <trkpt lat="43.30548" lon="-1.57262">
        <ele>47</ele>
        <time>2026-08-23T16:25:45.000Z</time>
      </trkpt>
      <trkpt lat="43.30521" lon="-1.57274">
        <ele>49</ele>
        <time>2026-08-23T16:25:50.000Z</time>
      </trkpt>
      <trkpt lat="43.30512" lon="-1.57279">
        <ele>49</ele>
        <time>2026-08-23T16:25:52.000Z</time>
      </trkpt>
      <trkpt lat="43.30479" lon="-1.57306">
        <ele>50</ele>
        <time>2026-08-23T16:25:58.000Z</time>
      </trkpt>
      <trkpt lat="43.30417" lon="-1.57342">
        <ele>48</ele>
        <time>2026-08-23T16:26:10.000Z</time>
      </trkpt>
      <trkpt lat="43.30399" lon="-1.57355">
        <ele>49</ele>
        <time>2026-08-23T16:26:14.000Z</time>
      </trkpt>
      <trkpt lat="43.30368" lon="-1.57387">
        <ele>52</ele>
        <time>2026-08-23T16:26:21.000Z</time>
      </trkpt>
      <trkpt lat="43.30353" lon="-1.57405">
        <ele>53</ele>
        <time>2026-08-23T16:26:25.000Z</time>
      </trkpt>
      <trkpt lat="43.30329" lon="-1.57433">
        <ele>53</ele>
        <time>2026-08-23T16:26:30.000Z</time>
      </trkpt>
      <trkpt lat="43.30308" lon="-1.57453">
        <ele>53</ele>
        <time>2026-08-23T16:26:35.000Z</time>
      </trkpt>
      <trkpt lat="43.30299" lon="-1.57456">
        <ele>52</ele>
        <time>2026-08-23T16:26:36.000Z</time>
      </trkpt>
      <trkpt lat="43.30262" lon="-1.57461">
        <ele>50</ele>
        <time>2026-08-23T16:26:43.000Z</time>
      </trkpt>
      <trkpt lat="43.3026" lon="-1.57461">
        <ele>50</ele>
        <time>2026-08-23T16:26:43.000Z</time>
      </trkpt>
      <trkpt lat="43.30257" lon="-1.57461">
        <ele>50</ele>
        <time>2026-08-23T16:26:44.000Z</time>
      </trkpt>
      <trkpt lat="43.30248" lon="-1.5746">
        <ele>50</ele>
        <time>2026-08-23T16:26:45.000Z</time>
      </trkpt>
      <trkpt lat="43.30248" lon="-1.57467">
        <ele>50</ele>
        <time>2026-08-23T16:26:46.000Z</time>
      </trkpt>
      <trkpt lat="43.30248" lon="-1.57481">
        <ele>50</ele>
        <time>2026-08-23T16:26:48.000Z</time>
      </trkpt>
      <trkpt lat="43.30251" lon="-1.57501">
        <ele>50</ele>
        <time>2026-08-23T16:26:51.000Z</time>
      </trkpt>
      <trkpt lat="43.30262" lon="-1.57558">
        <ele>52</ele>
        <time>2026-08-23T16:26:58.000Z</time>
      </trkpt>
      <trkpt lat="43.30285" lon="-1.57626">
        <ele>55</ele>
        <time>2026-08-23T16:27:08.000Z</time>
      </trkpt>
      <trkpt lat="43.30301" lon="-1.57653">
        <ele>56</ele>
        <time>2026-08-23T16:27:13.000Z</time>
      </trkpt>
      <trkpt lat="43.30325" lon="-1.57676">
        <ele>59</ele>
        <time>2026-08-23T16:27:18.000Z</time>
      </trkpt>
      <trkpt lat="43.30335" lon="-1.57696">
        <ele>62</ele>
        <time>2026-08-23T16:27:21.000Z</time>
      </trkpt>
      <trkpt lat="43.3034" lon="-1.57725">
        <ele>65</ele>
        <time>2026-08-23T16:27:25.000Z</time>
      </trkpt>
      <trkpt lat="43.30347" lon="-1.57791">
        <ele>68</ele>
        <time>2026-08-23T16:27:33.000Z</time>
      </trkpt>
      <trkpt lat="43.30354" lon="-1.57815">
        <ele>69</ele>
        <time>2026-08-23T16:27:37.000Z</time>
      </trkpt>
      <trkpt lat="43.30368" lon="-1.57839">
        <ele>70</ele>
        <time>2026-08-23T16:27:41.000Z</time>
      </trkpt>
      <trkpt lat="43.3041" lon="-1.57884">
        <ele>73</ele>
        <time>2026-08-23T16:27:50.000Z</time>
      </trkpt>
      <trkpt lat="43.30432" lon="-1.57904">
        <ele>75</ele>
        <time>2026-08-23T16:27:55.000Z</time>
      </trkpt>
      <trkpt lat="43.30473" lon="-1.57948">
        <ele>78</ele>
        <time>2026-08-23T16:28:04.000Z</time>
      </trkpt>
      <trkpt lat="43.30488" lon="-1.57969">
        <ele>79</ele>
        <time>2026-08-23T16:28:08.000Z</time>
      </trkpt>
      <trkpt lat="43.3051" lon="-1.5801">
        <ele>80</ele>
        <time>2026-08-23T16:28:15.000Z</time>
      </trkpt>
      <trkpt lat="43.30522" lon="-1.58035">
        <ele>82</ele>
        <time>2026-08-23T16:28:19.000Z</time>
      </trkpt>
      <trkpt lat="43.30545" lon="-1.58064">
        <ele>84</ele>
        <time>2026-08-23T16:28:24.000Z</time>
      </trkpt>
      <trkpt lat="43.30575" lon="-1.58092">
        <ele>85</ele>
        <time>2026-08-23T16:28:31.000Z</time>
      </trkpt>
      <trkpt lat="43.30556" lon="-1.58161">
        <ele>85</ele>
        <time>2026-08-23T16:28:40.000Z</time>
      </trkpt>
      <trkpt lat="43.30546" lon="-1.5819">
        <ele>85</ele>
        <time>2026-08-23T16:28:44.000Z</time>
      </trkpt>
      <trkpt lat="43.3052" lon="-1.58246">
        <ele>87</ele>
        <time>2026-08-23T16:28:53.000Z</time>
      </trkpt>
      <trkpt lat="43.30487" lon="-1.58301">
        <ele>89</ele>
        <time>2026-08-23T16:29:02.000Z</time>
      </trkpt>
      <trkpt lat="43.3047" lon="-1.58335">
        <ele>89</ele>
        <time>2026-08-23T16:29:07.000Z</time>
      </trkpt>
      <trkpt lat="43.30454" lon="-1.58371">
        <ele>90</ele>
        <time>2026-08-23T16:29:13.000Z</time>
      </trkpt>
      <trkpt lat="43.30442" lon="-1.58397">
        <ele>91</ele>
        <time>2026-08-23T16:29:17.000Z</time>
      </trkpt>
      <trkpt lat="43.30437" lon="-1.58413">
        <ele>92</ele>
        <time>2026-08-23T16:29:19.000Z</time>
      </trkpt>
      <trkpt lat="43.30436" lon="-1.58416">
        <ele>92</ele>
        <time>2026-08-23T16:29:20.000Z</time>
      </trkpt>
      <trkpt lat="43.30418" lon="-1.58479">
        <ele>93</ele>
        <time>2026-08-23T16:29:28.000Z</time>
      </trkpt>
      <trkpt lat="43.30397" lon="-1.58569">
        <ele>93</ele>
        <time>2026-08-23T16:29:41.000Z</time>
      </trkpt>
      <trkpt lat="43.3039" lon="-1.58587">
        <ele>93</ele>
        <time>2026-08-23T16:29:43.000Z</time>
      </trkpt>
      <trkpt lat="43.30385" lon="-1.58597">
        <ele>92</ele>
        <time>2026-08-23T16:29:45.000Z</time>
      </trkpt>
      <trkpt lat="43.30359" lon="-1.58628">
        <ele>92</ele>
        <time>2026-08-23T16:29:51.000Z</time>
      </trkpt>
      <trkpt lat="43.30333" lon="-1.58638">
        <ele>93</ele>
        <time>2026-08-23T16:29:56.000Z</time>
      </trkpt>
      <trkpt lat="43.30327" lon="-1.58653">
        <ele>92</ele>
        <time>2026-08-23T16:29:58.000Z</time>
      </trkpt>
      <trkpt lat="43.30308" lon="-1.58693">
        <ele>91</ele>
        <time>2026-08-23T16:30:04.000Z</time>
      </trkpt>
      <trkpt lat="43.30297" lon="-1.58705">
        <ele>91</ele>
        <time>2026-08-23T16:30:07.000Z</time>
      </trkpt>
      <trkpt lat="43.30284" lon="-1.5872">
        <ele>91</ele>
        <time>2026-08-23T16:30:10.000Z</time>
      </trkpt>
      <trkpt lat="43.3026" lon="-1.58746">
        <ele>92</ele>
        <time>2026-08-23T16:30:15.000Z</time>
      </trkpt>
      <trkpt lat="43.3022" lon="-1.58791">
        <ele>94</ele>
        <time>2026-08-23T16:30:24.000Z</time>
      </trkpt>
      <trkpt lat="43.30214" lon="-1.588">
        <ele>94</ele>
        <time>2026-08-23T16:30:26.000Z</time>
      </trkpt>
      <trkpt lat="43.30207" lon="-1.58817">
        <ele>95</ele>
        <time>2026-08-23T16:30:28.000Z</time>
      </trkpt>
      <trkpt lat="43.30203" lon="-1.58832">
        <ele>96</ele>
        <time>2026-08-23T16:30:30.000Z</time>
      </trkpt>
      <trkpt lat="43.30199" lon="-1.58869">
        <ele>98</ele>
        <time>2026-08-23T16:30:35.000Z</time>
      </trkpt>
      <trkpt lat="43.30188" lon="-1.58929">
        <ele>101</ele>
        <time>2026-08-23T16:30:43.000Z</time>
      </trkpt>
      <trkpt lat="43.30169" lon="-1.58991">
        <ele>103</ele>
        <time>2026-08-23T16:30:52.000Z</time>
      </trkpt>
      <trkpt lat="43.30157" lon="-1.59016">
        <ele>103</ele>
        <time>2026-08-23T16:30:56.000Z</time>
      </trkpt>
      <trkpt lat="43.30146" lon="-1.59028">
        <ele>103</ele>
        <time>2026-08-23T16:30:58.000Z</time>
      </trkpt>
      <trkpt lat="43.3014" lon="-1.59034">
        <ele>103</ele>
        <time>2026-08-23T16:31:00.000Z</time>
      </trkpt>
      <trkpt lat="43.3013" lon="-1.5904">
        <ele>103</ele>
        <time>2026-08-23T16:31:02.000Z</time>
      </trkpt>
      <trkpt lat="43.30118" lon="-1.59047">
        <ele>103</ele>
        <time>2026-08-23T16:31:04.000Z</time>
      </trkpt>
      <trkpt lat="43.30112" lon="-1.59051">
        <ele>103</ele>
        <time>2026-08-23T16:31:05.000Z</time>
      </trkpt>
      <trkpt lat="43.3011" lon="-1.59049">
        <ele>103</ele>
        <time>2026-08-23T16:31:06.000Z</time>
      </trkpt>
      <trkpt lat="43.30112" lon="-1.59051">
        <ele>103</ele>
        <time>2026-08-23T16:31:06.000Z</time>
      </trkpt>
      <trkpt lat="43.3015" lon="-1.59094">
        <ele>103</ele>
        <time>2026-08-23T16:31:15.000Z</time>
      </trkpt>
      <trkpt lat="43.30164" lon="-1.59115">
        <ele>103</ele>
        <time>2026-08-23T16:31:18.000Z</time>
      </trkpt>
      <trkpt lat="43.302" lon="-1.59173">
        <ele>101</ele>
        <time>2026-08-23T16:31:28.000Z</time>
      </trkpt>
      <trkpt lat="43.30219" lon="-1.59207">
        <ele>101</ele>
        <time>2026-08-23T16:31:34.000Z</time>
      </trkpt>
      <trkpt lat="43.30234" lon="-1.59236">
        <ele>101</ele>
        <time>2026-08-23T16:31:38.000Z</time>
      </trkpt>
      <trkpt lat="43.30246" lon="-1.59252">
        <ele>101</ele>
        <time>2026-08-23T16:31:41.000Z</time>
      </trkpt>
      <trkpt lat="43.30254" lon="-1.5926">
        <ele>101</ele>
        <time>2026-08-23T16:31:43.000Z</time>
      </trkpt>
      <trkpt lat="43.3027" lon="-1.59269">
        <ele>102</ele>
        <time>2026-08-23T16:31:46.000Z</time>
      </trkpt>
      <trkpt lat="43.30295" lon="-1.59277">
        <ele>102</ele>
        <time>2026-08-23T16:31:51.000Z</time>
      </trkpt>
      <trkpt lat="43.30377" lon="-1.59287">
        <ele>100</ele>
        <time>2026-08-23T16:32:06.000Z</time>
      </trkpt>
      <trkpt lat="43.30391" lon="-1.59285">
        <ele>100</ele>
        <time>2026-08-23T16:32:08.000Z</time>
      </trkpt>
      <trkpt lat="43.3041" lon="-1.59274">
        <ele>99</ele>
        <time>2026-08-23T16:32:12.000Z</time>
      </trkpt>
      <trkpt lat="43.30461" lon="-1.59242">
        <ele>96</ele>
        <time>2026-08-23T16:32:22.000Z</time>
      </trkpt>
      <trkpt lat="43.30476" lon="-1.59229">
        <ele>95</ele>
        <time>2026-08-23T16:32:25.000Z</time>
      </trkpt>
      <trkpt lat="43.30495" lon="-1.59208">
        <ele>93</ele>
        <time>2026-08-23T16:32:29.000Z</time>
      </trkpt>
      <trkpt lat="43.3053" lon="-1.59159">
        <ele>90</ele>
        <time>2026-08-23T16:32:38.000Z</time>
      </trkpt>
      <trkpt lat="43.30675" lon="-1.5894">
        <ele>81</ele>
        <time>2026-08-23T16:33:16.000Z</time>
      </trkpt>
      <trkpt lat="43.30682" lon="-1.58928">
        <ele>80</ele>
        <time>2026-08-23T16:33:18.000Z</time>
      </trkpt>
      <trkpt lat="43.30692" lon="-1.58909">
        <ele>80</ele>
        <time>2026-08-23T16:33:21.000Z</time>
      </trkpt>
      <trkpt lat="43.30697" lon="-1.589">
        <ele>80</ele>
        <time>2026-08-23T16:33:23.000Z</time>
      </trkpt>
      <trkpt lat="43.3071" lon="-1.5887">
        <ele>78</ele>
        <time>2026-08-23T16:33:27.000Z</time>
      </trkpt>
      <trkpt lat="43.30727" lon="-1.5884">
        <ele>77</ele>
        <time>2026-08-23T16:33:32.000Z</time>
      </trkpt>
      <trkpt lat="43.30776" lon="-1.58762">
        <ele>73</ele>
        <time>2026-08-23T16:33:46.000Z</time>
      </trkpt>
      <trkpt lat="43.30849" lon="-1.58641">
        <ele>68</ele>
        <time>2026-08-23T16:34:06.000Z</time>
      </trkpt>
      <trkpt lat="43.30862" lon="-1.58622">
        <ele>67</ele>
        <time>2026-08-23T16:34:09.000Z</time>
      </trkpt>
      <trkpt lat="43.30871" lon="-1.58611">
        <ele>67</ele>
        <time>2026-08-23T16:34:12.000Z</time>
      </trkpt>
      <trkpt lat="43.30885" lon="-1.58596">
        <ele>66</ele>
        <time>2026-08-23T16:34:15.000Z</time>
      </trkpt>
      <trkpt lat="43.309" lon="-1.58583">
        <ele>66</ele>
        <time>2026-08-23T16:34:18.000Z</time>
      </trkpt>
      <trkpt lat="43.30919" lon="-1.58568">
        <ele>65</ele>
        <time>2026-08-23T16:34:22.000Z</time>
      </trkpt>
      <trkpt lat="43.30998" lon="-1.58507">
        <ele>64</ele>
        <time>2026-08-23T16:34:38.000Z</time>
      </trkpt>
      <trkpt lat="43.31045" lon="-1.58475">
        <ele>61</ele>
        <time>2026-08-23T16:34:47.000Z</time>
      </trkpt>
      <trkpt lat="43.31111" lon="-1.5843">
        <ele>59</ele>
        <time>2026-08-23T16:35:00.000Z</time>
      </trkpt>
      <trkpt lat="43.31117" lon="-1.58427">
        <ele>60</ele>
        <time>2026-08-23T16:35:01.000Z</time>
      </trkpt>
      <trkpt lat="43.31138" lon="-1.5842">
        <ele>60</ele>
        <time>2026-08-23T16:35:05.000Z</time>
      </trkpt>
      <trkpt lat="43.31151" lon="-1.58417">
        <ele>60</ele>
        <time>2026-08-23T16:35:08.000Z</time>
      </trkpt>
      <trkpt lat="43.31159" lon="-1.58416">
        <ele>60</ele>
        <time>2026-08-23T16:35:09.000Z</time>
      </trkpt>
      <trkpt lat="43.31168" lon="-1.58415">
        <ele>60</ele>
        <time>2026-08-23T16:35:11.000Z</time>
      </trkpt>
      <trkpt lat="43.31178" lon="-1.58414">
        <ele>60</ele>
        <time>2026-08-23T16:35:12.000Z</time>
      </trkpt>
      <trkpt lat="43.31235" lon="-1.58424">
        <ele>61</ele>
        <time>2026-08-23T16:35:23.000Z</time>
      </trkpt>
      <trkpt lat="43.31277" lon="-1.58432">
        <ele>61</ele>
        <time>2026-08-23T16:35:30.000Z</time>
      </trkpt>
      <trkpt lat="43.31298" lon="-1.58431">
        <ele>61</ele>
        <time>2026-08-23T16:35:34.000Z</time>
      </trkpt>
      <trkpt lat="43.3132" lon="-1.58425">
        <ele>61</ele>
        <time>2026-08-23T16:35:38.000Z</time>
      </trkpt>
      <trkpt lat="43.31351" lon="-1.58408">
        <ele>61</ele>
        <time>2026-08-23T16:35:44.000Z</time>
      </trkpt>
      <trkpt lat="43.31412" lon="-1.58371">
        <ele>61</ele>
        <time>2026-08-23T16:35:56.000Z</time>
      </trkpt>
      <trkpt lat="43.3142" lon="-1.58363">
        <ele>61</ele>
        <time>2026-08-23T16:35:58.000Z</time>
      </trkpt>
      <trkpt lat="43.31426" lon="-1.58355">
        <ele>61</ele>
        <time>2026-08-23T16:35:59.000Z</time>
      </trkpt>
      <trkpt lat="43.31443" lon="-1.58321">
        <ele>61</ele>
        <time>2026-08-23T16:36:04.000Z</time>
      </trkpt>
      <trkpt lat="43.31448" lon="-1.583">
        <ele>61</ele>
        <time>2026-08-23T16:36:07.000Z</time>
      </trkpt>
      <trkpt lat="43.31447" lon="-1.58295">
        <ele>61</ele>
        <time>2026-08-23T16:36:08.000Z</time>
      </trkpt>
      <trkpt lat="43.31447" lon="-1.58289">
        <ele>61</ele>
        <time>2026-08-23T16:36:09.000Z</time>
      </trkpt>
      <trkpt lat="43.31448" lon="-1.58284">
        <ele>61</ele>
        <time>2026-08-23T16:36:09.000Z</time>
      </trkpt>
      <trkpt lat="43.3145" lon="-1.58279">
        <ele>61</ele>
        <time>2026-08-23T16:36:10.000Z</time>
      </trkpt>
      <trkpt lat="43.31453" lon="-1.58275">
        <ele>61</ele>
        <time>2026-08-23T16:36:11.000Z</time>
      </trkpt>
      <trkpt lat="43.31456" lon="-1.58272">
        <ele>60</ele>
        <time>2026-08-23T16:36:11.000Z</time>
      </trkpt>
      <trkpt lat="43.3146" lon="-1.58271">
        <ele>61</ele>
        <time>2026-08-23T16:36:12.000Z</time>
      </trkpt>
      <trkpt lat="43.31464" lon="-1.58271">
        <ele>61</ele>
        <time>2026-08-23T16:36:13.000Z</time>
      </trkpt>
      <trkpt lat="43.31468" lon="-1.58273">
        <ele>61</ele>
        <time>2026-08-23T16:36:14.000Z</time>
      </trkpt>
      <trkpt lat="43.31472" lon="-1.58276">
        <ele>61</ele>
        <time>2026-08-23T16:36:14.000Z</time>
      </trkpt>
      <trkpt lat="43.31475" lon="-1.58281">
        <ele>61</ele>
        <time>2026-08-23T16:36:15.000Z</time>
      </trkpt>
      <trkpt lat="43.31477" lon="-1.58287">
        <ele>61</ele>
        <time>2026-08-23T16:36:16.000Z</time>
      </trkpt>
      <trkpt lat="43.31477" lon="-1.58293">
        <ele>61</ele>
        <time>2026-08-23T16:36:17.000Z</time>
      </trkpt>
      <trkpt lat="43.31476" lon="-1.58299">
        <ele>62</ele>
        <time>2026-08-23T16:36:18.000Z</time>
      </trkpt>
      <trkpt lat="43.31482" lon="-1.58322">
        <ele>63</ele>
        <time>2026-08-23T16:36:21.000Z</time>
      </trkpt>
      <trkpt lat="43.31543" lon="-1.5839">
        <ele>67</ele>
        <time>2026-08-23T16:36:35.000Z</time>
      </trkpt>
      <trkpt lat="43.31553" lon="-1.58404">
        <ele>68</ele>
        <time>2026-08-23T16:36:37.000Z</time>
      </trkpt>
      <trkpt lat="43.3156" lon="-1.58416">
        <ele>69</ele>
        <time>2026-08-23T16:36:39.000Z</time>
      </trkpt>
      <trkpt lat="43.3157" lon="-1.58443">
        <ele>70</ele>
        <time>2026-08-23T16:36:43.000Z</time>
      </trkpt>
      <trkpt lat="43.31575" lon="-1.58456">
        <ele>71</ele>
        <time>2026-08-23T16:36:45.000Z</time>
      </trkpt>
      <trkpt lat="43.31583" lon="-1.58482">
        <ele>72</ele>
        <time>2026-08-23T16:36:49.000Z</time>
      </trkpt>
      <trkpt lat="43.31617" lon="-1.58644">
        <ele>82</ele>
        <time>2026-08-23T16:37:11.000Z</time>
      </trkpt>
      <trkpt lat="43.31623" lon="-1.58668">
        <ele>85</ele>
        <time>2026-08-23T16:37:14.000Z</time>
      </trkpt>
      <trkpt lat="43.31627" lon="-1.58679">
        <ele>86</ele>
        <time>2026-08-23T16:37:16.000Z</time>
      </trkpt>
      <trkpt lat="43.31634" lon="-1.58693">
        <ele>89</ele>
        <time>2026-08-23T16:37:18.000Z</time>
      </trkpt>
      <trkpt lat="43.31648" lon="-1.58716">
        <ele>92</ele>
        <time>2026-08-23T16:37:22.000Z</time>
      </trkpt>
      <trkpt lat="43.31667" lon="-1.5873">
        <ele>95</ele>
        <time>2026-08-23T16:37:26.000Z</time>
      </trkpt>
      <trkpt lat="43.31697" lon="-1.58753">
        <ele>100</ele>
        <time>2026-08-23T16:37:32.000Z</time>
      </trkpt>
      <trkpt lat="43.31721" lon="-1.58781">
        <ele>107</ele>
        <time>2026-08-23T16:37:37.000Z</time>
      </trkpt>
      <trkpt lat="43.31721" lon="-1.58785">
        <ele>108</ele>
        <time>2026-08-23T16:37:38.000Z</time>
      </trkpt>
      <trkpt lat="43.31721" lon="-1.5879">
        <ele>108</ele>
        <time>2026-08-23T16:37:38.000Z</time>
      </trkpt>
      <trkpt lat="43.31719" lon="-1.58793">
        <ele>109</ele>
        <time>2026-08-23T16:37:39.000Z</time>
      </trkpt>
      <trkpt lat="43.31717" lon="-1.58796">
        <ele>109</ele>
        <time>2026-08-23T16:37:39.000Z</time>
      </trkpt>
      <trkpt lat="43.31656" lon="-1.588">
        <ele>107</ele>
        <time>2026-08-23T16:37:50.000Z</time>
      </trkpt>
      <trkpt lat="43.31617" lon="-1.58807">
        <ele>107</ele>
        <time>2026-08-23T16:37:57.000Z</time>
      </trkpt>
      <trkpt lat="43.31586" lon="-1.58821">
        <ele>111</ele>
        <time>2026-08-23T16:38:03.000Z</time>
      </trkpt>
      <trkpt lat="43.31551" lon="-1.58832">
        <ele>111</ele>
        <time>2026-08-23T16:38:10.000Z</time>
      </trkpt>
      <trkpt lat="43.3153" lon="-1.58831">
        <ele>109</ele>
        <time>2026-08-23T16:38:13.000Z</time>
      </trkpt>
      <trkpt lat="43.31503" lon="-1.58834">
        <ele>107</ele>
        <time>2026-08-23T16:38:18.000Z</time>
      </trkpt>
      <trkpt lat="43.31494" lon="-1.58837">
        <ele>107</ele>
        <time>2026-08-23T16:38:20.000Z</time>
      </trkpt>
      <trkpt lat="43.3149" lon="-1.58842">
        <ele>108</ele>
        <time>2026-08-23T16:38:21.000Z</time>
      </trkpt>
      <trkpt lat="43.3149" lon="-1.58851">
        <ele>110</ele>
        <time>2026-08-23T16:38:22.000Z</time>
      </trkpt>
      <trkpt lat="43.31491" lon="-1.58856">
        <ele>112</ele>
        <time>2026-08-23T16:38:23.000Z</time>
      </trkpt>
      <trkpt lat="43.31496" lon="-1.5886">
        <ele>113</ele>
        <time>2026-08-23T16:38:24.000Z</time>
      </trkpt>
      <trkpt lat="43.31503" lon="-1.5886">
        <ele>114</ele>
        <time>2026-08-23T16:38:25.000Z</time>
      </trkpt>
      <trkpt lat="43.31515" lon="-1.58855">
        <ele>114</ele>
        <time>2026-08-23T16:38:27.000Z</time>
      </trkpt>
      <trkpt lat="43.31529" lon="-1.58853">
        <ele>114</ele>
        <time>2026-08-23T16:38:30.000Z</time>
      </trkpt>
      <trkpt lat="43.31553" lon="-1.58857">
        <ele>117</ele>
        <time>2026-08-23T16:38:34.000Z</time>
      </trkpt>
      <trkpt lat="43.31597" lon="-1.58856">
        <ele>119</ele>
        <time>2026-08-23T16:38:42.000Z</time>
      </trkpt>
      <trkpt lat="43.31613" lon="-1.58857">
        <ele>119</ele>
        <time>2026-08-23T16:38:44.000Z</time>
      </trkpt>
      <trkpt lat="43.3163" lon="-1.58861">
        <ele>120</ele>
        <time>2026-08-23T16:38:48.000Z</time>
      </trkpt>
      <trkpt lat="43.31652" lon="-1.58867">
        <ele>122</ele>
        <time>2026-08-23T16:38:52.000Z</time>
      </trkpt>
      <trkpt lat="43.31696" lon="-1.58872">
        <ele>123</ele>
        <time>2026-08-23T16:38:59.000Z</time>
      </trkpt>
      <trkpt lat="43.31705" lon="-1.58875">
        <ele>123</ele>
        <time>2026-08-23T16:39:01.000Z</time>
      </trkpt>
      <trkpt lat="43.31716" lon="-1.58885">
        <ele>124</ele>
        <time>2026-08-23T16:39:03.000Z</time>
      </trkpt>
      <trkpt lat="43.31748" lon="-1.58922">
        <ele>127</ele>
        <time>2026-08-23T16:39:11.000Z</time>
      </trkpt>
      <trkpt lat="43.31756" lon="-1.58926">
        <ele>128</ele>
        <time>2026-08-23T16:39:12.000Z</time>
      </trkpt>
      <trkpt lat="43.31769" lon="-1.58931">
        <ele>128</ele>
        <time>2026-08-23T16:39:15.000Z</time>
      </trkpt>
      <trkpt lat="43.31773" lon="-1.58932">
        <ele>128</ele>
        <time>2026-08-23T16:39:15.000Z</time>
      </trkpt>
      <trkpt lat="43.31792" lon="-1.58932">
        <ele>128</ele>
        <time>2026-08-23T16:39:19.000Z</time>
      </trkpt>
      <trkpt lat="43.31801" lon="-1.58936">
        <ele>128</ele>
        <time>2026-08-23T16:39:21.000Z</time>
      </trkpt>
      <trkpt lat="43.31806" lon="-1.58942">
        <ele>128</ele>
        <time>2026-08-23T16:39:22.000Z</time>
      </trkpt>
      <trkpt lat="43.31812" lon="-1.58951">
        <ele>128</ele>
        <time>2026-08-23T16:39:23.000Z</time>
      </trkpt>
      <trkpt lat="43.31814" lon="-1.58961">
        <ele>128</ele>
        <time>2026-08-23T16:39:25.000Z</time>
      </trkpt>
      <trkpt lat="43.31815" lon="-1.58969">
        <ele>128</ele>
        <time>2026-08-23T16:39:26.000Z</time>
      </trkpt>
      <trkpt lat="43.31813" lon="-1.58977">
        <ele>128</ele>
        <time>2026-08-23T16:39:27.000Z</time>
      </trkpt>
      <trkpt lat="43.31789" lon="-1.5902">
        <ele>126</ele>
        <time>2026-08-23T16:39:34.000Z</time>
      </trkpt>
      <trkpt lat="43.31781" lon="-1.5903">
        <ele>125</ele>
        <time>2026-08-23T16:39:36.000Z</time>
      </trkpt>
      <trkpt lat="43.31775" lon="-1.59035">
        <ele>125</ele>
        <time>2026-08-23T16:39:37.000Z</time>
      </trkpt>
      <trkpt lat="43.31767" lon="-1.59037">
        <ele>125</ele>
        <time>2026-08-23T16:39:38.000Z</time>
      </trkpt>
      <trkpt lat="43.3176" lon="-1.59036">
        <ele>126</ele>
        <time>2026-08-23T16:39:40.000Z</time>
      </trkpt>
      <trkpt lat="43.31737" lon="-1.5903">
        <ele>129</ele>
        <time>2026-08-23T16:39:44.000Z</time>
      </trkpt>
      <trkpt lat="43.31722" lon="-1.59029">
        <ele>131</ele>
        <time>2026-08-23T16:39:47.000Z</time>
      </trkpt>
      <trkpt lat="43.3171" lon="-1.59032">
        <ele>132</ele>
        <time>2026-08-23T16:39:49.000Z</time>
      </trkpt>
      <trkpt lat="43.31698" lon="-1.59039">
        <ele>132</ele>
        <time>2026-08-23T16:39:51.000Z</time>
      </trkpt>
      <trkpt lat="43.3169" lon="-1.59048">
        <ele>132</ele>
        <time>2026-08-23T16:39:53.000Z</time>
      </trkpt>
      <trkpt lat="43.31672" lon="-1.59078">
        <ele>131</ele>
        <time>2026-08-23T16:39:58.000Z</time>
      </trkpt>
      <trkpt lat="43.31664" lon="-1.59086">
        <ele>131</ele>
        <time>2026-08-23T16:40:00.000Z</time>
      </trkpt>
      <trkpt lat="43.31654" lon="-1.59093">
        <ele>131</ele>
        <time>2026-08-23T16:40:02.000Z</time>
      </trkpt>
      <trkpt lat="43.31644" lon="-1.59098">
        <ele>132</ele>
        <time>2026-08-23T16:40:04.000Z</time>
      </trkpt>
      <trkpt lat="43.31624" lon="-1.59102">
        <ele>135</ele>
        <time>2026-08-23T16:40:07.000Z</time>
      </trkpt>
      <trkpt lat="43.31611" lon="-1.59107">
        <ele>136</ele>
        <time>2026-08-23T16:40:10.000Z</time>
      </trkpt>
      <trkpt lat="43.31603" lon="-1.59113">
        <ele>137</ele>
        <time>2026-08-23T16:40:11.000Z</time>
      </trkpt>
      <trkpt lat="43.31598" lon="-1.59124">
        <ele>137</ele>
        <time>2026-08-23T16:40:13.000Z</time>
      </trkpt>
      <trkpt lat="43.31595" lon="-1.59135">
        <ele>137</ele>
        <time>2026-08-23T16:40:14.000Z</time>
      </trkpt>
      <trkpt lat="43.31593" lon="-1.59156">
        <ele>136</ele>
        <time>2026-08-23T16:40:17.000Z</time>
      </trkpt>
      <trkpt lat="43.31588" lon="-1.59171">
        <ele>136</ele>
        <time>2026-08-23T16:40:19.000Z</time>
      </trkpt>
      <trkpt lat="43.3156" lon="-1.59242">
        <ele>142</ele>
        <time>2026-08-23T16:40:30.000Z</time>
      </trkpt>
      <trkpt lat="43.3155" lon="-1.59275">
        <ele>146</ele>
        <time>2026-08-23T16:40:34.000Z</time>
      </trkpt>
      <trkpt lat="43.31543" lon="-1.59294">
        <ele>148</ele>
        <time>2026-08-23T16:40:37.000Z</time>
      </trkpt>
      <trkpt lat="43.31527" lon="-1.59313">
        <ele>153</ele>
        <time>2026-08-23T16:40:41.000Z</time>
      </trkpt>
      <trkpt lat="43.31516" lon="-1.59331">
        <ele>156</ele>
        <time>2026-08-23T16:40:44.000Z</time>
      </trkpt>
      <trkpt lat="43.31513" lon="-1.59339">
        <ele>157</ele>
        <time>2026-08-23T16:40:45.000Z</time>
      </trkpt>
      <trkpt lat="43.31515" lon="-1.59348">
        <ele>158</ele>
        <time>2026-08-23T16:40:46.000Z</time>
      </trkpt>
      <trkpt lat="43.31517" lon="-1.59351">
        <ele>158</ele>
        <time>2026-08-23T16:40:47.000Z</time>
      </trkpt>
      <trkpt lat="43.3153" lon="-1.59358">
        <ele>155</ele>
        <time>2026-08-23T16:40:49.000Z</time>
      </trkpt>
      <trkpt lat="43.31538" lon="-1.59366">
        <ele>154</ele>
        <time>2026-08-23T16:40:51.000Z</time>
      </trkpt>
      <trkpt lat="43.31545" lon="-1.5938">
        <ele>154</ele>
        <time>2026-08-23T16:40:53.000Z</time>
      </trkpt>
      <trkpt lat="43.3155" lon="-1.59401">
        <ele>156</ele>
        <time>2026-08-23T16:40:56.000Z</time>
      </trkpt>
      <trkpt lat="43.31555" lon="-1.59407">
        <ele>156</ele>
        <time>2026-08-23T16:40:57.000Z</time>
      </trkpt>
      <trkpt lat="43.31562" lon="-1.59411">
        <ele>155</ele>
        <time>2026-08-23T16:40:59.000Z</time>
      </trkpt>
      <trkpt lat="43.31588" lon="-1.59417">
        <ele>150</ele>
        <time>2026-08-23T16:41:03.000Z</time>
      </trkpt>
      <trkpt lat="43.31595" lon="-1.59422">
        <ele>150</ele>
        <time>2026-08-23T16:41:05.000Z</time>
      </trkpt>
      <trkpt lat="43.31601" lon="-1.59427">
        <ele>151</ele>
        <time>2026-08-23T16:41:06.000Z</time>
      </trkpt>
      <trkpt lat="43.31606" lon="-1.59437">
        <ele>152</ele>
        <time>2026-08-23T16:41:08.000Z</time>
      </trkpt>
      <trkpt lat="43.31618" lon="-1.59463">
        <ele>156</ele>
        <time>2026-08-23T16:41:12.000Z</time>
      </trkpt>
      <trkpt lat="43.31622" lon="-1.59469">
        <ele>157</ele>
        <time>2026-08-23T16:41:13.000Z</time>
      </trkpt>
      <trkpt lat="43.31626" lon="-1.59472">
        <ele>157</ele>
        <time>2026-08-23T16:41:13.000Z</time>
      </trkpt>
      <trkpt lat="43.31631" lon="-1.59475">
        <ele>157</ele>
        <time>2026-08-23T16:41:14.000Z</time>
      </trkpt>
      <trkpt lat="43.31652" lon="-1.59481">
        <ele>155</ele>
        <time>2026-08-23T16:41:18.000Z</time>
      </trkpt>
      <trkpt lat="43.31659" lon="-1.59487">
        <ele>155</ele>
        <time>2026-08-23T16:41:20.000Z</time>
      </trkpt>
      <trkpt lat="43.31683" lon="-1.59514">
        <ele>157</ele>
        <time>2026-08-23T16:41:25.000Z</time>
      </trkpt>
      <trkpt lat="43.31697" lon="-1.59522">
        <ele>155</ele>
        <time>2026-08-23T16:41:28.000Z</time>
      </trkpt>
      <trkpt lat="43.31705" lon="-1.59529">
        <ele>155</ele>
        <time>2026-08-23T16:41:30.000Z</time>
      </trkpt>
      <trkpt lat="43.31724" lon="-1.59555">
        <ele>155</ele>
        <time>2026-08-23T16:41:34.000Z</time>
      </trkpt>
      <trkpt lat="43.31732" lon="-1.59569">
        <ele>155</ele>
        <time>2026-08-23T16:41:37.000Z</time>
      </trkpt>
      <trkpt lat="43.31738" lon="-1.59581">
        <ele>155</ele>
        <time>2026-08-23T16:41:39.000Z</time>
      </trkpt>
      <trkpt lat="43.3174" lon="-1.59594">
        <ele>156</ele>
        <time>2026-08-23T16:41:40.000Z</time>
      </trkpt>
      <trkpt lat="43.3174" lon="-1.59608">
        <ele>157</ele>
        <time>2026-08-23T16:41:42.000Z</time>
      </trkpt>
      <trkpt lat="43.31738" lon="-1.59623">
        <ele>159</ele>
        <time>2026-08-23T16:41:44.000Z</time>
      </trkpt>
      <trkpt lat="43.31733" lon="-1.59636">
        <ele>163</ele>
        <time>2026-08-23T16:41:46.000Z</time>
      </trkpt>
      <trkpt lat="43.31724" lon="-1.59657">
        <ele>168</ele>
        <time>2026-08-23T16:41:49.000Z</time>
      </trkpt>
      <trkpt lat="43.31723" lon="-1.59667">
        <ele>169</ele>
        <time>2026-08-23T16:41:50.000Z</time>
      </trkpt>
      <trkpt lat="43.31725" lon="-1.59674">
        <ele>170</ele>
        <time>2026-08-23T16:41:51.000Z</time>
      </trkpt>
      <trkpt lat="43.31729" lon="-1.59678">
        <ele>170</ele>
        <time>2026-08-23T16:41:52.000Z</time>
      </trkpt>
      <trkpt lat="43.31738" lon="-1.59683">
        <ele>167</ele>
        <time>2026-08-23T16:41:54.000Z</time>
      </trkpt>
      <trkpt lat="43.31744" lon="-1.59691">
        <ele>167</ele>
        <time>2026-08-23T16:41:55.000Z</time>
      </trkpt>
      <trkpt lat="43.31754" lon="-1.59712">
        <ele>169</ele>
        <time>2026-08-23T16:41:59.000Z</time>
      </trkpt>
      <trkpt lat="43.31758" lon="-1.59718">
        <ele>169</ele>
        <time>2026-08-23T16:42:00.000Z</time>
      </trkpt>
      <trkpt lat="43.31763" lon="-1.59721">
        <ele>169</ele>
        <time>2026-08-23T16:42:01.000Z</time>
      </trkpt>
      <trkpt lat="43.3177" lon="-1.59721">
        <ele>168</ele>
        <time>2026-08-23T16:42:02.000Z</time>
      </trkpt>
      <trkpt lat="43.31782" lon="-1.59721">
        <ele>166</ele>
        <time>2026-08-23T16:42:04.000Z</time>
      </trkpt>
      <trkpt lat="43.31788" lon="-1.59723">
        <ele>166</ele>
        <time>2026-08-23T16:42:05.000Z</time>
      </trkpt>
      <trkpt lat="43.31794" lon="-1.59725">
        <ele>165</ele>
        <time>2026-08-23T16:42:06.000Z</time>
      </trkpt>
      <trkpt lat="43.31799" lon="-1.59731">
        <ele>166</ele>
        <time>2026-08-23T16:42:07.000Z</time>
      </trkpt>
      <trkpt lat="43.31813" lon="-1.59751">
        <ele>167</ele>
        <time>2026-08-23T16:42:11.000Z</time>
      </trkpt>
      <trkpt lat="43.31826" lon="-1.59763">
        <ele>167</ele>
        <time>2026-08-23T16:42:14.000Z</time>
      </trkpt>
      <trkpt lat="43.31865" lon="-1.59784">
        <ele>167</ele>
        <time>2026-08-23T16:42:21.000Z</time>
      </trkpt>
      <trkpt lat="43.31868" lon="-1.59786">
        <ele>167</ele>
        <time>2026-08-23T16:42:22.000Z</time>
      </trkpt>
      <trkpt lat="43.31871" lon="-1.59791">
        <ele>168</ele>
        <time>2026-08-23T16:42:23.000Z</time>
      </trkpt>
      <trkpt lat="43.31874" lon="-1.59797">
        <ele>169</ele>
        <time>2026-08-23T16:42:24.000Z</time>
      </trkpt>
      <trkpt lat="43.31876" lon="-1.59804">
        <ele>170</ele>
        <time>2026-08-23T16:42:25.000Z</time>
      </trkpt>
      <trkpt lat="43.31879" lon="-1.59813">
        <ele>171</ele>
        <time>2026-08-23T16:42:26.000Z</time>
      </trkpt>
      <trkpt lat="43.31884" lon="-1.59819">
        <ele>172</ele>
        <time>2026-08-23T16:42:27.000Z</time>
      </trkpt>
      <trkpt lat="43.31893" lon="-1.59823">
        <ele>172</ele>
        <time>2026-08-23T16:42:29.000Z</time>
      </trkpt>
      <trkpt lat="43.3192" lon="-1.59822">
        <ele>170</ele>
        <time>2026-08-23T16:42:34.000Z</time>
      </trkpt>
      <trkpt lat="43.31933" lon="-1.59829">
        <ele>171</ele>
        <time>2026-08-23T16:42:36.000Z</time>
      </trkpt>
      <trkpt lat="43.31958" lon="-1.5985">
        <ele>177</ele>
        <time>2026-08-23T16:42:41.000Z</time>
      </trkpt>
      <trkpt lat="43.31964" lon="-1.59854">
        <ele>178</ele>
        <time>2026-08-23T16:42:42.000Z</time>
      </trkpt>
      <trkpt lat="43.31971" lon="-1.59856">
        <ele>178</ele>
        <time>2026-08-23T16:42:44.000Z</time>
      </trkpt>
      <trkpt lat="43.31976" lon="-1.59855">
        <ele>178</ele>
        <time>2026-08-23T16:42:45.000Z</time>
      </trkpt>
      <trkpt lat="43.32001" lon="-1.59835">
        <ele>174</ele>
        <time>2026-08-23T16:42:50.000Z</time>
      </trkpt>
      <trkpt lat="43.32012" lon="-1.5983">
        <ele>174</ele>
        <time>2026-08-23T16:42:52.000Z</time>
      </trkpt>
      <trkpt lat="43.32021" lon="-1.59824">
        <ele>174</ele>
        <time>2026-08-23T16:42:54.000Z</time>
      </trkpt>
      <trkpt lat="43.32027" lon="-1.59816">
        <ele>173</ele>
        <time>2026-08-23T16:42:55.000Z</time>
      </trkpt>
      <trkpt lat="43.32043" lon="-1.59788">
        <ele>168</ele>
        <time>2026-08-23T16:43:00.000Z</time>
      </trkpt>
      <trkpt lat="43.32052" lon="-1.59779">
        <ele>167</ele>
        <time>2026-08-23T16:43:02.000Z</time>
      </trkpt>
      <trkpt lat="43.32061" lon="-1.5978">
        <ele>168</ele>
        <time>2026-08-23T16:43:03.000Z</time>
      </trkpt>
      <trkpt lat="43.32103" lon="-1.59803">
        <ele>175</ele>
        <time>2026-08-23T16:43:11.000Z</time>
      </trkpt>
      <trkpt lat="43.32139" lon="-1.59812">
        <ele>174</ele>
        <time>2026-08-23T16:43:18.000Z</time>
      </trkpt>
      <trkpt lat="43.32155" lon="-1.5982">
        <ele>175</ele>
        <time>2026-08-23T16:43:21.000Z</time>
      </trkpt>
      <trkpt lat="43.32172" lon="-1.59841">
        <ele>177</ele>
        <time>2026-08-23T16:43:25.000Z</time>
      </trkpt>
      <trkpt lat="43.32179" lon="-1.59853">
        <ele>177</ele>
        <time>2026-08-23T16:43:27.000Z</time>
      </trkpt>
      <trkpt lat="43.32184" lon="-1.59866">
        <ele>177</ele>
        <time>2026-08-23T16:43:29.000Z</time>
      </trkpt>
      <trkpt lat="43.32187" lon="-1.59886">
        <ele>178</ele>
        <time>2026-08-23T16:43:32.000Z</time>
      </trkpt>
      <trkpt lat="43.3219" lon="-1.59928">
        <ele>182</ele>
        <time>2026-08-23T16:43:37.000Z</time>
      </trkpt>
      <trkpt lat="43.32189" lon="-1.59943">
        <ele>184</ele>
        <time>2026-08-23T16:43:39.000Z</time>
      </trkpt>
      <trkpt lat="43.32183" lon="-1.59968">
        <ele>189</ele>
        <time>2026-08-23T16:43:42.000Z</time>
      </trkpt>
      <trkpt lat="43.32182" lon="-1.5998">
        <ele>191</ele>
        <time>2026-08-23T16:43:44.000Z</time>
      </trkpt>
      <trkpt lat="43.32183" lon="-1.59985">
        <ele>191</ele>
        <time>2026-08-23T16:43:45.000Z</time>
      </trkpt>
      <trkpt lat="43.32187" lon="-1.59991">
        <ele>192</ele>
        <time>2026-08-23T16:43:46.000Z</time>
      </trkpt>
      <trkpt lat="43.32192" lon="-1.59992">
        <ele>192</ele>
        <time>2026-08-23T16:43:47.000Z</time>
      </trkpt>
      <trkpt lat="43.32199" lon="-1.59991">
        <ele>192</ele>
        <time>2026-08-23T16:43:48.000Z</time>
      </trkpt>
      <trkpt lat="43.32203" lon="-1.59989">
        <ele>191</ele>
        <time>2026-08-23T16:43:49.000Z</time>
      </trkpt>
      <trkpt lat="43.32231" lon="-1.59953">
        <ele>183</ele>
        <time>2026-08-23T16:43:55.000Z</time>
      </trkpt>
      <trkpt lat="43.32243" lon="-1.59946">
        <ele>180</ele>
        <time>2026-08-23T16:43:58.000Z</time>
      </trkpt>
      <trkpt lat="43.32253" lon="-1.59949">
        <ele>180</ele>
        <time>2026-08-23T16:44:00.000Z</time>
      </trkpt>
      <trkpt lat="43.32265" lon="-1.59958">
        <ele>181</ele>
        <time>2026-08-23T16:44:02.000Z</time>
      </trkpt>
      <trkpt lat="43.32287" lon="-1.59983">
        <ele>184</ele>
        <time>2026-08-23T16:44:07.000Z</time>
      </trkpt>
      <trkpt lat="43.32307" lon="-1.59998">
        <ele>184</ele>
        <time>2026-08-23T16:44:11.000Z</time>
      </trkpt>
      <trkpt lat="43.32319" lon="-1.60006">
        <ele>184</ele>
        <time>2026-08-23T16:44:13.000Z</time>
      </trkpt>
      <trkpt lat="43.3233" lon="-1.60011">
        <ele>184</ele>
        <time>2026-08-23T16:44:16.000Z</time>
      </trkpt>
      <trkpt lat="43.32352" lon="-1.60019">
        <ele>182</ele>
        <time>2026-08-23T16:44:20.000Z</time>
      </trkpt>
      <trkpt lat="43.32368" lon="-1.60026">
        <ele>181</ele>
        <time>2026-08-23T16:44:23.000Z</time>
      </trkpt>
      <trkpt lat="43.32378" lon="-1.60034">
        <ele>180</ele>
        <time>2026-08-23T16:44:25.000Z</time>
      </trkpt>
      <trkpt lat="43.32389" lon="-1.60045">
        <ele>180</ele>
        <time>2026-08-23T16:44:27.000Z</time>
      </trkpt>
      <trkpt lat="43.324" lon="-1.60059">
        <ele>179</ele>
        <time>2026-08-23T16:44:30.000Z</time>
      </trkpt>
      <trkpt lat="43.32425" lon="-1.60098">
        <ele>179</ele>
        <time>2026-08-23T16:44:36.000Z</time>
      </trkpt>
      <trkpt lat="43.32431" lon="-1.60102">
        <ele>179</ele>
        <time>2026-08-23T16:44:38.000Z</time>
      </trkpt>
      <trkpt lat="43.32438" lon="-1.60103">
        <ele>179</ele>
        <time>2026-08-23T16:44:39.000Z</time>
      </trkpt>
      <trkpt lat="43.32443" lon="-1.60101">
        <ele>178</ele>
        <time>2026-08-23T16:44:40.000Z</time>
      </trkpt>
      <trkpt lat="43.32447" lon="-1.60099">
        <ele>177</ele>
        <time>2026-08-23T16:44:41.000Z</time>
      </trkpt>
      <trkpt lat="43.32453" lon="-1.60094">
        <ele>176</ele>
        <time>2026-08-23T16:44:42.000Z</time>
      </trkpt>
      <trkpt lat="43.32468" lon="-1.60081">
        <ele>173</ele>
        <time>2026-08-23T16:44:45.000Z</time>
      </trkpt>
      <trkpt lat="43.32491" lon="-1.6006">
        <ele>173</ele>
        <time>2026-08-23T16:44:50.000Z</time>
      </trkpt>
      <trkpt lat="43.32499" lon="-1.60055">
        <ele>173</ele>
        <time>2026-08-23T16:44:51.000Z</time>
      </trkpt>
      <trkpt lat="43.32508" lon="-1.60053">
        <ele>174</ele>
        <time>2026-08-23T16:44:53.000Z</time>
      </trkpt>
      <trkpt lat="43.32509" lon="-1.60058">
        <ele>173</ele>
        <time>2026-08-23T16:44:54.000Z</time>
      </trkpt>
      <trkpt lat="43.3251" lon="-1.60059">
        <ele>173</ele>
        <time>2026-08-23T16:44:54.000Z</time>
      </trkpt>
      <trkpt lat="43.32514" lon="-1.6007">
        <ele>172</ele>
        <time>2026-08-23T16:44:56.000Z</time>
      </trkpt>
      <trkpt lat="43.3251" lon="-1.6007">
        <ele>172</ele>
        <time>2026-08-23T16:44:56.000Z</time>
      </trkpt>
      <trkpt lat="43.3251" lon="-1.60068">
        <ele>172</ele>
        <time>2026-08-23T16:44:56.000Z</time>
      </trkpt>
      <trkpt lat="43.32502" lon="-1.60068">
        <ele>172</ele>
        <time>2026-08-23T16:44:58.000Z</time>
      </trkpt>
      <trkpt lat="43.3251" lon="-1.60068">
        <ele>172</ele>
        <time>2026-08-23T16:44:59.000Z</time>
      </trkpt>
      <trkpt lat="43.3251" lon="-1.6007">
        <ele>172</ele>
        <time>2026-08-23T16:45:00.000Z</time>
      </trkpt>
      <trkpt lat="43.32514" lon="-1.6007">
        <ele>172</ele>
        <time>2026-08-23T16:45:00.000Z</time>
      </trkpt>
      <trkpt lat="43.3251" lon="-1.60059">
        <ele>173</ele>
        <time>2026-08-23T16:45:02.000Z</time>
      </trkpt>
      <trkpt lat="43.32509" lon="-1.60058">
        <ele>173</ele>
        <time>2026-08-23T16:45:02.000Z</time>
      </trkpt>
      <trkpt lat="43.32508" lon="-1.60053">
        <ele>174</ele>
        <time>2026-08-23T16:45:03.000Z</time>
      </trkpt>
      <trkpt lat="43.32518" lon="-1.60054">
        <ele>174</ele>
        <time>2026-08-23T16:45:05.000Z</time>
      </trkpt>
      <trkpt lat="43.3253" lon="-1.60061">
        <ele>173</ele>
        <time>2026-08-23T16:45:07.000Z</time>
      </trkpt>
      <trkpt lat="43.32561" lon="-1.60086">
        <ele>170</ele>
        <time>2026-08-23T16:45:13.000Z</time>
      </trkpt>
      <trkpt lat="43.32579" lon="-1.60097">
        <ele>168</ele>
        <time>2026-08-23T16:45:17.000Z</time>
      </trkpt>
      <trkpt lat="43.32597" lon="-1.60103">
        <ele>169</ele>
        <time>2026-08-23T16:45:20.000Z</time>
      </trkpt>
      <trkpt lat="43.32605" lon="-1.60106">
        <ele>169</ele>
        <time>2026-08-23T16:45:22.000Z</time>
      </trkpt>
      <trkpt lat="43.32685" lon="-1.60133">
        <ele>169</ele>
        <time>2026-08-23T16:45:36.000Z</time>
      </trkpt>
      <trkpt lat="43.32715" lon="-1.60151">
        <ele>168</ele>
        <time>2026-08-23T16:45:42.000Z</time>
      </trkpt>
      <trkpt lat="43.32751" lon="-1.60178">
        <ele>166</ele>
        <time>2026-08-23T16:45:49.000Z</time>
      </trkpt>
      <trkpt lat="43.32773" lon="-1.60187">
        <ele>164</ele>
        <time>2026-08-23T16:45:53.000Z</time>
      </trkpt>
      <trkpt lat="43.32793" lon="-1.60191">
        <ele>164</ele>
        <time>2026-08-23T16:45:57.000Z</time>
      </trkpt>
      <trkpt lat="43.32831" lon="-1.60195">
        <ele>164</ele>
        <time>2026-08-23T16:46:04.000Z</time>
      </trkpt>
      <trkpt lat="43.329" lon="-1.60203">
        <ele>162</ele>
        <time>2026-08-23T16:46:16.000Z</time>
      </trkpt>
      <trkpt lat="43.32981" lon="-1.60215">
        <ele>158</ele>
        <time>2026-08-23T16:46:31.000Z</time>
      </trkpt>
      <trkpt lat="43.33019" lon="-1.60227">
        <ele>155</ele>
        <time>2026-08-23T16:46:38.000Z</time>
      </trkpt>
      <trkpt lat="43.33074" lon="-1.60252">
        <ele>152</ele>
        <time>2026-08-23T16:46:48.000Z</time>
      </trkpt>
      <trkpt lat="43.33095" lon="-1.60262">
        <ele>152</ele>
        <time>2026-08-23T16:46:52.000Z</time>
      </trkpt>
      <trkpt lat="43.3311" lon="-1.60273">
        <ele>151</ele>
        <time>2026-08-23T16:46:55.000Z</time>
      </trkpt>
      <trkpt lat="43.33132" lon="-1.60297">
        <ele>150</ele>
        <time>2026-08-23T16:47:00.000Z</time>
      </trkpt>
      <trkpt lat="43.33143" lon="-1.60315">
        <ele>150</ele>
        <time>2026-08-23T16:47:03.000Z</time>
      </trkpt>
      <trkpt lat="43.33157" lon="-1.60359">
        <ele>148</ele>
        <time>2026-08-23T16:47:09.000Z</time>
      </trkpt>
      <trkpt lat="43.33175" lon="-1.60406">
        <ele>145</ele>
        <time>2026-08-23T16:47:16.000Z</time>
      </trkpt>
      <trkpt lat="43.33178" lon="-1.60435">
        <ele>142</ele>
        <time>2026-08-23T16:47:20.000Z</time>
      </trkpt>
      <trkpt lat="43.33185" lon="-1.60465">
        <ele>139</ele>
        <time>2026-08-23T16:47:24.000Z</time>
      </trkpt>
      <trkpt lat="43.33199" lon="-1.60487">
        <ele>140</ele>
        <time>2026-08-23T16:47:28.000Z</time>
      </trkpt>
      <trkpt lat="43.33213" lon="-1.60497">
        <ele>142</ele>
        <time>2026-08-23T16:47:30.000Z</time>
      </trkpt>
      <trkpt lat="43.33235" lon="-1.60503">
        <ele>147</ele>
        <time>2026-08-23T16:47:34.000Z</time>
      </trkpt>
      <trkpt lat="43.33244" lon="-1.60512">
        <ele>148</ele>
        <time>2026-08-23T16:47:36.000Z</time>
      </trkpt>
      <trkpt lat="43.33246" lon="-1.60524">
        <ele>147</ele>
        <time>2026-08-23T16:47:38.000Z</time>
      </trkpt>
      <trkpt lat="43.33244" lon="-1.60569">
        <ele>140</ele>
        <time>2026-08-23T16:47:44.000Z</time>
      </trkpt>
      <trkpt lat="43.33249" lon="-1.606">
        <ele>136</ele>
        <time>2026-08-23T16:47:48.000Z</time>
      </trkpt>
      <trkpt lat="43.33257" lon="-1.60625">
        <ele>134</ele>
        <time>2026-08-23T16:47:51.000Z</time>
      </trkpt>
      <trkpt lat="43.33268" lon="-1.6065">
        <ele>132</ele>
        <time>2026-08-23T16:47:55.000Z</time>
      </trkpt>
      <trkpt lat="43.33311" lon="-1.60721">
        <ele>129</ele>
        <time>2026-08-23T16:48:07.000Z</time>
      </trkpt>
      <trkpt lat="43.33317" lon="-1.60728">
        <ele>129</ele>
        <time>2026-08-23T16:48:09.000Z</time>
      </trkpt>
      <trkpt lat="43.33331" lon="-1.60734">
        <ele>131</ele>
        <time>2026-08-23T16:48:11.000Z</time>
      </trkpt>
      <trkpt lat="43.33344" lon="-1.60745">
        <ele>131</ele>
        <time>2026-08-23T16:48:14.000Z</time>
      </trkpt>
      <trkpt lat="43.3335" lon="-1.60754">
        <ele>131</ele>
        <time>2026-08-23T16:48:16.000Z</time>
      </trkpt>
      <trkpt lat="43.33352" lon="-1.60766">
        <ele>129</ele>
        <time>2026-08-23T16:48:17.000Z</time>
      </trkpt>
      <trkpt lat="43.33354" lon="-1.60787">
        <ele>126</ele>
        <time>2026-08-23T16:48:20.000Z</time>
      </trkpt>
      <trkpt lat="43.3336" lon="-1.60812">
        <ele>122</ele>
        <time>2026-08-23T16:48:23.000Z</time>
      </trkpt>
      <trkpt lat="43.33374" lon="-1.60835">
        <ele>120</ele>
        <time>2026-08-23T16:48:27.000Z</time>
      </trkpt>
      <trkpt lat="43.33381" lon="-1.60846">
        <ele>119</ele>
        <time>2026-08-23T16:48:29.000Z</time>
      </trkpt>
      <trkpt lat="43.3339" lon="-1.60851">
        <ele>119</ele>
        <time>2026-08-23T16:48:31.000Z</time>
      </trkpt>
      <trkpt lat="43.33402" lon="-1.60853">
        <ele>121</ele>
        <time>2026-08-23T16:48:33.000Z</time>
      </trkpt>
      <trkpt lat="43.33424" lon="-1.60844">
        <ele>127</ele>
        <time>2026-08-23T16:48:37.000Z</time>
      </trkpt>
      <trkpt lat="43.33434" lon="-1.60846">
        <ele>130</ele>
        <time>2026-08-23T16:48:39.000Z</time>
      </trkpt>
      <trkpt lat="43.33439" lon="-1.6085">
        <ele>131</ele>
        <time>2026-08-23T16:48:40.000Z</time>
      </trkpt>
      <trkpt lat="43.33442" lon="-1.60858">
        <ele>130</ele>
        <time>2026-08-23T16:48:41.000Z</time>
      </trkpt>
      <trkpt lat="43.33443" lon="-1.60875">
        <ele>128</ele>
        <time>2026-08-23T16:48:43.000Z</time>
      </trkpt>
      <trkpt lat="43.33434" lon="-1.60922">
        <ele>117</ele>
        <time>2026-08-23T16:48:49.000Z</time>
      </trkpt>
      <trkpt lat="43.33435" lon="-1.60941">
        <ele>115</ele>
        <time>2026-08-23T16:48:52.000Z</time>
      </trkpt>
      <trkpt lat="43.33442" lon="-1.60955">
        <ele>117</ele>
        <time>2026-08-23T16:48:54.000Z</time>
      </trkpt>
      <trkpt lat="43.33458" lon="-1.60972">
        <ele>121</ele>
        <time>2026-08-23T16:48:58.000Z</time>
      </trkpt>
      <trkpt lat="43.33461" lon="-1.60981">
        <ele>122</ele>
        <time>2026-08-23T16:48:59.000Z</time>
      </trkpt>
      <trkpt lat="43.3346" lon="-1.60993">
        <ele>121</ele>
        <time>2026-08-23T16:49:01.000Z</time>
      </trkpt>
      <trkpt lat="43.33456" lon="-1.61001">
        <ele>119</ele>
        <time>2026-08-23T16:49:02.000Z</time>
      </trkpt>
      <trkpt lat="43.3344" lon="-1.61017">
        <ele>112</ele>
        <time>2026-08-23T16:49:05.000Z</time>
      </trkpt>
      <trkpt lat="43.33433" lon="-1.61029">
        <ele>110</ele>
        <time>2026-08-23T16:49:07.000Z</time>
      </trkpt>
      <trkpt lat="43.3343" lon="-1.61044">
        <ele>108</ele>
        <time>2026-08-23T16:49:09.000Z</time>
      </trkpt>
      <trkpt lat="43.3343" lon="-1.61078">
        <ele>108</ele>
        <time>2026-08-23T16:49:14.000Z</time>
      </trkpt>
      <trkpt lat="43.33424" lon="-1.61102">
        <ele>104</ele>
        <time>2026-08-23T16:49:17.000Z</time>
      </trkpt>
      <trkpt lat="43.33421" lon="-1.61124">
        <ele>101</ele>
        <time>2026-08-23T16:49:20.000Z</time>
      </trkpt>
      <trkpt lat="43.33422" lon="-1.61148">
        <ele>99</ele>
        <time>2026-08-23T16:49:23.000Z</time>
      </trkpt>
      <trkpt lat="43.33423" lon="-1.6117">
        <ele>97</ele>
        <time>2026-08-23T16:49:26.000Z</time>
      </trkpt>
      <trkpt lat="43.33432" lon="-1.612">
        <ele>94</ele>
        <time>2026-08-23T16:49:30.000Z</time>
      </trkpt>
      <trkpt lat="43.33441" lon="-1.61214">
        <ele>94</ele>
        <time>2026-08-23T16:49:33.000Z</time>
      </trkpt>
      <trkpt lat="43.33448" lon="-1.61219">
        <ele>95</ele>
        <time>2026-08-23T16:49:34.000Z</time>
      </trkpt>
      <trkpt lat="43.33458" lon="-1.61218">
        <ele>98</ele>
        <time>2026-08-23T16:49:36.000Z</time>
      </trkpt>
      <trkpt lat="43.33472" lon="-1.61222">
        <ele>102</ele>
        <time>2026-08-23T16:49:38.000Z</time>
      </trkpt>
      <trkpt lat="43.3348" lon="-1.61232">
        <ele>101</ele>
        <time>2026-08-23T16:49:40.000Z</time>
      </trkpt>
      <trkpt lat="43.33502" lon="-1.6128">
        <ele>95</ele>
        <time>2026-08-23T16:49:48.000Z</time>
      </trkpt>
      <trkpt lat="43.33531" lon="-1.61302">
        <ele>97</ele>
        <time>2026-08-23T16:49:53.000Z</time>
      </trkpt>
      <trkpt lat="43.33539" lon="-1.61318">
        <ele>95</ele>
        <time>2026-08-23T16:49:56.000Z</time>
      </trkpt>
      <trkpt lat="43.3354" lon="-1.61335">
        <ele>92</ele>
        <time>2026-08-23T16:49:58.000Z</time>
      </trkpt>
      <trkpt lat="43.33539" lon="-1.61368">
        <ele>86</ele>
        <time>2026-08-23T16:50:02.000Z</time>
      </trkpt>
      <trkpt lat="43.33542" lon="-1.61378">
        <ele>85</ele>
        <time>2026-08-23T16:50:04.000Z</time>
      </trkpt>
      <trkpt lat="43.33546" lon="-1.61386">
        <ele>84</ele>
        <time>2026-08-23T16:50:05.000Z</time>
      </trkpt>
      <trkpt lat="43.33567" lon="-1.61407">
        <ele>85</ele>
        <time>2026-08-23T16:50:10.000Z</time>
      </trkpt>
      <trkpt lat="43.33576" lon="-1.61419">
        <ele>85</ele>
        <time>2026-08-23T16:50:12.000Z</time>
      </trkpt>
      <trkpt lat="43.33591" lon="-1.6145">
        <ele>81</ele>
        <time>2026-08-23T16:50:17.000Z</time>
      </trkpt>
      <trkpt lat="43.33603" lon="-1.61468">
        <ele>80</ele>
        <time>2026-08-23T16:50:20.000Z</time>
      </trkpt>
      <trkpt lat="43.33616" lon="-1.61479">
        <ele>79</ele>
        <time>2026-08-23T16:50:23.000Z</time>
      </trkpt>
      <trkpt lat="43.33654" lon="-1.61498">
        <ele>81</ele>
        <time>2026-08-23T16:50:30.000Z</time>
      </trkpt>
      <trkpt lat="43.33663" lon="-1.61507">
        <ele>80</ele>
        <time>2026-08-23T16:50:32.000Z</time>
      </trkpt>
      <trkpt lat="43.33682" lon="-1.61532">
        <ele>75</ele>
        <time>2026-08-23T16:50:36.000Z</time>
      </trkpt>
      <trkpt lat="43.33696" lon="-1.61543">
        <ele>73</ele>
        <time>2026-08-23T16:50:39.000Z</time>
      </trkpt>
      <trkpt lat="43.33713" lon="-1.6155">
        <ele>71</ele>
        <time>2026-08-23T16:50:43.000Z</time>
      </trkpt>
      <trkpt lat="43.33789" lon="-1.61574">
        <ele>63</ele>
        <time>2026-08-23T16:50:56.000Z</time>
      </trkpt>
      <trkpt lat="43.33807" lon="-1.61573">
        <ele>62</ele>
        <time>2026-08-23T16:51:00.000Z</time>
      </trkpt>
      <trkpt lat="43.33835" lon="-1.61566">
        <ele>61</ele>
        <time>2026-08-23T16:51:05.000Z</time>
      </trkpt>
      <trkpt lat="43.33868" lon="-1.6157">
        <ele>58</ele>
        <time>2026-08-23T16:51:11.000Z</time>
      </trkpt>
      <trkpt lat="43.33893" lon="-1.61562">
        <ele>59</ele>
        <time>2026-08-23T16:51:15.000Z</time>
      </trkpt>
      <trkpt lat="43.33921" lon="-1.61563">
        <ele>57</ele>
        <time>2026-08-23T16:51:20.000Z</time>
      </trkpt>
      <trkpt lat="43.33942" lon="-1.61558">
        <ele>59</ele>
        <time>2026-08-23T16:51:24.000Z</time>
      </trkpt>
      <trkpt lat="43.33963" lon="-1.61556">
        <ele>59</ele>
        <time>2026-08-23T16:51:28.000Z</time>
      </trkpt>
      <trkpt lat="43.34009" lon="-1.61565">
        <ele>57</ele>
        <time>2026-08-23T16:51:36.000Z</time>
      </trkpt>
      <trkpt lat="43.34025" lon="-1.61571">
        <ele>55</ele>
        <time>2026-08-23T16:51:39.000Z</time>
      </trkpt>
      <trkpt lat="43.34048" lon="-1.61594">
        <ele>50</ele>
        <time>2026-08-23T16:51:44.000Z</time>
      </trkpt>
      <trkpt lat="43.34064" lon="-1.61612">
        <ele>48</ele>
        <time>2026-08-23T16:51:48.000Z</time>
      </trkpt>
      <trkpt lat="43.34078" lon="-1.61621">
        <ele>47</ele>
        <time>2026-08-23T16:51:50.000Z</time>
      </trkpt>
      <trkpt lat="43.34092" lon="-1.61622">
        <ele>46</ele>
        <time>2026-08-23T16:51:53.000Z</time>
      </trkpt>
      <trkpt lat="43.34147" lon="-1.61609">
        <ele>45</ele>
        <time>2026-08-23T16:52:03.000Z</time>
      </trkpt>
      <trkpt lat="43.34189" lon="-1.61613">
        <ele>43</ele>
        <time>2026-08-23T16:52:10.000Z</time>
      </trkpt>
      <trkpt lat="43.34203" lon="-1.61616">
        <ele>42</ele>
        <time>2026-08-23T16:52:13.000Z</time>
      </trkpt>
      <trkpt lat="43.34221" lon="-1.61625">
        <ele>41</ele>
        <time>2026-08-23T16:52:16.000Z</time>
      </trkpt>
      <trkpt lat="43.34234" lon="-1.61629">
        <ele>40</ele>
        <time>2026-08-23T16:52:19.000Z</time>
      </trkpt>
      <trkpt lat="43.3425" lon="-1.61632">
        <ele>40</ele>
        <time>2026-08-23T16:52:21.000Z</time>
      </trkpt>
      <trkpt lat="43.34323" lon="-1.61627">
        <ele>34</ele>
        <time>2026-08-23T16:52:34.000Z</time>
      </trkpt>
      <trkpt lat="43.34346" lon="-1.61629">
        <ele>32</ele>
        <time>2026-08-23T16:52:39.000Z</time>
      </trkpt>
      <trkpt lat="43.34356" lon="-1.61637">
        <ele>30</ele>
        <time>2026-08-23T16:52:41.000Z</time>
      </trkpt>
      <trkpt lat="43.34365" lon="-1.61649">
        <ele>29</ele>
        <time>2026-08-23T16:52:43.000Z</time>
      </trkpt>
      <trkpt lat="43.34372" lon="-1.61667">
        <ele>27</ele>
        <time>2026-08-23T16:52:45.000Z</time>
      </trkpt>
      <trkpt lat="43.34378" lon="-1.61688">
        <ele>26</ele>
        <time>2026-08-23T16:52:48.000Z</time>
      </trkpt>
      <trkpt lat="43.34379" lon="-1.61699">
        <ele>25</ele>
        <time>2026-08-23T16:52:50.000Z</time>
      </trkpt>
      <trkpt lat="43.3438" lon="-1.61719">
        <ele>24</ele>
        <time>2026-08-23T16:52:52.000Z</time>
      </trkpt>
      <trkpt lat="43.3438" lon="-1.61733">
        <ele>24</ele>
        <time>2026-08-23T16:52:54.000Z</time>
      </trkpt>
      <trkpt lat="43.34381" lon="-1.61879">
        <ele>24</ele>
        <time>2026-08-23T16:53:13.000Z</time>
      </trkpt>
      <trkpt lat="43.34381" lon="-1.61901">
        <ele>25</ele>
        <time>2026-08-23T16:53:16.000Z</time>
      </trkpt>
      <trkpt lat="43.34385" lon="-1.6193">
        <ele>26</ele>
        <time>2026-08-23T16:53:20.000Z</time>
      </trkpt>
      <trkpt lat="43.34367" lon="-1.61933">
        <ele>28</ele>
        <time>2026-08-23T16:53:23.000Z</time>
      </trkpt>
      <trkpt lat="43.34366" lon="-1.61933">
        <ele>28</ele>
        <time>2026-08-23T16:53:23.000Z</time>
      </trkpt>
      <trkpt lat="43.34367" lon="-1.61933">
        <ele>28</ele>
        <time>2026-08-23T16:53:23.000Z</time>
      </trkpt>
      <trkpt lat="43.34385" lon="-1.6193">
        <ele>26</ele>
        <time>2026-08-23T16:53:27.000Z</time>
      </trkpt>
      <trkpt lat="43.34436" lon="-1.61923">
        <ele>21</ele>
        <time>2026-08-23T16:53:36.000Z</time>
      </trkpt>
      <trkpt lat="43.3447" lon="-1.61922">
        <ele>19</ele>
        <time>2026-08-23T16:53:42.000Z</time>
      </trkpt>
      <trkpt lat="43.34483" lon="-1.61924">
        <ele>18</ele>
        <time>2026-08-23T16:53:44.000Z</time>
      </trkpt>
      <trkpt lat="43.34501" lon="-1.6193">
        <ele>17</ele>
        <time>2026-08-23T16:53:47.000Z</time>
      </trkpt>
      <trkpt lat="43.34571" lon="-1.6196">
        <ele>16</ele>
        <time>2026-08-23T16:54:00.000Z</time>
      </trkpt>
      <trkpt lat="43.34574" lon="-1.61963">
        <ele>16</ele>
        <time>2026-08-23T16:54:01.000Z</time>
      </trkpt>
      <trkpt lat="43.34577" lon="-1.61968">
        <ele>16</ele>
        <time>2026-08-23T16:54:02.000Z</time>
      </trkpt>
      <trkpt lat="43.34641" lon="-1.62016">
        <ele>13</ele>
        <time>2026-08-23T16:54:15.000Z</time>
      </trkpt>
      <trkpt lat="43.34669" lon="-1.62042">
        <ele>11</ele>
        <time>2026-08-23T16:54:21.000Z</time>
      </trkpt>
      <trkpt lat="43.34679" lon="-1.62052">
        <ele>11</ele>
        <time>2026-08-23T16:54:23.000Z</time>
      </trkpt>
      <trkpt lat="43.34741" lon="-1.62097">
        <ele>9</ele>
        <time>2026-08-23T16:54:36.000Z</time>
      </trkpt>
      <trkpt lat="43.3478" lon="-1.62126">
        <ele>9</ele>
        <time>2026-08-23T16:54:43.000Z</time>
      </trkpt>
      <trkpt lat="43.34817" lon="-1.62161">
        <ele>9</ele>
        <time>2026-08-23T16:54:51.000Z</time>
      </trkpt>
      <trkpt lat="43.348" lon="-1.62204">
        <ele>9</ele>
        <time>2026-08-23T16:54:58.000Z</time>
      </trkpt>
      <trkpt lat="43.34794" lon="-1.62228">
        <ele>9</ele>
        <time>2026-08-23T16:55:01.000Z</time>
      </trkpt>
      <trkpt lat="43.34795" lon="-1.62233">
        <ele>9</ele>
        <time>2026-08-23T16:55:02.000Z</time>
      </trkpt>
      <trkpt lat="43.3481" lon="-1.62303">
        <ele>9</ele>
        <time>2026-08-23T16:55:11.000Z</time>
      </trkpt>
      <trkpt lat="43.34811" lon="-1.62318">
        <ele>9</ele>
        <time>2026-08-23T16:55:13.000Z</time>
      </trkpt>
      <trkpt lat="43.34809" lon="-1.62342">
        <ele>9</ele>
        <time>2026-08-23T16:55:16.000Z</time>
      </trkpt>
      <trkpt lat="43.34812" lon="-1.62352">
        <ele>8</ele>
        <time>2026-08-23T16:55:18.000Z</time>
      </trkpt>
      <trkpt lat="43.34815" lon="-1.62357">
        <ele>8</ele>
        <time>2026-08-23T16:55:19.000Z</time>
      </trkpt>
      <trkpt lat="43.34825" lon="-1.62372">
        <ele>8</ele>
        <time>2026-08-23T16:55:21.000Z</time>
      </trkpt>
      <trkpt lat="43.3486" lon="-1.62415">
        <ele>7</ele>
        <time>2026-08-23T16:55:29.000Z</time>
      </trkpt>
      <trkpt lat="43.34874" lon="-1.62438">
        <ele>7</ele>
        <time>2026-08-23T16:55:33.000Z</time>
      </trkpt>
      <trkpt lat="43.34884" lon="-1.62458">
        <ele>7</ele>
        <time>2026-08-23T16:55:37.000Z</time>
      </trkpt>
      <trkpt lat="43.34897" lon="-1.62496">
        <ele>7</ele>
        <time>2026-08-23T16:55:42.000Z</time>
      </trkpt>
      <trkpt lat="43.34901" lon="-1.62505">
        <ele>7</ele>
        <time>2026-08-23T16:55:43.000Z</time>
      </trkpt>
      <trkpt lat="43.34906" lon="-1.62511">
        <ele>7</ele>
        <time>2026-08-23T16:55:44.000Z</time>
      </trkpt>
      <trkpt lat="43.3491" lon="-1.6251">
        <ele>7</ele>
        <time>2026-08-23T16:55:45.000Z</time>
      </trkpt>
      <trkpt lat="43.34913" lon="-1.62511">
        <ele>7</ele>
        <time>2026-08-23T16:55:46.000Z</time>
      </trkpt>
      <trkpt lat="43.34914" lon="-1.62513">
        <ele>7</ele>
        <time>2026-08-23T16:55:46.000Z</time>
      </trkpt>
      <trkpt lat="43.34915" lon="-1.62517">
        <ele>7</ele>
        <time>2026-08-23T16:55:47.000Z</time>
      </trkpt>
      <trkpt lat="43.34919" lon="-1.62517">
        <ele>7</ele>
        <time>2026-08-23T16:55:47.000Z</time>
      </trkpt>
      <trkpt lat="43.34932" lon="-1.62518">
        <ele>7</ele>
        <time>2026-08-23T16:55:50.000Z</time>
      </trkpt>
      <trkpt lat="43.34983" lon="-1.62528">
        <ele>6</ele>
        <time>2026-08-23T16:55:59.000Z</time>
      </trkpt>
      <trkpt lat="43.34987" lon="-1.62534">
        <ele>6</ele>
        <time>2026-08-23T16:56:00.000Z</time>
      </trkpt>
      <trkpt lat="43.34988" lon="-1.62534">
        <ele>6</ele>
        <time>2026-08-23T16:56:00.000Z</time>
      </trkpt>
      <trkpt lat="43.3501" lon="-1.62537">
        <ele>6</ele>
        <time>2026-08-23T16:56:04.000Z</time>
      </trkpt>
      <trkpt lat="43.35014" lon="-1.62541">
        <ele>6</ele>
        <time>2026-08-23T16:56:05.000Z</time>
      </trkpt>
      <trkpt lat="43.35055" lon="-1.62544">
        <ele>6</ele>
        <time>2026-08-23T16:56:12.000Z</time>
      </trkpt>
      <trkpt lat="43.35066" lon="-1.6254">
        <ele>6</ele>
        <time>2026-08-23T16:56:14.000Z</time>
      </trkpt>
      <trkpt lat="43.35088" lon="-1.62535">
        <ele>6</ele>
        <time>2026-08-23T16:56:18.000Z</time>
      </trkpt>
      <trkpt lat="43.35098" lon="-1.62534">
        <ele>8</ele>
        <time>2026-08-23T16:56:20.000Z</time>
      </trkpt>
      <trkpt lat="43.351" lon="-1.62533">
        <ele>8</ele>
        <time>2026-08-23T16:56:20.000Z</time>
      </trkpt>
      <trkpt lat="43.35106" lon="-1.62535">
        <ele>9</ele>
        <time>2026-08-23T16:56:21.000Z</time>
      </trkpt>
      <trkpt lat="43.35118" lon="-1.62546">
        <ele>11</ele>
        <time>2026-08-23T16:56:24.000Z</time>
      </trkpt>
      <trkpt lat="43.35122" lon="-1.62555">
        <ele>11</ele>
        <time>2026-08-23T16:56:25.000Z</time>
      </trkpt>
      <trkpt lat="43.35136" lon="-1.62588">
        <ele>12</ele>
        <time>2026-08-23T16:56:30.000Z</time>
      </trkpt>
      <trkpt lat="43.35139" lon="-1.62595">
        <ele>12</ele>
        <time>2026-08-23T16:56:31.000Z</time>
      </trkpt>
      <trkpt lat="43.35187" lon="-1.62717">
        <ele>8</ele>
        <time>2026-08-23T16:56:49.000Z</time>
      </trkpt>
      <trkpt lat="43.35206" lon="-1.62764">
        <ele>8</ele>
        <time>2026-08-23T16:56:56.000Z</time>
      </trkpt>
      <trkpt lat="43.35234" lon="-1.62847">
        <ele>6</ele>
        <time>2026-08-23T16:57:08.000Z</time>
      </trkpt>
      <trkpt lat="43.35249" lon="-1.62892">
        <ele>6</ele>
        <time>2026-08-23T16:57:15.000Z</time>
      </trkpt>
      <trkpt lat="43.35267" lon="-1.6294">
        <ele>6</ele>
        <time>2026-08-23T16:57:21.000Z</time>
      </trkpt>
      <trkpt lat="43.35286" lon="-1.62976">
        <ele>6</ele>
        <time>2026-08-23T16:57:27.000Z</time>
      </trkpt>
      <trkpt lat="43.35304" lon="-1.63004">
        <ele>6</ele>
        <time>2026-08-23T16:57:32.000Z</time>
      </trkpt>
      <trkpt lat="43.35334" lon="-1.63037">
        <ele>7</ele>
        <time>2026-08-23T16:57:39.000Z</time>
      </trkpt>
      <trkpt lat="43.35348" lon="-1.6305">
        <ele>7</ele>
        <time>2026-08-23T16:57:42.000Z</time>
      </trkpt>
      <trkpt lat="43.35373" lon="-1.6307">
        <ele>7</ele>
        <time>2026-08-23T16:57:47.000Z</time>
      </trkpt>
      <trkpt lat="43.35396" lon="-1.63084">
        <ele>7</ele>
        <time>2026-08-23T16:57:52.000Z</time>
      </trkpt>
      <trkpt lat="43.35414" lon="-1.63092">
        <ele>7</ele>
        <time>2026-08-23T16:57:55.000Z</time>
      </trkpt>
      <trkpt lat="43.35465" lon="-1.63109">
        <ele>6</ele>
        <time>2026-08-23T16:58:04.000Z</time>
      </trkpt>
      <trkpt lat="43.35522" lon="-1.63125">
        <ele>6</ele>
        <time>2026-08-23T16:58:15.000Z</time>
      </trkpt>
      <trkpt lat="43.35581" lon="-1.63145">
        <ele>5</ele>
        <time>2026-08-23T16:58:25.000Z</time>
      </trkpt>
      <trkpt lat="43.3561" lon="-1.63153">
        <ele>5</ele>
        <time>2026-08-23T16:58:31.000Z</time>
      </trkpt>
      <trkpt lat="43.3564" lon="-1.63159">
        <ele>6</ele>
        <time>2026-08-23T16:58:36.000Z</time>
      </trkpt>
      <trkpt lat="43.35644" lon="-1.6316">
        <ele>6</ele>
        <time>2026-08-23T16:58:37.000Z</time>
      </trkpt>
      <trkpt lat="43.35647" lon="-1.63161">
        <ele>6</ele>
        <time>2026-08-23T16:58:37.000Z</time>
      </trkpt>
      <trkpt lat="43.35654" lon="-1.63168">
        <ele>6</ele>
        <time>2026-08-23T16:58:39.000Z</time>
      </trkpt>
      <trkpt lat="43.35658" lon="-1.6317">
        <ele>6</ele>
        <time>2026-08-23T16:58:40.000Z</time>
      </trkpt>
      <trkpt lat="43.35664" lon="-1.6317">
        <ele>6</ele>
        <time>2026-08-23T16:58:41.000Z</time>
      </trkpt>
      <trkpt lat="43.35668" lon="-1.63168">
        <ele>6</ele>
        <time>2026-08-23T16:58:41.000Z</time>
      </trkpt>
      <trkpt lat="43.3567" lon="-1.63168">
        <ele>6</ele>
        <time>2026-08-23T16:58:42.000Z</time>
      </trkpt>
      <trkpt lat="43.35677" lon="-1.6317">
        <ele>6</ele>
        <time>2026-08-23T16:58:43.000Z</time>
      </trkpt>
      <trkpt lat="43.3573" lon="-1.63188">
        <ele>7</ele>
        <time>2026-08-23T16:58:53.000Z</time>
      </trkpt>
      <trkpt lat="43.3575" lon="-1.63197">
        <ele>7</ele>
        <time>2026-08-23T16:58:57.000Z</time>
      </trkpt>
      <trkpt lat="43.35776" lon="-1.63213">
        <ele>8</ele>
        <time>2026-08-23T16:59:02.000Z</time>
      </trkpt>
      <trkpt lat="43.35799" lon="-1.63232">
        <ele>8</ele>
        <time>2026-08-23T16:59:06.000Z</time>
      </trkpt>
      <trkpt lat="43.35856" lon="-1.63286">
        <ele>8</ele>
        <time>2026-08-23T16:59:19.000Z</time>
      </trkpt>
      <trkpt lat="43.35887" lon="-1.63312">
        <ele>9</ele>
        <time>2026-08-23T16:59:25.000Z</time>
      </trkpt>
      <trkpt lat="43.35918" lon="-1.63344">
        <ele>8</ele>
        <time>2026-08-23T16:59:32.000Z</time>
      </trkpt>
      <trkpt lat="43.35931" lon="-1.63359">
        <ele>8</ele>
        <time>2026-08-23T16:59:35.000Z</time>
      </trkpt>
      <trkpt lat="43.35979" lon="-1.63435">
        <ele>8</ele>
        <time>2026-08-23T16:59:48.000Z</time>
      </trkpt>
      <trkpt lat="43.35993" lon="-1.6346">
        <ele>7</ele>
        <time>2026-08-23T16:59:52.000Z</time>
      </trkpt>
      <trkpt lat="43.36013" lon="-1.63509">
        <ele>6</ele>
        <time>2026-08-23T16:59:59.000Z</time>
      </trkpt>
      <trkpt lat="43.36029" lon="-1.63541">
        <ele>5</ele>
        <time>2026-08-23T17:00:04.000Z</time>
      </trkpt>
      <trkpt lat="43.36047" lon="-1.63568">
        <ele>5</ele>
        <time>2026-08-23T17:00:09.000Z</time>
      </trkpt>
      <trkpt lat="43.36066" lon="-1.63588">
        <ele>5</ele>
        <time>2026-08-23T17:00:13.000Z</time>
      </trkpt>
      <trkpt lat="43.36084" lon="-1.63601">
        <ele>5</ele>
        <time>2026-08-23T17:00:17.000Z</time>
      </trkpt>
      <trkpt lat="43.36103" lon="-1.6361">
        <ele>5</ele>
        <time>2026-08-23T17:00:21.000Z</time>
      </trkpt>
      <trkpt lat="43.36201" lon="-1.63651">
        <ele>6</ele>
        <time>2026-08-23T17:00:39.000Z</time>
      </trkpt>
      <trkpt lat="43.36224" lon="-1.6366">
        <ele>6</ele>
        <time>2026-08-23T17:00:43.000Z</time>
      </trkpt>
      <trkpt lat="43.36227" lon="-1.63663">
        <ele>6</ele>
        <time>2026-08-23T17:00:44.000Z</time>
      </trkpt>
      <trkpt lat="43.36232" lon="-1.63665">
        <ele>6</ele>
        <time>2026-08-23T17:00:45.000Z</time>
      </trkpt>
      <trkpt lat="43.36236" lon="-1.63667">
        <ele>6</ele>
        <time>2026-08-23T17:00:45.000Z</time>
      </trkpt>
      <trkpt lat="43.36239" lon="-1.63665">
        <ele>6</ele>
        <time>2026-08-23T17:00:46.000Z</time>
      </trkpt>
      <trkpt lat="43.36273" lon="-1.63677">
        <ele>6</ele>
        <time>2026-08-23T17:00:52.000Z</time>
      </trkpt>
      <trkpt lat="43.36295" lon="-1.63678">
        <ele>6</ele>
        <time>2026-08-23T17:00:56.000Z</time>
      </trkpt>
      <trkpt lat="43.36319" lon="-1.63677">
        <ele>7</ele>
        <time>2026-08-23T17:01:01.000Z</time>
      </trkpt>
      <trkpt lat="43.36347" lon="-1.63673">
        <ele>7</ele>
        <time>2026-08-23T17:01:06.000Z</time>
      </trkpt>
      <trkpt lat="43.3639" lon="-1.63663">
        <ele>7</ele>
        <time>2026-08-23T17:01:13.000Z</time>
      </trkpt>
      <trkpt lat="43.36396" lon="-1.63665">
        <ele>7</ele>
        <time>2026-08-23T17:01:14.000Z</time>
      </trkpt>
      <trkpt lat="43.36402" lon="-1.63663">
        <ele>7</ele>
        <time>2026-08-23T17:01:15.000Z</time>
      </trkpt>
      <trkpt lat="43.36409" lon="-1.63659">
        <ele>7</ele>
        <time>2026-08-23T17:01:17.000Z</time>
      </trkpt>
      <trkpt lat="43.36412" lon="-1.63654">
        <ele>7</ele>
        <time>2026-08-23T17:01:18.000Z</time>
      </trkpt>
      <trkpt lat="43.36483" lon="-1.63629">
        <ele>4</ele>
        <time>2026-08-23T17:01:31.000Z</time>
      </trkpt>
      <trkpt lat="43.36601" lon="-1.63592">
        <ele>6</ele>
        <time>2026-08-23T17:01:52.000Z</time>
      </trkpt>
      <trkpt lat="43.36627" lon="-1.63585">
        <ele>7</ele>
        <time>2026-08-23T17:01:57.000Z</time>
      </trkpt>
      <trkpt lat="43.36648" lon="-1.63582">
        <ele>7</ele>
        <time>2026-08-23T17:02:01.000Z</time>
      </trkpt>
      <trkpt lat="43.36677" lon="-1.63581">
        <ele>8</ele>
        <time>2026-08-23T17:02:06.000Z</time>
      </trkpt>
      <trkpt lat="43.367" lon="-1.63585">
        <ele>8</ele>
        <time>2026-08-23T17:02:10.000Z</time>
      </trkpt>
      <trkpt lat="43.36722" lon="-1.63591">
        <ele>7</ele>
        <time>2026-08-23T17:02:14.000Z</time>
      </trkpt>
      <trkpt lat="43.36742" lon="-1.63597">
        <ele>7</ele>
        <time>2026-08-23T17:02:18.000Z</time>
      </trkpt>
      <trkpt lat="43.36763" lon="-1.63608">
        <ele>6</ele>
        <time>2026-08-23T17:02:22.000Z</time>
      </trkpt>
      <trkpt lat="43.36799" lon="-1.6363">
        <ele>5</ele>
        <time>2026-08-23T17:02:29.000Z</time>
      </trkpt>
      <trkpt lat="43.37042" lon="-1.63791">
        <ele>5</ele>
        <time>2026-08-23T17:03:17.000Z</time>
      </trkpt>
      <trkpt lat="43.37058" lon="-1.63808">
        <ele>5</ele>
        <time>2026-08-23T17:03:20.000Z</time>
      </trkpt>
      <trkpt lat="43.37064" lon="-1.63811">
        <ele>5</ele>
        <time>2026-08-23T17:03:21.000Z</time>
      </trkpt>
      <trkpt lat="43.37067" lon="-1.63812">
        <ele>5</ele>
        <time>2026-08-23T17:03:22.000Z</time>
      </trkpt>
      <trkpt lat="43.3707" lon="-1.63814">
        <ele>5</ele>
        <time>2026-08-23T17:03:23.000Z</time>
      </trkpt>
      <trkpt lat="43.37118" lon="-1.63814">
        <ele>5</ele>
        <time>2026-08-23T17:03:31.000Z</time>
      </trkpt>
      <trkpt lat="43.37405" lon="-1.63795">
        <ele>4</ele>
        <time>2026-08-23T17:04:22.000Z</time>
      </trkpt>
      <trkpt lat="43.37452" lon="-1.63801">
        <ele>4</ele>
        <time>2026-08-23T17:04:31.000Z</time>
      </trkpt>
      <trkpt lat="43.37489" lon="-1.638">
        <ele>4</ele>
        <time>2026-08-23T17:04:37.000Z</time>
      </trkpt>
      <trkpt lat="43.37508" lon="-1.63799">
        <ele>4</ele>
        <time>2026-08-23T17:04:41.000Z</time>
      </trkpt>
      <trkpt lat="43.37512" lon="-1.63803">
        <ele>4</ele>
        <time>2026-08-23T17:04:41.000Z</time>
      </trkpt>
      <trkpt lat="43.37513" lon="-1.63814">
        <ele>4</ele>
        <time>2026-08-23T17:04:43.000Z</time>
      </trkpt>
      <trkpt lat="43.37516" lon="-1.63818">
        <ele>4</ele>
        <time>2026-08-23T17:04:44.000Z</time>
      </trkpt>
      <trkpt lat="43.37523" lon="-1.6382">
        <ele>4</ele>
        <time>2026-08-23T17:04:45.000Z</time>
      </trkpt>
      <trkpt lat="43.3753" lon="-1.6382">
        <ele>4</ele>
        <time>2026-08-23T17:04:46.000Z</time>
      </trkpt>
      <trkpt lat="43.37536" lon="-1.63819">
        <ele>4</ele>
        <time>2026-08-23T17:04:47.000Z</time>
      </trkpt>
      <trkpt lat="43.3755" lon="-1.63805">
        <ele>5</ele>
        <time>2026-08-23T17:04:50.000Z</time>
      </trkpt>
      <trkpt lat="43.37552" lon="-1.63805">
        <ele>5</ele>
        <time>2026-08-23T17:04:51.000Z</time>
      </trkpt>
      <trkpt lat="43.37582" lon="-1.63802">
        <ele>5</ele>
        <time>2026-08-23T17:04:56.000Z</time>
      </trkpt>
      <trkpt lat="43.37601" lon="-1.63802">
        <ele>5</ele>
        <time>2026-08-23T17:04:59.000Z</time>
      </trkpt>
      <trkpt lat="43.37616" lon="-1.63801">
        <ele>5</ele>
        <time>2026-08-23T17:05:02.000Z</time>
      </trkpt>
      <trkpt lat="43.37621" lon="-1.63799">
        <ele>6</ele>
        <time>2026-08-23T17:05:03.000Z</time>
      </trkpt>
      <trkpt lat="43.37632" lon="-1.63787">
        <ele>6</ele>
        <time>2026-08-23T17:05:05.000Z</time>
      </trkpt>
      <trkpt lat="43.37639" lon="-1.63785">
        <ele>6</ele>
        <time>2026-08-23T17:05:07.000Z</time>
      </trkpt>
      <trkpt lat="43.37654" lon="-1.63785">
        <ele>6</ele>
        <time>2026-08-23T17:05:09.000Z</time>
      </trkpt>
      <trkpt lat="43.37692" lon="-1.63782">
        <ele>7</ele>
        <time>2026-08-23T17:05:16.000Z</time>
      </trkpt>
      <trkpt lat="43.37745" lon="-1.63779">
        <ele>8</ele>
        <time>2026-08-23T17:05:26.000Z</time>
      </trkpt>
      <trkpt lat="43.37761" lon="-1.63783">
        <ele>8</ele>
        <time>2026-08-23T17:05:28.000Z</time>
      </trkpt>
      <trkpt lat="43.37769" lon="-1.63788">
        <ele>8</ele>
        <time>2026-08-23T17:05:30.000Z</time>
      </trkpt>
      <trkpt lat="43.3778" lon="-1.63797">
        <ele>8</ele>
        <time>2026-08-23T17:05:32.000Z</time>
      </trkpt>
      <trkpt lat="43.378" lon="-1.63817">
        <ele>8</ele>
        <time>2026-08-23T17:05:37.000Z</time>
      </trkpt>
      <trkpt lat="43.37837" lon="-1.63856">
        <ele>7</ele>
        <time>2026-08-23T17:05:45.000Z</time>
      </trkpt>
      <trkpt lat="43.37904" lon="-1.6392">
        <ele>6</ele>
        <time>2026-08-23T17:06:00.000Z</time>
      </trkpt>
      <trkpt lat="43.37907" lon="-1.63923">
        <ele>6</ele>
        <time>2026-08-23T17:06:00.000Z</time>
      </trkpt>
      <trkpt lat="43.37949" lon="-1.63962">
        <ele>7</ele>
        <time>2026-08-23T17:06:09.000Z</time>
      </trkpt>
      <trkpt lat="43.37992" lon="-1.64003">
        <ele>8</ele>
        <time>2026-08-23T17:06:19.000Z</time>
      </trkpt>
      <trkpt lat="43.38051" lon="-1.6406">
        <ele>9</ele>
        <time>2026-08-23T17:06:31.000Z</time>
      </trkpt>
      <trkpt lat="43.38057" lon="-1.64069">
        <ele>9</ele>
        <time>2026-08-23T17:06:33.000Z</time>
      </trkpt>
      <trkpt lat="43.38064" lon="-1.6408">
        <ele>8</ele>
        <time>2026-08-23T17:06:35.000Z</time>
      </trkpt>
      <trkpt lat="43.38103" lon="-1.64165">
        <ele>7</ele>
        <time>2026-08-23T17:06:48.000Z</time>
      </trkpt>
      <trkpt lat="43.38118" lon="-1.64198">
        <ele>6</ele>
        <time>2026-08-23T17:06:53.000Z</time>
      </trkpt>
      <trkpt lat="43.38127" lon="-1.64211">
        <ele>6</ele>
        <time>2026-08-23T17:06:55.000Z</time>
      </trkpt>
      <trkpt lat="43.38156" lon="-1.64239">
        <ele>5</ele>
        <time>2026-08-23T17:07:01.000Z</time>
      </trkpt>
      <trkpt lat="43.38196" lon="-1.64276">
        <ele>5</ele>
        <time>2026-08-23T17:07:10.000Z</time>
      </trkpt>
      <trkpt lat="43.38223" lon="-1.64305">
        <ele>5</ele>
        <time>2026-08-23T17:07:16.000Z</time>
      </trkpt>
      <trkpt lat="43.3824" lon="-1.64332">
        <ele>5</ele>
        <time>2026-08-23T17:07:21.000Z</time>
      </trkpt>
      <trkpt lat="43.38253" lon="-1.64361">
        <ele>6</ele>
        <time>2026-08-23T17:07:25.000Z</time>
      </trkpt>
      <trkpt lat="43.38261" lon="-1.64385">
        <ele>7</ele>
        <time>2026-08-23T17:07:29.000Z</time>
      </trkpt>
      <trkpt lat="43.38266" lon="-1.64415">
        <ele>8</ele>
        <time>2026-08-23T17:07:33.000Z</time>
      </trkpt>
      <trkpt lat="43.38269" lon="-1.64433">
        <ele>8</ele>
        <time>2026-08-23T17:07:35.000Z</time>
      </trkpt>
      <trkpt lat="43.38273" lon="-1.64487">
        <ele>10</ele>
        <time>2026-08-23T17:07:42.000Z</time>
      </trkpt>
      <trkpt lat="43.38274" lon="-1.64494">
        <ele>10</ele>
        <time>2026-08-23T17:07:43.000Z</time>
      </trkpt>
      <trkpt lat="43.38274" lon="-1.64502">
        <ele>10</ele>
        <time>2026-08-23T17:07:44.000Z</time>
      </trkpt>
      <trkpt lat="43.38274" lon="-1.64505">
        <ele>10</ele>
        <time>2026-08-23T17:07:44.000Z</time>
      </trkpt>
      <trkpt lat="43.38275" lon="-1.64576">
        <ele>8</ele>
        <time>2026-08-23T17:07:54.000Z</time>
      </trkpt>
      <trkpt lat="43.38274" lon="-1.64625">
        <ele>7</ele>
        <time>2026-08-23T17:08:00.000Z</time>
      </trkpt>
      <trkpt lat="43.38268" lon="-1.64684">
        <ele>6</ele>
        <time>2026-08-23T17:08:08.000Z</time>
      </trkpt>
      <trkpt lat="43.38258" lon="-1.64788">
        <ele>8</ele>
        <time>2026-08-23T17:08:21.000Z</time>
      </trkpt>
      <trkpt lat="43.38257" lon="-1.64795">
        <ele>8</ele>
        <time>2026-08-23T17:08:22.000Z</time>
      </trkpt>
      <trkpt lat="43.38256" lon="-1.64805">
        <ele>8</ele>
        <time>2026-08-23T17:08:23.000Z</time>
      </trkpt>
      <trkpt lat="43.3825" lon="-1.64867">
        <ele>9</ele>
        <time>2026-08-23T17:08:31.000Z</time>
      </trkpt>
      <trkpt lat="43.38249" lon="-1.64881">
        <ele>8</ele>
        <time>2026-08-23T17:08:33.000Z</time>
      </trkpt>
      <trkpt lat="43.38248" lon="-1.6489">
        <ele>8</ele>
        <time>2026-08-23T17:08:34.000Z</time>
      </trkpt>
      <trkpt lat="43.38247" lon="-1.64916">
        <ele>8</ele>
        <time>2026-08-23T17:08:38.000Z</time>
      </trkpt>
      <trkpt lat="43.38247" lon="-1.64936">
        <ele>8</ele>
        <time>2026-08-23T17:08:40.000Z</time>
      </trkpt>
      <trkpt lat="43.3825" lon="-1.64957">
        <ele>8</ele>
        <time>2026-08-23T17:08:43.000Z</time>
      </trkpt>
      <trkpt lat="43.38253" lon="-1.64968">
        <ele>8</ele>
        <time>2026-08-23T17:08:45.000Z</time>
      </trkpt>
      <trkpt lat="43.38256" lon="-1.64979">
        <ele>8</ele>
        <time>2026-08-23T17:08:46.000Z</time>
      </trkpt>
      <trkpt lat="43.38264" lon="-1.65001">
        <ele>8</ele>
        <time>2026-08-23T17:08:49.000Z</time>
      </trkpt>
      <trkpt lat="43.38263" lon="-1.65006">
        <ele>8</ele>
        <time>2026-08-23T17:08:50.000Z</time>
      </trkpt>
      <trkpt lat="43.38258" lon="-1.65021">
        <ele>7</ele>
        <time>2026-08-23T17:08:52.000Z</time>
      </trkpt>
      <trkpt lat="43.38257" lon="-1.65024">
        <ele>7</ele>
        <time>2026-08-23T17:08:53.000Z</time>
      </trkpt>
      <trkpt lat="43.3826" lon="-1.6503">
        <ele>7</ele>
        <time>2026-08-23T17:08:54.000Z</time>
      </trkpt>
      <trkpt lat="43.38265" lon="-1.65039">
        <ele>8</ele>
        <time>2026-08-23T17:08:55.000Z</time>
      </trkpt>
      <trkpt lat="43.38277" lon="-1.65042">
        <ele>9</ele>
        <time>2026-08-23T17:08:57.000Z</time>
      </trkpt>
      <trkpt lat="43.38279" lon="-1.65044">
        <ele>9</ele>
        <time>2026-08-23T17:08:58.000Z</time>
      </trkpt>
      <trkpt lat="43.38323" lon="-1.65164">
        <ele>11</ele>
        <time>2026-08-23T17:09:15.000Z</time>
      </trkpt>
      <trkpt lat="43.38324" lon="-1.65174">
        <ele>11</ele>
        <time>2026-08-23T17:09:16.000Z</time>
      </trkpt>
      <trkpt lat="43.38324" lon="-1.65184">
        <ele>11</ele>
        <time>2026-08-23T17:09:18.000Z</time>
      </trkpt>
      <trkpt lat="43.38336" lon="-1.6521">
        <ele>11</ele>
        <time>2026-08-23T17:09:22.000Z</time>
      </trkpt>
      <trkpt lat="43.38347" lon="-1.65232">
        <ele>11</ele>
        <time>2026-08-23T17:09:25.000Z</time>
      </trkpt>
      <trkpt lat="43.38358" lon="-1.65248">
        <ele>12</ele>
        <time>2026-08-23T17:09:28.000Z</time>
      </trkpt>
      <trkpt lat="43.38378" lon="-1.65273">
        <ele>12</ele>
        <time>2026-08-23T17:09:33.000Z</time>
      </trkpt>
      <trkpt lat="43.38382" lon="-1.65278">
        <ele>11</ele>
        <time>2026-08-23T17:09:34.000Z</time>
      </trkpt>
      <trkpt lat="43.38386" lon="-1.65287">
        <ele>11</ele>
        <time>2026-08-23T17:09:35.000Z</time>
      </trkpt>
      <trkpt lat="43.38388" lon="-1.65296">
        <ele>10</ele>
        <time>2026-08-23T17:09:36.000Z</time>
      </trkpt>
      <trkpt lat="43.38389" lon="-1.6531">
        <ele>9</ele>
        <time>2026-08-23T17:09:38.000Z</time>
      </trkpt>
      <trkpt lat="43.38386" lon="-1.65327">
        <ele>7</ele>
        <time>2026-08-23T17:09:40.000Z</time>
      </trkpt>
      <trkpt lat="43.38378" lon="-1.65344">
        <ele>6</ele>
        <time>2026-08-23T17:09:43.000Z</time>
      </trkpt>
      <trkpt lat="43.38368" lon="-1.65365">
        <ele>5</ele>
        <time>2026-08-23T17:09:46.000Z</time>
      </trkpt>
      <trkpt lat="43.38365" lon="-1.65371">
        <ele>5</ele>
        <time>2026-08-23T17:09:47.000Z</time>
      </trkpt>
      <trkpt lat="43.38362" lon="-1.65378">
        <ele>5</ele>
        <time>2026-08-23T17:09:48.000Z</time>
      </trkpt>
      <trkpt lat="43.38344" lon="-1.65418">
        <ele>5</ele>
        <time>2026-08-23T17:09:54.000Z</time>
      </trkpt>
      <trkpt lat="43.38322" lon="-1.65449">
        <ele>4</ele>
        <time>2026-08-23T17:10:00.000Z</time>
      </trkpt>
      <trkpt lat="43.38321" lon="-1.65453">
        <ele>4</ele>
        <time>2026-08-23T17:10:00.000Z</time>
      </trkpt>
      <trkpt lat="43.3832" lon="-1.65458">
        <ele>4</ele>
        <time>2026-08-23T17:10:01.000Z</time>
      </trkpt>
      <trkpt lat="43.38318" lon="-1.65466">
        <ele>4</ele>
        <time>2026-08-23T17:10:02.000Z</time>
      </trkpt>
      <trkpt lat="43.38318" lon="-1.65472">
        <ele>4</ele>
        <time>2026-08-23T17:10:03.000Z</time>
      </trkpt>
      <trkpt lat="43.38338" lon="-1.65499">
        <ele>4</ele>
        <time>2026-08-23T17:10:08.000Z</time>
      </trkpt>
      <trkpt lat="43.38342" lon="-1.65508">
        <ele>4</ele>
        <time>2026-08-23T17:10:09.000Z</time>
      </trkpt>
      <trkpt lat="43.38343" lon="-1.65511">
        <ele>4</ele>
        <time>2026-08-23T17:10:10.000Z</time>
      </trkpt>
      <trkpt lat="43.38344" lon="-1.65515">
        <ele>4</ele>
        <time>2026-08-23T17:10:10.000Z</time>
      </trkpt>
      <trkpt lat="43.38342" lon="-1.65523">
        <ele>4</ele>
        <time>2026-08-23T17:10:11.000Z</time>
      </trkpt>
      <trkpt lat="43.38339" lon="-1.65529">
        <ele>4</ele>
        <time>2026-08-23T17:10:12.000Z</time>
      </trkpt>
      <trkpt lat="43.38311" lon="-1.65566">
        <ele>3</ele>
        <time>2026-08-23T17:10:19.000Z</time>
      </trkpt>
      <trkpt lat="43.38308" lon="-1.6557">
        <ele>3</ele>
        <time>2026-08-23T17:10:20.000Z</time>
      </trkpt>
      <trkpt lat="43.38305" lon="-1.65575">
        <ele>3</ele>
        <time>2026-08-23T17:10:21.000Z</time>
      </trkpt>
      <trkpt lat="43.38302" lon="-1.65579">
        <ele>3</ele>
        <time>2026-08-23T17:10:22.000Z</time>
      </trkpt>
      <trkpt lat="43.38297" lon="-1.65585">
        <ele>3</ele>
        <time>2026-08-23T17:10:23.000Z</time>
      </trkpt>
      <trkpt lat="43.38286" lon="-1.656">
        <ele>3</ele>
        <time>2026-08-23T17:10:25.000Z</time>
      </trkpt>
      <trkpt lat="43.38283" lon="-1.65604">
        <ele>3</ele>
        <time>2026-08-23T17:10:26.000Z</time>
      </trkpt>
      <trkpt lat="43.3828" lon="-1.65609">
        <ele>3</ele>
        <time>2026-08-23T17:10:27.000Z</time>
      </trkpt>
      <trkpt lat="43.38277" lon="-1.65613">
        <ele>3</ele>
        <time>2026-08-23T17:10:28.000Z</time>
      </trkpt>
      <trkpt lat="43.38273" lon="-1.65618">
        <ele>3</ele>
        <time>2026-08-23T17:10:29.000Z</time>
      </trkpt>
      <trkpt lat="43.38265" lon="-1.65623">
        <ele>3</ele>
        <time>2026-08-23T17:10:30.000Z</time>
      </trkpt>
      <trkpt lat="43.38262" lon="-1.65626">
        <ele>4</ele>
        <time>2026-08-23T17:10:31.000Z</time>
      </trkpt>
      <trkpt lat="43.38229" lon="-1.65673">
        <ele>3</ele>
        <time>2026-08-23T17:10:39.000Z</time>
      </trkpt>
      <trkpt lat="43.38227" lon="-1.65677">
        <ele>3</ele>
        <time>2026-08-23T17:10:40.000Z</time>
      </trkpt>
      <trkpt lat="43.38225" lon="-1.65681">
        <ele>3</ele>
        <time>2026-08-23T17:10:41.000Z</time>
      </trkpt>
      <trkpt lat="43.38224" lon="-1.65692">
        <ele>3</ele>
        <time>2026-08-23T17:10:42.000Z</time>
      </trkpt>
      <trkpt lat="43.38224" lon="-1.65701">
        <ele>3</ele>
        <time>2026-08-23T17:10:43.000Z</time>
      </trkpt>
      <trkpt lat="43.38227" lon="-1.65713">
        <ele>3</ele>
        <time>2026-08-23T17:10:45.000Z</time>
      </trkpt>
      <trkpt lat="43.38253" lon="-1.65786">
        <ele>3</ele>
        <time>2026-08-23T17:10:55.000Z</time>
      </trkpt>
      <trkpt lat="43.38272" lon="-1.65836">
        <ele>3</ele>
        <time>2026-08-23T17:11:03.000Z</time>
      </trkpt>
      <trkpt lat="43.38279" lon="-1.65858">
        <ele>3</ele>
        <time>2026-08-23T17:11:06.000Z</time>
      </trkpt>
      <trkpt lat="43.3829" lon="-1.65882">
        <ele>4</ele>
        <time>2026-08-23T17:11:10.000Z</time>
      </trkpt>
      <trkpt lat="43.38297" lon="-1.65898">
        <ele>4</ele>
        <time>2026-08-23T17:11:12.000Z</time>
      </trkpt>
      <trkpt lat="43.38299" lon="-1.65904">
        <ele>4</ele>
        <time>2026-08-23T17:11:13.000Z</time>
      </trkpt>
      <trkpt lat="43.38301" lon="-1.65908">
        <ele>4</ele>
        <time>2026-08-23T17:11:13.000Z</time>
      </trkpt>
      <trkpt lat="43.38303" lon="-1.65912">
        <ele>4</ele>
        <time>2026-08-23T17:11:14.000Z</time>
      </trkpt>
      <trkpt lat="43.38327" lon="-1.6595">
        <ele>6</ele>
        <time>2026-08-23T17:11:21.000Z</time>
      </trkpt>
      <trkpt lat="43.38338" lon="-1.65965">
        <ele>6</ele>
        <time>2026-08-23T17:11:23.000Z</time>
      </trkpt>
    </trkseg>
  </trk>
</gpx>